<?xml version="1.0" encoding="UTF-8" standalone="no" ?>
<gpx xmlns="http://www.topografix.com/GPX/1/1" xmlns:xsi="http://www.w3.org/2001/XMLSchema-instance" xsi:schemaLocation="http://www.topografix.com/GPX/1/1 http://www.topografix.com/GPX/1/1/gpx.xsd" version="1.1" creator="VisuGPX - https://www.visugpx.com">
  <metadata>
    <name>Marche Audax 25 km Limours-Forges-Angervilliers-Rochefort-Bonnelles</name>
    <desc><![CDATA[Marche #Audax

Difficulté : Facile]]></desc>
  </metadata>
  <trk>
    <name><![CDATA[Marche Audax 25 km Limours-Forges-Angervilliers-Rochefort-Bonnelles_1]]></name>
    <extensions>
      <line xmlns="http://www.topografix.com/GPX/gpx_style/0/2">
        <color>0000FF</color>
        <width>4</width>
      </line>
    </extensions>
    <trkseg>
      <trkpt lat="48.64173" lon="2.07168">
        <ele>164.8</ele>
        <time>2025-03-19T16:33:58.564Z</time>
      </trkpt>
      <trkpt lat="48.64171" lon="2.07174">
        <ele>164.8</ele>
        <time>2025-03-19T16:34:01.665Z</time>
      </trkpt>
      <trkpt lat="48.64169" lon="2.07181">
        <ele>164.9</ele>
        <time>2025-03-19T16:34:04.766Z</time>
      </trkpt>
      <trkpt lat="48.64166" lon="2.07187">
        <ele>165</ele>
        <time>2025-03-19T16:34:07.867Z</time>
      </trkpt>
      <trkpt lat="48.64164" lon="2.07194">
        <ele>165.1</ele>
        <time>2025-03-19T16:34:10.968Z</time>
      </trkpt>
      <trkpt lat="48.64162" lon="2.072">
        <ele>165</ele>
        <time>2025-03-19T16:34:14.069Z</time>
      </trkpt>
      <trkpt lat="48.6416" lon="2.07207">
        <ele>164.9</ele>
        <time>2025-03-19T16:34:17.170Z</time>
      </trkpt>
      <trkpt lat="48.64158" lon="2.07213">
        <ele>164.9</ele>
        <time>2025-03-19T16:34:20.271Z</time>
      </trkpt>
      <trkpt lat="48.64156" lon="2.07219">
        <ele>164.9</ele>
        <time>2025-03-19T16:34:23.372Z</time>
      </trkpt>
      <trkpt lat="48.64154" lon="2.07226">
        <ele>164.9</ele>
        <time>2025-03-19T16:34:26.473Z</time>
      </trkpt>
      <trkpt lat="48.64152" lon="2.07232">
        <ele>164.9</ele>
        <time>2025-03-19T16:34:29.574Z</time>
      </trkpt>
      <trkpt lat="48.64149" lon="2.07239">
        <ele>164.9</ele>
        <time>2025-03-19T16:34:32.676Z</time>
      </trkpt>
      <trkpt lat="48.64147" lon="2.07245">
        <ele>164.8</ele>
        <time>2025-03-19T16:34:35.778Z</time>
      </trkpt>
      <trkpt lat="48.64145" lon="2.07252">
        <ele>164.8</ele>
        <time>2025-03-19T16:34:38.880Z</time>
      </trkpt>
      <trkpt lat="48.64143" lon="2.07258">
        <ele>164.9</ele>
        <time>2025-03-19T16:34:41.983Z</time>
      </trkpt>
      <trkpt lat="48.64141" lon="2.07264">
        <ele>164.9</ele>
        <time>2025-03-19T16:34:45.122Z</time>
      </trkpt>
      <trkpt lat="48.64139" lon="2.07271">
        <ele>165</ele>
        <time>2025-03-19T16:34:48.261Z</time>
      </trkpt>
      <trkpt lat="48.64137" lon="2.07277">
        <ele>165.1</ele>
        <time>2025-03-19T16:34:51.400Z</time>
      </trkpt>
      <trkpt lat="48.64135" lon="2.07284">
        <ele>165.2</ele>
        <time>2025-03-19T16:34:54.539Z</time>
      </trkpt>
      <trkpt lat="48.64132" lon="2.0729">
        <ele>165.2</ele>
        <time>2025-03-19T16:34:57.678Z</time>
      </trkpt>
      <trkpt lat="48.6413" lon="2.07297">
        <ele>165.3</ele>
        <time>2025-03-19T16:35:00.817Z</time>
      </trkpt>
      <trkpt lat="48.64128" lon="2.07303">
        <ele>165.4</ele>
        <time>2025-03-19T16:35:03.956Z</time>
      </trkpt>
      <trkpt lat="48.64126" lon="2.0731">
        <ele>165.3</ele>
        <time>2025-03-19T16:35:07.095Z</time>
      </trkpt>
      <trkpt lat="48.64124" lon="2.07316">
        <ele>165.2</ele>
        <time>2025-03-19T16:35:10.234Z</time>
      </trkpt>
      <trkpt lat="48.64122" lon="2.07322">
        <ele>165</ele>
        <time>2025-03-19T16:35:13.373Z</time>
      </trkpt>
      <trkpt lat="48.6412" lon="2.07329">
        <ele>164.9</ele>
        <time>2025-03-19T16:35:16.512Z</time>
      </trkpt>
      <trkpt lat="48.64118" lon="2.07335">
        <ele>164.8</ele>
        <time>2025-03-19T16:35:19.651Z</time>
      </trkpt>
      <trkpt lat="48.64115" lon="2.07342">
        <ele>164.8</ele>
        <time>2025-03-19T16:35:22.790Z</time>
      </trkpt>
      <trkpt lat="48.64113" lon="2.07348">
        <ele>164.9</ele>
        <time>2025-03-19T16:35:25.930Z</time>
      </trkpt>
      <trkpt lat="48.64111" lon="2.07355">
        <ele>165</ele>
        <time>2025-03-19T16:35:29.070Z</time>
      </trkpt>
      <trkpt lat="48.64109" lon="2.07361">
        <ele>165.1</ele>
        <time>2025-03-19T16:35:32.211Z</time>
      </trkpt>
      <trkpt lat="48.64112" lon="2.07363">
        <ele>164.9</ele>
        <time>2025-03-19T16:35:34.089Z</time>
      </trkpt>
      <trkpt lat="48.64117" lon="2.07366">
        <ele>164.6</ele>
        <time>2025-03-19T16:35:37.188Z</time>
      </trkpt>
      <trkpt lat="48.64122" lon="2.07369">
        <ele>164.3</ele>
        <time>2025-03-19T16:35:40.287Z</time>
      </trkpt>
      <trkpt lat="48.64127" lon="2.07372">
        <ele>164</ele>
        <time>2025-03-19T16:35:43.387Z</time>
      </trkpt>
      <trkpt lat="48.64132" lon="2.07376">
        <ele>163.7</ele>
        <time>2025-03-19T16:35:46.487Z</time>
      </trkpt>
      <trkpt lat="48.64137" lon="2.07379">
        <ele>163.4</ele>
        <time>2025-03-19T16:35:49.587Z</time>
      </trkpt>
      <trkpt lat="48.64142" lon="2.07382">
        <ele>163.1</ele>
        <time>2025-03-19T16:35:52.687Z</time>
      </trkpt>
      <trkpt lat="48.64147" lon="2.07385">
        <ele>162.8</ele>
        <time>2025-03-19T16:35:55.787Z</time>
      </trkpt>
      <trkpt lat="48.64152" lon="2.07388">
        <ele>162.5</ele>
        <time>2025-03-19T16:35:58.887Z</time>
      </trkpt>
      <trkpt lat="48.6416" lon="2.07393">
        <ele>162.1</ele>
        <time>2025-03-19T16:36:03.913Z</time>
      </trkpt>
      <trkpt lat="48.64168" lon="2.07398">
        <ele>161.6</ele>
        <time>2025-03-19T16:36:08.939Z</time>
      </trkpt>
      <trkpt lat="48.64176" lon="2.07403">
        <ele>160.8</ele>
        <time>2025-03-19T16:36:13.965Z</time>
      </trkpt>
      <trkpt lat="48.64185" lon="2.07408">
        <ele>160</ele>
        <time>2025-03-19T16:36:18.991Z</time>
      </trkpt>
      <trkpt lat="48.64193" lon="2.07413">
        <ele>159.3</ele>
        <time>2025-03-19T16:36:24.017Z</time>
      </trkpt>
      <trkpt lat="48.64201" lon="2.07418">
        <ele>158.5</ele>
        <time>2025-03-19T16:36:29.043Z</time>
      </trkpt>
      <trkpt lat="48.64209" lon="2.07423">
        <ele>158</ele>
        <time>2025-03-19T16:36:34.069Z</time>
      </trkpt>
      <trkpt lat="48.64217" lon="2.07428">
        <ele>157.4</ele>
        <time>2025-03-19T16:36:39.095Z</time>
      </trkpt>
      <trkpt lat="48.64222" lon="2.07431">
        <ele>157</ele>
        <time>2025-03-19T16:36:42.402Z</time>
      </trkpt>
      <trkpt lat="48.64228" lon="2.07434">
        <ele>156.7</ele>
        <time>2025-03-19T16:36:45.710Z</time>
      </trkpt>
      <trkpt lat="48.64233" lon="2.07438">
        <ele>156.3</ele>
        <time>2025-03-19T16:36:49.018Z</time>
      </trkpt>
      <trkpt lat="48.64239" lon="2.07441">
        <ele>155.9</ele>
        <time>2025-03-19T16:36:52.326Z</time>
      </trkpt>
      <trkpt lat="48.64244" lon="2.07444">
        <ele>155.5</ele>
        <time>2025-03-19T16:36:55.634Z</time>
      </trkpt>
      <trkpt lat="48.64249" lon="2.07447">
        <ele>155</ele>
        <time>2025-03-19T16:36:58.942Z</time>
      </trkpt>
      <trkpt lat="48.64255" lon="2.0745">
        <ele>154.5</ele>
        <time>2025-03-19T16:37:02.250Z</time>
      </trkpt>
      <trkpt lat="48.6426" lon="2.07454">
        <ele>154</ele>
        <time>2025-03-19T16:37:05.558Z</time>
      </trkpt>
      <trkpt lat="48.64265" lon="2.07457">
        <ele>153.4</ele>
        <time>2025-03-19T16:37:08.866Z</time>
      </trkpt>
      <trkpt lat="48.64271" lon="2.0746">
        <ele>152.9</ele>
        <time>2025-03-19T16:37:12.174Z</time>
      </trkpt>
      <trkpt lat="48.64276" lon="2.07463">
        <ele>152.4</ele>
        <time>2025-03-19T16:37:15.482Z</time>
      </trkpt>
      <trkpt lat="48.64282" lon="2.07466">
        <ele>151.9</ele>
        <time>2025-03-19T16:37:18.790Z</time>
      </trkpt>
      <trkpt lat="48.64287" lon="2.07469">
        <ele>151.4</ele>
        <time>2025-03-19T16:37:22.098Z</time>
      </trkpt>
      <trkpt lat="48.64292" lon="2.07473">
        <ele>150.9</ele>
        <time>2025-03-19T16:37:25.406Z</time>
      </trkpt>
      <trkpt lat="48.64298" lon="2.07476">
        <ele>150.4</ele>
        <time>2025-03-19T16:37:28.714Z</time>
      </trkpt>
      <trkpt lat="48.64303" lon="2.07479">
        <ele>149.9</ele>
        <time>2025-03-19T16:37:32.022Z</time>
      </trkpt>
      <trkpt lat="48.64309" lon="2.07484">
        <ele>149.3</ele>
        <time>2025-03-19T16:37:35.993Z</time>
      </trkpt>
      <trkpt lat="48.64315" lon="2.0749">
        <ele>148.5</ele>
        <time>2025-03-19T16:37:39.964Z</time>
      </trkpt>
      <trkpt lat="48.64321" lon="2.07495">
        <ele>147.6</ele>
        <time>2025-03-19T16:37:43.935Z</time>
      </trkpt>
      <trkpt lat="48.64327" lon="2.075">
        <ele>146.7</ele>
        <time>2025-03-19T16:37:47.907Z</time>
      </trkpt>
      <trkpt lat="48.64332" lon="2.07504">
        <ele>146.1</ele>
        <time>2025-03-19T16:37:50.850Z</time>
      </trkpt>
      <trkpt lat="48.64336" lon="2.07508">
        <ele>145.5</ele>
        <time>2025-03-19T16:37:53.793Z</time>
      </trkpt>
      <trkpt lat="48.64341" lon="2.07511">
        <ele>145.1</ele>
        <time>2025-03-19T16:37:56.736Z</time>
      </trkpt>
      <trkpt lat="48.64345" lon="2.07515">
        <ele>144.6</ele>
        <time>2025-03-19T16:37:59.680Z</time>
      </trkpt>
      <trkpt lat="48.6435" lon="2.07519">
        <ele>144.2</ele>
        <time>2025-03-19T16:38:02.624Z</time>
      </trkpt>
      <trkpt lat="48.64354" lon="2.07523">
        <ele>143.7</ele>
        <time>2025-03-19T16:38:05.568Z</time>
      </trkpt>
      <trkpt lat="48.64359" lon="2.07526">
        <ele>143.2</ele>
        <time>2025-03-19T16:38:08.512Z</time>
      </trkpt>
      <trkpt lat="48.64363" lon="2.0753">
        <ele>142.9</ele>
        <time>2025-03-19T16:38:11.456Z</time>
      </trkpt>
      <trkpt lat="48.6437" lon="2.07539">
        <ele>142.3</ele>
        <time>2025-03-19T16:38:16.378Z</time>
      </trkpt>
      <trkpt lat="48.64376" lon="2.07547">
        <ele>141.8</ele>
        <time>2025-03-19T16:38:21.301Z</time>
      </trkpt>
      <trkpt lat="48.64378" lon="2.07555">
        <ele>141.4</ele>
        <time>2025-03-19T16:38:24.320Z</time>
      </trkpt>
      <trkpt lat="48.64379" lon="2.07562">
        <ele>141.4</ele>
        <time>2025-03-19T16:38:27.339Z</time>
      </trkpt>
      <trkpt lat="48.64378" lon="2.0757">
        <ele>141.4</ele>
        <time>2025-03-19T16:38:30.862Z</time>
      </trkpt>
      <trkpt lat="48.64382" lon="2.0758">
        <ele>141.2</ele>
        <time>2025-03-19T16:38:35.538Z</time>
      </trkpt>
      <trkpt lat="48.64384" lon="2.07589">
        <ele>141</ele>
        <time>2025-03-19T16:38:39.091Z</time>
      </trkpt>
      <trkpt lat="48.64385" lon="2.07598">
        <ele>140.7</ele>
        <time>2025-03-19T16:38:42.645Z</time>
      </trkpt>
      <trkpt lat="48.64382" lon="2.07597">
        <ele>140.9</ele>
        <time>2025-03-19T16:38:45.124Z</time>
      </trkpt>
      <trkpt lat="48.64382" lon="2.07605">
        <ele>140.7</ele>
        <time>2025-03-19T16:38:48.153Z</time>
      </trkpt>
      <trkpt lat="48.64382" lon="2.07613">
        <ele>140.4</ele>
        <time>2025-03-19T16:38:51.182Z</time>
      </trkpt>
      <trkpt lat="48.64381" lon="2.07623">
        <ele>140.2</ele>
        <time>2025-03-19T16:38:55.336Z</time>
      </trkpt>
      <trkpt lat="48.64379" lon="2.07633">
        <ele>139.9</ele>
        <time>2025-03-19T16:38:59.490Z</time>
      </trkpt>
      <trkpt lat="48.64378" lon="2.07643">
        <ele>139.8</ele>
        <time>2025-03-19T16:39:03.644Z</time>
      </trkpt>
      <trkpt lat="48.64377" lon="2.07653">
        <ele>139.9</ele>
        <time>2025-03-19T16:39:07.798Z</time>
      </trkpt>
      <trkpt lat="48.64375" lon="2.07663">
        <ele>140</ele>
        <time>2025-03-19T16:39:11.952Z</time>
      </trkpt>
      <trkpt lat="48.64374" lon="2.07673">
        <ele>139.9</ele>
        <time>2025-03-19T16:39:16.106Z</time>
      </trkpt>
      <trkpt lat="48.64372" lon="2.07683">
        <ele>139.6</ele>
        <time>2025-03-19T16:39:20.260Z</time>
      </trkpt>
      <trkpt lat="48.64371" lon="2.07693">
        <ele>139.3</ele>
        <time>2025-03-19T16:39:24.416Z</time>
      </trkpt>
      <trkpt lat="48.6437" lon="2.07704">
        <ele>139.1</ele>
        <time>2025-03-19T16:39:28.714Z</time>
      </trkpt>
      <trkpt lat="48.64369" lon="2.07715">
        <ele>138.9</ele>
        <time>2025-03-19T16:39:33.012Z</time>
      </trkpt>
      <trkpt lat="48.64367" lon="2.07725">
        <ele>138.7</ele>
        <time>2025-03-19T16:39:37.310Z</time>
      </trkpt>
      <trkpt lat="48.64366" lon="2.07736">
        <ele>138.4</ele>
        <time>2025-03-19T16:39:41.610Z</time>
      </trkpt>
      <trkpt lat="48.64365" lon="2.07749">
        <ele>138</ele>
        <time>2025-03-19T16:39:47.292Z</time>
      </trkpt>
      <trkpt lat="48.64363" lon="2.07762">
        <ele>138</ele>
        <time>2025-03-19T16:39:52.974Z</time>
      </trkpt>
      <trkpt lat="48.64362" lon="2.07775">
        <ele>138</ele>
        <time>2025-03-19T16:39:58.656Z</time>
      </trkpt>
      <trkpt lat="48.6436" lon="2.07788">
        <ele>138.1</ele>
        <time>2025-03-19T16:40:04.338Z</time>
      </trkpt>
      <trkpt lat="48.64359" lon="2.078">
        <ele>138.2</ele>
        <time>2025-03-19T16:40:10.020Z</time>
      </trkpt>
      <trkpt lat="48.64357" lon="2.07813">
        <ele>138.3</ele>
        <time>2025-03-19T16:40:15.702Z</time>
      </trkpt>
      <trkpt lat="48.64356" lon="2.07826">
        <ele>138.4</ele>
        <time>2025-03-19T16:40:21.384Z</time>
      </trkpt>
      <trkpt lat="48.64354" lon="2.07839">
        <ele>138.5</ele>
        <time>2025-03-19T16:40:27.068Z</time>
      </trkpt>
      <trkpt lat="48.64354" lon="2.07852">
        <ele>138.5</ele>
        <time>2025-03-19T16:40:32.476Z</time>
      </trkpt>
      <trkpt lat="48.64354" lon="2.07864">
        <ele>138.5</ele>
        <time>2025-03-19T16:40:37.885Z</time>
      </trkpt>
      <trkpt lat="48.64352" lon="2.07874">
        <ele>138.5</ele>
        <time>2025-03-19T16:40:42.004Z</time>
      </trkpt>
      <trkpt lat="48.64351" lon="2.07883">
        <ele>138.5</ele>
        <time>2025-03-19T16:40:46.124Z</time>
      </trkpt>
      <trkpt lat="48.64349" lon="2.07893">
        <ele>138.4</ele>
        <time>2025-03-19T16:40:50.244Z</time>
      </trkpt>
      <trkpt lat="48.64347" lon="2.07902">
        <ele>138.5</ele>
        <time>2025-03-19T16:40:54.364Z</time>
      </trkpt>
      <trkpt lat="48.64345" lon="2.07912">
        <ele>138.6</ele>
        <time>2025-03-19T16:40:58.484Z</time>
      </trkpt>
      <trkpt lat="48.64344" lon="2.07921">
        <ele>138.5</ele>
        <time>2025-03-19T16:41:02.604Z</time>
      </trkpt>
      <trkpt lat="48.64342" lon="2.07931">
        <ele>138.2</ele>
        <time>2025-03-19T16:41:06.724Z</time>
      </trkpt>
      <trkpt lat="48.6434" lon="2.0794">
        <ele>137.9</ele>
        <time>2025-03-19T16:41:10.845Z</time>
      </trkpt>
      <trkpt lat="48.64339" lon="2.07952">
        <ele>137.8</ele>
        <time>2025-03-19T16:41:16.363Z</time>
      </trkpt>
      <trkpt lat="48.64338" lon="2.07965">
        <ele>137.9</ele>
        <time>2025-03-19T16:41:21.882Z</time>
      </trkpt>
      <trkpt lat="48.64336" lon="2.07977">
        <ele>137.9</ele>
        <time>2025-03-19T16:41:27.401Z</time>
      </trkpt>
      <trkpt lat="48.64335" lon="2.0799">
        <ele>137.9</ele>
        <time>2025-03-19T16:41:32.920Z</time>
      </trkpt>
      <trkpt lat="48.64334" lon="2.08002">
        <ele>138</ele>
        <time>2025-03-19T16:41:38.439Z</time>
      </trkpt>
      <trkpt lat="48.64333" lon="2.08014">
        <ele>138.1</ele>
        <time>2025-03-19T16:41:43.958Z</time>
      </trkpt>
      <trkpt lat="48.64331" lon="2.08027">
        <ele>138.2</ele>
        <time>2025-03-19T16:41:49.477Z</time>
      </trkpt>
      <trkpt lat="48.6433" lon="2.08039">
        <ele>138.3</ele>
        <time>2025-03-19T16:41:54.997Z</time>
      </trkpt>
      <trkpt lat="48.64328" lon="2.08047">
        <ele>138.4</ele>
        <time>2025-03-19T16:41:58.489Z</time>
      </trkpt>
      <trkpt lat="48.64327" lon="2.08054">
        <ele>138.5</ele>
        <time>2025-03-19T16:42:01.981Z</time>
      </trkpt>
      <trkpt lat="48.64325" lon="2.08062">
        <ele>138.5</ele>
        <time>2025-03-19T16:42:05.473Z</time>
      </trkpt>
      <trkpt lat="48.64323" lon="2.08069">
        <ele>138.4</ele>
        <time>2025-03-19T16:42:08.967Z</time>
      </trkpt>
      <trkpt lat="48.64322" lon="2.0808">
        <ele>138.3</ele>
        <time>2025-03-19T16:42:13.113Z</time>
      </trkpt>
      <trkpt lat="48.64322" lon="2.0809">
        <ele>138.1</ele>
        <time>2025-03-19T16:42:17.259Z</time>
      </trkpt>
      <trkpt lat="48.64321" lon="2.08101">
        <ele>137.8</ele>
        <time>2025-03-19T16:42:21.405Z</time>
      </trkpt>
      <trkpt lat="48.6432" lon="2.08111">
        <ele>137.5</ele>
        <time>2025-03-19T16:42:25.552Z</time>
      </trkpt>
      <trkpt lat="48.64317" lon="2.08123">
        <ele>137.4</ele>
        <time>2025-03-19T16:42:30.802Z</time>
      </trkpt>
      <trkpt lat="48.64314" lon="2.08134">
        <ele>137.4</ele>
        <time>2025-03-19T16:42:36.053Z</time>
      </trkpt>
      <trkpt lat="48.64313" lon="2.08141">
        <ele>137.5</ele>
        <time>2025-03-19T16:42:39.031Z</time>
      </trkpt>
      <trkpt lat="48.64311" lon="2.08147">
        <ele>137.4</ele>
        <time>2025-03-19T16:42:42.011Z</time>
      </trkpt>
      <trkpt lat="48.6431" lon="2.08154">
        <ele>137.2</ele>
        <time>2025-03-19T16:42:44.816Z</time>
      </trkpt>
      <trkpt lat="48.6431" lon="2.08162">
        <ele>137</ele>
        <time>2025-03-19T16:42:47.621Z</time>
      </trkpt>
      <trkpt lat="48.64309" lon="2.08169">
        <ele>136.8</ele>
        <time>2025-03-19T16:42:50.426Z</time>
      </trkpt>
      <trkpt lat="48.64308" lon="2.08176">
        <ele>136.6</ele>
        <time>2025-03-19T16:42:53.233Z</time>
      </trkpt>
      <trkpt lat="48.64307" lon="2.08188">
        <ele>136.2</ele>
        <time>2025-03-19T16:42:58.263Z</time>
      </trkpt>
      <trkpt lat="48.64305" lon="2.082">
        <ele>136.1</ele>
        <time>2025-03-19T16:43:03.293Z</time>
      </trkpt>
      <trkpt lat="48.64304" lon="2.08211">
        <ele>136.2</ele>
        <time>2025-03-19T16:43:08.323Z</time>
      </trkpt>
      <trkpt lat="48.64302" lon="2.08223">
        <ele>136.3</ele>
        <time>2025-03-19T16:43:13.354Z</time>
      </trkpt>
      <trkpt lat="48.64301" lon="2.08235">
        <ele>136.3</ele>
        <time>2025-03-19T16:43:18.487Z</time>
      </trkpt>
      <trkpt lat="48.643" lon="2.08247">
        <ele>136.2</ele>
        <time>2025-03-19T16:43:23.622Z</time>
      </trkpt>
      <trkpt lat="48.643" lon="2.0826">
        <ele>136.1</ele>
        <time>2025-03-19T16:43:29.060Z</time>
      </trkpt>
      <trkpt lat="48.64299" lon="2.08273">
        <ele>136</ele>
        <time>2025-03-19T16:43:34.499Z</time>
      </trkpt>
      <trkpt lat="48.64298" lon="2.08281">
        <ele>135.9</ele>
        <time>2025-03-19T16:43:37.885Z</time>
      </trkpt>
      <trkpt lat="48.64297" lon="2.08289">
        <ele>135.7</ele>
        <time>2025-03-19T16:43:41.271Z</time>
      </trkpt>
      <trkpt lat="48.64295" lon="2.08297">
        <ele>135.6</ele>
        <time>2025-03-19T16:43:44.657Z</time>
      </trkpt>
      <trkpt lat="48.64294" lon="2.08305">
        <ele>135.4</ele>
        <time>2025-03-19T16:43:48.043Z</time>
      </trkpt>
      <trkpt lat="48.64293" lon="2.08313">
        <ele>135.4</ele>
        <time>2025-03-19T16:43:51.429Z</time>
      </trkpt>
      <trkpt lat="48.64292" lon="2.08321">
        <ele>135.5</ele>
        <time>2025-03-19T16:43:54.815Z</time>
      </trkpt>
      <trkpt lat="48.64291" lon="2.08329">
        <ele>135.5</ele>
        <time>2025-03-19T16:43:58.202Z</time>
      </trkpt>
      <trkpt lat="48.6429" lon="2.08337">
        <ele>135.5</ele>
        <time>2025-03-19T16:44:01.589Z</time>
      </trkpt>
      <trkpt lat="48.64288" lon="2.08344">
        <ele>135.4</ele>
        <time>2025-03-19T16:44:04.976Z</time>
      </trkpt>
      <trkpt lat="48.64287" lon="2.08352">
        <ele>135.2</ele>
        <time>2025-03-19T16:44:08.363Z</time>
      </trkpt>
      <trkpt lat="48.64286" lon="2.0836">
        <ele>135</ele>
        <time>2025-03-19T16:44:11.750Z</time>
      </trkpt>
      <trkpt lat="48.64285" lon="2.08368">
        <ele>134.9</ele>
        <time>2025-03-19T16:44:15.137Z</time>
      </trkpt>
      <trkpt lat="48.64284" lon="2.08376">
        <ele>134.9</ele>
        <time>2025-03-19T16:44:18.524Z</time>
      </trkpt>
      <trkpt lat="48.64282" lon="2.08384">
        <ele>134.9</ele>
        <time>2025-03-19T16:44:21.911Z</time>
      </trkpt>
      <trkpt lat="48.64281" lon="2.08392">
        <ele>134.9</ele>
        <time>2025-03-19T16:44:25.298Z</time>
      </trkpt>
      <trkpt lat="48.6428" lon="2.084">
        <ele>134.9</ele>
        <time>2025-03-19T16:44:28.686Z</time>
      </trkpt>
      <trkpt lat="48.64278" lon="2.08412">
        <ele>135</ele>
        <time>2025-03-19T16:44:33.712Z</time>
      </trkpt>
      <trkpt lat="48.64277" lon="2.08424">
        <ele>134.8</ele>
        <time>2025-03-19T16:44:38.738Z</time>
      </trkpt>
      <trkpt lat="48.64275" lon="2.08436">
        <ele>134.5</ele>
        <time>2025-03-19T16:44:43.765Z</time>
      </trkpt>
      <trkpt lat="48.64273" lon="2.08448">
        <ele>134.3</ele>
        <time>2025-03-19T16:44:48.793Z</time>
      </trkpt>
      <trkpt lat="48.64273" lon="2.08452">
        <ele>134.3</ele>
        <time>2025-03-19T16:44:50.524Z</time>
      </trkpt>
      <trkpt lat="48.64272" lon="2.08463">
        <ele>134.4</ele>
        <time>2025-03-19T16:44:55.536Z</time>
      </trkpt>
      <trkpt lat="48.64271" lon="2.08476">
        <ele>134.5</ele>
        <time>2025-03-19T16:45:01.296Z</time>
      </trkpt>
      <trkpt lat="48.64269" lon="2.08489">
        <ele>134.6</ele>
        <time>2025-03-19T16:45:07.057Z</time>
      </trkpt>
      <trkpt lat="48.64268" lon="2.08502">
        <ele>134.7</ele>
        <time>2025-03-19T16:45:12.818Z</time>
      </trkpt>
      <trkpt lat="48.64266" lon="2.08515">
        <ele>134.5</ele>
        <time>2025-03-19T16:45:18.580Z</time>
      </trkpt>
      <trkpt lat="48.64264" lon="2.08525">
        <ele>134.5</ele>
        <time>2025-03-19T16:45:22.909Z</time>
      </trkpt>
      <trkpt lat="48.64263" lon="2.08535">
        <ele>134.5</ele>
        <time>2025-03-19T16:45:27.239Z</time>
      </trkpt>
      <trkpt lat="48.64261" lon="2.08546">
        <ele>134.4</ele>
        <time>2025-03-19T16:45:31.569Z</time>
      </trkpt>
      <trkpt lat="48.6426" lon="2.08556">
        <ele>134.3</ele>
        <time>2025-03-19T16:45:35.899Z</time>
      </trkpt>
      <trkpt lat="48.64258" lon="2.08566">
        <ele>134.3</ele>
        <time>2025-03-19T16:45:40.229Z</time>
      </trkpt>
      <trkpt lat="48.64257" lon="2.08576">
        <ele>134.3</ele>
        <time>2025-03-19T16:45:44.559Z</time>
      </trkpt>
      <trkpt lat="48.64255" lon="2.08586">
        <ele>134.3</ele>
        <time>2025-03-19T16:45:48.889Z</time>
      </trkpt>
      <trkpt lat="48.64254" lon="2.08597">
        <ele>134.1</ele>
        <time>2025-03-19T16:45:53.219Z</time>
      </trkpt>
      <trkpt lat="48.64252" lon="2.08607">
        <ele>134</ele>
        <time>2025-03-19T16:45:57.549Z</time>
      </trkpt>
      <trkpt lat="48.6425" lon="2.08617">
        <ele>133.7</ele>
        <time>2025-03-19T16:46:01.879Z</time>
      </trkpt>
      <trkpt lat="48.64249" lon="2.08627">
        <ele>133.6</ele>
        <time>2025-03-19T16:46:06.209Z</time>
      </trkpt>
      <trkpt lat="48.64247" lon="2.08637">
        <ele>133.4</ele>
        <time>2025-03-19T16:46:10.539Z</time>
      </trkpt>
      <trkpt lat="48.64246" lon="2.08647">
        <ele>133.2</ele>
        <time>2025-03-19T16:46:14.869Z</time>
      </trkpt>
      <trkpt lat="48.64244" lon="2.08658">
        <ele>133.1</ele>
        <time>2025-03-19T16:46:19.199Z</time>
      </trkpt>
      <trkpt lat="48.64243" lon="2.08668">
        <ele>133</ele>
        <time>2025-03-19T16:46:23.529Z</time>
      </trkpt>
      <trkpt lat="48.64241" lon="2.08678">
        <ele>132.9</ele>
        <time>2025-03-19T16:46:27.860Z</time>
      </trkpt>
      <trkpt lat="48.6424" lon="2.08687">
        <ele>132.7</ele>
        <time>2025-03-19T16:46:31.439Z</time>
      </trkpt>
      <trkpt lat="48.64239" lon="2.08697">
        <ele>132.3</ele>
        <time>2025-03-19T16:46:35.019Z</time>
      </trkpt>
      <trkpt lat="48.64237" lon="2.08706">
        <ele>132.1</ele>
        <time>2025-03-19T16:46:38.599Z</time>
      </trkpt>
      <trkpt lat="48.64236" lon="2.08715">
        <ele>131.8</ele>
        <time>2025-03-19T16:46:42.180Z</time>
      </trkpt>
      <trkpt lat="48.64234" lon="2.08722">
        <ele>131.6</ele>
        <time>2025-03-19T16:46:45.195Z</time>
      </trkpt>
      <trkpt lat="48.64232" lon="2.08729">
        <ele>131.5</ele>
        <time>2025-03-19T16:46:48.212Z</time>
      </trkpt>
      <trkpt lat="48.64229" lon="2.08739">
        <ele>131.3</ele>
        <time>2025-03-19T16:46:52.495Z</time>
      </trkpt>
      <trkpt lat="48.64226" lon="2.08749">
        <ele>131</ele>
        <time>2025-03-19T16:46:56.779Z</time>
      </trkpt>
      <trkpt lat="48.64224" lon="2.08762">
        <ele>131</ele>
        <time>2025-03-19T16:47:02.555Z</time>
      </trkpt>
      <trkpt lat="48.64222" lon="2.08775">
        <ele>131</ele>
        <time>2025-03-19T16:47:07.760Z</time>
      </trkpt>
      <trkpt lat="48.6422" lon="2.08788">
        <ele>130.7</ele>
        <time>2025-03-19T16:47:12.965Z</time>
      </trkpt>
      <trkpt lat="48.64218" lon="2.088">
        <ele>130.3</ele>
        <time>2025-03-19T16:47:18.170Z</time>
      </trkpt>
      <trkpt lat="48.64216" lon="2.08813">
        <ele>130.2</ele>
        <time>2025-03-19T16:47:23.376Z</time>
      </trkpt>
      <trkpt lat="48.64214" lon="2.08826">
        <ele>130.1</ele>
        <time>2025-03-19T16:47:28.582Z</time>
      </trkpt>
      <trkpt lat="48.64212" lon="2.08839">
        <ele>129.8</ele>
        <time>2025-03-19T16:47:33.788Z</time>
      </trkpt>
      <trkpt lat="48.6421" lon="2.08851">
        <ele>129.4</ele>
        <time>2025-03-19T16:47:38.994Z</time>
      </trkpt>
      <trkpt lat="48.64208" lon="2.08864">
        <ele>129</ele>
        <time>2025-03-19T16:47:44.200Z</time>
      </trkpt>
      <trkpt lat="48.64205" lon="2.08877">
        <ele>128.8</ele>
        <time>2025-03-19T16:47:49.406Z</time>
      </trkpt>
      <trkpt lat="48.64203" lon="2.0889">
        <ele>128.7</ele>
        <time>2025-03-19T16:47:54.612Z</time>
      </trkpt>
      <trkpt lat="48.64201" lon="2.08902">
        <ele>128.4</ele>
        <time>2025-03-19T16:47:59.818Z</time>
      </trkpt>
      <trkpt lat="48.64199" lon="2.08915">
        <ele>128</ele>
        <time>2025-03-19T16:48:05.024Z</time>
      </trkpt>
      <trkpt lat="48.64197" lon="2.08928">
        <ele>127.6</ele>
        <time>2025-03-19T16:48:10.230Z</time>
      </trkpt>
      <trkpt lat="48.64195" lon="2.08941">
        <ele>127.1</ele>
        <time>2025-03-19T16:48:15.436Z</time>
      </trkpt>
      <trkpt lat="48.64193" lon="2.08953">
        <ele>127</ele>
        <time>2025-03-19T16:48:20.642Z</time>
      </trkpt>
      <trkpt lat="48.64191" lon="2.08966">
        <ele>127</ele>
        <time>2025-03-19T16:48:25.849Z</time>
      </trkpt>
      <trkpt lat="48.64191" lon="2.08974">
        <ele>127</ele>
        <time>2025-03-19T16:48:29.110Z</time>
      </trkpt>
      <trkpt lat="48.6419" lon="2.08981">
        <ele>127</ele>
        <time>2025-03-19T16:48:32.373Z</time>
      </trkpt>
      <trkpt lat="48.64189" lon="2.08988">
        <ele>127</ele>
        <time>2025-03-19T16:48:35.259Z</time>
      </trkpt>
      <trkpt lat="48.64188" lon="2.08995">
        <ele>127</ele>
        <time>2025-03-19T16:48:38.145Z</time>
      </trkpt>
      <trkpt lat="48.64187" lon="2.09002">
        <ele>126.9</ele>
        <time>2025-03-19T16:48:41.031Z</time>
      </trkpt>
      <trkpt lat="48.64186" lon="2.0901">
        <ele>126.7</ele>
        <time>2025-03-19T16:48:43.918Z</time>
      </trkpt>
      <trkpt lat="48.64184" lon="2.09017">
        <ele>126.4</ele>
        <time>2025-03-19T16:48:46.805Z</time>
      </trkpt>
      <trkpt lat="48.64183" lon="2.09024">
        <ele>126.1</ele>
        <time>2025-03-19T16:48:49.692Z</time>
      </trkpt>
      <trkpt lat="48.64182" lon="2.09031">
        <ele>125.9</ele>
        <time>2025-03-19T16:48:52.579Z</time>
      </trkpt>
      <trkpt lat="48.64181" lon="2.09038">
        <ele>125.8</ele>
        <time>2025-03-19T16:48:55.467Z</time>
      </trkpt>
      <trkpt lat="48.64181" lon="2.09045">
        <ele>125.7</ele>
        <time>2025-03-19T16:48:58.382Z</time>
      </trkpt>
      <trkpt lat="48.6418" lon="2.09053">
        <ele>125.6</ele>
        <time>2025-03-19T16:49:01.297Z</time>
      </trkpt>
      <trkpt lat="48.6418" lon="2.0906">
        <ele>125.5</ele>
        <time>2025-03-19T16:49:04.213Z</time>
      </trkpt>
      <trkpt lat="48.64179" lon="2.09067">
        <ele>125.3</ele>
        <time>2025-03-19T16:49:07.130Z</time>
      </trkpt>
      <trkpt lat="48.64178" lon="2.09075">
        <ele>125.2</ele>
        <time>2025-03-19T16:49:10.458Z</time>
      </trkpt>
      <trkpt lat="48.64176" lon="2.09084">
        <ele>125</ele>
        <time>2025-03-19T16:49:13.786Z</time>
      </trkpt>
      <trkpt lat="48.64175" lon="2.09092">
        <ele>124.8</ele>
        <time>2025-03-19T16:49:17.114Z</time>
      </trkpt>
      <trkpt lat="48.64173" lon="2.091">
        <ele>124.5</ele>
        <time>2025-03-19T16:49:20.443Z</time>
      </trkpt>
      <trkpt lat="48.64172" lon="2.09107">
        <ele>124.3</ele>
        <time>2025-03-19T16:49:23.054Z</time>
      </trkpt>
      <trkpt lat="48.6417" lon="2.09113">
        <ele>124.1</ele>
        <time>2025-03-19T16:49:25.666Z</time>
      </trkpt>
      <trkpt lat="48.64164" lon="2.09123">
        <ele>124.1</ele>
        <time>2025-03-19T16:49:31.511Z</time>
      </trkpt>
      <trkpt lat="48.64166" lon="2.09127">
        <ele>124</ele>
        <time>2025-03-19T16:49:33.493Z</time>
      </trkpt>
      <trkpt lat="48.64171" lon="2.09129">
        <ele>124.1</ele>
        <time>2025-03-19T16:49:36.889Z</time>
      </trkpt>
      <trkpt lat="48.64175" lon="2.09131">
        <ele>124.3</ele>
        <time>2025-03-19T16:49:40.285Z</time>
      </trkpt>
      <trkpt lat="48.64174" lon="2.09141">
        <ele>124.2</ele>
        <time>2025-03-19T16:49:44.372Z</time>
      </trkpt>
      <trkpt lat="48.64173" lon="2.09151">
        <ele>124</ele>
        <time>2025-03-19T16:49:48.461Z</time>
      </trkpt>
      <trkpt lat="48.64175" lon="2.09158">
        <ele>123.9</ele>
        <time>2025-03-19T16:49:51.568Z</time>
      </trkpt>
      <trkpt lat="48.64175" lon="2.09165">
        <ele>123.7</ele>
        <time>2025-03-19T16:49:54.314Z</time>
      </trkpt>
      <trkpt lat="48.64175" lon="2.09172">
        <ele>123.6</ele>
        <time>2025-03-19T16:49:57.061Z</time>
      </trkpt>
      <trkpt lat="48.64173" lon="2.09179">
        <ele>123.4</ele>
        <time>2025-03-19T16:49:59.990Z</time>
      </trkpt>
      <trkpt lat="48.6417" lon="2.09184">
        <ele>123.3</ele>
        <time>2025-03-19T16:50:02.720Z</time>
      </trkpt>
      <trkpt lat="48.64171" lon="2.09192">
        <ele>123.1</ele>
        <time>2025-03-19T16:50:05.871Z</time>
      </trkpt>
      <trkpt lat="48.6417" lon="2.09199">
        <ele>123</ele>
        <time>2025-03-19T16:50:08.751Z</time>
      </trkpt>
      <trkpt lat="48.64168" lon="2.09205">
        <ele>123</ele>
        <time>2025-03-19T16:50:11.632Z</time>
      </trkpt>
      <trkpt lat="48.64166" lon="2.09214">
        <ele>123</ele>
        <time>2025-03-19T16:50:15.588Z</time>
      </trkpt>
      <trkpt lat="48.64165" lon="2.09223">
        <ele>123</ele>
        <time>2025-03-19T16:50:19.545Z</time>
      </trkpt>
      <trkpt lat="48.64163" lon="2.09232">
        <ele>122.7</ele>
        <time>2025-03-19T16:50:23.502Z</time>
      </trkpt>
      <trkpt lat="48.64161" lon="2.09241">
        <ele>122.4</ele>
        <time>2025-03-19T16:50:27.459Z</time>
      </trkpt>
      <trkpt lat="48.6416" lon="2.0925">
        <ele>122.2</ele>
        <time>2025-03-19T16:50:31.416Z</time>
      </trkpt>
      <trkpt lat="48.64158" lon="2.09259">
        <ele>122.1</ele>
        <time>2025-03-19T16:50:35.373Z</time>
      </trkpt>
      <trkpt lat="48.64156" lon="2.09268">
        <ele>122</ele>
        <time>2025-03-19T16:50:39.330Z</time>
      </trkpt>
      <trkpt lat="48.64155" lon="2.09278">
        <ele>121.9</ele>
        <time>2025-03-19T16:50:43.287Z</time>
      </trkpt>
      <trkpt lat="48.64153" lon="2.09287">
        <ele>122</ele>
        <time>2025-03-19T16:50:47.244Z</time>
      </trkpt>
      <trkpt lat="48.64151" lon="2.09296">
        <ele>122.1</ele>
        <time>2025-03-19T16:50:51.201Z</time>
      </trkpt>
      <trkpt lat="48.64149" lon="2.09305">
        <ele>122.2</ele>
        <time>2025-03-19T16:50:55.158Z</time>
      </trkpt>
      <trkpt lat="48.64148" lon="2.09314">
        <ele>122.2</ele>
        <time>2025-03-19T16:50:59.115Z</time>
      </trkpt>
      <trkpt lat="48.64146" lon="2.09323">
        <ele>122</ele>
        <time>2025-03-19T16:51:03.072Z</time>
      </trkpt>
      <trkpt lat="48.64144" lon="2.09332">
        <ele>121.8</ele>
        <time>2025-03-19T16:51:07.029Z</time>
      </trkpt>
      <trkpt lat="48.64143" lon="2.09341">
        <ele>121.8</ele>
        <time>2025-03-19T16:51:10.986Z</time>
      </trkpt>
      <trkpt lat="48.64141" lon="2.0935">
        <ele>121.9</ele>
        <time>2025-03-19T16:51:14.943Z</time>
      </trkpt>
      <trkpt lat="48.64139" lon="2.09359">
        <ele>122</ele>
        <time>2025-03-19T16:51:18.900Z</time>
      </trkpt>
      <trkpt lat="48.64138" lon="2.09368">
        <ele>121.8</ele>
        <time>2025-03-19T16:51:22.857Z</time>
      </trkpt>
      <trkpt lat="48.64136" lon="2.09377">
        <ele>121.6</ele>
        <time>2025-03-19T16:51:26.814Z</time>
      </trkpt>
      <trkpt lat="48.64134" lon="2.09386">
        <ele>121.4</ele>
        <time>2025-03-19T16:51:30.771Z</time>
      </trkpt>
      <trkpt lat="48.64133" lon="2.09395">
        <ele>121.4</ele>
        <time>2025-03-19T16:51:34.728Z</time>
      </trkpt>
      <trkpt lat="48.64131" lon="2.09404">
        <ele>121.4</ele>
        <time>2025-03-19T16:51:38.685Z</time>
      </trkpt>
      <trkpt lat="48.64129" lon="2.09413">
        <ele>121.4</ele>
        <time>2025-03-19T16:51:42.642Z</time>
      </trkpt>
      <trkpt lat="48.64128" lon="2.09423">
        <ele>121.3</ele>
        <time>2025-03-19T16:51:46.599Z</time>
      </trkpt>
      <trkpt lat="48.64126" lon="2.09432">
        <ele>121.2</ele>
        <time>2025-03-19T16:51:50.556Z</time>
      </trkpt>
      <trkpt lat="48.64124" lon="2.09441">
        <ele>121.1</ele>
        <time>2025-03-19T16:51:54.513Z</time>
      </trkpt>
      <trkpt lat="48.64122" lon="2.0945">
        <ele>121.2</ele>
        <time>2025-03-19T16:51:58.470Z</time>
      </trkpt>
      <trkpt lat="48.64121" lon="2.09459">
        <ele>121.3</ele>
        <time>2025-03-19T16:52:02.427Z</time>
      </trkpt>
      <trkpt lat="48.64119" lon="2.09468">
        <ele>121.4</ele>
        <time>2025-03-19T16:52:06.384Z</time>
      </trkpt>
      <trkpt lat="48.64117" lon="2.09477">
        <ele>121.4</ele>
        <time>2025-03-19T16:52:10.341Z</time>
      </trkpt>
      <trkpt lat="48.64116" lon="2.09486">
        <ele>121.3</ele>
        <time>2025-03-19T16:52:14.298Z</time>
      </trkpt>
      <trkpt lat="48.64114" lon="2.09495">
        <ele>121.1</ele>
        <time>2025-03-19T16:52:18.256Z</time>
      </trkpt>
      <trkpt lat="48.64113" lon="2.09502">
        <ele>120.9</ele>
        <time>2025-03-19T16:52:21.294Z</time>
      </trkpt>
      <trkpt lat="48.64112" lon="2.09509">
        <ele>121</ele>
        <time>2025-03-19T16:52:24.332Z</time>
      </trkpt>
      <trkpt lat="48.64112" lon="2.09517">
        <ele>121</ele>
        <time>2025-03-19T16:52:27.371Z</time>
      </trkpt>
      <trkpt lat="48.64111" lon="2.09524">
        <ele>121</ele>
        <time>2025-03-19T16:52:30.410Z</time>
      </trkpt>
      <trkpt lat="48.6411" lon="2.09531">
        <ele>120.9</ele>
        <time>2025-03-19T16:52:33.449Z</time>
      </trkpt>
      <trkpt lat="48.64109" lon="2.09538">
        <ele>120.6</ele>
        <time>2025-03-19T16:52:36.488Z</time>
      </trkpt>
      <trkpt lat="48.64108" lon="2.09546">
        <ele>120.4</ele>
        <time>2025-03-19T16:52:39.527Z</time>
      </trkpt>
      <trkpt lat="48.64107" lon="2.09553">
        <ele>120.2</ele>
        <time>2025-03-19T16:52:42.566Z</time>
      </trkpt>
      <trkpt lat="48.64107" lon="2.0956">
        <ele>120.1</ele>
        <time>2025-03-19T16:52:45.605Z</time>
      </trkpt>
      <trkpt lat="48.64106" lon="2.09567">
        <ele>120.1</ele>
        <time>2025-03-19T16:52:48.644Z</time>
      </trkpt>
      <trkpt lat="48.64105" lon="2.09574">
        <ele>120.1</ele>
        <time>2025-03-19T16:52:51.683Z</time>
      </trkpt>
      <trkpt lat="48.64104" lon="2.09582">
        <ele>120</ele>
        <time>2025-03-19T16:52:54.722Z</time>
      </trkpt>
      <trkpt lat="48.64103" lon="2.09589">
        <ele>119.9</ele>
        <time>2025-03-19T16:52:57.761Z</time>
      </trkpt>
      <trkpt lat="48.64102" lon="2.09596">
        <ele>119.7</ele>
        <time>2025-03-19T16:53:00.800Z</time>
      </trkpt>
      <trkpt lat="48.64102" lon="2.09603">
        <ele>119.5</ele>
        <time>2025-03-19T16:53:03.839Z</time>
      </trkpt>
      <trkpt lat="48.64101" lon="2.09611">
        <ele>119.4</ele>
        <time>2025-03-19T16:53:06.878Z</time>
      </trkpt>
      <trkpt lat="48.641" lon="2.09618">
        <ele>119.2</ele>
        <time>2025-03-19T16:53:09.917Z</time>
      </trkpt>
      <trkpt lat="48.64099" lon="2.09625">
        <ele>118.9</ele>
        <time>2025-03-19T16:53:12.956Z</time>
      </trkpt>
      <trkpt lat="48.64098" lon="2.09632">
        <ele>118.7</ele>
        <time>2025-03-19T16:53:15.995Z</time>
      </trkpt>
      <trkpt lat="48.64097" lon="2.09639">
        <ele>118.5</ele>
        <time>2025-03-19T16:53:19.034Z</time>
      </trkpt>
      <trkpt lat="48.64097" lon="2.09647">
        <ele>118.5</ele>
        <time>2025-03-19T16:53:22.073Z</time>
      </trkpt>
      <trkpt lat="48.64096" lon="2.09654">
        <ele>118.6</ele>
        <time>2025-03-19T16:53:25.112Z</time>
      </trkpt>
      <trkpt lat="48.64095" lon="2.09661">
        <ele>118.6</ele>
        <time>2025-03-19T16:53:28.151Z</time>
      </trkpt>
      <trkpt lat="48.64094" lon="2.09668">
        <ele>118.6</ele>
        <time>2025-03-19T16:53:31.190Z</time>
      </trkpt>
      <trkpt lat="48.64093" lon="2.09676">
        <ele>118.6</ele>
        <time>2025-03-19T16:53:34.229Z</time>
      </trkpt>
      <trkpt lat="48.64093" lon="2.09683">
        <ele>118.7</ele>
        <time>2025-03-19T16:53:37.268Z</time>
      </trkpt>
      <trkpt lat="48.64092" lon="2.0969">
        <ele>118.7</ele>
        <time>2025-03-19T16:53:40.307Z</time>
      </trkpt>
      <trkpt lat="48.64091" lon="2.09697">
        <ele>118.7</ele>
        <time>2025-03-19T16:53:43.346Z</time>
      </trkpt>
      <trkpt lat="48.6409" lon="2.09704">
        <ele>118.8</ele>
        <time>2025-03-19T16:53:46.385Z</time>
      </trkpt>
      <trkpt lat="48.64089" lon="2.09712">
        <ele>118.8</ele>
        <time>2025-03-19T16:53:49.424Z</time>
      </trkpt>
      <trkpt lat="48.64088" lon="2.09719">
        <ele>118.8</ele>
        <time>2025-03-19T16:53:52.463Z</time>
      </trkpt>
      <trkpt lat="48.64088" lon="2.09726">
        <ele>118.7</ele>
        <time>2025-03-19T16:53:55.502Z</time>
      </trkpt>
      <trkpt lat="48.64087" lon="2.09733">
        <ele>118.5</ele>
        <time>2025-03-19T16:53:58.541Z</time>
      </trkpt>
      <trkpt lat="48.64086" lon="2.0974">
        <ele>118.3</ele>
        <time>2025-03-19T16:54:01.580Z</time>
      </trkpt>
      <trkpt lat="48.64085" lon="2.09748">
        <ele>118.1</ele>
        <time>2025-03-19T16:54:04.619Z</time>
      </trkpt>
      <trkpt lat="48.64084" lon="2.09755">
        <ele>118</ele>
        <time>2025-03-19T16:54:07.658Z</time>
      </trkpt>
      <trkpt lat="48.64083" lon="2.09762">
        <ele>118</ele>
        <time>2025-03-19T16:54:10.697Z</time>
      </trkpt>
      <trkpt lat="48.64083" lon="2.09769">
        <ele>118</ele>
        <time>2025-03-19T16:54:13.736Z</time>
      </trkpt>
      <trkpt lat="48.64082" lon="2.09777">
        <ele>118</ele>
        <time>2025-03-19T16:54:16.775Z</time>
      </trkpt>
      <trkpt lat="48.64081" lon="2.09784">
        <ele>118</ele>
        <time>2025-03-19T16:54:19.814Z</time>
      </trkpt>
      <trkpt lat="48.6408" lon="2.09791">
        <ele>118</ele>
        <time>2025-03-19T16:54:22.853Z</time>
      </trkpt>
      <trkpt lat="48.64079" lon="2.09798">
        <ele>118</ele>
        <time>2025-03-19T16:54:25.892Z</time>
      </trkpt>
      <trkpt lat="48.64078" lon="2.09805">
        <ele>118</ele>
        <time>2025-03-19T16:54:28.931Z</time>
      </trkpt>
      <trkpt lat="48.64078" lon="2.09813">
        <ele>117.8</ele>
        <time>2025-03-19T16:54:31.970Z</time>
      </trkpt>
      <trkpt lat="48.64077" lon="2.0982">
        <ele>117.6</ele>
        <time>2025-03-19T16:54:35.009Z</time>
      </trkpt>
      <trkpt lat="48.64076" lon="2.09827">
        <ele>117.4</ele>
        <time>2025-03-19T16:54:38.048Z</time>
      </trkpt>
      <trkpt lat="48.64075" lon="2.09834">
        <ele>117.3</ele>
        <time>2025-03-19T16:54:41.087Z</time>
      </trkpt>
      <trkpt lat="48.64074" lon="2.09842">
        <ele>117.2</ele>
        <time>2025-03-19T16:54:44.126Z</time>
      </trkpt>
      <trkpt lat="48.64073" lon="2.09849">
        <ele>117.2</ele>
        <time>2025-03-19T16:54:47.165Z</time>
      </trkpt>
      <trkpt lat="48.64073" lon="2.09856">
        <ele>117.1</ele>
        <time>2025-03-19T16:54:50.204Z</time>
      </trkpt>
      <trkpt lat="48.64072" lon="2.09863">
        <ele>117</ele>
        <time>2025-03-19T16:54:53.243Z</time>
      </trkpt>
      <trkpt lat="48.64071" lon="2.0987">
        <ele>117</ele>
        <time>2025-03-19T16:54:56.282Z</time>
      </trkpt>
      <trkpt lat="48.6407" lon="2.09878">
        <ele>117</ele>
        <time>2025-03-19T16:54:59.321Z</time>
      </trkpt>
      <trkpt lat="48.64069" lon="2.09885">
        <ele>117</ele>
        <time>2025-03-19T16:55:02.360Z</time>
      </trkpt>
      <trkpt lat="48.64069" lon="2.09892">
        <ele>117</ele>
        <time>2025-03-19T16:55:05.399Z</time>
      </trkpt>
      <trkpt lat="48.64068" lon="2.09899">
        <ele>117</ele>
        <time>2025-03-19T16:55:08.438Z</time>
      </trkpt>
      <trkpt lat="48.64067" lon="2.09907">
        <ele>117</ele>
        <time>2025-03-19T16:55:11.477Z</time>
      </trkpt>
      <trkpt lat="48.64066" lon="2.09914">
        <ele>117</ele>
        <time>2025-03-19T16:55:14.516Z</time>
      </trkpt>
      <trkpt lat="48.64065" lon="2.09921">
        <ele>116.9</ele>
        <time>2025-03-19T16:55:17.555Z</time>
      </trkpt>
      <trkpt lat="48.64064" lon="2.09928">
        <ele>116.9</ele>
        <time>2025-03-19T16:55:20.594Z</time>
      </trkpt>
      <trkpt lat="48.64064" lon="2.09935">
        <ele>116.8</ele>
        <time>2025-03-19T16:55:23.633Z</time>
      </trkpt>
      <trkpt lat="48.64063" lon="2.09943">
        <ele>116.8</ele>
        <time>2025-03-19T16:55:26.672Z</time>
      </trkpt>
      <trkpt lat="48.64062" lon="2.0995">
        <ele>116.8</ele>
        <time>2025-03-19T16:55:29.711Z</time>
      </trkpt>
      <trkpt lat="48.64061" lon="2.09957">
        <ele>116.8</ele>
        <time>2025-03-19T16:55:32.751Z</time>
      </trkpt>
      <trkpt lat="48.64059" lon="2.09967">
        <ele>116.9</ele>
        <time>2025-03-19T16:55:37.480Z</time>
      </trkpt>
      <trkpt lat="48.64057" lon="2.09973">
        <ele>116.9</ele>
        <time>2025-03-19T16:55:40.450Z</time>
      </trkpt>
      <trkpt lat="48.64054" lon="2.09979">
        <ele>116.8</ele>
        <time>2025-03-19T16:55:43.422Z</time>
      </trkpt>
      <trkpt lat="48.64048" lon="2.09981">
        <ele>116.8</ele>
        <time>2025-03-19T16:55:47.506Z</time>
      </trkpt>
      <trkpt lat="48.64042" lon="2.09982">
        <ele>116.8</ele>
        <time>2025-03-19T16:55:51.591Z</time>
      </trkpt>
      <trkpt lat="48.64036" lon="2.09984">
        <ele>116.9</ele>
        <time>2025-03-19T16:55:55.676Z</time>
      </trkpt>
      <trkpt lat="48.6403" lon="2.09985">
        <ele>117</ele>
        <time>2025-03-19T16:55:59.762Z</time>
      </trkpt>
      <trkpt lat="48.64024" lon="2.09985">
        <ele>117.1</ele>
        <time>2025-03-19T16:56:04.126Z</time>
      </trkpt>
      <trkpt lat="48.64018" lon="2.09986">
        <ele>117.4</ele>
        <time>2025-03-19T16:56:08.491Z</time>
      </trkpt>
      <trkpt lat="48.64012" lon="2.09986">
        <ele>117.6</ele>
        <time>2025-03-19T16:56:12.856Z</time>
      </trkpt>
      <trkpt lat="48.64006" lon="2.09986">
        <ele>117.8</ele>
        <time>2025-03-19T16:56:17.221Z</time>
      </trkpt>
      <trkpt lat="48.63999" lon="2.09984">
        <ele>118</ele>
        <time>2025-03-19T16:56:22.474Z</time>
      </trkpt>
      <trkpt lat="48.63992" lon="2.09981">
        <ele>118.3</ele>
        <time>2025-03-19T16:56:27.729Z</time>
      </trkpt>
      <trkpt lat="48.63985" lon="2.0998">
        <ele>118.5</ele>
        <time>2025-03-19T16:56:33.066Z</time>
      </trkpt>
      <trkpt lat="48.63978" lon="2.09979">
        <ele>118.8</ele>
        <time>2025-03-19T16:56:38.403Z</time>
      </trkpt>
      <trkpt lat="48.63971" lon="2.09978">
        <ele>119</ele>
        <time>2025-03-19T16:56:43.740Z</time>
      </trkpt>
      <trkpt lat="48.63964" lon="2.09977">
        <ele>119.3</ele>
        <time>2025-03-19T16:56:49.077Z</time>
      </trkpt>
      <trkpt lat="48.63957" lon="2.09976">
        <ele>119.5</ele>
        <time>2025-03-19T16:56:54.414Z</time>
      </trkpt>
      <trkpt lat="48.6395" lon="2.09975">
        <ele>119.8</ele>
        <time>2025-03-19T16:56:59.751Z</time>
      </trkpt>
      <trkpt lat="48.63943" lon="2.09974">
        <ele>120.1</ele>
        <time>2025-03-19T16:57:05.088Z</time>
      </trkpt>
      <trkpt lat="48.63937" lon="2.09973">
        <ele>120.6</ele>
        <time>2025-03-19T16:57:10.425Z</time>
      </trkpt>
      <trkpt lat="48.6393" lon="2.09972">
        <ele>121.1</ele>
        <time>2025-03-19T16:57:15.762Z</time>
      </trkpt>
      <trkpt lat="48.63923" lon="2.09971">
        <ele>121.6</ele>
        <time>2025-03-19T16:57:21.100Z</time>
      </trkpt>
      <trkpt lat="48.63916" lon="2.0997">
        <ele>122</ele>
        <time>2025-03-19T16:57:26.438Z</time>
      </trkpt>
      <trkpt lat="48.63909" lon="2.09969">
        <ele>122.3</ele>
        <time>2025-03-19T16:57:31.776Z</time>
      </trkpt>
      <trkpt lat="48.63902" lon="2.09968">
        <ele>122.6</ele>
        <time>2025-03-19T16:57:37.114Z</time>
      </trkpt>
      <trkpt lat="48.63895" lon="2.09967">
        <ele>122.9</ele>
        <time>2025-03-19T16:57:42.452Z</time>
      </trkpt>
      <trkpt lat="48.63888" lon="2.09966">
        <ele>123.3</ele>
        <time>2025-03-19T16:57:47.790Z</time>
      </trkpt>
      <trkpt lat="48.63881" lon="2.09965">
        <ele>123.8</ele>
        <time>2025-03-19T16:57:53.129Z</time>
      </trkpt>
      <trkpt lat="48.63876" lon="2.09965">
        <ele>124.2</ele>
        <time>2025-03-19T16:57:56.930Z</time>
      </trkpt>
      <trkpt lat="48.63872" lon="2.09964">
        <ele>124.5</ele>
        <time>2025-03-19T16:58:00.731Z</time>
      </trkpt>
      <trkpt lat="48.63867" lon="2.09964">
        <ele>124.9</ele>
        <time>2025-03-19T16:58:04.532Z</time>
      </trkpt>
      <trkpt lat="48.63863" lon="2.09964">
        <ele>125.2</ele>
        <time>2025-03-19T16:58:08.333Z</time>
      </trkpt>
      <trkpt lat="48.63858" lon="2.09963">
        <ele>125.5</ele>
        <time>2025-03-19T16:58:12.134Z</time>
      </trkpt>
      <trkpt lat="48.63853" lon="2.09963">
        <ele>125.8</ele>
        <time>2025-03-19T16:58:15.935Z</time>
      </trkpt>
      <trkpt lat="48.63849" lon="2.09962">
        <ele>126.1</ele>
        <time>2025-03-19T16:58:19.737Z</time>
      </trkpt>
      <trkpt lat="48.63844" lon="2.09962">
        <ele>126.4</ele>
        <time>2025-03-19T16:58:23.539Z</time>
      </trkpt>
      <trkpt lat="48.63839" lon="2.09963">
        <ele>126.6</ele>
        <time>2025-03-19T16:58:27.183Z</time>
      </trkpt>
      <trkpt lat="48.63835" lon="2.09963">
        <ele>126.9</ele>
        <time>2025-03-19T16:58:30.827Z</time>
      </trkpt>
      <trkpt lat="48.6383" lon="2.09964">
        <ele>127.2</ele>
        <time>2025-03-19T16:58:34.471Z</time>
      </trkpt>
      <trkpt lat="48.63826" lon="2.09965">
        <ele>127.6</ele>
        <time>2025-03-19T16:58:38.115Z</time>
      </trkpt>
      <trkpt lat="48.63821" lon="2.09965">
        <ele>127.9</ele>
        <time>2025-03-19T16:58:41.759Z</time>
      </trkpt>
      <trkpt lat="48.63816" lon="2.09966">
        <ele>128.2</ele>
        <time>2025-03-19T16:58:45.403Z</time>
      </trkpt>
      <trkpt lat="48.63812" lon="2.09967">
        <ele>128.6</ele>
        <time>2025-03-19T16:58:49.047Z</time>
      </trkpt>
      <trkpt lat="48.63807" lon="2.09968">
        <ele>128.9</ele>
        <time>2025-03-19T16:58:52.691Z</time>
      </trkpt>
      <trkpt lat="48.63802" lon="2.09968">
        <ele>129.1</ele>
        <time>2025-03-19T16:58:56.335Z</time>
      </trkpt>
      <trkpt lat="48.63798" lon="2.09969">
        <ele>129.3</ele>
        <time>2025-03-19T16:58:59.979Z</time>
      </trkpt>
      <trkpt lat="48.63793" lon="2.0997">
        <ele>129.5</ele>
        <time>2025-03-19T16:59:03.623Z</time>
      </trkpt>
      <trkpt lat="48.63789" lon="2.0997">
        <ele>129.7</ele>
        <time>2025-03-19T16:59:07.267Z</time>
      </trkpt>
      <trkpt lat="48.63784" lon="2.09971">
        <ele>129.8</ele>
        <time>2025-03-19T16:59:10.911Z</time>
      </trkpt>
      <trkpt lat="48.63779" lon="2.09972">
        <ele>130</ele>
        <time>2025-03-19T16:59:14.555Z</time>
      </trkpt>
      <trkpt lat="48.63775" lon="2.09972">
        <ele>130.2</ele>
        <time>2025-03-19T16:59:18.200Z</time>
      </trkpt>
      <trkpt lat="48.6377" lon="2.09973">
        <ele>130.6</ele>
        <time>2025-03-19T16:59:21.845Z</time>
      </trkpt>
      <trkpt lat="48.63765" lon="2.09974">
        <ele>130.9</ele>
        <time>2025-03-19T16:59:25.607Z</time>
      </trkpt>
      <trkpt lat="48.63761" lon="2.09974">
        <ele>131.2</ele>
        <time>2025-03-19T16:59:29.369Z</time>
      </trkpt>
      <trkpt lat="48.63756" lon="2.09975">
        <ele>131.5</ele>
        <time>2025-03-19T16:59:33.131Z</time>
      </trkpt>
      <trkpt lat="48.63752" lon="2.09975">
        <ele>131.8</ele>
        <time>2025-03-19T16:59:36.893Z</time>
      </trkpt>
      <trkpt lat="48.63747" lon="2.09976">
        <ele>132.1</ele>
        <time>2025-03-19T16:59:40.655Z</time>
      </trkpt>
      <trkpt lat="48.63742" lon="2.09977">
        <ele>132.4</ele>
        <time>2025-03-19T16:59:44.417Z</time>
      </trkpt>
      <trkpt lat="48.63738" lon="2.09977">
        <ele>132.8</ele>
        <time>2025-03-19T16:59:48.179Z</time>
      </trkpt>
      <trkpt lat="48.63733" lon="2.09978">
        <ele>133.1</ele>
        <time>2025-03-19T16:59:51.941Z</time>
      </trkpt>
      <trkpt lat="48.63729" lon="2.09978">
        <ele>133.5</ele>
        <time>2025-03-19T16:59:55.703Z</time>
      </trkpt>
      <trkpt lat="48.63724" lon="2.09979">
        <ele>133.8</ele>
        <time>2025-03-19T16:59:59.465Z</time>
      </trkpt>
      <trkpt lat="48.6372" lon="2.0998">
        <ele>134.2</ele>
        <time>2025-03-19T17:00:03.227Z</time>
      </trkpt>
      <trkpt lat="48.63715" lon="2.0998">
        <ele>134.5</ele>
        <time>2025-03-19T17:00:06.989Z</time>
      </trkpt>
      <trkpt lat="48.6371" lon="2.09981">
        <ele>134.9</ele>
        <time>2025-03-19T17:00:10.751Z</time>
      </trkpt>
      <trkpt lat="48.63706" lon="2.09981">
        <ele>135.2</ele>
        <time>2025-03-19T17:00:14.513Z</time>
      </trkpt>
      <trkpt lat="48.63701" lon="2.09982">
        <ele>135.5</ele>
        <time>2025-03-19T17:00:18.275Z</time>
      </trkpt>
      <trkpt lat="48.63697" lon="2.09983">
        <ele>135.9</ele>
        <time>2025-03-19T17:00:22.037Z</time>
      </trkpt>
      <trkpt lat="48.63692" lon="2.09983">
        <ele>136.2</ele>
        <time>2025-03-19T17:00:25.799Z</time>
      </trkpt>
      <trkpt lat="48.63687" lon="2.09984">
        <ele>136.5</ele>
        <time>2025-03-19T17:00:29.561Z</time>
      </trkpt>
      <trkpt lat="48.63683" lon="2.09984">
        <ele>136.8</ele>
        <time>2025-03-19T17:00:33.323Z</time>
      </trkpt>
      <trkpt lat="48.63678" lon="2.09985">
        <ele>137.2</ele>
        <time>2025-03-19T17:00:37.085Z</time>
      </trkpt>
      <trkpt lat="48.63674" lon="2.09986">
        <ele>137.5</ele>
        <time>2025-03-19T17:00:40.847Z</time>
      </trkpt>
      <trkpt lat="48.63669" lon="2.09986">
        <ele>137.8</ele>
        <time>2025-03-19T17:00:44.609Z</time>
      </trkpt>
      <trkpt lat="48.63664" lon="2.09987">
        <ele>138.2</ele>
        <time>2025-03-19T17:00:48.371Z</time>
      </trkpt>
      <trkpt lat="48.6366" lon="2.09987">
        <ele>138.5</ele>
        <time>2025-03-19T17:00:52.133Z</time>
      </trkpt>
      <trkpt lat="48.63655" lon="2.09988">
        <ele>138.8</ele>
        <time>2025-03-19T17:00:55.896Z</time>
      </trkpt>
      <trkpt lat="48.63651" lon="2.09988">
        <ele>139.2</ele>
        <time>2025-03-19T17:00:59.659Z</time>
      </trkpt>
      <trkpt lat="48.63646" lon="2.09989">
        <ele>139.5</ele>
        <time>2025-03-19T17:01:03.422Z</time>
      </trkpt>
      <trkpt lat="48.63641" lon="2.0999">
        <ele>139.8</ele>
        <time>2025-03-19T17:01:07.185Z</time>
      </trkpt>
      <trkpt lat="48.63637" lon="2.0999">
        <ele>140.1</ele>
        <time>2025-03-19T17:01:10.948Z</time>
      </trkpt>
      <trkpt lat="48.63632" lon="2.09991">
        <ele>140.3</ele>
        <time>2025-03-19T17:01:14.711Z</time>
      </trkpt>
      <trkpt lat="48.63628" lon="2.09991">
        <ele>140.5</ele>
        <time>2025-03-19T17:01:18.474Z</time>
      </trkpt>
      <trkpt lat="48.63623" lon="2.09992">
        <ele>140.7</ele>
        <time>2025-03-19T17:01:22.237Z</time>
      </trkpt>
      <trkpt lat="48.63616" lon="2.09992">
        <ele>141.1</ele>
        <time>2025-03-19T17:01:27.860Z</time>
      </trkpt>
      <trkpt lat="48.63608" lon="2.09992">
        <ele>141.5</ele>
        <time>2025-03-19T17:01:33.483Z</time>
      </trkpt>
      <trkpt lat="48.63601" lon="2.09992">
        <ele>142</ele>
        <time>2025-03-19T17:01:39.106Z</time>
      </trkpt>
      <trkpt lat="48.63593" lon="2.09992">
        <ele>142.6</ele>
        <time>2025-03-19T17:01:44.729Z</time>
      </trkpt>
      <trkpt lat="48.63586" lon="2.09992">
        <ele>143.1</ele>
        <time>2025-03-19T17:01:50.352Z</time>
      </trkpt>
      <trkpt lat="48.63578" lon="2.09992">
        <ele>143.5</ele>
        <time>2025-03-19T17:01:55.975Z</time>
      </trkpt>
      <trkpt lat="48.63571" lon="2.09992">
        <ele>143.7</ele>
        <time>2025-03-19T17:02:01.598Z</time>
      </trkpt>
      <trkpt lat="48.63564" lon="2.09993">
        <ele>144</ele>
        <time>2025-03-19T17:02:07.221Z</time>
      </trkpt>
      <trkpt lat="48.63556" lon="2.09993">
        <ele>144.2</ele>
        <time>2025-03-19T17:02:12.844Z</time>
      </trkpt>
      <trkpt lat="48.63549" lon="2.09993">
        <ele>144.5</ele>
        <time>2025-03-19T17:02:18.468Z</time>
      </trkpt>
      <trkpt lat="48.63541" lon="2.09993">
        <ele>144.8</ele>
        <time>2025-03-19T17:02:24.092Z</time>
      </trkpt>
      <trkpt lat="48.63534" lon="2.09993">
        <ele>145</ele>
        <time>2025-03-19T17:02:29.716Z</time>
      </trkpt>
      <trkpt lat="48.63526" lon="2.09993">
        <ele>145.3</ele>
        <time>2025-03-19T17:02:35.340Z</time>
      </trkpt>
      <trkpt lat="48.63519" lon="2.09993">
        <ele>145.6</ele>
        <time>2025-03-19T17:02:40.964Z</time>
      </trkpt>
      <trkpt lat="48.63511" lon="2.09993">
        <ele>145.8</ele>
        <time>2025-03-19T17:02:46.588Z</time>
      </trkpt>
      <trkpt lat="48.63504" lon="2.09993">
        <ele>146.1</ele>
        <time>2025-03-19T17:02:52.212Z</time>
      </trkpt>
      <trkpt lat="48.63498" lon="2.0999">
        <ele>146.4</ele>
        <time>2025-03-19T17:02:57.023Z</time>
      </trkpt>
      <trkpt lat="48.63496" lon="2.09986">
        <ele>146.6</ele>
        <time>2025-03-19T17:02:59.655Z</time>
      </trkpt>
      <trkpt lat="48.63493" lon="2.09987">
        <ele>146.7</ele>
        <time>2025-03-19T17:03:01.884Z</time>
      </trkpt>
      <trkpt lat="48.63491" lon="2.09986">
        <ele>146.8</ele>
        <time>2025-03-19T17:03:03.487Z</time>
      </trkpt>
      <trkpt lat="48.63489" lon="2.09982">
        <ele>147</ele>
        <time>2025-03-19T17:03:06.120Z</time>
      </trkpt>
      <trkpt lat="48.63482" lon="2.09982">
        <ele>147.3</ele>
        <time>2025-03-19T17:03:10.549Z</time>
      </trkpt>
      <trkpt lat="48.63475" lon="2.09982">
        <ele>147.6</ele>
        <time>2025-03-19T17:03:14.978Z</time>
      </trkpt>
      <trkpt lat="48.63468" lon="2.09982">
        <ele>147.7</ele>
        <time>2025-03-19T17:03:19.407Z</time>
      </trkpt>
      <trkpt lat="48.63461" lon="2.09982">
        <ele>147.8</ele>
        <time>2025-03-19T17:03:23.836Z</time>
      </trkpt>
      <trkpt lat="48.63454" lon="2.09981">
        <ele>147.9</ele>
        <time>2025-03-19T17:03:28.266Z</time>
      </trkpt>
      <trkpt lat="48.63447" lon="2.09981">
        <ele>148</ele>
        <time>2025-03-19T17:03:32.696Z</time>
      </trkpt>
      <trkpt lat="48.6344" lon="2.09981">
        <ele>147.9</ele>
        <time>2025-03-19T17:03:37.126Z</time>
      </trkpt>
      <trkpt lat="48.63433" lon="2.09981">
        <ele>147.7</ele>
        <time>2025-03-19T17:03:41.556Z</time>
      </trkpt>
      <trkpt lat="48.63425" lon="2.09981">
        <ele>147.5</ele>
        <time>2025-03-19T17:03:45.986Z</time>
      </trkpt>
      <trkpt lat="48.63418" lon="2.09981">
        <ele>147.3</ele>
        <time>2025-03-19T17:03:50.416Z</time>
      </trkpt>
      <trkpt lat="48.63411" lon="2.09981">
        <ele>147.1</ele>
        <time>2025-03-19T17:03:54.846Z</time>
      </trkpt>
      <trkpt lat="48.63404" lon="2.09981">
        <ele>146.9</ele>
        <time>2025-03-19T17:03:59.276Z</time>
      </trkpt>
      <trkpt lat="48.63397" lon="2.0998">
        <ele>146.6</ele>
        <time>2025-03-19T17:04:03.706Z</time>
      </trkpt>
      <trkpt lat="48.6339" lon="2.0998">
        <ele>146.3</ele>
        <time>2025-03-19T17:04:08.136Z</time>
      </trkpt>
      <trkpt lat="48.63383" lon="2.0998">
        <ele>145.9</ele>
        <time>2025-03-19T17:04:12.566Z</time>
      </trkpt>
      <trkpt lat="48.63376" lon="2.0998">
        <ele>145.4</ele>
        <time>2025-03-19T17:04:16.996Z</time>
      </trkpt>
      <trkpt lat="48.63369" lon="2.09979">
        <ele>144.8</ele>
        <time>2025-03-19T17:04:21.047Z</time>
      </trkpt>
      <trkpt lat="48.63362" lon="2.09977">
        <ele>144.2</ele>
        <time>2025-03-19T17:04:25.098Z</time>
      </trkpt>
      <trkpt lat="48.63355" lon="2.09976">
        <ele>143.9</ele>
        <time>2025-03-19T17:04:29.149Z</time>
      </trkpt>
      <trkpt lat="48.63348" lon="2.09974">
        <ele>143.6</ele>
        <time>2025-03-19T17:04:33.201Z</time>
      </trkpt>
      <trkpt lat="48.6334" lon="2.09971">
        <ele>143.2</ele>
        <time>2025-03-19T17:04:38.248Z</time>
      </trkpt>
      <trkpt lat="48.63331" lon="2.09967">
        <ele>142.6</ele>
        <time>2025-03-19T17:04:43.296Z</time>
      </trkpt>
      <trkpt lat="48.63325" lon="2.09964">
        <ele>142.1</ele>
        <time>2025-03-19T17:04:46.917Z</time>
      </trkpt>
      <trkpt lat="48.6332" lon="2.09962">
        <ele>141.7</ele>
        <time>2025-03-19T17:04:49.686Z</time>
      </trkpt>
      <trkpt lat="48.63316" lon="2.0996">
        <ele>141.3</ele>
        <time>2025-03-19T17:04:52.455Z</time>
      </trkpt>
      <trkpt lat="48.63311" lon="2.09958">
        <ele>140.9</ele>
        <time>2025-03-19T17:04:55.224Z</time>
      </trkpt>
      <trkpt lat="48.63307" lon="2.09956">
        <ele>140.5</ele>
        <time>2025-03-19T17:04:57.993Z</time>
      </trkpt>
      <trkpt lat="48.63302" lon="2.09953">
        <ele>140.1</ele>
        <time>2025-03-19T17:05:00.763Z</time>
      </trkpt>
      <trkpt lat="48.63297" lon="2.09951">
        <ele>139.7</ele>
        <time>2025-03-19T17:05:03.533Z</time>
      </trkpt>
      <trkpt lat="48.63293" lon="2.09949">
        <ele>139.2</ele>
        <time>2025-03-19T17:05:06.303Z</time>
      </trkpt>
      <trkpt lat="48.63288" lon="2.09947">
        <ele>138.8</ele>
        <time>2025-03-19T17:05:09.074Z</time>
      </trkpt>
      <trkpt lat="48.63284" lon="2.09945">
        <ele>138.4</ele>
        <time>2025-03-19T17:05:11.771Z</time>
      </trkpt>
      <trkpt lat="48.63279" lon="2.09942">
        <ele>138</ele>
        <time>2025-03-19T17:05:14.468Z</time>
      </trkpt>
      <trkpt lat="48.63275" lon="2.0994">
        <ele>137.6</ele>
        <time>2025-03-19T17:05:17.165Z</time>
      </trkpt>
      <trkpt lat="48.6327" lon="2.09938">
        <ele>137.3</ele>
        <time>2025-03-19T17:05:19.862Z</time>
      </trkpt>
      <trkpt lat="48.63266" lon="2.09935">
        <ele>136.9</ele>
        <time>2025-03-19T17:05:22.559Z</time>
      </trkpt>
      <trkpt lat="48.63261" lon="2.09933">
        <ele>136.6</ele>
        <time>2025-03-19T17:05:25.256Z</time>
      </trkpt>
      <trkpt lat="48.63257" lon="2.0993">
        <ele>136.4</ele>
        <time>2025-03-19T17:05:27.953Z</time>
      </trkpt>
      <trkpt lat="48.63253" lon="2.09928">
        <ele>136.1</ele>
        <time>2025-03-19T17:05:30.650Z</time>
      </trkpt>
      <trkpt lat="48.63248" lon="2.09926">
        <ele>135.9</ele>
        <time>2025-03-19T17:05:33.347Z</time>
      </trkpt>
      <trkpt lat="48.63244" lon="2.09923">
        <ele>135.5</ele>
        <time>2025-03-19T17:05:36.044Z</time>
      </trkpt>
      <trkpt lat="48.63239" lon="2.09921">
        <ele>135.2</ele>
        <time>2025-03-19T17:05:38.741Z</time>
      </trkpt>
      <trkpt lat="48.63235" lon="2.09919">
        <ele>134.9</ele>
        <time>2025-03-19T17:05:41.438Z</time>
      </trkpt>
      <trkpt lat="48.6323" lon="2.09916">
        <ele>134.6</ele>
        <time>2025-03-19T17:05:44.135Z</time>
      </trkpt>
      <trkpt lat="48.63226" lon="2.09914">
        <ele>134.3</ele>
        <time>2025-03-19T17:05:46.832Z</time>
      </trkpt>
      <trkpt lat="48.63221" lon="2.09911">
        <ele>134</ele>
        <time>2025-03-19T17:05:49.529Z</time>
      </trkpt>
      <trkpt lat="48.63217" lon="2.09909">
        <ele>133.8</ele>
        <time>2025-03-19T17:05:52.228Z</time>
      </trkpt>
      <trkpt lat="48.63212" lon="2.09907">
        <ele>133.6</ele>
        <time>2025-03-19T17:05:55.138Z</time>
      </trkpt>
      <trkpt lat="48.63208" lon="2.09904">
        <ele>133.5</ele>
        <time>2025-03-19T17:05:58.048Z</time>
      </trkpt>
      <trkpt lat="48.63203" lon="2.09902">
        <ele>133.3</ele>
        <time>2025-03-19T17:06:00.959Z</time>
      </trkpt>
      <trkpt lat="48.63199" lon="2.09899">
        <ele>133.1</ele>
        <time>2025-03-19T17:06:03.870Z</time>
      </trkpt>
      <trkpt lat="48.63194" lon="2.09897">
        <ele>133</ele>
        <time>2025-03-19T17:06:06.781Z</time>
      </trkpt>
      <trkpt lat="48.63189" lon="2.09894">
        <ele>132.8</ele>
        <time>2025-03-19T17:06:09.692Z</time>
      </trkpt>
      <trkpt lat="48.63185" lon="2.09892">
        <ele>132.6</ele>
        <time>2025-03-19T17:06:12.603Z</time>
      </trkpt>
      <trkpt lat="48.6318" lon="2.09889">
        <ele>132.5</ele>
        <time>2025-03-19T17:06:15.515Z</time>
      </trkpt>
      <trkpt lat="48.63175" lon="2.09887">
        <ele>132.3</ele>
        <time>2025-03-19T17:06:18.435Z</time>
      </trkpt>
      <trkpt lat="48.63171" lon="2.09884">
        <ele>132.1</ele>
        <time>2025-03-19T17:06:21.355Z</time>
      </trkpt>
      <trkpt lat="48.63166" lon="2.09882">
        <ele>132</ele>
        <time>2025-03-19T17:06:24.275Z</time>
      </trkpt>
      <trkpt lat="48.63161" lon="2.0988">
        <ele>131.8</ele>
        <time>2025-03-19T17:06:27.195Z</time>
      </trkpt>
      <trkpt lat="48.63157" lon="2.09877">
        <ele>131.6</ele>
        <time>2025-03-19T17:06:30.115Z</time>
      </trkpt>
      <trkpt lat="48.63152" lon="2.09875">
        <ele>131.5</ele>
        <time>2025-03-19T17:06:33.035Z</time>
      </trkpt>
      <trkpt lat="48.63147" lon="2.09872">
        <ele>131.3</ele>
        <time>2025-03-19T17:06:35.956Z</time>
      </trkpt>
      <trkpt lat="48.63143" lon="2.0987">
        <ele>131.1</ele>
        <time>2025-03-19T17:06:38.877Z</time>
      </trkpt>
      <trkpt lat="48.63138" lon="2.09868">
        <ele>131</ele>
        <time>2025-03-19T17:06:41.798Z</time>
      </trkpt>
      <trkpt lat="48.63133" lon="2.09865">
        <ele>130.8</ele>
        <time>2025-03-19T17:06:44.719Z</time>
      </trkpt>
      <trkpt lat="48.63128" lon="2.09863">
        <ele>130.6</ele>
        <time>2025-03-19T17:06:47.640Z</time>
      </trkpt>
      <trkpt lat="48.63124" lon="2.09861">
        <ele>130.5</ele>
        <time>2025-03-19T17:06:50.561Z</time>
      </trkpt>
      <trkpt lat="48.63119" lon="2.09858">
        <ele>130.3</ele>
        <time>2025-03-19T17:06:53.482Z</time>
      </trkpt>
      <trkpt lat="48.63114" lon="2.09856">
        <ele>130.1</ele>
        <time>2025-03-19T17:06:56.403Z</time>
      </trkpt>
      <trkpt lat="48.6311" lon="2.09853">
        <ele>129.9</ele>
        <time>2025-03-19T17:06:59.324Z</time>
      </trkpt>
      <trkpt lat="48.63105" lon="2.09851">
        <ele>129.8</ele>
        <time>2025-03-19T17:07:02.246Z</time>
      </trkpt>
      <trkpt lat="48.63098" lon="2.09849">
        <ele>129.5</ele>
        <time>2025-03-19T17:07:06.646Z</time>
      </trkpt>
      <trkpt lat="48.6309" lon="2.09846">
        <ele>129.2</ele>
        <time>2025-03-19T17:07:11.046Z</time>
      </trkpt>
      <trkpt lat="48.63083" lon="2.09844">
        <ele>128.9</ele>
        <time>2025-03-19T17:07:15.447Z</time>
      </trkpt>
      <trkpt lat="48.63075" lon="2.09841">
        <ele>128.4</ele>
        <time>2025-03-19T17:07:19.849Z</time>
      </trkpt>
      <trkpt lat="48.63069" lon="2.09842">
        <ele>127.9</ele>
        <time>2025-03-19T17:07:23.578Z</time>
      </trkpt>
      <trkpt lat="48.63062" lon="2.09842">
        <ele>127.5</ele>
        <time>2025-03-19T17:07:27.307Z</time>
      </trkpt>
      <trkpt lat="48.63059" lon="2.09847">
        <ele>127.2</ele>
        <time>2025-03-19T17:07:29.865Z</time>
      </trkpt>
      <trkpt lat="48.63055" lon="2.09848">
        <ele>127</ele>
        <time>2025-03-19T17:07:32.188Z</time>
      </trkpt>
      <trkpt lat="48.63051" lon="2.09846">
        <ele>126.8</ele>
        <time>2025-03-19T17:07:34.602Z</time>
      </trkpt>
      <trkpt lat="48.63048" lon="2.0984">
        <ele>126.7</ele>
        <time>2025-03-19T17:07:37.665Z</time>
      </trkpt>
      <trkpt lat="48.63043" lon="2.09839">
        <ele>126.5</ele>
        <time>2025-03-19T17:07:40.919Z</time>
      </trkpt>
      <trkpt lat="48.63037" lon="2.09838">
        <ele>126.3</ele>
        <time>2025-03-19T17:07:44.173Z</time>
      </trkpt>
      <trkpt lat="48.63032" lon="2.09838">
        <ele>126.1</ele>
        <time>2025-03-19T17:07:47.446Z</time>
      </trkpt>
      <trkpt lat="48.63026" lon="2.09839">
        <ele>125.9</ele>
        <time>2025-03-19T17:07:50.719Z</time>
      </trkpt>
      <trkpt lat="48.63021" lon="2.09839">
        <ele>125.8</ele>
        <time>2025-03-19T17:07:53.993Z</time>
      </trkpt>
      <trkpt lat="48.63015" lon="2.09839">
        <ele>125.6</ele>
        <time>2025-03-19T17:07:57.267Z</time>
      </trkpt>
      <trkpt lat="48.63015" lon="2.09839">
        <ele>125.6</ele>
        <time>2025-03-19T17:07:57.267Z</time>
      </trkpt>
      <trkpt lat="48.63015" lon="2.09839">
        <ele>125.6</ele>
        <time>2025-03-19T17:07:57.267Z</time>
      </trkpt>
      <trkpt lat="48.63015" lon="2.09839">
        <ele>125.6</ele>
        <time>2025-03-19T17:07:57.267Z</time>
      </trkpt>
      <trkpt lat="48.63008" lon="2.09842">
        <ele>125.5</ele>
        <time>2025-03-19T17:08:02.100Z</time>
      </trkpt>
      <trkpt lat="48.63" lon="2.09844">
        <ele>125.4</ele>
        <time>2025-03-19T17:08:06.934Z</time>
      </trkpt>
      <trkpt lat="48.62993" lon="2.09845">
        <ele>125.4</ele>
        <time>2025-03-19T17:08:11.456Z</time>
      </trkpt>
      <trkpt lat="48.62986" lon="2.09846">
        <ele>125.5</ele>
        <time>2025-03-19T17:08:15.979Z</time>
      </trkpt>
      <trkpt lat="48.62979" lon="2.09847">
        <ele>125.5</ele>
        <time>2025-03-19T17:08:20.502Z</time>
      </trkpt>
      <trkpt lat="48.62973" lon="2.09848">
        <ele>125.5</ele>
        <time>2025-03-19T17:08:25.025Z</time>
      </trkpt>
      <trkpt lat="48.62966" lon="2.09849">
        <ele>125.5</ele>
        <time>2025-03-19T17:08:29.548Z</time>
      </trkpt>
      <trkpt lat="48.62959" lon="2.0985">
        <ele>125.4</ele>
        <time>2025-03-19T17:08:34.071Z</time>
      </trkpt>
      <trkpt lat="48.62952" lon="2.09851">
        <ele>125.4</ele>
        <time>2025-03-19T17:08:38.594Z</time>
      </trkpt>
      <trkpt lat="48.62945" lon="2.09852">
        <ele>125.4</ele>
        <time>2025-03-19T17:08:43.118Z</time>
        <extensions>
          <visugpx:TrkExtension xmlns:visugpx="https://www.visugpx.com/editgpx/">
            <visugpx:node>1</visugpx:node>
            </visugpx:TrkExtension>
        </extensions>
      </trkpt>
      <trkpt lat="48.62945" lon="2.09852">
        <ele>125.4</ele>
        <time>2025-03-19T17:08:43.118Z</time>
      </trkpt>
      <trkpt lat="48.6294" lon="2.09853">
        <ele>125.2</ele>
        <time>2025-03-19T17:08:46.282Z</time>
      </trkpt>
      <trkpt lat="48.62934" lon="2.09854">
        <ele>124.9</ele>
        <time>2025-03-19T17:08:49.446Z</time>
      </trkpt>
      <trkpt lat="48.62929" lon="2.09854">
        <ele>124.6</ele>
        <time>2025-03-19T17:08:52.610Z</time>
      </trkpt>
      <trkpt lat="48.62923" lon="2.09855">
        <ele>124.4</ele>
        <time>2025-03-19T17:08:55.775Z</time>
      </trkpt>
      <trkpt lat="48.62923" lon="2.09862">
        <ele>124.4</ele>
        <time>2025-03-19T17:08:58.805Z</time>
      </trkpt>
      <trkpt lat="48.62919" lon="2.09868">
        <ele>124.1</ele>
        <time>2025-03-19T17:09:02.033Z</time>
      </trkpt>
      <trkpt lat="48.62915" lon="2.09867">
        <ele>124</ele>
        <time>2025-03-19T17:09:04.496Z</time>
        <extensions>
          <visugpx:TrkExtension xmlns:visugpx="https://www.visugpx.com/editgpx/">
            <visugpx:node>2</visugpx:node>
            </visugpx:TrkExtension>
        </extensions>
      </trkpt>
      <trkpt lat="48.62913" lon="2.09867">
        <ele>124</ele>
        <time>2025-03-19T17:09:05.806Z</time>
      </trkpt>
      <trkpt lat="48.6291" lon="2.09862">
        <ele>124</ele>
        <time>2025-03-19T17:09:08.729Z</time>
      </trkpt>
      <trkpt lat="48.62905" lon="2.09866">
        <ele>123.9</ele>
        <time>2025-03-19T17:09:11.964Z</time>
      </trkpt>
      <trkpt lat="48.629" lon="2.09869">
        <ele>123.8</ele>
        <time>2025-03-19T17:09:15.199Z</time>
      </trkpt>
      <trkpt lat="48.62895" lon="2.09873">
        <ele>123.7</ele>
        <time>2025-03-19T17:09:18.434Z</time>
      </trkpt>
      <trkpt lat="48.6289" lon="2.09877">
        <ele>123.5</ele>
        <time>2025-03-19T17:09:21.670Z</time>
      </trkpt>
      <trkpt lat="48.62885" lon="2.0988">
        <ele>123.1</ele>
        <time>2025-03-19T17:09:24.906Z</time>
      </trkpt>
      <trkpt lat="48.6288" lon="2.09884">
        <ele>122.8</ele>
        <time>2025-03-19T17:09:28.142Z</time>
      </trkpt>
      <trkpt lat="48.62875" lon="2.09887">
        <ele>122.5</ele>
        <time>2025-03-19T17:09:31.378Z</time>
      </trkpt>
      <trkpt lat="48.6287" lon="2.09891">
        <ele>122.3</ele>
        <time>2025-03-19T17:09:34.615Z</time>
      </trkpt>
      <trkpt lat="48.62865" lon="2.09887">
        <ele>122.1</ele>
        <time>2025-03-19T17:09:37.944Z</time>
      </trkpt>
      <trkpt lat="48.62861" lon="2.09885">
        <ele>122</ele>
        <time>2025-03-19T17:09:40.511Z</time>
      </trkpt>
      <trkpt lat="48.62856" lon="2.09883">
        <ele>121.4</ele>
        <time>2025-03-19T17:09:43.392Z</time>
      </trkpt>
      <trkpt lat="48.62852" lon="2.0988">
        <ele>120.9</ele>
        <time>2025-03-19T17:09:46.274Z</time>
      </trkpt>
      <trkpt lat="48.62847" lon="2.09878">
        <ele>120.2</ele>
        <time>2025-03-19T17:09:49.156Z</time>
      </trkpt>
      <trkpt lat="48.62842" lon="2.09875">
        <ele>119.6</ele>
        <time>2025-03-19T17:09:52.039Z</time>
      </trkpt>
      <trkpt lat="48.62834" lon="2.0987">
        <ele>118.4</ele>
        <time>2025-03-19T17:09:56.998Z</time>
      </trkpt>
      <trkpt lat="48.62828" lon="2.09866">
        <ele>117.7</ele>
        <time>2025-03-19T17:10:01.093Z</time>
      </trkpt>
      <trkpt lat="48.62821" lon="2.09861">
        <ele>117.1</ele>
        <time>2025-03-19T17:10:05.190Z</time>
      </trkpt>
      <trkpt lat="48.62815" lon="2.09856">
        <ele>116.6</ele>
        <time>2025-03-19T17:10:09.457Z</time>
      </trkpt>
      <trkpt lat="48.62808" lon="2.0985">
        <ele>116.2</ele>
        <time>2025-03-19T17:10:13.725Z</time>
      </trkpt>
      <trkpt lat="48.62804" lon="2.09848">
        <ele>115.9</ele>
        <time>2025-03-19T17:10:16.139Z</time>
      </trkpt>
      <trkpt lat="48.62804" lon="2.09848">
        <ele>115.9</ele>
        <time>2025-03-19T17:10:16.139Z</time>
        <extensions>
          <visugpx:TrkExtension xmlns:visugpx="https://www.visugpx.com/editgpx/">
            <visugpx:node>3</visugpx:node>
            </visugpx:TrkExtension>
        </extensions>
      </trkpt>
      <trkpt lat="48.62799" lon="2.09844">
        <ele>115.5</ele>
        <time>2025-03-19T17:10:19.550Z</time>
      </trkpt>
      <trkpt lat="48.62794" lon="2.0984">
        <ele>115.1</ele>
        <time>2025-03-19T17:10:22.962Z</time>
      </trkpt>
      <trkpt lat="48.62788" lon="2.09835">
        <ele>114.8</ele>
        <time>2025-03-19T17:10:26.374Z</time>
      </trkpt>
      <trkpt lat="48.62783" lon="2.09831">
        <ele>114.3</ele>
        <time>2025-03-19T17:10:29.787Z</time>
      </trkpt>
      <trkpt lat="48.62783" lon="2.0983">
        <ele>114.3</ele>
        <time>2025-03-19T17:10:30.220Z</time>
      </trkpt>
      <trkpt lat="48.62783" lon="2.09831">
        <ele>114.3</ele>
        <time>2025-03-19T17:10:30.598Z</time>
        <extensions>
          <visugpx:TrkExtension xmlns:visugpx="https://www.visugpx.com/editgpx/">
            <visugpx:node>4</visugpx:node>
            </visugpx:TrkExtension>
        </extensions>
      </trkpt>
      <trkpt lat="48.62778" lon="2.09826">
        <ele>113.8</ele>
        <time>2025-03-19T17:10:34.033Z</time>
      </trkpt>
      <trkpt lat="48.62772" lon="2.09821">
        <ele>113.2</ele>
        <time>2025-03-19T17:10:38.300Z</time>
      </trkpt>
      <trkpt lat="48.62765" lon="2.09815">
        <ele>112.7</ele>
        <time>2025-03-19T17:10:42.567Z</time>
      </trkpt>
      <trkpt lat="48.62759" lon="2.0981">
        <ele>112.3</ele>
        <time>2025-03-19T17:10:46.834Z</time>
      </trkpt>
      <trkpt lat="48.62752" lon="2.09804">
        <ele>112.1</ele>
        <time>2025-03-19T17:10:51.103Z</time>
      </trkpt>
      <trkpt lat="48.62745" lon="2.09799">
        <ele>112</ele>
        <time>2025-03-19T17:10:56.344Z</time>
      </trkpt>
      <trkpt lat="48.62739" lon="2.09794">
        <ele>112.2</ele>
        <time>2025-03-19T17:11:01.585Z</time>
      </trkpt>
      <trkpt lat="48.62732" lon="2.09789">
        <ele>112.4</ele>
        <time>2025-03-19T17:11:06.826Z</time>
      </trkpt>
      <trkpt lat="48.62725" lon="2.09785">
        <ele>112.7</ele>
        <time>2025-03-19T17:11:12.068Z</time>
      </trkpt>
      <trkpt lat="48.62718" lon="2.0978">
        <ele>112.9</ele>
        <time>2025-03-19T17:11:17.310Z</time>
      </trkpt>
      <trkpt lat="48.62712" lon="2.09775">
        <ele>113</ele>
        <time>2025-03-19T17:11:22.552Z</time>
      </trkpt>
      <trkpt lat="48.62705" lon="2.0977">
        <ele>113.2</ele>
        <time>2025-03-19T17:11:27.794Z</time>
      </trkpt>
      <trkpt lat="48.62698" lon="2.09765">
        <ele>113.4</ele>
        <time>2025-03-19T17:11:33.037Z</time>
      </trkpt>
      <trkpt lat="48.62693" lon="2.09762">
        <ele>113.6</ele>
        <time>2025-03-19T17:11:36.997Z</time>
      </trkpt>
      <trkpt lat="48.62688" lon="2.09756">
        <ele>113.9</ele>
        <time>2025-03-19T17:11:41.996Z</time>
      </trkpt>
      <trkpt lat="48.62682" lon="2.09749">
        <ele>114</ele>
        <time>2025-03-19T17:11:46.997Z</time>
      </trkpt>
      <trkpt lat="48.62675" lon="2.09742">
        <ele>114.2</ele>
        <time>2025-03-19T17:11:53.303Z</time>
      </trkpt>
      <trkpt lat="48.62667" lon="2.09735">
        <ele>114.5</ele>
        <time>2025-03-19T17:11:59.611Z</time>
      </trkpt>
      <trkpt lat="48.62663" lon="2.0973">
        <ele>114.8</ele>
        <time>2025-03-19T17:12:03.474Z</time>
      </trkpt>
      <trkpt lat="48.62659" lon="2.09726">
        <ele>115.2</ele>
        <time>2025-03-19T17:12:07.338Z</time>
      </trkpt>
      <trkpt lat="48.62655" lon="2.09721">
        <ele>115.5</ele>
        <time>2025-03-19T17:12:11.202Z</time>
      </trkpt>
      <trkpt lat="48.62651" lon="2.09716">
        <ele>115.7</ele>
        <time>2025-03-19T17:12:15.066Z</time>
      </trkpt>
      <trkpt lat="48.62646" lon="2.09711">
        <ele>115.8</ele>
        <time>2025-03-19T17:12:18.930Z</time>
      </trkpt>
      <trkpt lat="48.62642" lon="2.09707">
        <ele>115.9</ele>
        <time>2025-03-19T17:12:22.794Z</time>
      </trkpt>
      <trkpt lat="48.62638" lon="2.09702">
        <ele>116</ele>
        <time>2025-03-19T17:12:26.658Z</time>
      </trkpt>
      <trkpt lat="48.62634" lon="2.09697">
        <ele>116.2</ele>
        <time>2025-03-19T17:12:30.523Z</time>
      </trkpt>
      <trkpt lat="48.6263" lon="2.09692">
        <ele>116.4</ele>
        <time>2025-03-19T17:12:34.743Z</time>
      </trkpt>
      <trkpt lat="48.62626" lon="2.09686">
        <ele>116.8</ele>
        <time>2025-03-19T17:12:38.963Z</time>
      </trkpt>
      <trkpt lat="48.62622" lon="2.09681">
        <ele>117.1</ele>
        <time>2025-03-19T17:12:43.183Z</time>
      </trkpt>
      <trkpt lat="48.62618" lon="2.09675">
        <ele>117.5</ele>
        <time>2025-03-19T17:12:47.404Z</time>
      </trkpt>
      <trkpt lat="48.62613" lon="2.0967">
        <ele>117.8</ele>
        <time>2025-03-19T17:12:51.625Z</time>
      </trkpt>
      <trkpt lat="48.62609" lon="2.09664">
        <ele>118.1</ele>
        <time>2025-03-19T17:12:55.846Z</time>
      </trkpt>
      <trkpt lat="48.62605" lon="2.09659">
        <ele>118.2</ele>
        <time>2025-03-19T17:13:00.067Z</time>
      </trkpt>
      <trkpt lat="48.62601" lon="2.09653">
        <ele>118.4</ele>
        <time>2025-03-19T17:13:04.289Z</time>
      </trkpt>
      <trkpt lat="48.62594" lon="2.09645">
        <ele>118.6</ele>
        <time>2025-03-19T17:13:10.477Z</time>
      </trkpt>
      <trkpt lat="48.62587" lon="2.09637">
        <ele>118.9</ele>
        <time>2025-03-19T17:13:16.665Z</time>
      </trkpt>
      <trkpt lat="48.6258" lon="2.09629">
        <ele>119.1</ele>
        <time>2025-03-19T17:13:22.853Z</time>
      </trkpt>
      <trkpt lat="48.62574" lon="2.09621">
        <ele>119.4</ele>
        <time>2025-03-19T17:13:29.041Z</time>
      </trkpt>
      <trkpt lat="48.62567" lon="2.09613">
        <ele>119.6</ele>
        <time>2025-03-19T17:13:35.229Z</time>
      </trkpt>
      <trkpt lat="48.6256" lon="2.09605">
        <ele>119.9</ele>
        <time>2025-03-19T17:13:41.417Z</time>
      </trkpt>
      <trkpt lat="48.62553" lon="2.09597">
        <ele>120.1</ele>
        <time>2025-03-19T17:13:47.606Z</time>
      </trkpt>
      <trkpt lat="48.62546" lon="2.09589">
        <ele>120.3</ele>
        <time>2025-03-19T17:13:53.796Z</time>
      </trkpt>
      <trkpt lat="48.62539" lon="2.09581">
        <ele>120.7</ele>
        <time>2025-03-19T17:14:00.212Z</time>
      </trkpt>
      <trkpt lat="48.62532" lon="2.09574">
        <ele>121.2</ele>
        <time>2025-03-19T17:14:06.628Z</time>
      </trkpt>
      <trkpt lat="48.62525" lon="2.09566">
        <ele>121.7</ele>
        <time>2025-03-19T17:14:13.044Z</time>
      </trkpt>
      <trkpt lat="48.62519" lon="2.09559">
        <ele>122.2</ele>
        <time>2025-03-19T17:14:19.460Z</time>
      </trkpt>
      <trkpt lat="48.62512" lon="2.09551">
        <ele>122.6</ele>
        <time>2025-03-19T17:14:25.876Z</time>
      </trkpt>
      <trkpt lat="48.62505" lon="2.09543">
        <ele>122.8</ele>
        <time>2025-03-19T17:14:32.292Z</time>
      </trkpt>
      <trkpt lat="48.62498" lon="2.09536">
        <ele>123.1</ele>
        <time>2025-03-19T17:14:38.708Z</time>
      </trkpt>
      <trkpt lat="48.62491" lon="2.09528">
        <ele>123.3</ele>
        <time>2025-03-19T17:14:45.126Z</time>
      </trkpt>
      <trkpt lat="48.62484" lon="2.09522">
        <ele>123.7</ele>
        <time>2025-03-19T17:14:51.438Z</time>
      </trkpt>
      <trkpt lat="48.62476" lon="2.09515">
        <ele>123.9</ele>
        <time>2025-03-19T17:14:57.752Z</time>
      </trkpt>
      <trkpt lat="48.62469" lon="2.09508">
        <ele>124.1</ele>
        <time>2025-03-19T17:15:03.887Z</time>
      </trkpt>
      <trkpt lat="48.62463" lon="2.09501">
        <ele>124.3</ele>
        <time>2025-03-19T17:15:10.022Z</time>
      </trkpt>
      <trkpt lat="48.62456" lon="2.09494">
        <ele>124.7</ele>
        <time>2025-03-19T17:15:16.157Z</time>
      </trkpt>
      <trkpt lat="48.62449" lon="2.09487">
        <ele>124.9</ele>
        <time>2025-03-19T17:15:22.292Z</time>
      </trkpt>
      <trkpt lat="48.62442" lon="2.0948">
        <ele>125.2</ele>
        <time>2025-03-19T17:15:28.427Z</time>
      </trkpt>
      <trkpt lat="48.62436" lon="2.09473">
        <ele>125.6</ele>
        <time>2025-03-19T17:15:34.562Z</time>
      </trkpt>
      <trkpt lat="48.62429" lon="2.09466">
        <ele>126.2</ele>
        <time>2025-03-19T17:15:40.697Z</time>
      </trkpt>
      <trkpt lat="48.62422" lon="2.09459">
        <ele>126.7</ele>
        <time>2025-03-19T17:15:46.834Z</time>
      </trkpt>
      <trkpt lat="48.62417" lon="2.09454">
        <ele>127</ele>
        <time>2025-03-19T17:15:51.134Z</time>
      </trkpt>
      <trkpt lat="48.62412" lon="2.0945">
        <ele>127.2</ele>
        <time>2025-03-19T17:15:55.435Z</time>
      </trkpt>
      <trkpt lat="48.62407" lon="2.09445">
        <ele>127.3</ele>
        <time>2025-03-19T17:15:59.736Z</time>
      </trkpt>
      <trkpt lat="48.62402" lon="2.0944">
        <ele>127.5</ele>
        <time>2025-03-19T17:16:04.038Z</time>
      </trkpt>
      <trkpt lat="48.62396" lon="2.09434">
        <ele>127.7</ele>
        <time>2025-03-19T17:16:09.134Z</time>
      </trkpt>
      <trkpt lat="48.6239" lon="2.09428">
        <ele>127.9</ele>
        <time>2025-03-19T17:16:14.230Z</time>
      </trkpt>
      <trkpt lat="48.62385" lon="2.09422">
        <ele>128.2</ele>
        <time>2025-03-19T17:16:19.326Z</time>
      </trkpt>
      <trkpt lat="48.62379" lon="2.09416">
        <ele>128.4</ele>
        <time>2025-03-19T17:16:24.422Z</time>
      </trkpt>
      <trkpt lat="48.62373" lon="2.09409">
        <ele>128.6</ele>
        <time>2025-03-19T17:16:29.518Z</time>
      </trkpt>
      <trkpt lat="48.62367" lon="2.09403">
        <ele>128.8</ele>
        <time>2025-03-19T17:16:34.614Z</time>
      </trkpt>
      <trkpt lat="48.62361" lon="2.09397">
        <ele>129</ele>
        <time>2025-03-19T17:16:39.710Z</time>
      </trkpt>
      <trkpt lat="48.62356" lon="2.09391">
        <ele>129.2</ele>
        <time>2025-03-19T17:16:44.806Z</time>
      </trkpt>
      <trkpt lat="48.6235" lon="2.09385">
        <ele>129.4</ele>
        <time>2025-03-19T17:16:49.902Z</time>
      </trkpt>
      <trkpt lat="48.62344" lon="2.09379">
        <ele>129.6</ele>
        <time>2025-03-19T17:16:54.998Z</time>
      </trkpt>
      <trkpt lat="48.62338" lon="2.09373">
        <ele>129.8</ele>
        <time>2025-03-19T17:17:00.095Z</time>
      </trkpt>
      <trkpt lat="48.62332" lon="2.09367">
        <ele>130</ele>
        <time>2025-03-19T17:17:05.192Z</time>
      </trkpt>
      <trkpt lat="48.62326" lon="2.0936">
        <ele>130.2</ele>
        <time>2025-03-19T17:17:10.289Z</time>
      </trkpt>
      <trkpt lat="48.62321" lon="2.09354">
        <ele>130.5</ele>
        <time>2025-03-19T17:17:15.386Z</time>
      </trkpt>
      <trkpt lat="48.62315" lon="2.09348">
        <ele>130.7</ele>
        <time>2025-03-19T17:17:20.483Z</time>
      </trkpt>
      <trkpt lat="48.62309" lon="2.09342">
        <ele>130.9</ele>
        <time>2025-03-19T17:17:25.581Z</time>
      </trkpt>
      <trkpt lat="48.62303" lon="2.09336">
        <ele>131.2</ele>
        <time>2025-03-19T17:17:31.328Z</time>
      </trkpt>
      <trkpt lat="48.62297" lon="2.0933">
        <ele>131.7</ele>
        <time>2025-03-19T17:17:37.075Z</time>
      </trkpt>
      <trkpt lat="48.62291" lon="2.09323">
        <ele>132.2</ele>
        <time>2025-03-19T17:17:42.822Z</time>
      </trkpt>
      <trkpt lat="48.62285" lon="2.09317">
        <ele>132.6</ele>
        <time>2025-03-19T17:17:48.571Z</time>
      </trkpt>
      <trkpt lat="48.62279" lon="2.09309">
        <ele>133</ele>
        <time>2025-03-19T17:17:54.834Z</time>
      </trkpt>
      <trkpt lat="48.62273" lon="2.09302">
        <ele>133.5</ele>
        <time>2025-03-19T17:18:01.097Z</time>
      </trkpt>
      <trkpt lat="48.62267" lon="2.09294">
        <ele>134</ele>
        <time>2025-03-19T17:18:07.360Z</time>
      </trkpt>
      <trkpt lat="48.62261" lon="2.09286">
        <ele>134.5</ele>
        <time>2025-03-19T17:18:13.624Z</time>
      </trkpt>
      <trkpt lat="48.62256" lon="2.09284">
        <ele>134.8</ele>
        <time>2025-03-19T17:18:17.939Z</time>
      </trkpt>
      <trkpt lat="48.6225" lon="2.09281">
        <ele>135</ele>
        <time>2025-03-19T17:18:22.256Z</time>
      </trkpt>
      <trkpt lat="48.62243" lon="2.09274">
        <ele>135.6</ele>
        <time>2025-03-19T17:18:29.153Z</time>
      </trkpt>
      <trkpt lat="48.62236" lon="2.09266">
        <ele>136.2</ele>
        <time>2025-03-19T17:18:36.050Z</time>
      </trkpt>
      <trkpt lat="48.62228" lon="2.09259">
        <ele>136.7</ele>
        <time>2025-03-19T17:18:42.947Z</time>
      </trkpt>
      <trkpt lat="48.62221" lon="2.09251">
        <ele>137</ele>
        <time>2025-03-19T17:18:49.845Z</time>
      </trkpt>
      <trkpt lat="48.62215" lon="2.09244">
        <ele>137.3</ele>
        <time>2025-03-19T17:18:54.603Z</time>
      </trkpt>
      <trkpt lat="48.6221" lon="2.09238">
        <ele>137.5</ele>
        <time>2025-03-19T17:18:59.361Z</time>
      </trkpt>
      <trkpt lat="48.62204" lon="2.09231">
        <ele>137.7</ele>
        <time>2025-03-19T17:19:04.119Z</time>
      </trkpt>
      <trkpt lat="48.62198" lon="2.09225">
        <ele>137.9</ele>
        <time>2025-03-19T17:19:08.877Z</time>
      </trkpt>
      <trkpt lat="48.62192" lon="2.09218">
        <ele>137.8</ele>
        <time>2025-03-19T17:19:13.635Z</time>
      </trkpt>
      <trkpt lat="48.62187" lon="2.09211">
        <ele>137.6</ele>
        <time>2025-03-19T17:19:18.394Z</time>
      </trkpt>
      <trkpt lat="48.62181" lon="2.09205">
        <ele>137.4</ele>
        <time>2025-03-19T17:19:23.153Z</time>
      </trkpt>
      <trkpt lat="48.62175" lon="2.09198">
        <ele>137.1</ele>
        <time>2025-03-19T17:19:27.913Z</time>
      </trkpt>
      <trkpt lat="48.6217" lon="2.09191">
        <ele>136.9</ele>
        <time>2025-03-19T17:19:31.967Z</time>
      </trkpt>
      <trkpt lat="48.62166" lon="2.09184">
        <ele>136.7</ele>
        <time>2025-03-19T17:19:36.021Z</time>
      </trkpt>
      <trkpt lat="48.62161" lon="2.09177">
        <ele>136.6</ele>
        <time>2025-03-19T17:19:40.075Z</time>
      </trkpt>
      <trkpt lat="48.62156" lon="2.0917">
        <ele>136.5</ele>
        <time>2025-03-19T17:19:44.131Z</time>
      </trkpt>
      <trkpt lat="48.62151" lon="2.09165">
        <ele>136.5</ele>
        <time>2025-03-19T17:19:47.780Z</time>
      </trkpt>
      <trkpt lat="48.62147" lon="2.0916">
        <ele>136.3</ele>
        <time>2025-03-19T17:19:51.430Z</time>
      </trkpt>
      <trkpt lat="48.62142" lon="2.09155">
        <ele>136.1</ele>
        <time>2025-03-19T17:19:55.080Z</time>
      </trkpt>
      <trkpt lat="48.62137" lon="2.0915">
        <ele>135.8</ele>
        <time>2025-03-19T17:19:58.730Z</time>
      </trkpt>
      <trkpt lat="48.62132" lon="2.09144">
        <ele>135.6</ele>
        <time>2025-03-19T17:20:02.380Z</time>
      </trkpt>
      <trkpt lat="48.62128" lon="2.09139">
        <ele>135.4</ele>
        <time>2025-03-19T17:20:06.030Z</time>
      </trkpt>
      <trkpt lat="48.62123" lon="2.09134">
        <ele>135.6</ele>
        <time>2025-03-19T17:20:09.680Z</time>
      </trkpt>
      <trkpt lat="48.62118" lon="2.09129">
        <ele>135.8</ele>
        <time>2025-03-19T17:20:13.331Z</time>
      </trkpt>
      <trkpt lat="48.62116" lon="2.09117">
        <ele>135.8</ele>
        <time>2025-03-19T17:20:18.497Z</time>
      </trkpt>
      <trkpt lat="48.62114" lon="2.09105">
        <ele>135.7</ele>
        <time>2025-03-19T17:20:23.663Z</time>
      </trkpt>
      <trkpt lat="48.62111" lon="2.09092">
        <ele>135.3</ele>
        <time>2025-03-19T17:20:28.829Z</time>
      </trkpt>
      <trkpt lat="48.62109" lon="2.0908">
        <ele>135.1</ele>
        <time>2025-03-19T17:20:33.996Z</time>
      </trkpt>
      <trkpt lat="48.62106" lon="2.0907">
        <ele>135.3</ele>
        <time>2025-03-19T17:20:39.963Z</time>
      </trkpt>
      <trkpt lat="48.62102" lon="2.09061">
        <ele>135.6</ele>
        <time>2025-03-19T17:20:45.931Z</time>
      </trkpt>
      <trkpt lat="48.62099" lon="2.09051">
        <ele>136</ele>
        <time>2025-03-19T17:20:51.899Z</time>
      </trkpt>
      <trkpt lat="48.62095" lon="2.09042">
        <ele>136.5</ele>
        <time>2025-03-19T17:20:57.867Z</time>
      </trkpt>
      <trkpt lat="48.62092" lon="2.09032">
        <ele>137</ele>
        <time>2025-03-19T17:21:03.835Z</time>
      </trkpt>
      <trkpt lat="48.62088" lon="2.09022">
        <ele>137.7</ele>
        <time>2025-03-19T17:21:09.803Z</time>
      </trkpt>
      <trkpt lat="48.62085" lon="2.09013">
        <ele>138.4</ele>
        <time>2025-03-19T17:21:15.771Z</time>
      </trkpt>
      <trkpt lat="48.62081" lon="2.09003">
        <ele>139.2</ele>
        <time>2025-03-19T17:21:21.740Z</time>
      </trkpt>
      <trkpt lat="48.62078" lon="2.08997">
        <ele>140</ele>
        <time>2025-03-19T17:21:27.038Z</time>
      </trkpt>
      <trkpt lat="48.62075" lon="2.08991">
        <ele>140.9</ele>
        <time>2025-03-19T17:21:32.336Z</time>
      </trkpt>
      <trkpt lat="48.62073" lon="2.08985">
        <ele>141.8</ele>
        <time>2025-03-19T17:21:37.634Z</time>
      </trkpt>
      <trkpt lat="48.6207" lon="2.08979">
        <ele>142.8</ele>
        <time>2025-03-19T17:21:42.932Z</time>
      </trkpt>
      <trkpt lat="48.62067" lon="2.08973">
        <ele>143.9</ele>
        <time>2025-03-19T17:21:48.230Z</time>
      </trkpt>
      <trkpt lat="48.62064" lon="2.08967">
        <ele>144.7</ele>
        <time>2025-03-19T17:21:53.528Z</time>
      </trkpt>
      <trkpt lat="48.62061" lon="2.08961">
        <ele>145.4</ele>
        <time>2025-03-19T17:21:58.826Z</time>
      </trkpt>
      <trkpt lat="48.62059" lon="2.08955">
        <ele>146.1</ele>
        <time>2025-03-19T17:22:04.124Z</time>
      </trkpt>
      <trkpt lat="48.62056" lon="2.08949">
        <ele>146.8</ele>
        <time>2025-03-19T17:22:09.422Z</time>
      </trkpt>
      <trkpt lat="48.62053" lon="2.08943">
        <ele>147.5</ele>
        <time>2025-03-19T17:22:14.720Z</time>
      </trkpt>
      <trkpt lat="48.6205" lon="2.08937">
        <ele>148.2</ele>
        <time>2025-03-19T17:22:20.018Z</time>
      </trkpt>
      <trkpt lat="48.62047" lon="2.08931">
        <ele>148.8</ele>
        <time>2025-03-19T17:22:25.316Z</time>
      </trkpt>
      <trkpt lat="48.62044" lon="2.08925">
        <ele>149.4</ele>
        <time>2025-03-19T17:22:30.614Z</time>
      </trkpt>
      <trkpt lat="48.62042" lon="2.08919">
        <ele>150</ele>
        <time>2025-03-19T17:22:35.912Z</time>
      </trkpt>
      <trkpt lat="48.62039" lon="2.08913">
        <ele>150.5</ele>
        <time>2025-03-19T17:22:41.210Z</time>
      </trkpt>
      <trkpt lat="48.62036" lon="2.08907">
        <ele>150.9</ele>
        <time>2025-03-19T17:22:46.510Z</time>
      </trkpt>
      <trkpt lat="48.62036" lon="2.08899">
        <ele>151.1</ele>
        <time>2025-03-19T17:22:49.981Z</time>
      </trkpt>
      <trkpt lat="48.62035" lon="2.0889">
        <ele>151.2</ele>
        <time>2025-03-19T17:22:53.452Z</time>
      </trkpt>
      <trkpt lat="48.62035" lon="2.08882">
        <ele>151.3</ele>
        <time>2025-03-19T17:22:56.924Z</time>
      </trkpt>
      <trkpt lat="48.62035" lon="2.08874">
        <ele>151.4</ele>
        <time>2025-03-19T17:23:00.396Z</time>
      </trkpt>
      <trkpt lat="48.62034" lon="2.08865">
        <ele>151.5</ele>
        <time>2025-03-19T17:23:03.868Z</time>
      </trkpt>
      <trkpt lat="48.62034" lon="2.08857">
        <ele>151.5</ele>
        <time>2025-03-19T17:23:07.340Z</time>
      </trkpt>
      <trkpt lat="48.62033" lon="2.08849">
        <ele>151.2</ele>
        <time>2025-03-19T17:23:10.812Z</time>
      </trkpt>
      <trkpt lat="48.62033" lon="2.08841">
        <ele>151</ele>
        <time>2025-03-19T17:23:14.284Z</time>
      </trkpt>
      <trkpt lat="48.62033" lon="2.08832">
        <ele>150.8</ele>
        <time>2025-03-19T17:23:17.756Z</time>
      </trkpt>
      <trkpt lat="48.62032" lon="2.08824">
        <ele>150.8</ele>
        <time>2025-03-19T17:23:21.228Z</time>
      </trkpt>
      <trkpt lat="48.62032" lon="2.08816">
        <ele>150.9</ele>
        <time>2025-03-19T17:23:24.700Z</time>
      </trkpt>
      <trkpt lat="48.62032" lon="2.08807">
        <ele>150.9</ele>
        <time>2025-03-19T17:23:28.172Z</time>
      </trkpt>
      <trkpt lat="48.62031" lon="2.08799">
        <ele>150.6</ele>
        <time>2025-03-19T17:23:31.644Z</time>
      </trkpt>
      <trkpt lat="48.62031" lon="2.08791">
        <ele>150.4</ele>
        <time>2025-03-19T17:23:35.116Z</time>
      </trkpt>
      <trkpt lat="48.6203" lon="2.08782">
        <ele>150.1</ele>
        <time>2025-03-19T17:23:38.588Z</time>
      </trkpt>
      <trkpt lat="48.6203" lon="2.08774">
        <ele>149.8</ele>
        <time>2025-03-19T17:23:42.061Z</time>
      </trkpt>
      <trkpt lat="48.62032" lon="2.08764">
        <ele>149.4</ele>
        <time>2025-03-19T17:23:45.823Z</time>
      </trkpt>
      <trkpt lat="48.62033" lon="2.08755">
        <ele>149</ele>
        <time>2025-03-19T17:23:49.586Z</time>
      </trkpt>
      <trkpt lat="48.62035" lon="2.08745">
        <ele>148.6</ele>
        <time>2025-03-19T17:23:53.349Z</time>
      </trkpt>
      <trkpt lat="48.62037" lon="2.08736">
        <ele>148.2</ele>
        <time>2025-03-19T17:23:57.112Z</time>
      </trkpt>
      <trkpt lat="48.62038" lon="2.08726">
        <ele>147.8</ele>
        <time>2025-03-19T17:24:00.875Z</time>
      </trkpt>
      <trkpt lat="48.6204" lon="2.08716">
        <ele>147.2</ele>
        <time>2025-03-19T17:24:04.638Z</time>
      </trkpt>
      <trkpt lat="48.62041" lon="2.08707">
        <ele>146.7</ele>
        <time>2025-03-19T17:24:08.401Z</time>
      </trkpt>
      <trkpt lat="48.62043" lon="2.08697">
        <ele>146.1</ele>
        <time>2025-03-19T17:24:12.164Z</time>
      </trkpt>
      <trkpt lat="48.62046" lon="2.08688">
        <ele>145.8</ele>
        <time>2025-03-19T17:24:16.037Z</time>
      </trkpt>
      <trkpt lat="48.62048" lon="2.08678">
        <ele>145.4</ele>
        <time>2025-03-19T17:24:19.910Z</time>
      </trkpt>
      <trkpt lat="48.62051" lon="2.08669">
        <ele>145.1</ele>
        <time>2025-03-19T17:24:23.783Z</time>
      </trkpt>
      <trkpt lat="48.62053" lon="2.08659">
        <ele>144.7</ele>
        <time>2025-03-19T17:24:27.656Z</time>
      </trkpt>
      <trkpt lat="48.62056" lon="2.0865">
        <ele>144.4</ele>
        <time>2025-03-19T17:24:31.529Z</time>
      </trkpt>
      <trkpt lat="48.62058" lon="2.0864">
        <ele>144</ele>
        <time>2025-03-19T17:24:35.402Z</time>
      </trkpt>
      <trkpt lat="48.62061" lon="2.08631">
        <ele>143.5</ele>
        <time>2025-03-19T17:24:39.275Z</time>
      </trkpt>
      <trkpt lat="48.62063" lon="2.08621">
        <ele>143.1</ele>
        <time>2025-03-19T17:24:43.149Z</time>
      </trkpt>
      <trkpt lat="48.62067" lon="2.08618">
        <ele>142.8</ele>
        <time>2025-03-19T17:24:45.728Z</time>
      </trkpt>
      <trkpt lat="48.62071" lon="2.08615">
        <ele>142.6</ele>
        <time>2025-03-19T17:24:48.307Z</time>
      </trkpt>
      <trkpt lat="48.62075" lon="2.08612">
        <ele>142.3</ele>
        <time>2025-03-19T17:24:50.886Z</time>
      </trkpt>
      <trkpt lat="48.62079" lon="2.08609">
        <ele>142</ele>
        <time>2025-03-19T17:24:53.465Z</time>
      </trkpt>
      <trkpt lat="48.62083" lon="2.08605">
        <ele>141.8</ele>
        <time>2025-03-19T17:24:56.044Z</time>
      </trkpt>
      <trkpt lat="48.62087" lon="2.08602">
        <ele>141.4</ele>
        <time>2025-03-19T17:24:58.624Z</time>
      </trkpt>
      <trkpt lat="48.62091" lon="2.08599">
        <ele>141</ele>
        <time>2025-03-19T17:25:01.204Z</time>
      </trkpt>
      <trkpt lat="48.62095" lon="2.08596">
        <ele>140.6</ele>
        <time>2025-03-19T17:25:03.784Z</time>
      </trkpt>
      <trkpt lat="48.62099" lon="2.08593">
        <ele>140.2</ele>
        <time>2025-03-19T17:25:06.364Z</time>
      </trkpt>
      <trkpt lat="48.62103" lon="2.0859">
        <ele>139.8</ele>
        <time>2025-03-19T17:25:08.944Z</time>
      </trkpt>
      <trkpt lat="48.62107" lon="2.08587">
        <ele>139.4</ele>
        <time>2025-03-19T17:25:11.524Z</time>
      </trkpt>
      <trkpt lat="48.62111" lon="2.08584">
        <ele>139</ele>
        <time>2025-03-19T17:25:14.104Z</time>
      </trkpt>
      <trkpt lat="48.62115" lon="2.0858">
        <ele>138.7</ele>
        <time>2025-03-19T17:25:16.684Z</time>
      </trkpt>
      <trkpt lat="48.62119" lon="2.08577">
        <ele>138.4</ele>
        <time>2025-03-19T17:25:19.264Z</time>
      </trkpt>
      <trkpt lat="48.62123" lon="2.08574">
        <ele>138</ele>
        <time>2025-03-19T17:25:21.844Z</time>
      </trkpt>
      <trkpt lat="48.62127" lon="2.08571">
        <ele>137.6</ele>
        <time>2025-03-19T17:25:24.424Z</time>
      </trkpt>
      <trkpt lat="48.62131" lon="2.08566">
        <ele>137.1</ele>
        <time>2025-03-19T17:25:27.351Z</time>
      </trkpt>
      <trkpt lat="48.62135" lon="2.08561">
        <ele>136.6</ele>
        <time>2025-03-19T17:25:30.279Z</time>
      </trkpt>
      <trkpt lat="48.62138" lon="2.08555">
        <ele>136.1</ele>
        <time>2025-03-19T17:25:33.207Z</time>
      </trkpt>
      <trkpt lat="48.62142" lon="2.0855">
        <ele>135.7</ele>
        <time>2025-03-19T17:25:36.135Z</time>
      </trkpt>
      <trkpt lat="48.62143" lon="2.0854">
        <ele>135.6</ele>
        <time>2025-03-19T17:25:40.438Z</time>
      </trkpt>
      <trkpt lat="48.62144" lon="2.08529">
        <ele>135.4</ele>
        <time>2025-03-19T17:25:44.741Z</time>
        <extensions>
          <visugpx:TrkExtension xmlns:visugpx="https://www.visugpx.com/editgpx/">
            <visugpx:node>5</visugpx:node>
            </visugpx:TrkExtension>
        </extensions>
      </trkpt>
      <trkpt lat="48.62145" lon="2.08518">
        <ele>135</ele>
        <time>2025-03-19T17:25:48.947Z</time>
      </trkpt>
      <trkpt lat="48.62139" lon="2.08516">
        <ele>135.6</ele>
        <time>2025-03-19T17:25:53.861Z</time>
      </trkpt>
      <trkpt lat="48.62132" lon="2.08514">
        <ele>135.7</ele>
        <time>2025-03-19T17:25:58.775Z</time>
      </trkpt>
      <trkpt lat="48.62126" lon="2.08512">
        <ele>135.9</ele>
        <time>2025-03-19T17:26:03.689Z</time>
      </trkpt>
      <trkpt lat="48.6212" lon="2.0851">
        <ele>136</ele>
        <time>2025-03-19T17:26:08.603Z</time>
      </trkpt>
      <trkpt lat="48.62113" lon="2.08507">
        <ele>136.2</ele>
        <time>2025-03-19T17:26:13.517Z</time>
      </trkpt>
      <trkpt lat="48.62107" lon="2.08505">
        <ele>136.5</ele>
        <time>2025-03-19T17:26:18.431Z</time>
      </trkpt>
      <trkpt lat="48.621" lon="2.08503">
        <ele>136.9</ele>
        <time>2025-03-19T17:26:23.345Z</time>
      </trkpt>
      <trkpt lat="48.62094" lon="2.08501">
        <ele>137.3</ele>
        <time>2025-03-19T17:26:28.261Z</time>
      </trkpt>
      <trkpt lat="48.62089" lon="2.08495">
        <ele>137.4</ele>
        <time>2025-03-19T17:26:32.506Z</time>
      </trkpt>
      <trkpt lat="48.62085" lon="2.08488">
        <ele>137.5</ele>
        <time>2025-03-19T17:26:36.751Z</time>
      </trkpt>
      <trkpt lat="48.6208" lon="2.08482">
        <ele>137.5</ele>
        <time>2025-03-19T17:26:40.996Z</time>
      </trkpt>
      <trkpt lat="48.62075" lon="2.08475">
        <ele>137.4</ele>
        <time>2025-03-19T17:26:45.242Z</time>
      </trkpt>
      <trkpt lat="48.6207" lon="2.08471">
        <ele>137.4</ele>
        <time>2025-03-19T17:26:49.439Z</time>
      </trkpt>
      <trkpt lat="48.62064" lon="2.08466">
        <ele>137.5</ele>
        <time>2025-03-19T17:26:53.637Z</time>
      </trkpt>
      <trkpt lat="48.62056" lon="2.08462">
        <ele>137.6</ele>
        <time>2025-03-19T17:26:59.362Z</time>
      </trkpt>
      <trkpt lat="48.62052" lon="2.08462">
        <ele>137.9</ele>
        <time>2025-03-19T17:27:03.019Z</time>
      </trkpt>
      <trkpt lat="48.62047" lon="2.08461">
        <ele>138.2</ele>
        <time>2025-03-19T17:27:06.677Z</time>
      </trkpt>
      <trkpt lat="48.62041" lon="2.08459">
        <ele>138.6</ele>
        <time>2025-03-19T17:27:11.991Z</time>
      </trkpt>
      <trkpt lat="48.62034" lon="2.08456">
        <ele>139</ele>
        <time>2025-03-19T17:27:17.306Z</time>
      </trkpt>
      <trkpt lat="48.6203" lon="2.08452">
        <ele>139.1</ele>
        <time>2025-03-19T17:27:21.045Z</time>
      </trkpt>
      <trkpt lat="48.62025" lon="2.08448">
        <ele>139.3</ele>
        <time>2025-03-19T17:27:24.786Z</time>
      </trkpt>
      <trkpt lat="48.62017" lon="2.0845">
        <ele>140</ele>
        <time>2025-03-19T17:27:31.816Z</time>
      </trkpt>
      <trkpt lat="48.62011" lon="2.08448">
        <ele>140.3</ele>
        <time>2025-03-19T17:27:36.514Z</time>
      </trkpt>
      <trkpt lat="48.62006" lon="2.08441">
        <ele>140.5</ele>
        <time>2025-03-19T17:27:41.406Z</time>
      </trkpt>
      <trkpt lat="48.61999" lon="2.08439">
        <ele>140.9</ele>
        <time>2025-03-19T17:27:46.986Z</time>
      </trkpt>
      <trkpt lat="48.61993" lon="2.08433">
        <ele>141.3</ele>
        <time>2025-03-19T17:27:52.609Z</time>
      </trkpt>
      <trkpt lat="48.61995" lon="2.0842">
        <ele>140.7</ele>
        <time>2025-03-19T17:27:57.665Z</time>
      </trkpt>
      <trkpt lat="48.61997" lon="2.08413">
        <ele>140.2</ele>
        <time>2025-03-19T17:28:00.341Z</time>
      </trkpt>
      <trkpt lat="48.61998" lon="2.08407">
        <ele>139.8</ele>
        <time>2025-03-19T17:28:03.017Z</time>
      </trkpt>
      <trkpt lat="48.62" lon="2.084">
        <ele>139.4</ele>
        <time>2025-03-19T17:28:05.694Z</time>
      </trkpt>
      <trkpt lat="48.62002" lon="2.08394">
        <ele>139.1</ele>
        <time>2025-03-19T17:28:08.371Z</time>
      </trkpt>
      <trkpt lat="48.62003" lon="2.08387">
        <ele>138.9</ele>
        <time>2025-03-19T17:28:11.048Z</time>
      </trkpt>
      <trkpt lat="48.62005" lon="2.0838">
        <ele>138.8</ele>
        <time>2025-03-19T17:28:13.725Z</time>
      </trkpt>
      <trkpt lat="48.62006" lon="2.08374">
        <ele>138.6</ele>
        <time>2025-03-19T17:28:16.402Z</time>
      </trkpt>
      <trkpt lat="48.62008" lon="2.08367">
        <ele>138.5</ele>
        <time>2025-03-19T17:28:19.079Z</time>
      </trkpt>
      <trkpt lat="48.62008" lon="2.08362">
        <ele>138.4</ele>
        <time>2025-03-19T17:28:21.054Z</time>
      </trkpt>
      <trkpt lat="48.62005" lon="2.08356">
        <ele>138.5</ele>
        <time>2025-03-19T17:28:24.521Z</time>
      </trkpt>
      <trkpt lat="48.62001" lon="2.08351">
        <ele>138.6</ele>
        <time>2025-03-19T17:28:28.163Z</time>
      </trkpt>
      <trkpt lat="48.61997" lon="2.08345">
        <ele>138.6</ele>
        <time>2025-03-19T17:28:31.807Z</time>
      </trkpt>
      <trkpt lat="48.61998" lon="2.0834">
        <ele>138.4</ele>
        <time>2025-03-19T17:28:33.786Z</time>
      </trkpt>
      <trkpt lat="48.61999" lon="2.08338">
        <ele>138.2</ele>
        <time>2025-03-19T17:28:34.735Z</time>
      </trkpt>
      <trkpt lat="48.62005" lon="2.08335">
        <ele>137.9</ele>
        <time>2025-03-19T17:28:38.356Z</time>
      </trkpt>
      <trkpt lat="48.62007" lon="2.08332">
        <ele>137.8</ele>
        <time>2025-03-19T17:28:40.014Z</time>
      </trkpt>
      <trkpt lat="48.6201" lon="2.08325">
        <ele>137.8</ele>
        <time>2025-03-19T17:28:43.458Z</time>
      </trkpt>
      <trkpt lat="48.62012" lon="2.08318">
        <ele>137.8</ele>
        <time>2025-03-19T17:28:46.902Z</time>
      </trkpt>
      <trkpt lat="48.62012" lon="2.08311">
        <ele>137.9</ele>
        <time>2025-03-19T17:28:50.161Z</time>
      </trkpt>
      <trkpt lat="48.62011" lon="2.08304">
        <ele>138</ele>
        <time>2025-03-19T17:28:53.421Z</time>
      </trkpt>
      <trkpt lat="48.62015" lon="2.08292">
        <ele>138.2</ele>
        <time>2025-03-19T17:28:59.662Z</time>
      </trkpt>
      <trkpt lat="48.62018" lon="2.08285">
        <ele>138.3</ele>
        <time>2025-03-19T17:29:03.520Z</time>
      </trkpt>
      <trkpt lat="48.62022" lon="2.08278">
        <ele>138.2</ele>
        <time>2025-03-19T17:29:07.379Z</time>
      </trkpt>
      <trkpt lat="48.62025" lon="2.08271">
        <ele>138.4</ele>
        <time>2025-03-19T17:29:11.238Z</time>
      </trkpt>
      <trkpt lat="48.62028" lon="2.08264">
        <ele>138.5</ele>
        <time>2025-03-19T17:29:15.097Z</time>
      </trkpt>
      <trkpt lat="48.62032" lon="2.0826">
        <ele>138.7</ele>
        <time>2025-03-19T17:29:18.430Z</time>
      </trkpt>
      <trkpt lat="48.62035" lon="2.08255">
        <ele>138.8</ele>
        <time>2025-03-19T17:29:21.763Z</time>
      </trkpt>
      <trkpt lat="48.62038" lon="2.08247">
        <ele>139.1</ele>
        <time>2025-03-19T17:29:26.501Z</time>
      </trkpt>
      <trkpt lat="48.62042" lon="2.08239">
        <ele>139.4</ele>
        <time>2025-03-19T17:29:31.240Z</time>
      </trkpt>
      <trkpt lat="48.62045" lon="2.08231">
        <ele>139.7</ele>
        <time>2025-03-19T17:29:35.979Z</time>
      </trkpt>
      <trkpt lat="48.62048" lon="2.08223">
        <ele>140</ele>
        <time>2025-03-19T17:29:40.718Z</time>
      </trkpt>
      <trkpt lat="48.62049" lon="2.08212">
        <ele>140.5</ele>
        <time>2025-03-19T17:29:46.700Z</time>
      </trkpt>
      <trkpt lat="48.62046" lon="2.08207">
        <ele>140.8</ele>
        <time>2025-03-19T17:29:50.485Z</time>
      </trkpt>
      <trkpt lat="48.62043" lon="2.08201">
        <ele>141.1</ele>
        <time>2025-03-19T17:29:54.271Z</time>
      </trkpt>
      <trkpt lat="48.62043" lon="2.0819">
        <ele>141.6</ele>
        <time>2025-03-19T17:30:00.210Z</time>
      </trkpt>
      <trkpt lat="48.62041" lon="2.08184">
        <ele>141.9</ele>
        <time>2025-03-19T17:30:03.824Z</time>
      </trkpt>
      <trkpt lat="48.62041" lon="2.0818">
        <ele>142</ele>
        <time>2025-03-19T17:30:05.775Z</time>
      </trkpt>
      <trkpt lat="48.62045" lon="2.0817">
        <ele>142.3</ele>
        <time>2025-03-19T17:30:11.494Z</time>
      </trkpt>
      <trkpt lat="48.62045" lon="2.08166">
        <ele>142.4</ele>
        <time>2025-03-19T17:30:13.445Z</time>
      </trkpt>
      <trkpt lat="48.62041" lon="2.08162">
        <ele>142.7</ele>
        <time>2025-03-19T17:30:17.281Z</time>
      </trkpt>
      <trkpt lat="48.62038" lon="2.08155">
        <ele>143.1</ele>
        <time>2025-03-19T17:30:21.843Z</time>
      </trkpt>
      <trkpt lat="48.62037" lon="2.08146">
        <ele>143.4</ele>
        <time>2025-03-19T17:30:26.805Z</time>
      </trkpt>
      <trkpt lat="48.62036" lon="2.08136">
        <ele>143.8</ele>
        <time>2025-03-19T17:30:31.769Z</time>
      </trkpt>
      <trkpt lat="48.62033" lon="2.08129">
        <ele>144.2</ele>
        <time>2025-03-19T17:30:36.331Z</time>
      </trkpt>
      <trkpt lat="48.62034" lon="2.08125">
        <ele>144.3</ele>
        <time>2025-03-19T17:30:38.400Z</time>
      </trkpt>
      <trkpt lat="48.62032" lon="2.08119">
        <ele>144.6</ele>
        <time>2025-03-19T17:30:42.014Z</time>
      </trkpt>
      <trkpt lat="48.62035" lon="2.08116">
        <ele>144.6</ele>
        <time>2025-03-19T17:30:44.369Z</time>
      </trkpt>
      <trkpt lat="48.62034" lon="2.08109">
        <ele>144.8</ele>
        <time>2025-03-19T17:30:47.765Z</time>
      </trkpt>
      <trkpt lat="48.62032" lon="2.08102">
        <ele>144.8</ele>
        <time>2025-03-19T17:30:51.162Z</time>
      </trkpt>
      <trkpt lat="48.62029" lon="2.08097">
        <ele>145</ele>
        <time>2025-03-19T17:30:54.530Z</time>
      </trkpt>
      <trkpt lat="48.6203" lon="2.08094">
        <ele>144.9</ele>
        <time>2025-03-19T17:30:55.803Z</time>
      </trkpt>
      <trkpt lat="48.62025" lon="2.08092">
        <ele>145.2</ele>
        <time>2025-03-19T17:30:59.879Z</time>
      </trkpt>
      <trkpt lat="48.62024" lon="2.08087">
        <ele>145.3</ele>
        <time>2025-03-19T17:31:02.355Z</time>
      </trkpt>
      <trkpt lat="48.62026" lon="2.08079">
        <ele>145.3</ele>
        <time>2025-03-19T17:31:06.164Z</time>
      </trkpt>
      <trkpt lat="48.62027" lon="2.08071">
        <ele>145.5</ele>
        <time>2025-03-19T17:31:09.974Z</time>
      </trkpt>
      <trkpt lat="48.62024" lon="2.08061">
        <ele>146.1</ele>
        <time>2025-03-19T17:31:16.190Z</time>
      </trkpt>
      <trkpt lat="48.62022" lon="2.08058">
        <ele>146.3</ele>
        <time>2025-03-19T17:31:18.508Z</time>
      </trkpt>
      <trkpt lat="48.6202" lon="2.08047">
        <ele>146.9</ele>
        <time>2025-03-19T17:31:24.897Z</time>
      </trkpt>
      <trkpt lat="48.62015" lon="2.08046">
        <ele>147.3</ele>
        <time>2025-03-19T17:31:29.181Z</time>
      </trkpt>
      <trkpt lat="48.6201" lon="2.08045">
        <ele>147.7</ele>
        <time>2025-03-19T17:31:33.465Z</time>
      </trkpt>
      <trkpt lat="48.62005" lon="2.08043">
        <ele>148.1</ele>
        <time>2025-03-19T17:31:37.749Z</time>
      </trkpt>
      <trkpt lat="48.62" lon="2.08042">
        <ele>148.5</ele>
        <time>2025-03-19T17:31:42.034Z</time>
      </trkpt>
      <trkpt lat="48.61994" lon="2.08039">
        <ele>148.9</ele>
        <time>2025-03-19T17:31:47.172Z</time>
      </trkpt>
      <trkpt lat="48.61988" lon="2.08035">
        <ele>149.3</ele>
        <time>2025-03-19T17:31:52.312Z</time>
      </trkpt>
      <trkpt lat="48.61983" lon="2.0803">
        <ele>149.6</ele>
        <time>2025-03-19T17:31:57.185Z</time>
      </trkpt>
      <trkpt lat="48.61977" lon="2.08025">
        <ele>149.9</ele>
        <time>2025-03-19T17:32:02.059Z</time>
      </trkpt>
      <trkpt lat="48.6197" lon="2.08026">
        <ele>150.2</ele>
        <time>2025-03-19T17:32:07.861Z</time>
      </trkpt>
      <trkpt lat="48.61963" lon="2.08027">
        <ele>150.7</ele>
        <time>2025-03-19T17:32:13.663Z</time>
      </trkpt>
      <trkpt lat="48.61955" lon="2.08027">
        <ele>151.2</ele>
        <time>2025-03-19T17:32:19.465Z</time>
      </trkpt>
      <trkpt lat="48.61948" lon="2.08028">
        <ele>151.7</ele>
        <time>2025-03-19T17:32:25.267Z</time>
      </trkpt>
      <trkpt lat="48.61943" lon="2.08027">
        <ele>152.1</ele>
        <time>2025-03-19T17:32:29.856Z</time>
      </trkpt>
      <trkpt lat="48.61938" lon="2.08027">
        <ele>152.5</ele>
        <time>2025-03-19T17:32:34.445Z</time>
      </trkpt>
      <trkpt lat="48.61932" lon="2.08026">
        <ele>152.9</ele>
        <time>2025-03-19T17:32:39.034Z</time>
      </trkpt>
      <trkpt lat="48.61927" lon="2.08026">
        <ele>153.3</ele>
        <time>2025-03-19T17:32:43.623Z</time>
      </trkpt>
      <trkpt lat="48.61922" lon="2.08025">
        <ele>153.7</ele>
        <time>2025-03-19T17:32:48.212Z</time>
      </trkpt>
      <trkpt lat="48.61917" lon="2.08024">
        <ele>154.1</ele>
        <time>2025-03-19T17:32:52.801Z</time>
      </trkpt>
      <trkpt lat="48.61911" lon="2.08024">
        <ele>154.6</ele>
        <time>2025-03-19T17:32:57.390Z</time>
      </trkpt>
      <trkpt lat="48.61906" lon="2.08023">
        <ele>155</ele>
        <time>2025-03-19T17:33:01.979Z</time>
      </trkpt>
      <trkpt lat="48.61901" lon="2.08022">
        <ele>155.4</ele>
        <time>2025-03-19T17:33:06.568Z</time>
      </trkpt>
      <trkpt lat="48.61896" lon="2.08022">
        <ele>155.9</ele>
        <time>2025-03-19T17:33:11.157Z</time>
      </trkpt>
      <trkpt lat="48.6189" lon="2.08021">
        <ele>156.4</ele>
        <time>2025-03-19T17:33:15.746Z</time>
      </trkpt>
      <trkpt lat="48.61885" lon="2.08021">
        <ele>156.9</ele>
        <time>2025-03-19T17:33:20.336Z</time>
      </trkpt>
      <trkpt lat="48.6188" lon="2.0802">
        <ele>157.5</ele>
        <time>2025-03-19T17:33:24.926Z</time>
      </trkpt>
      <trkpt lat="48.61875" lon="2.08019">
        <ele>158</ele>
        <time>2025-03-19T17:33:29.516Z</time>
      </trkpt>
      <trkpt lat="48.61869" lon="2.08019">
        <ele>158.5</ele>
        <time>2025-03-19T17:33:34.106Z</time>
      </trkpt>
      <trkpt lat="48.61864" lon="2.08018">
        <ele>159.1</ele>
        <time>2025-03-19T17:33:38.696Z</time>
      </trkpt>
      <trkpt lat="48.61859" lon="2.08022">
        <ele>159.4</ele>
        <time>2025-03-19T17:33:43.230Z</time>
      </trkpt>
      <trkpt lat="48.61854" lon="2.08026">
        <ele>159.8</ele>
        <time>2025-03-19T17:33:47.764Z</time>
      </trkpt>
      <trkpt lat="48.61849" lon="2.08029">
        <ele>160.2</ele>
        <time>2025-03-19T17:33:52.299Z</time>
      </trkpt>
      <trkpt lat="48.61844" lon="2.08033">
        <ele>160.6</ele>
        <time>2025-03-19T17:33:56.835Z</time>
      </trkpt>
      <trkpt lat="48.61837" lon="2.08033">
        <ele>161.4</ele>
        <time>2025-03-19T17:34:03.526Z</time>
      </trkpt>
      <trkpt lat="48.61829" lon="2.08029">
        <ele>162.4</ele>
        <time>2025-03-19T17:34:11.707Z</time>
      </trkpt>
      <trkpt lat="48.61824" lon="2.08025">
        <ele>163</ele>
        <time>2025-03-19T17:34:16.959Z</time>
      </trkpt>
      <trkpt lat="48.6182" lon="2.08019">
        <ele>163.4</ele>
        <time>2025-03-19T17:34:21.324Z</time>
      </trkpt>
      <trkpt lat="48.61816" lon="2.08013">
        <ele>163.9</ele>
        <time>2025-03-19T17:34:25.689Z</time>
      </trkpt>
      <trkpt lat="48.61812" lon="2.08007">
        <ele>164.3</ele>
        <time>2025-03-19T17:34:30.054Z</time>
      </trkpt>
      <trkpt lat="48.61808" lon="2.08002">
        <ele>164.7</ele>
        <time>2025-03-19T17:34:34.419Z</time>
      </trkpt>
      <trkpt lat="48.61804" lon="2.07996">
        <ele>165.1</ele>
        <time>2025-03-19T17:34:38.785Z</time>
      </trkpt>
      <trkpt lat="48.618" lon="2.0799">
        <ele>165.2</ele>
        <time>2025-03-19T17:34:43.151Z</time>
      </trkpt>
      <trkpt lat="48.61796" lon="2.07984">
        <ele>165.3</ele>
        <time>2025-03-19T17:34:47.517Z</time>
      </trkpt>
      <trkpt lat="48.61792" lon="2.07978">
        <ele>165.5</ele>
        <time>2025-03-19T17:34:51.884Z</time>
      </trkpt>
      <trkpt lat="48.61788" lon="2.07974">
        <ele>165.6</ele>
        <time>2025-03-19T17:34:54.513Z</time>
      </trkpt>
      <trkpt lat="48.61785" lon="2.0797">
        <ele>165.7</ele>
        <time>2025-03-19T17:34:57.142Z</time>
      </trkpt>
      <trkpt lat="48.61781" lon="2.07966">
        <ele>165.7</ele>
        <time>2025-03-19T17:34:59.771Z</time>
      </trkpt>
      <trkpt lat="48.61777" lon="2.07962">
        <ele>165.6</ele>
        <time>2025-03-19T17:35:02.400Z</time>
      </trkpt>
      <trkpt lat="48.61773" lon="2.07958">
        <ele>165.1</ele>
        <time>2025-03-19T17:35:05.029Z</time>
      </trkpt>
      <trkpt lat="48.6177" lon="2.07954">
        <ele>164.6</ele>
        <time>2025-03-19T17:35:07.658Z</time>
      </trkpt>
      <trkpt lat="48.61766" lon="2.0795">
        <ele>164</ele>
        <time>2025-03-19T17:35:10.287Z</time>
      </trkpt>
      <trkpt lat="48.61762" lon="2.07946">
        <ele>163.4</ele>
        <time>2025-03-19T17:35:12.918Z</time>
      </trkpt>
      <trkpt lat="48.61762" lon="2.07946">
        <ele>163.4</ele>
        <time>2025-03-19T17:35:12.918Z</time>
        <extensions>
          <visugpx:TrkExtension xmlns:visugpx="https://www.visugpx.com/editgpx/">
            <visugpx:node>6</visugpx:node>
            </visugpx:TrkExtension>
        </extensions>
      </trkpt>
      <trkpt lat="48.61762" lon="2.07946">
        <ele>163.4</ele>
        <time>2025-03-19T17:35:12.918Z</time>
      </trkpt>
      <trkpt lat="48.61762" lon="2.07946">
        <ele>163.4</ele>
        <time>2025-03-19T17:35:12.918Z</time>
      </trkpt>
      <trkpt lat="48.61759" lon="2.07952">
        <ele>163.4</ele>
        <time>2025-03-19T17:35:16.242Z</time>
      </trkpt>
      <trkpt lat="48.61756" lon="2.07958">
        <ele>163.5</ele>
        <time>2025-03-19T17:35:19.566Z</time>
      </trkpt>
      <trkpt lat="48.61753" lon="2.07964">
        <ele>163.7</ele>
        <time>2025-03-19T17:35:22.890Z</time>
      </trkpt>
      <trkpt lat="48.6175" lon="2.07971">
        <ele>163.8</ele>
        <time>2025-03-19T17:35:26.214Z</time>
      </trkpt>
      <trkpt lat="48.61746" lon="2.07977">
        <ele>163.7</ele>
        <time>2025-03-19T17:35:29.538Z</time>
      </trkpt>
      <trkpt lat="48.61743" lon="2.07983">
        <ele>163.5</ele>
        <time>2025-03-19T17:35:32.863Z</time>
      </trkpt>
      <trkpt lat="48.6174" lon="2.07989">
        <ele>163.4</ele>
        <time>2025-03-19T17:35:36.188Z</time>
      </trkpt>
      <trkpt lat="48.61737" lon="2.07995">
        <ele>163.3</ele>
        <time>2025-03-19T17:35:39.514Z</time>
      </trkpt>
      <trkpt lat="48.61736" lon="2.08006">
        <ele>163.7</ele>
        <time>2025-03-19T17:35:44.116Z</time>
      </trkpt>
      <trkpt lat="48.61734" lon="2.08016">
        <ele>163.9</ele>
        <time>2025-03-19T17:35:48.718Z</time>
      </trkpt>
      <trkpt lat="48.61733" lon="2.08027">
        <ele>164.1</ele>
        <time>2025-03-19T17:35:53.320Z</time>
      </trkpt>
      <trkpt lat="48.61732" lon="2.08038">
        <ele>164.2</ele>
        <time>2025-03-19T17:35:57.922Z</time>
      </trkpt>
      <trkpt lat="48.6173" lon="2.08048">
        <ele>164.4</ele>
        <time>2025-03-19T17:36:02.524Z</time>
      </trkpt>
      <trkpt lat="48.61729" lon="2.08059">
        <ele>164.5</ele>
        <time>2025-03-19T17:36:07.126Z</time>
      </trkpt>
      <trkpt lat="48.61727" lon="2.0807">
        <ele>164.5</ele>
        <time>2025-03-19T17:36:11.728Z</time>
      </trkpt>
      <trkpt lat="48.61726" lon="2.08081">
        <ele>164.4</ele>
        <time>2025-03-19T17:36:16.330Z</time>
      </trkpt>
      <trkpt lat="48.61725" lon="2.08091">
        <ele>164.5</ele>
        <time>2025-03-19T17:36:20.932Z</time>
      </trkpt>
      <trkpt lat="48.61723" lon="2.08102">
        <ele>164.8</ele>
        <time>2025-03-19T17:36:25.534Z</time>
      </trkpt>
      <trkpt lat="48.61722" lon="2.08113">
        <ele>164.9</ele>
        <time>2025-03-19T17:36:30.136Z</time>
      </trkpt>
      <trkpt lat="48.61721" lon="2.08123">
        <ele>164.2</ele>
        <time>2025-03-19T17:36:34.738Z</time>
      </trkpt>
      <trkpt lat="48.61719" lon="2.08134">
        <ele>163.5</ele>
        <time>2025-03-19T17:36:39.340Z</time>
      </trkpt>
      <trkpt lat="48.61718" lon="2.08145">
        <ele>163</ele>
        <time>2025-03-19T17:36:43.942Z</time>
      </trkpt>
      <trkpt lat="48.61716" lon="2.08155">
        <ele>162.7</ele>
        <time>2025-03-19T17:36:48.545Z</time>
      </trkpt>
      <trkpt lat="48.61715" lon="2.08166">
        <ele>162.4</ele>
        <time>2025-03-19T17:36:53.149Z</time>
      </trkpt>
      <trkpt lat="48.61713" lon="2.08177">
        <ele>162</ele>
        <time>2025-03-19T17:36:57.415Z</time>
      </trkpt>
      <trkpt lat="48.61711" lon="2.08187">
        <ele>161.5</ele>
        <time>2025-03-19T17:37:01.681Z</time>
      </trkpt>
      <trkpt lat="48.61708" lon="2.08198">
        <ele>161.2</ele>
        <time>2025-03-19T17:37:05.947Z</time>
      </trkpt>
      <trkpt lat="48.61706" lon="2.08208">
        <ele>161.3</ele>
        <time>2025-03-19T17:37:10.215Z</time>
      </trkpt>
      <trkpt lat="48.61701" lon="2.08214">
        <ele>160.6</ele>
        <time>2025-03-19T17:37:13.815Z</time>
      </trkpt>
      <trkpt lat="48.61696" lon="2.08219">
        <ele>160</ele>
        <time>2025-03-19T17:37:17.415Z</time>
      </trkpt>
      <trkpt lat="48.61691" lon="2.08225">
        <ele>159.6</ele>
        <time>2025-03-19T17:37:21.015Z</time>
      </trkpt>
      <trkpt lat="48.61686" lon="2.0823">
        <ele>159.3</ele>
        <time>2025-03-19T17:37:24.615Z</time>
      </trkpt>
      <trkpt lat="48.6168" lon="2.08236">
        <ele>158.9</ele>
        <time>2025-03-19T17:37:28.215Z</time>
      </trkpt>
      <trkpt lat="48.61675" lon="2.08241">
        <ele>158.6</ele>
        <time>2025-03-19T17:37:31.815Z</time>
      </trkpt>
      <trkpt lat="48.6167" lon="2.08247">
        <ele>158.2</ele>
        <time>2025-03-19T17:37:35.416Z</time>
      </trkpt>
      <trkpt lat="48.61665" lon="2.08252">
        <ele>158</ele>
        <time>2025-03-19T17:37:39.017Z</time>
      </trkpt>
      <trkpt lat="48.6166" lon="2.08258">
        <ele>157.8</ele>
        <time>2025-03-19T17:37:42.618Z</time>
      </trkpt>
      <trkpt lat="48.61655" lon="2.08263">
        <ele>157.6</ele>
        <time>2025-03-19T17:37:46.219Z</time>
      </trkpt>
      <trkpt lat="48.6165" lon="2.08269">
        <ele>157.5</ele>
        <time>2025-03-19T17:37:49.820Z</time>
      </trkpt>
      <trkpt lat="48.61645" lon="2.08274">
        <ele>157.3</ele>
        <time>2025-03-19T17:37:53.421Z</time>
      </trkpt>
      <trkpt lat="48.61639" lon="2.0828">
        <ele>157.1</ele>
        <time>2025-03-19T17:37:57.022Z</time>
      </trkpt>
      <trkpt lat="48.61634" lon="2.08285">
        <ele>156.8</ele>
        <time>2025-03-19T17:38:00.623Z</time>
      </trkpt>
      <trkpt lat="48.61629" lon="2.08291">
        <ele>156.4</ele>
        <time>2025-03-19T17:38:04.224Z</time>
      </trkpt>
      <trkpt lat="48.61624" lon="2.08296">
        <ele>156</ele>
        <time>2025-03-19T17:38:07.826Z</time>
      </trkpt>
      <trkpt lat="48.6162" lon="2.083">
        <ele>155.7</ele>
        <time>2025-03-19T17:38:10.694Z</time>
      </trkpt>
      <trkpt lat="48.61616" lon="2.08304">
        <ele>155.4</ele>
        <time>2025-03-19T17:38:13.562Z</time>
      </trkpt>
      <trkpt lat="48.61611" lon="2.08308">
        <ele>155</ele>
        <time>2025-03-19T17:38:16.430Z</time>
      </trkpt>
      <trkpt lat="48.61607" lon="2.08312">
        <ele>154.7</ele>
        <time>2025-03-19T17:38:19.299Z</time>
      </trkpt>
      <trkpt lat="48.61603" lon="2.08322">
        <ele>154.4</ele>
        <time>2025-03-19T17:38:23.801Z</time>
      </trkpt>
      <trkpt lat="48.61598" lon="2.08331">
        <ele>154.1</ele>
        <time>2025-03-19T17:38:28.304Z</time>
      </trkpt>
      <trkpt lat="48.61596" lon="2.08335">
        <ele>153.9</ele>
        <time>2025-03-19T17:38:30.204Z</time>
      </trkpt>
      <trkpt lat="48.61592" lon="2.08342">
        <ele>153.6</ele>
        <time>2025-03-19T17:38:33.673Z</time>
      </trkpt>
      <trkpt lat="48.61588" lon="2.08349">
        <ele>153.3</ele>
        <time>2025-03-19T17:38:37.142Z</time>
      </trkpt>
      <trkpt lat="48.61584" lon="2.08356">
        <ele>153</ele>
        <time>2025-03-19T17:38:40.611Z</time>
      </trkpt>
      <trkpt lat="48.6158" lon="2.08363">
        <ele>152.9</ele>
        <time>2025-03-19T17:38:44.080Z</time>
      </trkpt>
      <trkpt lat="48.61576" lon="2.08369">
        <ele>152.7</ele>
        <time>2025-03-19T17:38:47.549Z</time>
      </trkpt>
      <trkpt lat="48.61572" lon="2.08376">
        <ele>152.4</ele>
        <time>2025-03-19T17:38:51.018Z</time>
      </trkpt>
      <trkpt lat="48.61568" lon="2.08383">
        <ele>152</ele>
        <time>2025-03-19T17:38:54.488Z</time>
      </trkpt>
      <trkpt lat="48.61564" lon="2.0839">
        <ele>151.6</ele>
        <time>2025-03-19T17:38:57.959Z</time>
      </trkpt>
      <trkpt lat="48.61561" lon="2.08399">
        <ele>151.4</ele>
        <time>2025-03-19T17:39:01.774Z</time>
      </trkpt>
      <trkpt lat="48.61558" lon="2.08408">
        <ele>151.2</ele>
        <time>2025-03-19T17:39:05.589Z</time>
      </trkpt>
      <trkpt lat="48.61555" lon="2.08417">
        <ele>150.9</ele>
        <time>2025-03-19T17:39:09.404Z</time>
      </trkpt>
      <trkpt lat="48.61552" lon="2.08426">
        <ele>150.3</ele>
        <time>2025-03-19T17:39:13.219Z</time>
      </trkpt>
      <trkpt lat="48.61549" lon="2.08434">
        <ele>149.8</ele>
        <time>2025-03-19T17:39:17.034Z</time>
      </trkpt>
      <trkpt lat="48.61546" lon="2.08443">
        <ele>149.3</ele>
        <time>2025-03-19T17:39:20.849Z</time>
      </trkpt>
      <trkpt lat="48.61543" lon="2.08452">
        <ele>149.1</ele>
        <time>2025-03-19T17:39:24.664Z</time>
      </trkpt>
      <trkpt lat="48.6154" lon="2.08461">
        <ele>148.8</ele>
        <time>2025-03-19T17:39:28.480Z</time>
      </trkpt>
      <trkpt lat="48.61536" lon="2.0847">
        <ele>148.6</ele>
        <time>2025-03-19T17:39:32.296Z</time>
      </trkpt>
      <trkpt lat="48.61533" lon="2.08479">
        <ele>148.4</ele>
        <time>2025-03-19T17:39:36.112Z</time>
      </trkpt>
      <trkpt lat="48.6153" lon="2.08488">
        <ele>148.1</ele>
        <time>2025-03-19T17:39:39.928Z</time>
      </trkpt>
      <trkpt lat="48.61527" lon="2.08497">
        <ele>148</ele>
        <time>2025-03-19T17:39:43.744Z</time>
      </trkpt>
      <trkpt lat="48.61524" lon="2.08505">
        <ele>147.7</ele>
        <time>2025-03-19T17:39:47.560Z</time>
      </trkpt>
      <trkpt lat="48.61521" lon="2.08514">
        <ele>147.5</ele>
        <time>2025-03-19T17:39:51.376Z</time>
      </trkpt>
      <trkpt lat="48.61518" lon="2.08523">
        <ele>147.3</ele>
        <time>2025-03-19T17:39:55.192Z</time>
      </trkpt>
      <trkpt lat="48.61515" lon="2.08532">
        <ele>147.1</ele>
        <time>2025-03-19T17:39:59.009Z</time>
      </trkpt>
      <trkpt lat="48.61509" lon="2.08538">
        <ele>146.8</ele>
        <time>2025-03-19T17:40:03.826Z</time>
      </trkpt>
      <trkpt lat="48.61502" lon="2.08545">
        <ele>146.7</ele>
        <time>2025-03-19T17:40:08.643Z</time>
      </trkpt>
      <trkpt lat="48.61496" lon="2.08551">
        <ele>146.7</ele>
        <time>2025-03-19T17:40:13.460Z</time>
      </trkpt>
      <trkpt lat="48.6149" lon="2.08557">
        <ele>146.6</ele>
        <time>2025-03-19T17:40:18.277Z</time>
      </trkpt>
      <trkpt lat="48.61483" lon="2.08564">
        <ele>146.4</ele>
        <time>2025-03-19T17:40:23.094Z</time>
      </trkpt>
      <trkpt lat="48.61477" lon="2.0857">
        <ele>146.2</ele>
        <time>2025-03-19T17:40:27.912Z</time>
      </trkpt>
      <trkpt lat="48.6147" lon="2.08576">
        <ele>145.9</ele>
        <time>2025-03-19T17:40:32.730Z</time>
      </trkpt>
      <trkpt lat="48.61464" lon="2.08583">
        <ele>145.7</ele>
        <time>2025-03-19T17:40:37.548Z</time>
      </trkpt>
      <trkpt lat="48.61458" lon="2.08589">
        <ele>145.7</ele>
        <time>2025-03-19T17:40:42.366Z</time>
      </trkpt>
      <trkpt lat="48.61451" lon="2.08595">
        <ele>145.7</ele>
        <time>2025-03-19T17:40:47.184Z</time>
      </trkpt>
      <trkpt lat="48.61445" lon="2.08601">
        <ele>145.7</ele>
        <time>2025-03-19T17:40:52.002Z</time>
      </trkpt>
      <trkpt lat="48.61439" lon="2.08608">
        <ele>145.7</ele>
        <time>2025-03-19T17:40:56.820Z</time>
      </trkpt>
      <trkpt lat="48.61432" lon="2.08614">
        <ele>145.7</ele>
        <time>2025-03-19T17:41:01.638Z</time>
      </trkpt>
      <trkpt lat="48.61426" lon="2.0862">
        <ele>145.7</ele>
        <time>2025-03-19T17:41:06.456Z</time>
      </trkpt>
      <trkpt lat="48.61419" lon="2.08627">
        <ele>145.7</ele>
        <time>2025-03-19T17:41:11.274Z</time>
      </trkpt>
      <trkpt lat="48.61413" lon="2.08633">
        <ele>145.7</ele>
        <time>2025-03-19T17:41:16.093Z</time>
      </trkpt>
      <trkpt lat="48.61407" lon="2.08632">
        <ele>145.4</ele>
        <time>2025-03-19T17:41:19.735Z</time>
      </trkpt>
      <trkpt lat="48.61401" lon="2.08632">
        <ele>145.2</ele>
        <time>2025-03-19T17:41:23.377Z</time>
      </trkpt>
      <trkpt lat="48.61394" lon="2.08631">
        <ele>144.9</ele>
        <time>2025-03-19T17:41:27.019Z</time>
      </trkpt>
      <trkpt lat="48.61388" lon="2.0863">
        <ele>144.7</ele>
        <time>2025-03-19T17:41:30.662Z</time>
      </trkpt>
      <trkpt lat="48.61381" lon="2.08628">
        <ele>144.8</ele>
        <time>2025-03-19T17:41:35.249Z</time>
      </trkpt>
      <trkpt lat="48.61375" lon="2.08627">
        <ele>144.8</ele>
        <time>2025-03-19T17:41:39.836Z</time>
      </trkpt>
      <trkpt lat="48.61368" lon="2.08625">
        <ele>144.9</ele>
        <time>2025-03-19T17:41:44.423Z</time>
      </trkpt>
      <trkpt lat="48.61361" lon="2.08623">
        <ele>144.9</ele>
        <time>2025-03-19T17:41:49.011Z</time>
      </trkpt>
      <trkpt lat="48.61355" lon="2.0862">
        <ele>144.8</ele>
        <time>2025-03-19T17:41:53.461Z</time>
      </trkpt>
      <trkpt lat="48.61348" lon="2.08617">
        <ele>144.8</ele>
        <time>2025-03-19T17:41:57.911Z</time>
      </trkpt>
      <trkpt lat="48.61342" lon="2.08614">
        <ele>144.8</ele>
        <time>2025-03-19T17:42:02.361Z</time>
      </trkpt>
      <trkpt lat="48.61335" lon="2.08611">
        <ele>144.9</ele>
        <time>2025-03-19T17:42:06.813Z</time>
      </trkpt>
      <trkpt lat="48.61329" lon="2.08607">
        <ele>145</ele>
        <time>2025-03-19T17:42:10.549Z</time>
      </trkpt>
      <trkpt lat="48.61324" lon="2.08604">
        <ele>145</ele>
        <time>2025-03-19T17:42:14.285Z</time>
      </trkpt>
      <trkpt lat="48.61318" lon="2.086">
        <ele>144.9</ele>
        <time>2025-03-19T17:42:18.021Z</time>
      </trkpt>
      <trkpt lat="48.61313" lon="2.08596">
        <ele>144.8</ele>
        <time>2025-03-19T17:42:21.757Z</time>
      </trkpt>
      <trkpt lat="48.61307" lon="2.08593">
        <ele>144.6</ele>
        <time>2025-03-19T17:42:25.493Z</time>
      </trkpt>
      <trkpt lat="48.61302" lon="2.08589">
        <ele>144.5</ele>
        <time>2025-03-19T17:42:29.229Z</time>
      </trkpt>
      <trkpt lat="48.61296" lon="2.08585">
        <ele>144.5</ele>
        <time>2025-03-19T17:42:32.965Z</time>
      </trkpt>
      <trkpt lat="48.61291" lon="2.08582">
        <ele>144.4</ele>
        <time>2025-03-19T17:42:36.701Z</time>
      </trkpt>
      <trkpt lat="48.61285" lon="2.08578">
        <ele>144.4</ele>
        <time>2025-03-19T17:42:40.437Z</time>
      </trkpt>
      <trkpt lat="48.61279" lon="2.08574">
        <ele>144.3</ele>
        <time>2025-03-19T17:42:44.173Z</time>
      </trkpt>
      <trkpt lat="48.61274" lon="2.0857">
        <ele>144.1</ele>
        <time>2025-03-19T17:42:47.909Z</time>
      </trkpt>
      <trkpt lat="48.61268" lon="2.08567">
        <ele>143.8</ele>
        <time>2025-03-19T17:42:51.645Z</time>
      </trkpt>
      <trkpt lat="48.61263" lon="2.08563">
        <ele>143.5</ele>
        <time>2025-03-19T17:42:55.381Z</time>
      </trkpt>
      <trkpt lat="48.61257" lon="2.08559">
        <ele>143.3</ele>
        <time>2025-03-19T17:42:59.117Z</time>
      </trkpt>
      <trkpt lat="48.61252" lon="2.08556">
        <ele>143</ele>
        <time>2025-03-19T17:43:02.853Z</time>
      </trkpt>
      <trkpt lat="48.61246" lon="2.08552">
        <ele>142.9</ele>
        <time>2025-03-19T17:43:06.590Z</time>
      </trkpt>
      <trkpt lat="48.61242" lon="2.0855">
        <ele>142.8</ele>
        <time>2025-03-19T17:43:09.469Z</time>
      </trkpt>
      <trkpt lat="48.61237" lon="2.08548">
        <ele>142.7</ele>
        <time>2025-03-19T17:43:12.348Z</time>
      </trkpt>
      <trkpt lat="48.61232" lon="2.08546">
        <ele>142.7</ele>
        <time>2025-03-19T17:43:15.721Z</time>
      </trkpt>
      <trkpt lat="48.61226" lon="2.08545">
        <ele>142.6</ele>
        <time>2025-03-19T17:43:19.094Z</time>
      </trkpt>
      <trkpt lat="48.61221" lon="2.08543">
        <ele>142.6</ele>
        <time>2025-03-19T17:43:22.467Z</time>
      </trkpt>
      <trkpt lat="48.61216" lon="2.08542">
        <ele>142.5</ele>
        <time>2025-03-19T17:43:25.840Z</time>
      </trkpt>
      <trkpt lat="48.6121" lon="2.0854">
        <ele>142.4</ele>
        <time>2025-03-19T17:43:29.213Z</time>
      </trkpt>
      <trkpt lat="48.61205" lon="2.08539">
        <ele>142.4</ele>
        <time>2025-03-19T17:43:32.587Z</time>
      </trkpt>
      <trkpt lat="48.612" lon="2.08537">
        <ele>142.3</ele>
        <time>2025-03-19T17:43:35.961Z</time>
      </trkpt>
      <trkpt lat="48.61195" lon="2.08536">
        <ele>142.3</ele>
        <time>2025-03-19T17:43:39.335Z</time>
      </trkpt>
      <trkpt lat="48.61189" lon="2.08534">
        <ele>142.2</ele>
        <time>2025-03-19T17:43:42.709Z</time>
      </trkpt>
      <trkpt lat="48.61184" lon="2.08532">
        <ele>142.2</ele>
        <time>2025-03-19T17:43:46.083Z</time>
      </trkpt>
      <trkpt lat="48.61179" lon="2.08531">
        <ele>142.1</ele>
        <time>2025-03-19T17:43:49.457Z</time>
      </trkpt>
      <trkpt lat="48.61173" lon="2.08529">
        <ele>142.1</ele>
        <time>2025-03-19T17:43:52.831Z</time>
      </trkpt>
      <trkpt lat="48.61168" lon="2.08528">
        <ele>142</ele>
        <time>2025-03-19T17:43:56.205Z</time>
      </trkpt>
      <trkpt lat="48.61163" lon="2.08526">
        <ele>141.8</ele>
        <time>2025-03-19T17:43:59.579Z</time>
      </trkpt>
      <trkpt lat="48.61157" lon="2.08525">
        <ele>141.5</ele>
        <time>2025-03-19T17:44:02.953Z</time>
      </trkpt>
      <trkpt lat="48.61152" lon="2.08523">
        <ele>141.3</ele>
        <time>2025-03-19T17:44:06.328Z</time>
      </trkpt>
      <trkpt lat="48.61145" lon="2.0852">
        <ele>141</ele>
        <time>2025-03-19T17:44:10.472Z</time>
      </trkpt>
      <trkpt lat="48.61138" lon="2.08518">
        <ele>140.6</ele>
        <time>2025-03-19T17:44:14.616Z</time>
      </trkpt>
      <trkpt lat="48.61131" lon="2.08515">
        <ele>140.1</ele>
        <time>2025-03-19T17:44:18.760Z</time>
      </trkpt>
      <trkpt lat="48.61124" lon="2.08512">
        <ele>139.7</ele>
        <time>2025-03-19T17:44:22.904Z</time>
      </trkpt>
      <trkpt lat="48.61117" lon="2.08509">
        <ele>139.3</ele>
        <time>2025-03-19T17:44:27.048Z</time>
      </trkpt>
      <trkpt lat="48.6111" lon="2.08507">
        <ele>138.9</ele>
        <time>2025-03-19T17:44:31.192Z</time>
      </trkpt>
      <trkpt lat="48.61103" lon="2.08504">
        <ele>138.5</ele>
        <time>2025-03-19T17:44:35.336Z</time>
      </trkpt>
      <trkpt lat="48.61096" lon="2.08501">
        <ele>137.9</ele>
        <time>2025-03-19T17:44:39.482Z</time>
      </trkpt>
      <trkpt lat="48.6109" lon="2.08499">
        <ele>137.5</ele>
        <time>2025-03-19T17:44:42.922Z</time>
      </trkpt>
      <trkpt lat="48.61084" lon="2.08497">
        <ele>137.1</ele>
        <time>2025-03-19T17:44:46.362Z</time>
      </trkpt>
      <trkpt lat="48.61078" lon="2.08495">
        <ele>136.6</ele>
        <time>2025-03-19T17:44:49.802Z</time>
      </trkpt>
      <trkpt lat="48.61073" lon="2.08494">
        <ele>136.2</ele>
        <time>2025-03-19T17:44:53.242Z</time>
      </trkpt>
      <trkpt lat="48.61067" lon="2.08492">
        <ele>135.8</ele>
        <time>2025-03-19T17:44:56.682Z</time>
      </trkpt>
      <trkpt lat="48.61061" lon="2.0849">
        <ele>135.4</ele>
        <time>2025-03-19T17:45:00.123Z</time>
      </trkpt>
      <trkpt lat="48.61055" lon="2.08488">
        <ele>135</ele>
        <time>2025-03-19T17:45:03.564Z</time>
      </trkpt>
      <trkpt lat="48.61049" lon="2.08486">
        <ele>134.6</ele>
        <time>2025-03-19T17:45:07.006Z</time>
      </trkpt>
      <trkpt lat="48.61041" lon="2.08485">
        <ele>134.2</ele>
        <time>2025-03-19T17:45:11.625Z</time>
      </trkpt>
      <trkpt lat="48.61033" lon="2.08483">
        <ele>133.7</ele>
        <time>2025-03-19T17:45:16.244Z</time>
      </trkpt>
      <trkpt lat="48.61025" lon="2.08482">
        <ele>133.1</ele>
        <time>2025-03-19T17:45:20.863Z</time>
      </trkpt>
      <trkpt lat="48.61017" lon="2.0848">
        <ele>132.5</ele>
        <time>2025-03-19T17:45:25.483Z</time>
      </trkpt>
      <trkpt lat="48.61012" lon="2.08481">
        <ele>132.2</ele>
        <time>2025-03-19T17:45:28.140Z</time>
      </trkpt>
      <trkpt lat="48.61008" lon="2.08481">
        <ele>131.9</ele>
        <time>2025-03-19T17:45:30.797Z</time>
      </trkpt>
      <trkpt lat="48.61003" lon="2.08482">
        <ele>131.6</ele>
        <time>2025-03-19T17:45:33.454Z</time>
      </trkpt>
      <trkpt lat="48.60999" lon="2.08482">
        <ele>131.3</ele>
        <time>2025-03-19T17:45:36.111Z</time>
      </trkpt>
      <trkpt lat="48.60994" lon="2.08483">
        <ele>131.1</ele>
        <time>2025-03-19T17:45:38.768Z</time>
      </trkpt>
      <trkpt lat="48.60989" lon="2.08483">
        <ele>130.9</ele>
        <time>2025-03-19T17:45:41.425Z</time>
      </trkpt>
      <trkpt lat="48.60985" lon="2.08484">
        <ele>130.6</ele>
        <time>2025-03-19T17:45:44.082Z</time>
      </trkpt>
      <trkpt lat="48.6098" lon="2.08484">
        <ele>130.4</ele>
        <time>2025-03-19T17:45:46.739Z</time>
        <extensions>
          <visugpx:TrkExtension xmlns:visugpx="https://www.visugpx.com/editgpx/">
            <visugpx:node>7</visugpx:node>
            </visugpx:TrkExtension>
        </extensions>
      </trkpt>
      <trkpt lat="48.60974" lon="2.08485">
        <ele>130.1</ele>
        <time>2025-03-19T17:45:50.374Z</time>
      </trkpt>
      <trkpt lat="48.60968" lon="2.08485">
        <ele>129.8</ele>
        <time>2025-03-19T17:45:54.009Z</time>
      </trkpt>
      <trkpt lat="48.60961" lon="2.08486">
        <ele>129.6</ele>
        <time>2025-03-19T17:45:57.644Z</time>
      </trkpt>
      <trkpt lat="48.60955" lon="2.08486">
        <ele>129.4</ele>
        <time>2025-03-19T17:46:01.280Z</time>
      </trkpt>
      <trkpt lat="48.60949" lon="2.08488">
        <ele>129.2</ele>
        <time>2025-03-19T17:46:05.021Z</time>
      </trkpt>
      <trkpt lat="48.60943" lon="2.08489">
        <ele>129</ele>
        <time>2025-03-19T17:46:08.762Z</time>
      </trkpt>
      <trkpt lat="48.60937" lon="2.08491">
        <ele>128.9</ele>
        <time>2025-03-19T17:46:12.503Z</time>
      </trkpt>
      <trkpt lat="48.60931" lon="2.08492">
        <ele>128.9</ele>
        <time>2025-03-19T17:46:16.245Z</time>
      </trkpt>
      <trkpt lat="48.60927" lon="2.08493">
        <ele>128.8</ele>
        <time>2025-03-19T17:46:19.101Z</time>
      </trkpt>
      <trkpt lat="48.60922" lon="2.08493">
        <ele>128.8</ele>
        <time>2025-03-19T17:46:21.958Z</time>
      </trkpt>
      <trkpt lat="48.60918" lon="2.08497">
        <ele>128.9</ele>
        <time>2025-03-19T17:46:25.077Z</time>
      </trkpt>
      <trkpt lat="48.60914" lon="2.085">
        <ele>128.9</ele>
        <time>2025-03-19T17:46:28.196Z</time>
      </trkpt>
      <trkpt lat="48.60909" lon="2.08504">
        <ele>128.8</ele>
        <time>2025-03-19T17:46:31.315Z</time>
      </trkpt>
      <trkpt lat="48.60905" lon="2.08507">
        <ele>128.7</ele>
        <time>2025-03-19T17:46:34.435Z</time>
      </trkpt>
      <trkpt lat="48.60906" lon="2.085">
        <ele>128.6</ele>
        <time>2025-03-19T17:46:37.671Z</time>
      </trkpt>
      <trkpt lat="48.60908" lon="2.08492">
        <ele>128.5</ele>
        <time>2025-03-19T17:46:40.907Z</time>
      </trkpt>
      <trkpt lat="48.60909" lon="2.08485">
        <ele>128.3</ele>
        <time>2025-03-19T17:46:44.143Z</time>
      </trkpt>
      <trkpt lat="48.6091" lon="2.08477">
        <ele>128.1</ele>
        <time>2025-03-19T17:46:47.379Z</time>
      </trkpt>
      <trkpt lat="48.60911" lon="2.0847">
        <ele>128</ele>
        <time>2025-03-19T17:46:50.615Z</time>
      </trkpt>
      <trkpt lat="48.60913" lon="2.08462">
        <ele>127.9</ele>
        <time>2025-03-19T17:46:53.851Z</time>
      </trkpt>
      <trkpt lat="48.60914" lon="2.08455">
        <ele>127.9</ele>
        <time>2025-03-19T17:46:57.087Z</time>
      </trkpt>
      <trkpt lat="48.60915" lon="2.08447">
        <ele>128</ele>
        <time>2025-03-19T17:47:00.323Z</time>
      </trkpt>
      <trkpt lat="48.60917" lon="2.0844">
        <ele>127.8</ele>
        <time>2025-03-19T17:47:03.559Z</time>
      </trkpt>
      <trkpt lat="48.60918" lon="2.08432">
        <ele>127.6</ele>
        <time>2025-03-19T17:47:06.795Z</time>
      </trkpt>
      <trkpt lat="48.60919" lon="2.08425">
        <ele>127.4</ele>
        <time>2025-03-19T17:47:10.031Z</time>
      </trkpt>
      <trkpt lat="48.6092" lon="2.08417">
        <ele>127.2</ele>
        <time>2025-03-19T17:47:13.267Z</time>
      </trkpt>
      <trkpt lat="48.60922" lon="2.0841">
        <ele>127.2</ele>
        <time>2025-03-19T17:47:16.503Z</time>
      </trkpt>
      <trkpt lat="48.60923" lon="2.08402">
        <ele>127.2</ele>
        <time>2025-03-19T17:47:19.739Z</time>
      </trkpt>
      <trkpt lat="48.60924" lon="2.08395">
        <ele>127.3</ele>
        <time>2025-03-19T17:47:22.975Z</time>
      </trkpt>
      <trkpt lat="48.60926" lon="2.08388">
        <ele>127.3</ele>
        <time>2025-03-19T17:47:26.211Z</time>
      </trkpt>
      <trkpt lat="48.60927" lon="2.0838">
        <ele>127.4</ele>
        <time>2025-03-19T17:47:29.447Z</time>
      </trkpt>
      <trkpt lat="48.60928" lon="2.08373">
        <ele>127.4</ele>
        <time>2025-03-19T17:47:32.683Z</time>
      </trkpt>
      <trkpt lat="48.60929" lon="2.08365">
        <ele>127.5</ele>
        <time>2025-03-19T17:47:35.919Z</time>
      </trkpt>
      <trkpt lat="48.60931" lon="2.08358">
        <ele>127.5</ele>
        <time>2025-03-19T17:47:39.155Z</time>
      </trkpt>
      <trkpt lat="48.60932" lon="2.0835">
        <ele>127.5</ele>
        <time>2025-03-19T17:47:42.391Z</time>
      </trkpt>
      <trkpt lat="48.60933" lon="2.08343">
        <ele>127.6</ele>
        <time>2025-03-19T17:47:45.627Z</time>
      </trkpt>
      <trkpt lat="48.60935" lon="2.08335">
        <ele>127.6</ele>
        <time>2025-03-19T17:47:48.863Z</time>
      </trkpt>
      <trkpt lat="48.60936" lon="2.08328">
        <ele>127.5</ele>
        <time>2025-03-19T17:47:52.100Z</time>
      </trkpt>
      <trkpt lat="48.60937" lon="2.0832">
        <ele>127.4</ele>
        <time>2025-03-19T17:47:55.337Z</time>
      </trkpt>
      <trkpt lat="48.60938" lon="2.08313">
        <ele>127.2</ele>
        <time>2025-03-19T17:47:58.574Z</time>
      </trkpt>
      <trkpt lat="48.6094" lon="2.08305">
        <ele>127</ele>
        <time>2025-03-19T17:48:01.811Z</time>
      </trkpt>
      <trkpt lat="48.60941" lon="2.08298">
        <ele>127</ele>
        <time>2025-03-19T17:48:05.048Z</time>
      </trkpt>
      <trkpt lat="48.60942" lon="2.0829">
        <ele>127</ele>
        <time>2025-03-19T17:48:08.285Z</time>
      </trkpt>
      <trkpt lat="48.60943" lon="2.08283">
        <ele>127</ele>
        <time>2025-03-19T17:48:11.522Z</time>
      </trkpt>
      <trkpt lat="48.60945" lon="2.08276">
        <ele>127</ele>
        <time>2025-03-19T17:48:14.759Z</time>
      </trkpt>
      <trkpt lat="48.60946" lon="2.08268">
        <ele>127</ele>
        <time>2025-03-19T17:48:17.996Z</time>
      </trkpt>
      <trkpt lat="48.60942" lon="2.08265">
        <ele>127</ele>
        <time>2025-03-19T17:48:20.829Z</time>
      </trkpt>
      <trkpt lat="48.60938" lon="2.08261">
        <ele>126.9</ele>
        <time>2025-03-19T17:48:23.662Z</time>
      </trkpt>
      <trkpt lat="48.60934" lon="2.08258">
        <ele>126.7</ele>
        <time>2025-03-19T17:48:26.496Z</time>
      </trkpt>
      <trkpt lat="48.6093" lon="2.08254">
        <ele>126.6</ele>
        <time>2025-03-19T17:48:29.331Z</time>
      </trkpt>
      <trkpt lat="48.60923" lon="2.08249">
        <ele>126.2</ele>
        <time>2025-03-19T17:48:34.272Z</time>
      </trkpt>
      <trkpt lat="48.60915" lon="2.08243">
        <ele>126</ele>
        <time>2025-03-19T17:48:39.213Z</time>
      </trkpt>
      <trkpt lat="48.60908" lon="2.08238">
        <ele>125.9</ele>
        <time>2025-03-19T17:48:44.154Z</time>
      </trkpt>
      <trkpt lat="48.609" lon="2.08232">
        <ele>125.6</ele>
        <time>2025-03-19T17:48:49.095Z</time>
      </trkpt>
      <trkpt lat="48.60893" lon="2.08227">
        <ele>125.3</ele>
        <time>2025-03-19T17:48:54.036Z</time>
      </trkpt>
      <trkpt lat="48.60885" lon="2.08221">
        <ele>125</ele>
        <time>2025-03-19T17:48:58.977Z</time>
      </trkpt>
      <trkpt lat="48.60878" lon="2.08216">
        <ele>124.9</ele>
        <time>2025-03-19T17:49:03.918Z</time>
      </trkpt>
      <trkpt lat="48.6087" lon="2.0821">
        <ele>124.7</ele>
        <time>2025-03-19T17:49:08.859Z</time>
      </trkpt>
      <trkpt lat="48.60863" lon="2.08205">
        <ele>124.4</ele>
        <time>2025-03-19T17:49:13.800Z</time>
      </trkpt>
      <trkpt lat="48.60855" lon="2.08199">
        <ele>123.9</ele>
        <time>2025-03-19T17:49:18.741Z</time>
      </trkpt>
      <trkpt lat="48.60848" lon="2.08194">
        <ele>123.5</ele>
        <time>2025-03-19T17:49:23.683Z</time>
      </trkpt>
      <trkpt lat="48.6084" lon="2.08188">
        <ele>123.2</ele>
        <time>2025-03-19T17:49:28.625Z</time>
      </trkpt>
      <trkpt lat="48.60833" lon="2.08183">
        <ele>123</ele>
        <time>2025-03-19T17:49:33.567Z</time>
      </trkpt>
      <trkpt lat="48.60825" lon="2.08177">
        <ele>122.7</ele>
        <time>2025-03-19T17:49:38.509Z</time>
      </trkpt>
      <trkpt lat="48.60818" lon="2.08172">
        <ele>122.4</ele>
        <time>2025-03-19T17:49:43.451Z</time>
      </trkpt>
      <trkpt lat="48.6081" lon="2.08166">
        <ele>122.2</ele>
        <time>2025-03-19T17:49:48.394Z</time>
      </trkpt>
      <trkpt lat="48.60802" lon="2.08164">
        <ele>121.7</ele>
        <time>2025-03-19T17:49:53.167Z</time>
      </trkpt>
      <trkpt lat="48.60794" lon="2.08163">
        <ele>121.1</ele>
        <time>2025-03-19T17:49:57.940Z</time>
      </trkpt>
      <trkpt lat="48.60785" lon="2.08161">
        <ele>120.5</ele>
        <time>2025-03-19T17:50:02.714Z</time>
      </trkpt>
      <trkpt lat="48.60777" lon="2.08159">
        <ele>119.9</ele>
        <time>2025-03-19T17:50:07.488Z</time>
      </trkpt>
      <trkpt lat="48.60772" lon="2.0815">
        <ele>119.6</ele>
        <time>2025-03-19T17:50:11.777Z</time>
      </trkpt>
      <trkpt lat="48.60768" lon="2.08142">
        <ele>119.3</ele>
        <time>2025-03-19T17:50:16.066Z</time>
      </trkpt>
      <trkpt lat="48.60763" lon="2.08133">
        <ele>118.8</ele>
        <time>2025-03-19T17:50:20.355Z</time>
      </trkpt>
      <trkpt lat="48.60758" lon="2.08124">
        <ele>118.4</ele>
        <time>2025-03-19T17:50:24.646Z</time>
      </trkpt>
      <trkpt lat="48.60753" lon="2.08118">
        <ele>118.1</ele>
        <time>2025-03-19T17:50:28.192Z</time>
      </trkpt>
      <trkpt lat="48.60749" lon="2.08112">
        <ele>117.9</ele>
        <time>2025-03-19T17:50:31.738Z</time>
      </trkpt>
      <trkpt lat="48.60744" lon="2.08106">
        <ele>117.4</ele>
        <time>2025-03-19T17:50:35.284Z</time>
      </trkpt>
      <trkpt lat="48.60739" lon="2.081">
        <ele>116.8</ele>
        <time>2025-03-19T17:50:38.830Z</time>
      </trkpt>
      <trkpt lat="48.60734" lon="2.08094">
        <ele>116.2</ele>
        <time>2025-03-19T17:50:42.376Z</time>
      </trkpt>
      <trkpt lat="48.6073" lon="2.08088">
        <ele>115.7</ele>
        <time>2025-03-19T17:50:45.922Z</time>
      </trkpt>
      <trkpt lat="48.60725" lon="2.08082">
        <ele>115.2</ele>
        <time>2025-03-19T17:50:49.468Z</time>
      </trkpt>
      <trkpt lat="48.6072" lon="2.08076">
        <ele>114.9</ele>
        <time>2025-03-19T17:50:53.016Z</time>
      </trkpt>
      <trkpt lat="48.60725" lon="2.08072">
        <ele>115.2</ele>
        <time>2025-03-19T17:50:57.156Z</time>
      </trkpt>
      <trkpt lat="48.6073" lon="2.08068">
        <ele>115.4</ele>
        <time>2025-03-19T17:51:01.296Z</time>
      </trkpt>
      <trkpt lat="48.60735" lon="2.08064">
        <ele>115.6</ele>
        <time>2025-03-19T17:51:05.436Z</time>
      </trkpt>
      <trkpt lat="48.6074" lon="2.0806">
        <ele>115.7</ele>
        <time>2025-03-19T17:51:09.577Z</time>
      </trkpt>
      <trkpt lat="48.60744" lon="2.08056">
        <ele>115.8</ele>
        <time>2025-03-19T17:51:12.853Z</time>
      </trkpt>
      <trkpt lat="48.60747" lon="2.08051">
        <ele>115.9</ele>
        <time>2025-03-19T17:51:16.129Z</time>
      </trkpt>
      <trkpt lat="48.60751" lon="2.08047">
        <ele>116</ele>
        <time>2025-03-19T17:51:19.405Z</time>
      </trkpt>
      <trkpt lat="48.60754" lon="2.08042">
        <ele>116.2</ele>
        <time>2025-03-19T17:51:22.681Z</time>
      </trkpt>
      <trkpt lat="48.60759" lon="2.08034">
        <ele>116.4</ele>
        <time>2025-03-19T17:51:27.923Z</time>
      </trkpt>
      <trkpt lat="48.60764" lon="2.08025">
        <ele>116.5</ele>
        <time>2025-03-19T17:51:33.165Z</time>
      </trkpt>
      <trkpt lat="48.60768" lon="2.08018">
        <ele>116.6</ele>
        <time>2025-03-19T17:51:37.388Z</time>
      </trkpt>
      <trkpt lat="48.60772" lon="2.0801">
        <ele>116.8</ele>
        <time>2025-03-19T17:51:41.611Z</time>
      </trkpt>
      <trkpt lat="48.60776" lon="2.08003">
        <ele>116.9</ele>
        <time>2025-03-19T17:51:45.834Z</time>
      </trkpt>
      <trkpt lat="48.6078" lon="2.07995">
        <ele>116.9</ele>
        <time>2025-03-19T17:51:50.057Z</time>
      </trkpt>
      <trkpt lat="48.60784" lon="2.07988">
        <ele>116.8</ele>
        <time>2025-03-19T17:51:54.280Z</time>
      </trkpt>
      <trkpt lat="48.60788" lon="2.0798">
        <ele>116.6</ele>
        <time>2025-03-19T17:51:58.503Z</time>
      </trkpt>
      <trkpt lat="48.60792" lon="2.07973">
        <ele>116.5</ele>
        <time>2025-03-19T17:52:02.726Z</time>
      </trkpt>
      <trkpt lat="48.60796" lon="2.07965">
        <ele>116.7</ele>
        <time>2025-03-19T17:52:06.950Z</time>
      </trkpt>
      <trkpt lat="48.60801" lon="2.07958">
        <ele>116.8</ele>
        <time>2025-03-19T17:52:11.523Z</time>
      </trkpt>
      <trkpt lat="48.60806" lon="2.0795">
        <ele>117</ele>
        <time>2025-03-19T17:52:16.096Z</time>
      </trkpt>
      <trkpt lat="48.6081" lon="2.07943">
        <ele>117.1</ele>
        <time>2025-03-19T17:52:20.669Z</time>
      </trkpt>
      <trkpt lat="48.60815" lon="2.07935">
        <ele>117</ele>
        <time>2025-03-19T17:52:25.242Z</time>
      </trkpt>
      <trkpt lat="48.6082" lon="2.07928">
        <ele>116.9</ele>
        <time>2025-03-19T17:52:29.816Z</time>
      </trkpt>
      <trkpt lat="48.60825" lon="2.0792">
        <ele>116.8</ele>
        <time>2025-03-19T17:52:34.390Z</time>
      </trkpt>
      <trkpt lat="48.60829" lon="2.07913">
        <ele>116.9</ele>
        <time>2025-03-19T17:52:38.964Z</time>
      </trkpt>
      <trkpt lat="48.60834" lon="2.07905">
        <ele>117</ele>
        <time>2025-03-19T17:52:43.538Z</time>
      </trkpt>
      <trkpt lat="48.60833" lon="2.07904">
        <ele>117</ele>
        <time>2025-03-19T17:52:44.323Z</time>
      </trkpt>
      <trkpt lat="48.60833" lon="2.07903">
        <ele>117</ele>
        <time>2025-03-19T17:52:44.756Z</time>
        <extensions>
          <visugpx:TrkExtension xmlns:visugpx="https://www.visugpx.com/editgpx/">
            <visugpx:node>8</visugpx:node>
            </visugpx:TrkExtension>
        </extensions>
      </trkpt>
      <trkpt lat="48.60828" lon="2.07894">
        <ele>116.8</ele>
        <time>2025-03-19T17:52:49.457Z</time>
      </trkpt>
      <trkpt lat="48.60823" lon="2.07885">
        <ele>116.5</ele>
        <time>2025-03-19T17:52:54.159Z</time>
      </trkpt>
      <trkpt lat="48.60818" lon="2.07875">
        <ele>116.2</ele>
        <time>2025-03-19T17:52:58.861Z</time>
      </trkpt>
      <trkpt lat="48.60813" lon="2.07866">
        <ele>116</ele>
        <time>2025-03-19T17:53:03.564Z</time>
        <extensions>
          <visugpx:TrkExtension xmlns:visugpx="https://www.visugpx.com/editgpx/">
            <visugpx:node>9</visugpx:node>
            </visugpx:TrkExtension>
        </extensions>
      </trkpt>
      <trkpt lat="48.60809" lon="2.07858">
        <ele>116</ele>
        <time>2025-03-19T17:53:08.007Z</time>
      </trkpt>
      <trkpt lat="48.60805" lon="2.0785">
        <ele>116</ele>
        <time>2025-03-19T17:53:12.450Z</time>
      </trkpt>
      <trkpt lat="48.608" lon="2.07842">
        <ele>116</ele>
        <time>2025-03-19T17:53:16.893Z</time>
      </trkpt>
      <trkpt lat="48.60796" lon="2.07834">
        <ele>116</ele>
        <time>2025-03-19T17:53:21.338Z</time>
      </trkpt>
      <trkpt lat="48.60792" lon="2.07828">
        <ele>116</ele>
        <time>2025-03-19T17:53:25.182Z</time>
      </trkpt>
      <trkpt lat="48.60788" lon="2.07821">
        <ele>116</ele>
        <time>2025-03-19T17:53:29.028Z</time>
      </trkpt>
      <trkpt lat="48.60783" lon="2.07819">
        <ele>116</ele>
        <time>2025-03-19T17:53:32.415Z</time>
      </trkpt>
      <trkpt lat="48.60778" lon="2.07818">
        <ele>116</ele>
        <time>2025-03-19T17:53:35.473Z</time>
      </trkpt>
      <trkpt lat="48.60774" lon="2.07817">
        <ele>115.9</ele>
        <time>2025-03-19T17:53:38.532Z</time>
      </trkpt>
      <trkpt lat="48.60769" lon="2.07815">
        <ele>115.9</ele>
        <time>2025-03-19T17:53:41.591Z</time>
      </trkpt>
      <trkpt lat="48.60764" lon="2.07814">
        <ele>115.8</ele>
        <time>2025-03-19T17:53:44.650Z</time>
      </trkpt>
      <trkpt lat="48.60759" lon="2.07813">
        <ele>115.8</ele>
        <time>2025-03-19T17:53:48.068Z</time>
      </trkpt>
      <trkpt lat="48.60753" lon="2.07813">
        <ele>115.8</ele>
        <time>2025-03-19T17:53:51.486Z</time>
      </trkpt>
      <trkpt lat="48.60748" lon="2.07812">
        <ele>115.7</ele>
        <time>2025-03-19T17:53:54.904Z</time>
      </trkpt>
      <trkpt lat="48.60742" lon="2.07812">
        <ele>115.6</ele>
        <time>2025-03-19T17:53:58.322Z</time>
      </trkpt>
      <trkpt lat="48.60737" lon="2.07811">
        <ele>115.4</ele>
        <time>2025-03-19T17:54:01.740Z</time>
      </trkpt>
      <trkpt lat="48.60731" lon="2.0781">
        <ele>115.3</ele>
        <time>2025-03-19T17:54:05.158Z</time>
      </trkpt>
      <trkpt lat="48.60726" lon="2.0781">
        <ele>115.1</ele>
        <time>2025-03-19T17:54:08.576Z</time>
      </trkpt>
      <trkpt lat="48.6072" lon="2.07809">
        <ele>115</ele>
        <time>2025-03-19T17:54:11.995Z</time>
      </trkpt>
      <trkpt lat="48.60714" lon="2.07808">
        <ele>115</ele>
        <time>2025-03-19T17:54:15.811Z</time>
      </trkpt>
      <trkpt lat="48.60709" lon="2.07806">
        <ele>115</ele>
        <time>2025-03-19T17:54:19.627Z</time>
      </trkpt>
      <trkpt lat="48.60703" lon="2.07805">
        <ele>115</ele>
        <time>2025-03-19T17:54:23.443Z</time>
      </trkpt>
      <trkpt lat="48.60698" lon="2.07804">
        <ele>115.1</ele>
        <time>2025-03-19T17:54:27.259Z</time>
      </trkpt>
      <trkpt lat="48.60692" lon="2.07802">
        <ele>115.1</ele>
        <time>2025-03-19T17:54:31.076Z</time>
      </trkpt>
      <trkpt lat="48.60686" lon="2.07801">
        <ele>115.2</ele>
        <time>2025-03-19T17:54:34.893Z</time>
      </trkpt>
      <trkpt lat="48.60681" lon="2.078">
        <ele>115.2</ele>
        <time>2025-03-19T17:54:38.710Z</time>
      </trkpt>
      <trkpt lat="48.60675" lon="2.07799">
        <ele>115.3</ele>
        <time>2025-03-19T17:54:42.527Z</time>
      </trkpt>
      <trkpt lat="48.60669" lon="2.07797">
        <ele>115.3</ele>
        <time>2025-03-19T17:54:46.344Z</time>
      </trkpt>
      <trkpt lat="48.60664" lon="2.07796">
        <ele>115.3</ele>
        <time>2025-03-19T17:54:50.161Z</time>
      </trkpt>
      <trkpt lat="48.60658" lon="2.07795">
        <ele>115.4</ele>
        <time>2025-03-19T17:54:53.978Z</time>
      </trkpt>
      <trkpt lat="48.60653" lon="2.07793">
        <ele>115.4</ele>
        <time>2025-03-19T17:54:57.795Z</time>
      </trkpt>
      <trkpt lat="48.60647" lon="2.07792">
        <ele>115.5</ele>
        <time>2025-03-19T17:55:01.612Z</time>
      </trkpt>
      <trkpt lat="48.60641" lon="2.07791">
        <ele>115.5</ele>
        <time>2025-03-19T17:55:05.429Z</time>
      </trkpt>
      <trkpt lat="48.60636" lon="2.07789">
        <ele>115.6</ele>
        <time>2025-03-19T17:55:09.246Z</time>
      </trkpt>
      <trkpt lat="48.6063" lon="2.07788">
        <ele>115.6</ele>
        <time>2025-03-19T17:55:13.063Z</time>
      </trkpt>
      <trkpt lat="48.60624" lon="2.07787">
        <ele>115.7</ele>
        <time>2025-03-19T17:55:16.880Z</time>
      </trkpt>
      <trkpt lat="48.60619" lon="2.07785">
        <ele>115.7</ele>
        <time>2025-03-19T17:55:20.697Z</time>
      </trkpt>
      <trkpt lat="48.60613" lon="2.07784">
        <ele>115.8</ele>
        <time>2025-03-19T17:55:24.514Z</time>
      </trkpt>
      <trkpt lat="48.60608" lon="2.07783">
        <ele>115.8</ele>
        <time>2025-03-19T17:55:28.331Z</time>
      </trkpt>
      <trkpt lat="48.60602" lon="2.07781">
        <ele>115.9</ele>
        <time>2025-03-19T17:55:32.148Z</time>
      </trkpt>
      <trkpt lat="48.60596" lon="2.0778">
        <ele>115.9</ele>
        <time>2025-03-19T17:55:35.965Z</time>
      </trkpt>
      <trkpt lat="48.60591" lon="2.07779">
        <ele>116</ele>
        <time>2025-03-19T17:55:39.782Z</time>
      </trkpt>
      <trkpt lat="48.60585" lon="2.07778">
        <ele>116</ele>
        <time>2025-03-19T17:55:43.599Z</time>
      </trkpt>
      <trkpt lat="48.60579" lon="2.07776">
        <ele>116</ele>
        <time>2025-03-19T17:55:47.416Z</time>
      </trkpt>
      <trkpt lat="48.60574" lon="2.07775">
        <ele>116</ele>
        <time>2025-03-19T17:55:51.233Z</time>
      </trkpt>
      <trkpt lat="48.60568" lon="2.07774">
        <ele>116.1</ele>
        <time>2025-03-19T17:55:55.050Z</time>
      </trkpt>
      <trkpt lat="48.60563" lon="2.07772">
        <ele>116.1</ele>
        <time>2025-03-19T17:55:58.867Z</time>
      </trkpt>
      <trkpt lat="48.60557" lon="2.07771">
        <ele>116.2</ele>
        <time>2025-03-19T17:56:02.684Z</time>
      </trkpt>
      <trkpt lat="48.60551" lon="2.0777">
        <ele>116.3</ele>
        <time>2025-03-19T17:56:06.501Z</time>
      </trkpt>
      <trkpt lat="48.60546" lon="2.07768">
        <ele>116.3</ele>
        <time>2025-03-19T17:56:10.318Z</time>
      </trkpt>
      <trkpt lat="48.6054" lon="2.07767">
        <ele>116.4</ele>
        <time>2025-03-19T17:56:14.136Z</time>
      </trkpt>
      <trkpt lat="48.60534" lon="2.07765">
        <ele>116.4</ele>
        <time>2025-03-19T17:56:18.588Z</time>
      </trkpt>
      <trkpt lat="48.60527" lon="2.07764">
        <ele>116.5</ele>
        <time>2025-03-19T17:56:23.040Z</time>
      </trkpt>
      <trkpt lat="48.60521" lon="2.07762">
        <ele>116.6</ele>
        <time>2025-03-19T17:56:27.492Z</time>
      </trkpt>
      <trkpt lat="48.60514" lon="2.0776">
        <ele>116.6</ele>
        <time>2025-03-19T17:56:31.944Z</time>
      </trkpt>
      <trkpt lat="48.60508" lon="2.07758">
        <ele>116.7</ele>
        <time>2025-03-19T17:56:36.396Z</time>
      </trkpt>
      <trkpt lat="48.60501" lon="2.07757">
        <ele>116.8</ele>
        <time>2025-03-19T17:56:40.848Z</time>
      </trkpt>
      <trkpt lat="48.60495" lon="2.07755">
        <ele>116.8</ele>
        <time>2025-03-19T17:56:45.301Z</time>
      </trkpt>
      <trkpt lat="48.60488" lon="2.07753">
        <ele>116.9</ele>
        <time>2025-03-19T17:56:49.754Z</time>
      </trkpt>
      <trkpt lat="48.60484" lon="2.07753">
        <ele>116.9</ele>
        <time>2025-03-19T17:56:52.708Z</time>
      </trkpt>
      <trkpt lat="48.60479" lon="2.07752">
        <ele>116.9</ele>
        <time>2025-03-19T17:56:55.663Z</time>
      </trkpt>
      <trkpt lat="48.60479" lon="2.07744">
        <ele>117</ele>
        <time>2025-03-19T17:56:59.528Z</time>
      </trkpt>
      <trkpt lat="48.60479" lon="2.07736">
        <ele>117</ele>
        <time>2025-03-19T17:57:03.393Z</time>
      </trkpt>
      <trkpt lat="48.60479" lon="2.07727">
        <ele>117</ele>
        <time>2025-03-19T17:57:07.258Z</time>
      </trkpt>
      <trkpt lat="48.60479" lon="2.07719">
        <ele>117.1</ele>
        <time>2025-03-19T17:57:11.123Z</time>
      </trkpt>
      <trkpt lat="48.60479" lon="2.07711">
        <ele>117.4</ele>
        <time>2025-03-19T17:57:14.989Z</time>
      </trkpt>
      <trkpt lat="48.60479" lon="2.07703">
        <ele>117.7</ele>
        <time>2025-03-19T17:57:18.855Z</time>
      </trkpt>
      <trkpt lat="48.60479" lon="2.07694">
        <ele>118</ele>
        <time>2025-03-19T17:57:22.721Z</time>
      </trkpt>
      <trkpt lat="48.60479" lon="2.07686">
        <ele>118</ele>
        <time>2025-03-19T17:57:26.587Z</time>
      </trkpt>
      <trkpt lat="48.60478" lon="2.07677">
        <ele>118</ele>
        <time>2025-03-19T17:57:30.888Z</time>
      </trkpt>
      <trkpt lat="48.60477" lon="2.07668">
        <ele>118</ele>
        <time>2025-03-19T17:57:35.189Z</time>
      </trkpt>
      <trkpt lat="48.60475" lon="2.07659">
        <ele>118.3</ele>
        <time>2025-03-19T17:57:39.491Z</time>
      </trkpt>
      <trkpt lat="48.60474" lon="2.0765">
        <ele>118.6</ele>
        <time>2025-03-19T17:57:43.794Z</time>
      </trkpt>
      <trkpt lat="48.60473" lon="2.07643">
        <ele>118.9</ele>
        <time>2025-03-19T17:57:47.421Z</time>
      </trkpt>
      <trkpt lat="48.60471" lon="2.07636">
        <ele>119</ele>
        <time>2025-03-19T17:57:51.050Z</time>
      </trkpt>
      <trkpt lat="48.60466" lon="2.07626">
        <ele>118.8</ele>
        <time>2025-03-19T17:57:56.233Z</time>
      </trkpt>
      <trkpt lat="48.60462" lon="2.07616">
        <ele>118.6</ele>
        <time>2025-03-19T17:58:01.416Z</time>
      </trkpt>
      <trkpt lat="48.60457" lon="2.07606">
        <ele>118.5</ele>
        <time>2025-03-19T17:58:06.599Z</time>
      </trkpt>
      <trkpt lat="48.60452" lon="2.07596">
        <ele>118.7</ele>
        <time>2025-03-19T17:58:11.784Z</time>
      </trkpt>
      <trkpt lat="48.60449" lon="2.07584">
        <ele>119</ele>
        <time>2025-03-19T17:58:17.777Z</time>
      </trkpt>
      <trkpt lat="48.60445" lon="2.07572">
        <ele>119</ele>
        <time>2025-03-19T17:58:23.771Z</time>
      </trkpt>
      <trkpt lat="48.60445" lon="2.07561">
        <ele>119</ele>
        <time>2025-03-19T17:58:28.761Z</time>
      </trkpt>
      <trkpt lat="48.60444" lon="2.07549">
        <ele>119</ele>
        <time>2025-03-19T17:58:33.753Z</time>
      </trkpt>
      <trkpt lat="48.60445" lon="2.07539">
        <ele>119</ele>
        <time>2025-03-19T17:58:38.449Z</time>
      </trkpt>
      <trkpt lat="48.60446" lon="2.07528">
        <ele>119.1</ele>
        <time>2025-03-19T17:58:43.145Z</time>
      </trkpt>
      <trkpt lat="48.60448" lon="2.07521">
        <ele>119.3</ele>
        <time>2025-03-19T17:58:46.685Z</time>
      </trkpt>
      <trkpt lat="48.6045" lon="2.07514">
        <ele>119.6</ele>
        <time>2025-03-19T17:58:50.225Z</time>
      </trkpt>
      <trkpt lat="48.60452" lon="2.07507">
        <ele>119.8</ele>
        <time>2025-03-19T17:58:53.765Z</time>
      </trkpt>
      <trkpt lat="48.60454" lon="2.075">
        <ele>120</ele>
        <time>2025-03-19T17:58:57.305Z</time>
      </trkpt>
      <trkpt lat="48.60456" lon="2.07493">
        <ele>120</ele>
        <time>2025-03-19T17:59:00.845Z</time>
      </trkpt>
      <trkpt lat="48.60458" lon="2.07486">
        <ele>120</ele>
        <time>2025-03-19T17:59:04.385Z</time>
      </trkpt>
      <trkpt lat="48.6046" lon="2.07479">
        <ele>120</ele>
        <time>2025-03-19T17:59:07.926Z</time>
      </trkpt>
      <trkpt lat="48.60462" lon="2.07472">
        <ele>120</ele>
        <time>2025-03-19T17:59:11.467Z</time>
      </trkpt>
      <trkpt lat="48.60465" lon="2.07463">
        <ele>119.7</ele>
        <time>2025-03-19T17:59:15.309Z</time>
      </trkpt>
      <trkpt lat="48.60468" lon="2.07454">
        <ele>119.3</ele>
        <time>2025-03-19T17:59:19.152Z</time>
      </trkpt>
      <trkpt lat="48.6047" lon="2.07444">
        <ele>119</ele>
        <time>2025-03-19T17:59:22.995Z</time>
      </trkpt>
      <trkpt lat="48.60473" lon="2.07435">
        <ele>118.7</ele>
        <time>2025-03-19T17:59:26.838Z</time>
      </trkpt>
      <trkpt lat="48.60476" lon="2.07428">
        <ele>118.5</ele>
        <time>2025-03-19T17:59:30.101Z</time>
      </trkpt>
      <trkpt lat="48.60478" lon="2.0742">
        <ele>118.3</ele>
        <time>2025-03-19T17:59:33.365Z</time>
      </trkpt>
      <trkpt lat="48.60477" lon="2.07408">
        <ele>118.1</ele>
        <time>2025-03-19T17:59:38.166Z</time>
      </trkpt>
      <trkpt lat="48.60477" lon="2.07396">
        <ele>118</ele>
        <time>2025-03-19T17:59:42.967Z</time>
      </trkpt>
      <trkpt lat="48.60476" lon="2.07383">
        <ele>117.8</ele>
        <time>2025-03-19T17:59:47.768Z</time>
      </trkpt>
      <trkpt lat="48.60476" lon="2.07371">
        <ele>117.4</ele>
        <time>2025-03-19T17:59:52.569Z</time>
      </trkpt>
      <trkpt lat="48.60475" lon="2.07359">
        <ele>116.9</ele>
        <time>2025-03-19T17:59:57.370Z</time>
      </trkpt>
      <trkpt lat="48.60475" lon="2.07347">
        <ele>116.5</ele>
        <time>2025-03-19T18:00:02.171Z</time>
      </trkpt>
      <trkpt lat="48.60474" lon="2.07334">
        <ele>116</ele>
        <time>2025-03-19T18:00:06.972Z</time>
      </trkpt>
      <trkpt lat="48.60474" lon="2.07322">
        <ele>115.6</ele>
        <time>2025-03-19T18:00:11.773Z</time>
      </trkpt>
      <trkpt lat="48.60473" lon="2.0731">
        <ele>115.2</ele>
        <time>2025-03-19T18:00:16.574Z</time>
      </trkpt>
      <trkpt lat="48.60472" lon="2.07298">
        <ele>115</ele>
        <time>2025-03-19T18:00:21.375Z</time>
      </trkpt>
      <trkpt lat="48.60472" lon="2.07285">
        <ele>115</ele>
        <time>2025-03-19T18:00:26.176Z</time>
      </trkpt>
      <trkpt lat="48.60471" lon="2.07273">
        <ele>114.8</ele>
        <time>2025-03-19T18:00:30.977Z</time>
      </trkpt>
      <trkpt lat="48.60471" lon="2.07261">
        <ele>114.4</ele>
        <time>2025-03-19T18:00:35.779Z</time>
      </trkpt>
      <trkpt lat="48.6047" lon="2.07249">
        <ele>114</ele>
        <time>2025-03-19T18:00:40.581Z</time>
      </trkpt>
      <trkpt lat="48.6047" lon="2.07236">
        <ele>114</ele>
        <time>2025-03-19T18:00:45.383Z</time>
      </trkpt>
      <trkpt lat="48.60469" lon="2.07224">
        <ele>113.9</ele>
        <time>2025-03-19T18:00:50.186Z</time>
      </trkpt>
      <trkpt lat="48.60468" lon="2.07216">
        <ele>113.7</ele>
        <time>2025-03-19T18:00:53.269Z</time>
      </trkpt>
      <trkpt lat="48.60468" lon="2.07208">
        <ele>113.4</ele>
        <time>2025-03-19T18:00:56.352Z</time>
      </trkpt>
      <trkpt lat="48.60467" lon="2.072">
        <ele>113.2</ele>
        <time>2025-03-19T18:00:59.436Z</time>
      </trkpt>
      <trkpt lat="48.60466" lon="2.07192">
        <ele>113</ele>
        <time>2025-03-19T18:01:02.521Z</time>
      </trkpt>
      <trkpt lat="48.60466" lon="2.07182">
        <ele>112.9</ele>
        <time>2025-03-19T18:01:06.656Z</time>
      </trkpt>
      <trkpt lat="48.60466" lon="2.0717">
        <ele>112.8</ele>
        <time>2025-03-19T18:01:11.572Z</time>
      </trkpt>
      <trkpt lat="48.60465" lon="2.07158">
        <ele>112.7</ele>
        <time>2025-03-19T18:01:16.488Z</time>
      </trkpt>
      <trkpt lat="48.60465" lon="2.07146">
        <ele>112.7</ele>
        <time>2025-03-19T18:01:21.404Z</time>
      </trkpt>
      <trkpt lat="48.60464" lon="2.07134">
        <ele>112.6</ele>
        <time>2025-03-19T18:01:26.320Z</time>
      </trkpt>
      <trkpt lat="48.60464" lon="2.07122">
        <ele>112.3</ele>
        <time>2025-03-19T18:01:31.236Z</time>
      </trkpt>
      <trkpt lat="48.60463" lon="2.0711">
        <ele>112</ele>
        <time>2025-03-19T18:01:36.152Z</time>
      </trkpt>
      <trkpt lat="48.60463" lon="2.07098">
        <ele>111.8</ele>
        <time>2025-03-19T18:01:41.068Z</time>
      </trkpt>
      <trkpt lat="48.60462" lon="2.07086">
        <ele>111.7</ele>
        <time>2025-03-19T18:01:45.986Z</time>
      </trkpt>
      <trkpt lat="48.6046" lon="2.0708">
        <ele>111.6</ele>
        <time>2025-03-19T18:01:49.128Z</time>
      </trkpt>
      <trkpt lat="48.60459" lon="2.07073">
        <ele>111.7</ele>
        <time>2025-03-19T18:01:52.270Z</time>
      </trkpt>
      <trkpt lat="48.60457" lon="2.07067">
        <ele>111.8</ele>
        <time>2025-03-19T18:01:55.412Z</time>
      </trkpt>
      <trkpt lat="48.60455" lon="2.0706">
        <ele>111.9</ele>
        <time>2025-03-19T18:01:58.555Z</time>
      </trkpt>
      <trkpt lat="48.60459" lon="2.07051">
        <ele>112</ele>
        <time>2025-03-19T18:02:03.373Z</time>
      </trkpt>
      <trkpt lat="48.60464" lon="2.07042">
        <ele>112</ele>
        <time>2025-03-19T18:02:08.192Z</time>
      </trkpt>
      <trkpt lat="48.60468" lon="2.07033">
        <ele>112</ele>
        <time>2025-03-19T18:02:13.011Z</time>
      </trkpt>
      <trkpt lat="48.60473" lon="2.07025">
        <ele>112</ele>
        <time>2025-03-19T18:02:17.830Z</time>
      </trkpt>
      <trkpt lat="48.60477" lon="2.07016">
        <ele>112.1</ele>
        <time>2025-03-19T18:02:22.649Z</time>
      </trkpt>
      <trkpt lat="48.60481" lon="2.07007">
        <ele>112.1</ele>
        <time>2025-03-19T18:02:27.468Z</time>
      </trkpt>
      <trkpt lat="48.60486" lon="2.06998">
        <ele>112</ele>
        <time>2025-03-19T18:02:32.287Z</time>
      </trkpt>
      <trkpt lat="48.6049" lon="2.06989">
        <ele>112</ele>
        <time>2025-03-19T18:02:37.106Z</time>
      </trkpt>
      <trkpt lat="48.60492" lon="2.06981">
        <ele>112</ele>
        <time>2025-03-19T18:02:40.860Z</time>
      </trkpt>
      <trkpt lat="48.60494" lon="2.06973">
        <ele>112</ele>
        <time>2025-03-19T18:02:44.614Z</time>
      </trkpt>
      <trkpt lat="48.60496" lon="2.06965">
        <ele>112</ele>
        <time>2025-03-19T18:02:48.368Z</time>
      </trkpt>
      <trkpt lat="48.60498" lon="2.06957">
        <ele>112</ele>
        <time>2025-03-19T18:02:52.122Z</time>
      </trkpt>
      <trkpt lat="48.605" lon="2.06949">
        <ele>112</ele>
        <time>2025-03-19T18:02:55.877Z</time>
      </trkpt>
      <trkpt lat="48.60502" lon="2.06941">
        <ele>112</ele>
        <time>2025-03-19T18:02:59.632Z</time>
      </trkpt>
      <trkpt lat="48.60504" lon="2.06933">
        <ele>112.1</ele>
        <time>2025-03-19T18:03:03.387Z</time>
      </trkpt>
      <trkpt lat="48.60506" lon="2.06925">
        <ele>112.2</ele>
        <time>2025-03-19T18:03:07.142Z</time>
      </trkpt>
      <trkpt lat="48.60508" lon="2.06917">
        <ele>112.3</ele>
        <time>2025-03-19T18:03:11.074Z</time>
      </trkpt>
      <trkpt lat="48.6051" lon="2.06908">
        <ele>112.3</ele>
        <time>2025-03-19T18:03:15.006Z</time>
      </trkpt>
      <trkpt lat="48.60511" lon="2.069">
        <ele>112.4</ele>
        <time>2025-03-19T18:03:18.938Z</time>
      </trkpt>
      <trkpt lat="48.60513" lon="2.06892">
        <ele>112.5</ele>
        <time>2025-03-19T18:03:22.870Z</time>
      </trkpt>
      <trkpt lat="48.60515" lon="2.06883">
        <ele>112.5</ele>
        <time>2025-03-19T18:03:26.802Z</time>
      </trkpt>
      <trkpt lat="48.60517" lon="2.06875">
        <ele>112.6</ele>
        <time>2025-03-19T18:03:30.735Z</time>
      </trkpt>
      <trkpt lat="48.60518" lon="2.06866">
        <ele>112.7</ele>
        <time>2025-03-19T18:03:34.668Z</time>
      </trkpt>
      <trkpt lat="48.6052" lon="2.06858">
        <ele>112.7</ele>
        <time>2025-03-19T18:03:38.601Z</time>
      </trkpt>
      <trkpt lat="48.60523" lon="2.0685">
        <ele>112.8</ele>
        <time>2025-03-19T18:03:42.642Z</time>
      </trkpt>
      <trkpt lat="48.60525" lon="2.06842">
        <ele>112.9</ele>
        <time>2025-03-19T18:03:46.683Z</time>
      </trkpt>
      <trkpt lat="48.6052" lon="2.0684">
        <ele>112.7</ele>
        <time>2025-03-19T18:03:49.624Z</time>
      </trkpt>
      <trkpt lat="48.60515" lon="2.06839">
        <ele>112.6</ele>
        <time>2025-03-19T18:03:52.565Z</time>
      </trkpt>
      <trkpt lat="48.6051" lon="2.06837">
        <ele>112.4</ele>
        <time>2025-03-19T18:03:55.506Z</time>
      </trkpt>
      <trkpt lat="48.60506" lon="2.06836">
        <ele>112.2</ele>
        <time>2025-03-19T18:03:58.447Z</time>
      </trkpt>
      <trkpt lat="48.60501" lon="2.06834">
        <ele>112</ele>
        <time>2025-03-19T18:04:01.388Z</time>
      </trkpt>
      <trkpt lat="48.60496" lon="2.06832">
        <ele>111.8</ele>
        <time>2025-03-19T18:04:04.330Z</time>
      </trkpt>
      <trkpt lat="48.60491" lon="2.06831">
        <ele>111.7</ele>
        <time>2025-03-19T18:04:07.272Z</time>
      </trkpt>
      <trkpt lat="48.60486" lon="2.06829">
        <ele>111.5</ele>
        <time>2025-03-19T18:04:10.215Z</time>
      </trkpt>
      <trkpt lat="48.60487" lon="2.06822">
        <ele>111.5</ele>
        <time>2025-03-19T18:04:13.343Z</time>
      </trkpt>
      <trkpt lat="48.60487" lon="2.06815">
        <ele>111.5</ele>
        <time>2025-03-19T18:04:16.471Z</time>
      </trkpt>
      <trkpt lat="48.60488" lon="2.06808">
        <ele>111.5</ele>
        <time>2025-03-19T18:04:19.599Z</time>
      </trkpt>
      <trkpt lat="48.60488" lon="2.06801">
        <ele>111.6</ele>
        <time>2025-03-19T18:04:22.727Z</time>
      </trkpt>
      <trkpt lat="48.60489" lon="2.06793">
        <ele>111.6</ele>
        <time>2025-03-19T18:04:25.855Z</time>
      </trkpt>
      <trkpt lat="48.60489" lon="2.06786">
        <ele>111.6</ele>
        <time>2025-03-19T18:04:28.983Z</time>
      </trkpt>
      <trkpt lat="48.6049" lon="2.06779">
        <ele>111.6</ele>
        <time>2025-03-19T18:04:32.111Z</time>
      </trkpt>
      <trkpt lat="48.6049" lon="2.06772">
        <ele>111.6</ele>
        <time>2025-03-19T18:04:35.239Z</time>
      </trkpt>
      <trkpt lat="48.60484" lon="2.06768">
        <ele>111.4</ele>
        <time>2025-03-19T18:04:39.466Z</time>
      </trkpt>
      <trkpt lat="48.60477" lon="2.06763">
        <ele>111.2</ele>
        <time>2025-03-19T18:04:43.693Z</time>
      </trkpt>
      <trkpt lat="48.60471" lon="2.06759">
        <ele>111</ele>
        <time>2025-03-19T18:04:47.920Z</time>
      </trkpt>
      <trkpt lat="48.60465" lon="2.06754">
        <ele>110.7</ele>
        <time>2025-03-19T18:04:52.147Z</time>
      </trkpt>
      <trkpt lat="48.60458" lon="2.0675">
        <ele>110.5</ele>
        <time>2025-03-19T18:04:56.375Z</time>
      </trkpt>
      <trkpt lat="48.60452" lon="2.06745">
        <ele>110.3</ele>
        <time>2025-03-19T18:05:00.603Z</time>
      </trkpt>
      <trkpt lat="48.60445" lon="2.06741">
        <ele>110</ele>
        <time>2025-03-19T18:05:04.831Z</time>
      </trkpt>
      <trkpt lat="48.60439" lon="2.06736">
        <ele>110</ele>
        <time>2025-03-19T18:05:09.060Z</time>
      </trkpt>
      <trkpt lat="48.60434" lon="2.06737">
        <ele>110</ele>
        <time>2025-03-19T18:05:12.370Z</time>
      </trkpt>
      <trkpt lat="48.60429" lon="2.06739">
        <ele>110</ele>
        <time>2025-03-19T18:05:15.680Z</time>
      </trkpt>
      <trkpt lat="48.60423" lon="2.0674">
        <ele>110</ele>
        <time>2025-03-19T18:05:18.990Z</time>
      </trkpt>
      <trkpt lat="48.60418" lon="2.06741">
        <ele>110</ele>
        <time>2025-03-19T18:05:22.300Z</time>
      </trkpt>
      <trkpt lat="48.60413" lon="2.06742">
        <ele>109.9</ele>
        <time>2025-03-19T18:05:25.610Z</time>
      </trkpt>
      <trkpt lat="48.60408" lon="2.06744">
        <ele>109.7</ele>
        <time>2025-03-19T18:05:28.920Z</time>
      </trkpt>
      <trkpt lat="48.60402" lon="2.06745">
        <ele>109.5</ele>
        <time>2025-03-19T18:05:32.230Z</time>
      </trkpt>
      <trkpt lat="48.60397" lon="2.06746">
        <ele>109.3</ele>
        <time>2025-03-19T18:05:35.541Z</time>
      </trkpt>
      <trkpt lat="48.6039" lon="2.06741">
        <ele>109.1</ele>
        <time>2025-03-19T18:05:40.624Z</time>
      </trkpt>
      <trkpt lat="48.60384" lon="2.06737">
        <ele>109</ele>
        <time>2025-03-19T18:05:45.707Z</time>
      </trkpt>
      <trkpt lat="48.60377" lon="2.06732">
        <ele>109</ele>
        <time>2025-03-19T18:05:50.790Z</time>
      </trkpt>
      <trkpt lat="48.6037" lon="2.06727">
        <ele>109</ele>
        <time>2025-03-19T18:05:55.873Z</time>
      </trkpt>
      <trkpt lat="48.60364" lon="2.06723">
        <ele>109</ele>
        <time>2025-03-19T18:06:00.956Z</time>
      </trkpt>
      <trkpt lat="48.60357" lon="2.06718">
        <ele>109</ele>
        <time>2025-03-19T18:06:06.039Z</time>
      </trkpt>
      <trkpt lat="48.6035" lon="2.06713">
        <ele>109</ele>
        <time>2025-03-19T18:06:11.122Z</time>
      </trkpt>
      <trkpt lat="48.60344" lon="2.06709">
        <ele>109</ele>
        <time>2025-03-19T18:06:16.205Z</time>
      </trkpt>
      <trkpt lat="48.60337" lon="2.06704">
        <ele>109</ele>
        <time>2025-03-19T18:06:21.288Z</time>
      </trkpt>
      <trkpt lat="48.6033" lon="2.06699">
        <ele>109</ele>
        <time>2025-03-19T18:06:26.371Z</time>
      </trkpt>
      <trkpt lat="48.60324" lon="2.06694">
        <ele>109</ele>
        <time>2025-03-19T18:06:31.454Z</time>
      </trkpt>
      <trkpt lat="48.60317" lon="2.0669">
        <ele>109</ele>
        <time>2025-03-19T18:06:36.537Z</time>
      </trkpt>
      <trkpt lat="48.60311" lon="2.06685">
        <ele>109</ele>
        <time>2025-03-19T18:06:41.620Z</time>
      </trkpt>
      <trkpt lat="48.60304" lon="2.0668">
        <ele>109</ele>
        <time>2025-03-19T18:06:46.703Z</time>
      </trkpt>
      <trkpt lat="48.60297" lon="2.06676">
        <ele>109</ele>
        <time>2025-03-19T18:06:51.787Z</time>
      </trkpt>
      <trkpt lat="48.60291" lon="2.06671">
        <ele>109</ele>
        <time>2025-03-19T18:06:56.871Z</time>
      </trkpt>
      <trkpt lat="48.60284" lon="2.06666">
        <ele>109</ele>
        <time>2025-03-19T18:07:01.955Z</time>
      </trkpt>
      <trkpt lat="48.60277" lon="2.06662">
        <ele>109</ele>
        <time>2025-03-19T18:07:07.039Z</time>
      </trkpt>
      <trkpt lat="48.60271" lon="2.06657">
        <ele>109</ele>
        <time>2025-03-19T18:07:12.123Z</time>
      </trkpt>
      <trkpt lat="48.60264" lon="2.06652">
        <ele>109</ele>
        <time>2025-03-19T18:07:17.207Z</time>
      </trkpt>
      <trkpt lat="48.60257" lon="2.06648">
        <ele>109</ele>
        <time>2025-03-19T18:07:22.291Z</time>
      </trkpt>
      <trkpt lat="48.60251" lon="2.06643">
        <ele>109</ele>
        <time>2025-03-19T18:07:27.375Z</time>
      </trkpt>
      <trkpt lat="48.60244" lon="2.06638">
        <ele>109</ele>
        <time>2025-03-19T18:07:32.459Z</time>
      </trkpt>
      <trkpt lat="48.60237" lon="2.06634">
        <ele>109.1</ele>
        <time>2025-03-19T18:07:37.543Z</time>
      </trkpt>
      <trkpt lat="48.60231" lon="2.06629">
        <ele>109.3</ele>
        <time>2025-03-19T18:07:42.627Z</time>
      </trkpt>
      <trkpt lat="48.60224" lon="2.06624">
        <ele>109.5</ele>
        <time>2025-03-19T18:07:47.711Z</time>
      </trkpt>
      <trkpt lat="48.60217" lon="2.06619">
        <ele>110.3</ele>
        <time>2025-03-19T18:07:52.795Z</time>
      </trkpt>
      <trkpt lat="48.60211" lon="2.06615">
        <ele>111.2</ele>
        <time>2025-03-19T18:07:57.879Z</time>
      </trkpt>
      <trkpt lat="48.60204" lon="2.0661">
        <ele>112</ele>
        <time>2025-03-19T18:08:02.963Z</time>
      </trkpt>
      <trkpt lat="48.60197" lon="2.06605">
        <ele>112.7</ele>
        <time>2025-03-19T18:08:08.047Z</time>
      </trkpt>
      <trkpt lat="48.60191" lon="2.06601">
        <ele>113.2</ele>
        <time>2025-03-19T18:08:13.131Z</time>
      </trkpt>
      <trkpt lat="48.60184" lon="2.06596">
        <ele>113.5</ele>
        <time>2025-03-19T18:08:18.216Z</time>
      </trkpt>
      <trkpt lat="48.60182" lon="2.06589">
        <ele>113.5</ele>
        <time>2025-03-19T18:08:21.389Z</time>
      </trkpt>
      <trkpt lat="48.60181" lon="2.06583">
        <ele>113.5</ele>
        <time>2025-03-19T18:08:24.562Z</time>
      </trkpt>
      <trkpt lat="48.60179" lon="2.06576">
        <ele>113.5</ele>
        <time>2025-03-19T18:08:27.735Z</time>
      </trkpt>
      <trkpt lat="48.60177" lon="2.0657">
        <ele>113.4</ele>
        <time>2025-03-19T18:08:30.908Z</time>
      </trkpt>
      <trkpt lat="48.60175" lon="2.06563">
        <ele>113.5</ele>
        <time>2025-03-19T18:08:34.081Z</time>
      </trkpt>
      <trkpt lat="48.60174" lon="2.06556">
        <ele>113.5</ele>
        <time>2025-03-19T18:08:37.254Z</time>
      </trkpt>
      <trkpt lat="48.60172" lon="2.0655">
        <ele>113.6</ele>
        <time>2025-03-19T18:08:40.427Z</time>
      </trkpt>
      <trkpt lat="48.6017" lon="2.06543">
        <ele>113.7</ele>
        <time>2025-03-19T18:08:43.600Z</time>
      </trkpt>
      <trkpt lat="48.60168" lon="2.06537">
        <ele>113.8</ele>
        <time>2025-03-19T18:08:46.773Z</time>
      </trkpt>
      <trkpt lat="48.60167" lon="2.0653">
        <ele>114</ele>
        <time>2025-03-19T18:08:49.946Z</time>
      </trkpt>
      <trkpt lat="48.60165" lon="2.06524">
        <ele>113.9</ele>
        <time>2025-03-19T18:08:53.119Z</time>
      </trkpt>
      <trkpt lat="48.60163" lon="2.06517">
        <ele>113.8</ele>
        <time>2025-03-19T18:08:56.292Z</time>
      </trkpt>
      <trkpt lat="48.60161" lon="2.0651">
        <ele>113.7</ele>
        <time>2025-03-19T18:08:59.465Z</time>
      </trkpt>
      <trkpt lat="48.6016" lon="2.06504">
        <ele>113.6</ele>
        <time>2025-03-19T18:09:02.638Z</time>
      </trkpt>
      <trkpt lat="48.60158" lon="2.06497">
        <ele>113.6</ele>
        <time>2025-03-19T18:09:05.811Z</time>
      </trkpt>
      <trkpt lat="48.60156" lon="2.06491">
        <ele>113.8</ele>
        <time>2025-03-19T18:09:08.984Z</time>
      </trkpt>
      <trkpt lat="48.60154" lon="2.06484">
        <ele>113.9</ele>
        <time>2025-03-19T18:09:12.157Z</time>
      </trkpt>
      <trkpt lat="48.60153" lon="2.06477">
        <ele>114</ele>
        <time>2025-03-19T18:09:15.330Z</time>
      </trkpt>
      <trkpt lat="48.60151" lon="2.06471">
        <ele>114.1</ele>
        <time>2025-03-19T18:09:18.503Z</time>
      </trkpt>
      <trkpt lat="48.60149" lon="2.06464">
        <ele>114.2</ele>
        <time>2025-03-19T18:09:21.676Z</time>
      </trkpt>
      <trkpt lat="48.60147" lon="2.06458">
        <ele>114.2</ele>
        <time>2025-03-19T18:09:24.849Z</time>
      </trkpt>
      <trkpt lat="48.60146" lon="2.06451">
        <ele>114.3</ele>
        <time>2025-03-19T18:09:28.022Z</time>
      </trkpt>
      <trkpt lat="48.60144" lon="2.06444">
        <ele>114.5</ele>
        <time>2025-03-19T18:09:31.195Z</time>
      </trkpt>
      <trkpt lat="48.60142" lon="2.06438">
        <ele>114.4</ele>
        <time>2025-03-19T18:09:34.368Z</time>
      </trkpt>
      <trkpt lat="48.6014" lon="2.06431">
        <ele>114.4</ele>
        <time>2025-03-19T18:09:37.541Z</time>
      </trkpt>
      <trkpt lat="48.60139" lon="2.06425">
        <ele>114.3</ele>
        <time>2025-03-19T18:09:40.714Z</time>
      </trkpt>
      <trkpt lat="48.60137" lon="2.06418">
        <ele>114.2</ele>
        <time>2025-03-19T18:09:43.887Z</time>
      </trkpt>
      <trkpt lat="48.60135" lon="2.06411">
        <ele>114.3</ele>
        <time>2025-03-19T18:09:47.060Z</time>
      </trkpt>
      <trkpt lat="48.60133" lon="2.06405">
        <ele>114.4</ele>
        <time>2025-03-19T18:09:50.233Z</time>
      </trkpt>
      <trkpt lat="48.60132" lon="2.06398">
        <ele>114.5</ele>
        <time>2025-03-19T18:09:53.406Z</time>
      </trkpt>
      <trkpt lat="48.6013" lon="2.06392">
        <ele>114.7</ele>
        <time>2025-03-19T18:09:56.579Z</time>
      </trkpt>
      <trkpt lat="48.60128" lon="2.06385">
        <ele>114.8</ele>
        <time>2025-03-19T18:09:59.752Z</time>
      </trkpt>
      <trkpt lat="48.60126" lon="2.06378">
        <ele>114.9</ele>
        <time>2025-03-19T18:10:02.925Z</time>
      </trkpt>
      <trkpt lat="48.60125" lon="2.06372">
        <ele>115</ele>
        <time>2025-03-19T18:10:06.098Z</time>
      </trkpt>
      <trkpt lat="48.60123" lon="2.06365">
        <ele>115.2</ele>
        <time>2025-03-19T18:10:09.271Z</time>
      </trkpt>
      <trkpt lat="48.60121" lon="2.06359">
        <ele>115.3</ele>
        <time>2025-03-19T18:10:12.445Z</time>
      </trkpt>
      <trkpt lat="48.60119" lon="2.06352">
        <ele>115.4</ele>
        <time>2025-03-19T18:10:15.619Z</time>
      </trkpt>
      <trkpt lat="48.60118" lon="2.06345">
        <ele>115.5</ele>
        <time>2025-03-19T18:10:18.793Z</time>
      </trkpt>
      <trkpt lat="48.60116" lon="2.06339">
        <ele>115.7</ele>
        <time>2025-03-19T18:10:21.967Z</time>
      </trkpt>
      <trkpt lat="48.60114" lon="2.06332">
        <ele>115.8</ele>
        <time>2025-03-19T18:10:25.141Z</time>
      </trkpt>
      <trkpt lat="48.60112" lon="2.06326">
        <ele>115.9</ele>
        <time>2025-03-19T18:10:28.315Z</time>
      </trkpt>
      <trkpt lat="48.60111" lon="2.06319">
        <ele>116</ele>
        <time>2025-03-19T18:10:31.489Z</time>
      </trkpt>
      <trkpt lat="48.60109" lon="2.06313">
        <ele>116.1</ele>
        <time>2025-03-19T18:10:34.663Z</time>
      </trkpt>
      <trkpt lat="48.60107" lon="2.06306">
        <ele>116.1</ele>
        <time>2025-03-19T18:10:37.837Z</time>
      </trkpt>
      <trkpt lat="48.60105" lon="2.06299">
        <ele>116</ele>
        <time>2025-03-19T18:10:41.011Z</time>
      </trkpt>
      <trkpt lat="48.60104" lon="2.06293">
        <ele>115.9</ele>
        <time>2025-03-19T18:10:44.185Z</time>
      </trkpt>
      <trkpt lat="48.60102" lon="2.06286">
        <ele>115.9</ele>
        <time>2025-03-19T18:10:47.359Z</time>
      </trkpt>
      <trkpt lat="48.601" lon="2.0628">
        <ele>115.8</ele>
        <time>2025-03-19T18:10:50.533Z</time>
      </trkpt>
      <trkpt lat="48.60098" lon="2.06273">
        <ele>115.9</ele>
        <time>2025-03-19T18:10:53.707Z</time>
      </trkpt>
      <trkpt lat="48.60097" lon="2.06266">
        <ele>116.1</ele>
        <time>2025-03-19T18:10:56.881Z</time>
      </trkpt>
      <trkpt lat="48.60095" lon="2.0626">
        <ele>116.2</ele>
        <time>2025-03-19T18:11:00.055Z</time>
      </trkpt>
      <trkpt lat="48.60093" lon="2.06253">
        <ele>116.3</ele>
        <time>2025-03-19T18:11:03.229Z</time>
      </trkpt>
      <trkpt lat="48.60091" lon="2.06247">
        <ele>116.4</ele>
        <time>2025-03-19T18:11:06.403Z</time>
      </trkpt>
      <trkpt lat="48.6009" lon="2.0624">
        <ele>116.6</ele>
        <time>2025-03-19T18:11:09.577Z</time>
      </trkpt>
      <trkpt lat="48.60088" lon="2.06233">
        <ele>116.7</ele>
        <time>2025-03-19T18:11:12.751Z</time>
      </trkpt>
      <trkpt lat="48.60086" lon="2.06227">
        <ele>116.8</ele>
        <time>2025-03-19T18:11:15.925Z</time>
      </trkpt>
      <trkpt lat="48.60084" lon="2.0622">
        <ele>116.9</ele>
        <time>2025-03-19T18:11:19.099Z</time>
      </trkpt>
      <trkpt lat="48.60083" lon="2.06214">
        <ele>116.7</ele>
        <time>2025-03-19T18:11:22.273Z</time>
      </trkpt>
      <trkpt lat="48.60081" lon="2.06207">
        <ele>116.6</ele>
        <time>2025-03-19T18:11:25.447Z</time>
      </trkpt>
      <trkpt lat="48.60079" lon="2.062">
        <ele>116.5</ele>
        <time>2025-03-19T18:11:28.621Z</time>
      </trkpt>
      <trkpt lat="48.60077" lon="2.06194">
        <ele>116.4</ele>
        <time>2025-03-19T18:11:31.795Z</time>
      </trkpt>
      <trkpt lat="48.60076" lon="2.06187">
        <ele>116.5</ele>
        <time>2025-03-19T18:11:34.969Z</time>
      </trkpt>
      <trkpt lat="48.60074" lon="2.06181">
        <ele>116.5</ele>
        <time>2025-03-19T18:11:38.143Z</time>
      </trkpt>
      <trkpt lat="48.60072" lon="2.06174">
        <ele>116.5</ele>
        <time>2025-03-19T18:11:41.318Z</time>
      </trkpt>
      <trkpt lat="48.60069" lon="2.06168">
        <ele>116.6</ele>
        <time>2025-03-19T18:11:45.384Z</time>
      </trkpt>
      <trkpt lat="48.60065" lon="2.06161">
        <ele>116.9</ele>
        <time>2025-03-19T18:11:49.452Z</time>
      </trkpt>
      <trkpt lat="48.60063" lon="2.06154">
        <ele>117.2</ele>
        <time>2025-03-19T18:11:53.195Z</time>
      </trkpt>
      <trkpt lat="48.6006" lon="2.06147">
        <ele>117.5</ele>
        <time>2025-03-19T18:11:56.938Z</time>
      </trkpt>
      <trkpt lat="48.60058" lon="2.0614">
        <ele>117.9</ele>
        <time>2025-03-19T18:12:00.681Z</time>
      </trkpt>
      <trkpt lat="48.60056" lon="2.06133">
        <ele>118</ele>
        <time>2025-03-19T18:12:04.424Z</time>
      </trkpt>
      <trkpt lat="48.60054" lon="2.06125">
        <ele>118.1</ele>
        <time>2025-03-19T18:12:08.167Z</time>
      </trkpt>
      <trkpt lat="48.60051" lon="2.06118">
        <ele>118.2</ele>
        <time>2025-03-19T18:12:11.910Z</time>
      </trkpt>
      <trkpt lat="48.60049" lon="2.06111">
        <ele>118.2</ele>
        <time>2025-03-19T18:12:15.653Z</time>
      </trkpt>
      <trkpt lat="48.60047" lon="2.06104">
        <ele>118.3</ele>
        <time>2025-03-19T18:12:19.396Z</time>
      </trkpt>
      <trkpt lat="48.60045" lon="2.06097">
        <ele>118.4</ele>
        <time>2025-03-19T18:12:23.139Z</time>
      </trkpt>
      <trkpt lat="48.60042" lon="2.0609">
        <ele>118.5</ele>
        <time>2025-03-19T18:12:26.882Z</time>
      </trkpt>
      <trkpt lat="48.6004" lon="2.06083">
        <ele>118.6</ele>
        <time>2025-03-19T18:12:30.625Z</time>
      </trkpt>
      <trkpt lat="48.60038" lon="2.06076">
        <ele>118.6</ele>
        <time>2025-03-19T18:12:34.368Z</time>
      </trkpt>
      <trkpt lat="48.60035" lon="2.06068">
        <ele>118.7</ele>
        <time>2025-03-19T18:12:38.111Z</time>
      </trkpt>
      <trkpt lat="48.60033" lon="2.06061">
        <ele>118.8</ele>
        <time>2025-03-19T18:12:41.854Z</time>
      </trkpt>
      <trkpt lat="48.60031" lon="2.06054">
        <ele>118.9</ele>
        <time>2025-03-19T18:12:45.597Z</time>
      </trkpt>
      <trkpt lat="48.60029" lon="2.06047">
        <ele>119</ele>
        <time>2025-03-19T18:12:49.340Z</time>
      </trkpt>
      <trkpt lat="48.60026" lon="2.0604">
        <ele>119.1</ele>
        <time>2025-03-19T18:12:53.083Z</time>
      </trkpt>
      <trkpt lat="48.60024" lon="2.06033">
        <ele>119.1</ele>
        <time>2025-03-19T18:12:56.826Z</time>
      </trkpt>
      <trkpt lat="48.60022" lon="2.06026">
        <ele>119.2</ele>
        <time>2025-03-19T18:13:00.569Z</time>
      </trkpt>
      <trkpt lat="48.60019" lon="2.06019">
        <ele>119.4</ele>
        <time>2025-03-19T18:13:04.312Z</time>
      </trkpt>
      <trkpt lat="48.60017" lon="2.06011">
        <ele>119.6</ele>
        <time>2025-03-19T18:13:08.055Z</time>
      </trkpt>
      <trkpt lat="48.60015" lon="2.06004">
        <ele>119.9</ele>
        <time>2025-03-19T18:13:11.798Z</time>
      </trkpt>
      <trkpt lat="48.60013" lon="2.05997">
        <ele>120.1</ele>
        <time>2025-03-19T18:13:15.541Z</time>
      </trkpt>
      <trkpt lat="48.6001" lon="2.0599">
        <ele>120.4</ele>
        <time>2025-03-19T18:13:19.284Z</time>
      </trkpt>
      <trkpt lat="48.60008" lon="2.05983">
        <ele>120.6</ele>
        <time>2025-03-19T18:13:23.027Z</time>
      </trkpt>
      <trkpt lat="48.60006" lon="2.05976">
        <ele>120.8</ele>
        <time>2025-03-19T18:13:26.770Z</time>
      </trkpt>
      <trkpt lat="48.60003" lon="2.05969">
        <ele>120.9</ele>
        <time>2025-03-19T18:13:30.513Z</time>
      </trkpt>
      <trkpt lat="48.60001" lon="2.05962">
        <ele>121</ele>
        <time>2025-03-19T18:13:34.257Z</time>
      </trkpt>
      <trkpt lat="48.59999" lon="2.05954">
        <ele>121.1</ele>
        <time>2025-03-19T18:13:38.001Z</time>
      </trkpt>
      <trkpt lat="48.59997" lon="2.05947">
        <ele>121.2</ele>
        <time>2025-03-19T18:13:41.745Z</time>
      </trkpt>
      <trkpt lat="48.59994" lon="2.0594">
        <ele>121.4</ele>
        <time>2025-03-19T18:13:45.489Z</time>
      </trkpt>
      <trkpt lat="48.59992" lon="2.05933">
        <ele>121.6</ele>
        <time>2025-03-19T18:13:49.234Z</time>
      </trkpt>
      <trkpt lat="48.5999" lon="2.05925">
        <ele>121.8</ele>
        <time>2025-03-19T18:13:53.638Z</time>
      </trkpt>
      <trkpt lat="48.59987" lon="2.05916">
        <ele>121.9</ele>
        <time>2025-03-19T18:13:58.042Z</time>
      </trkpt>
      <trkpt lat="48.59985" lon="2.05908">
        <ele>122.3</ele>
        <time>2025-03-19T18:14:02.446Z</time>
      </trkpt>
      <trkpt lat="48.59982" lon="2.05899">
        <ele>122.5</ele>
        <time>2025-03-19T18:14:06.850Z</time>
      </trkpt>
      <trkpt lat="48.5998" lon="2.05891">
        <ele>122.7</ele>
        <time>2025-03-19T18:14:11.254Z</time>
      </trkpt>
      <trkpt lat="48.59977" lon="2.05882">
        <ele>122.9</ele>
        <time>2025-03-19T18:14:15.659Z</time>
      </trkpt>
      <trkpt lat="48.59975" lon="2.05874">
        <ele>123</ele>
        <time>2025-03-19T18:14:20.064Z</time>
      </trkpt>
      <trkpt lat="48.59972" lon="2.05865">
        <ele>123</ele>
        <time>2025-03-19T18:14:24.470Z</time>
      </trkpt>
      <trkpt lat="48.59972" lon="2.05854">
        <ele>123.3</ele>
        <time>2025-03-19T18:14:30.029Z</time>
      </trkpt>
      <trkpt lat="48.59971" lon="2.05843">
        <ele>123.7</ele>
        <time>2025-03-19T18:14:35.590Z</time>
      </trkpt>
      <trkpt lat="48.59973" lon="2.05837">
        <ele>123.9</ele>
        <time>2025-03-19T18:14:38.674Z</time>
      </trkpt>
      <trkpt lat="48.59974" lon="2.0583">
        <ele>123.9</ele>
        <time>2025-03-19T18:14:41.759Z</time>
      </trkpt>
      <trkpt lat="48.59976" lon="2.05824">
        <ele>123.9</ele>
        <time>2025-03-19T18:14:44.844Z</time>
      </trkpt>
      <trkpt lat="48.59977" lon="2.05817">
        <ele>123.9</ele>
        <time>2025-03-19T18:14:47.929Z</time>
      </trkpt>
      <trkpt lat="48.5998" lon="2.05812">
        <ele>123.9</ele>
        <time>2025-03-19T18:14:51.224Z</time>
      </trkpt>
      <trkpt lat="48.59984" lon="2.05807">
        <ele>124</ele>
        <time>2025-03-19T18:14:54.519Z</time>
      </trkpt>
      <trkpt lat="48.59987" lon="2.05802">
        <ele>124.1</ele>
        <time>2025-03-19T18:14:57.814Z</time>
      </trkpt>
      <trkpt lat="48.59991" lon="2.05798">
        <ele>124.3</ele>
        <time>2025-03-19T18:15:01.110Z</time>
      </trkpt>
      <trkpt lat="48.59994" lon="2.05793">
        <ele>124.5</ele>
        <time>2025-03-19T18:15:04.406Z</time>
      </trkpt>
      <trkpt lat="48.59997" lon="2.05788">
        <ele>124.6</ele>
        <time>2025-03-19T18:15:07.702Z</time>
      </trkpt>
      <trkpt lat="48.60001" lon="2.05783">
        <ele>124.8</ele>
        <time>2025-03-19T18:15:10.998Z</time>
      </trkpt>
      <trkpt lat="48.60004" lon="2.05778">
        <ele>124.8</ele>
        <time>2025-03-19T18:15:14.294Z</time>
      </trkpt>
      <trkpt lat="48.60009" lon="2.05774">
        <ele>124.7</ele>
        <time>2025-03-19T18:15:17.623Z</time>
      </trkpt>
      <trkpt lat="48.60014" lon="2.0577">
        <ele>124.5</ele>
        <time>2025-03-19T18:15:20.952Z</time>
      </trkpt>
      <trkpt lat="48.60018" lon="2.05765">
        <ele>124.3</ele>
        <time>2025-03-19T18:15:24.281Z</time>
      </trkpt>
      <trkpt lat="48.60023" lon="2.05761">
        <ele>124.2</ele>
        <time>2025-03-19T18:15:27.610Z</time>
      </trkpt>
      <trkpt lat="48.60027" lon="2.05756">
        <ele>124</ele>
        <time>2025-03-19T18:15:30.639Z</time>
      </trkpt>
      <trkpt lat="48.6003" lon="2.05751">
        <ele>123.9</ele>
        <time>2025-03-19T18:15:33.668Z</time>
      </trkpt>
      <trkpt lat="48.60034" lon="2.05746">
        <ele>123.9</ele>
        <time>2025-03-19T18:15:36.697Z</time>
      </trkpt>
      <trkpt lat="48.60038" lon="2.05741">
        <ele>124</ele>
        <time>2025-03-19T18:15:39.726Z</time>
      </trkpt>
      <trkpt lat="48.60041" lon="2.05735">
        <ele>124</ele>
        <time>2025-03-19T18:15:42.755Z</time>
      </trkpt>
      <trkpt lat="48.60045" lon="2.0573">
        <ele>124.1</ele>
        <time>2025-03-19T18:15:45.784Z</time>
      </trkpt>
      <trkpt lat="48.60049" lon="2.05725">
        <ele>124.1</ele>
        <time>2025-03-19T18:15:48.814Z</time>
      </trkpt>
      <trkpt lat="48.60053" lon="2.0572">
        <ele>124.1</ele>
        <time>2025-03-19T18:15:51.844Z</time>
      </trkpt>
      <trkpt lat="48.60056" lon="2.05715">
        <ele>124</ele>
        <time>2025-03-19T18:15:54.874Z</time>
      </trkpt>
      <trkpt lat="48.6006" lon="2.0571">
        <ele>123.7</ele>
        <time>2025-03-19T18:15:57.904Z</time>
      </trkpt>
      <trkpt lat="48.60064" lon="2.05705">
        <ele>123.4</ele>
        <time>2025-03-19T18:16:00.934Z</time>
      </trkpt>
      <trkpt lat="48.60067" lon="2.057">
        <ele>123.2</ele>
        <time>2025-03-19T18:16:03.964Z</time>
      </trkpt>
      <trkpt lat="48.60071" lon="2.05694">
        <ele>122.9</ele>
        <time>2025-03-19T18:16:06.994Z</time>
      </trkpt>
      <trkpt lat="48.60075" lon="2.05689">
        <ele>122.6</ele>
        <time>2025-03-19T18:16:10.024Z</time>
      </trkpt>
      <trkpt lat="48.60078" lon="2.05684">
        <ele>122.4</ele>
        <time>2025-03-19T18:16:13.054Z</time>
      </trkpt>
      <trkpt lat="48.60082" lon="2.05679">
        <ele>122.1</ele>
        <time>2025-03-19T18:16:16.084Z</time>
      </trkpt>
      <trkpt lat="48.60089" lon="2.05673">
        <ele>121.8</ele>
        <time>2025-03-19T18:16:20.852Z</time>
      </trkpt>
      <trkpt lat="48.60096" lon="2.05666">
        <ele>121.6</ele>
        <time>2025-03-19T18:16:25.621Z</time>
      </trkpt>
      <trkpt lat="48.60102" lon="2.0566">
        <ele>121.3</ele>
        <time>2025-03-19T18:16:30.390Z</time>
      </trkpt>
      <trkpt lat="48.60109" lon="2.05653">
        <ele>121.1</ele>
        <time>2025-03-19T18:16:35.159Z</time>
      </trkpt>
      <trkpt lat="48.60108" lon="2.05649">
        <ele>121.1</ele>
        <time>2025-03-19T18:16:37.011Z</time>
      </trkpt>
      <trkpt lat="48.60105" lon="2.05641">
        <ele>121.2</ele>
        <time>2025-03-19T18:16:41.203Z</time>
      </trkpt>
      <trkpt lat="48.60105" lon="2.05632">
        <ele>121.2</ele>
        <time>2025-03-19T18:16:45.216Z</time>
      </trkpt>
      <trkpt lat="48.60104" lon="2.05623">
        <ele>121.3</ele>
        <time>2025-03-19T18:16:49.231Z</time>
      </trkpt>
      <trkpt lat="48.60101" lon="2.05616">
        <ele>121.4</ele>
        <time>2025-03-19T18:16:52.929Z</time>
      </trkpt>
      <trkpt lat="48.60099" lon="2.0561">
        <ele>121.5</ele>
        <time>2025-03-19T18:16:56.627Z</time>
      </trkpt>
      <trkpt lat="48.60096" lon="2.05603">
        <ele>121.7</ele>
        <time>2025-03-19T18:17:00.326Z</time>
      </trkpt>
      <trkpt lat="48.60093" lon="2.05596">
        <ele>121.8</ele>
        <time>2025-03-19T18:17:04.026Z</time>
      </trkpt>
      <trkpt lat="48.60089" lon="2.0559">
        <ele>122</ele>
        <time>2025-03-19T18:17:08.172Z</time>
      </trkpt>
      <trkpt lat="48.60085" lon="2.05584">
        <ele>122</ele>
        <time>2025-03-19T18:17:12.318Z</time>
      </trkpt>
      <trkpt lat="48.6008" lon="2.05577">
        <ele>122.1</ele>
        <time>2025-03-19T18:17:16.464Z</time>
      </trkpt>
      <trkpt lat="48.60076" lon="2.05571">
        <ele>122.3</ele>
        <time>2025-03-19T18:17:20.611Z</time>
      </trkpt>
      <trkpt lat="48.60073" lon="2.05561">
        <ele>122.4</ele>
        <time>2025-03-19T18:17:25.826Z</time>
      </trkpt>
      <trkpt lat="48.60069" lon="2.05551">
        <ele>122.6</ele>
        <time>2025-03-19T18:17:31.043Z</time>
      </trkpt>
      <trkpt lat="48.60064" lon="2.05548">
        <ele>122.8</ele>
        <time>2025-03-19T18:17:34.824Z</time>
      </trkpt>
      <trkpt lat="48.6006" lon="2.05544">
        <ele>122.9</ele>
        <time>2025-03-19T18:17:38.606Z</time>
      </trkpt>
      <trkpt lat="48.60055" lon="2.05541">
        <ele>123</ele>
        <time>2025-03-19T18:17:42.388Z</time>
      </trkpt>
      <trkpt lat="48.6005" lon="2.05537">
        <ele>123.2</ele>
        <time>2025-03-19T18:17:46.171Z</time>
      </trkpt>
      <trkpt lat="48.60047" lon="2.05531">
        <ele>123.3</ele>
        <time>2025-03-19T18:17:49.901Z</time>
      </trkpt>
      <trkpt lat="48.60043" lon="2.05525">
        <ele>123.5</ele>
        <time>2025-03-19T18:17:53.631Z</time>
      </trkpt>
      <trkpt lat="48.6004" lon="2.05519">
        <ele>123.6</ele>
        <time>2025-03-19T18:17:57.361Z</time>
      </trkpt>
      <trkpt lat="48.60036" lon="2.05513">
        <ele>123.7</ele>
        <time>2025-03-19T18:18:01.092Z</time>
      </trkpt>
      <trkpt lat="48.60034" lon="2.05506">
        <ele>123.8</ele>
        <time>2025-03-19T18:18:04.618Z</time>
      </trkpt>
      <trkpt lat="48.60032" lon="2.05499">
        <ele>123.9</ele>
        <time>2025-03-19T18:18:08.144Z</time>
      </trkpt>
      <trkpt lat="48.60029" lon="2.05492">
        <ele>123.9</ele>
        <time>2025-03-19T18:18:11.671Z</time>
      </trkpt>
      <trkpt lat="48.60027" lon="2.05485">
        <ele>124</ele>
        <time>2025-03-19T18:18:15.199Z</time>
      </trkpt>
      <trkpt lat="48.60024" lon="2.05479">
        <ele>124.1</ele>
        <time>2025-03-19T18:18:18.654Z</time>
      </trkpt>
      <trkpt lat="48.60022" lon="2.05473">
        <ele>124.2</ele>
        <time>2025-03-19T18:18:22.110Z</time>
      </trkpt>
      <trkpt lat="48.60019" lon="2.05467">
        <ele>124.3</ele>
        <time>2025-03-19T18:18:25.566Z</time>
      </trkpt>
      <trkpt lat="48.60017" lon="2.05461">
        <ele>124.4</ele>
        <time>2025-03-19T18:18:29.022Z</time>
      </trkpt>
      <trkpt lat="48.60014" lon="2.05454">
        <ele>124.5</ele>
        <time>2025-03-19T18:18:32.478Z</time>
      </trkpt>
      <trkpt lat="48.60011" lon="2.05448">
        <ele>124.6</ele>
        <time>2025-03-19T18:18:35.934Z</time>
      </trkpt>
      <trkpt lat="48.60009" lon="2.05442">
        <ele>124.8</ele>
        <time>2025-03-19T18:18:39.390Z</time>
      </trkpt>
      <trkpt lat="48.60006" lon="2.05436">
        <ele>125.1</ele>
        <time>2025-03-19T18:18:42.847Z</time>
      </trkpt>
      <trkpt lat="48.6" lon="2.05426">
        <ele>125.7</ele>
        <time>2025-03-19T18:18:49.417Z</time>
      </trkpt>
      <trkpt lat="48.59995" lon="2.05416">
        <ele>126.2</ele>
        <time>2025-03-19T18:18:55.987Z</time>
      </trkpt>
      <trkpt lat="48.59989" lon="2.05406">
        <ele>126.4</ele>
        <time>2025-03-19T18:19:02.557Z</time>
      </trkpt>
      <trkpt lat="48.59983" lon="2.05396">
        <ele>126.6</ele>
        <time>2025-03-19T18:19:09.129Z</time>
      </trkpt>
      <trkpt lat="48.5998" lon="2.0539">
        <ele>126.7</ele>
        <time>2025-03-19T18:19:12.733Z</time>
      </trkpt>
      <trkpt lat="48.59978" lon="2.05383">
        <ele>126.8</ele>
        <time>2025-03-19T18:19:16.337Z</time>
      </trkpt>
      <trkpt lat="48.59975" lon="2.05377">
        <ele>126.9</ele>
        <time>2025-03-19T18:19:19.941Z</time>
      </trkpt>
      <trkpt lat="48.59973" lon="2.05371">
        <ele>127</ele>
        <time>2025-03-19T18:19:23.545Z</time>
      </trkpt>
      <trkpt lat="48.5997" lon="2.05364">
        <ele>127.1</ele>
        <time>2025-03-19T18:19:27.149Z</time>
      </trkpt>
      <trkpt lat="48.59967" lon="2.05358">
        <ele>127.3</ele>
        <time>2025-03-19T18:19:30.753Z</time>
      </trkpt>
      <trkpt lat="48.59965" lon="2.05351">
        <ele>127.6</ele>
        <time>2025-03-19T18:19:34.358Z</time>
      </trkpt>
      <trkpt lat="48.59962" lon="2.05345">
        <ele>127.9</ele>
        <time>2025-03-19T18:19:37.964Z</time>
      </trkpt>
      <trkpt lat="48.59959" lon="2.05339">
        <ele>128.3</ele>
        <time>2025-03-19T18:19:42.167Z</time>
      </trkpt>
      <trkpt lat="48.59955" lon="2.05334">
        <ele>128.6</ele>
        <time>2025-03-19T18:19:46.370Z</time>
      </trkpt>
      <trkpt lat="48.59952" lon="2.05328">
        <ele>129</ele>
        <time>2025-03-19T18:19:50.573Z</time>
      </trkpt>
      <trkpt lat="48.59948" lon="2.05323">
        <ele>129.3</ele>
        <time>2025-03-19T18:19:54.776Z</time>
      </trkpt>
      <trkpt lat="48.59945" lon="2.05317">
        <ele>129.6</ele>
        <time>2025-03-19T18:19:58.979Z</time>
      </trkpt>
      <trkpt lat="48.59941" lon="2.05311">
        <ele>129.9</ele>
        <time>2025-03-19T18:20:03.182Z</time>
      </trkpt>
      <trkpt lat="48.59938" lon="2.05306">
        <ele>130.2</ele>
        <time>2025-03-19T18:20:07.385Z</time>
      </trkpt>
      <trkpt lat="48.59934" lon="2.053">
        <ele>130.8</ele>
        <time>2025-03-19T18:20:11.590Z</time>
      </trkpt>
      <trkpt lat="48.59928" lon="2.05294">
        <ele>131.4</ele>
        <time>2025-03-19T18:20:17.913Z</time>
      </trkpt>
      <trkpt lat="48.59922" lon="2.05288">
        <ele>132.1</ele>
        <time>2025-03-19T18:20:24.238Z</time>
      </trkpt>
      <trkpt lat="48.59917" lon="2.05288">
        <ele>132.3</ele>
        <time>2025-03-19T18:20:28.111Z</time>
      </trkpt>
      <trkpt lat="48.59911" lon="2.05287">
        <ele>132.4</ele>
        <time>2025-03-19T18:20:31.984Z</time>
      </trkpt>
      <trkpt lat="48.59906" lon="2.05287">
        <ele>132.5</ele>
        <time>2025-03-19T18:20:35.857Z</time>
      </trkpt>
      <trkpt lat="48.599" lon="2.05286">
        <ele>132.6</ele>
        <time>2025-03-19T18:20:39.731Z</time>
      </trkpt>
      <trkpt lat="48.59895" lon="2.05288">
        <ele>132.5</ele>
        <time>2025-03-19T18:20:43.249Z</time>
      </trkpt>
      <trkpt lat="48.59891" lon="2.0529">
        <ele>132.5</ele>
        <time>2025-03-19T18:20:46.767Z</time>
      </trkpt>
      <trkpt lat="48.59886" lon="2.05292">
        <ele>132.6</ele>
        <time>2025-03-19T18:20:50.285Z</time>
      </trkpt>
      <trkpt lat="48.59882" lon="2.05295">
        <ele>132.8</ele>
        <time>2025-03-19T18:20:53.803Z</time>
      </trkpt>
      <trkpt lat="48.59877" lon="2.05297">
        <ele>133</ele>
        <time>2025-03-19T18:20:57.321Z</time>
      </trkpt>
      <trkpt lat="48.59872" lon="2.05299">
        <ele>133.3</ele>
        <time>2025-03-19T18:21:00.839Z</time>
      </trkpt>
      <trkpt lat="48.59868" lon="2.05301">
        <ele>133.6</ele>
        <time>2025-03-19T18:21:04.357Z</time>
      </trkpt>
      <trkpt lat="48.59863" lon="2.05303">
        <ele>133.9</ele>
        <time>2025-03-19T18:21:07.877Z</time>
      </trkpt>
      <trkpt lat="48.59858" lon="2.05303">
        <ele>134.2</ele>
        <time>2025-03-19T18:21:11.752Z</time>
      </trkpt>
      <trkpt lat="48.59854" lon="2.05303">
        <ele>134.5</ele>
        <time>2025-03-19T18:21:15.628Z</time>
      </trkpt>
      <trkpt lat="48.59849" lon="2.05303">
        <ele>134.9</ele>
        <time>2025-03-19T18:21:19.504Z</time>
      </trkpt>
      <trkpt lat="48.59844" lon="2.05303">
        <ele>135.2</ele>
        <time>2025-03-19T18:21:23.380Z</time>
      </trkpt>
      <trkpt lat="48.5984" lon="2.05299">
        <ele>135.5</ele>
        <time>2025-03-19T18:21:27.403Z</time>
      </trkpt>
      <trkpt lat="48.59836" lon="2.05294">
        <ele>135.8</ele>
        <time>2025-03-19T18:21:31.427Z</time>
      </trkpt>
      <trkpt lat="48.59832" lon="2.0529">
        <ele>136.1</ele>
        <time>2025-03-19T18:21:35.451Z</time>
      </trkpt>
      <trkpt lat="48.59828" lon="2.05285">
        <ele>136.5</ele>
        <time>2025-03-19T18:21:39.476Z</time>
      </trkpt>
      <trkpt lat="48.59825" lon="2.0528">
        <ele>136.9</ele>
        <time>2025-03-19T18:21:44.129Z</time>
      </trkpt>
      <trkpt lat="48.59821" lon="2.05274">
        <ele>137.5</ele>
        <time>2025-03-19T18:21:48.782Z</time>
      </trkpt>
      <trkpt lat="48.59818" lon="2.05269">
        <ele>138</ele>
        <time>2025-03-19T18:21:53.435Z</time>
      </trkpt>
      <trkpt lat="48.59814" lon="2.05263">
        <ele>138.6</ele>
        <time>2025-03-19T18:21:58.089Z</time>
      </trkpt>
      <trkpt lat="48.59809" lon="2.05259">
        <ele>139.3</ele>
        <time>2025-03-19T18:22:02.819Z</time>
      </trkpt>
      <trkpt lat="48.59805" lon="2.05255">
        <ele>139.9</ele>
        <time>2025-03-19T18:22:07.549Z</time>
      </trkpt>
      <trkpt lat="48.598" lon="2.05251">
        <ele>140.2</ele>
        <time>2025-03-19T18:22:12.279Z</time>
      </trkpt>
      <trkpt lat="48.59795" lon="2.05247">
        <ele>140.5</ele>
        <time>2025-03-19T18:22:17.011Z</time>
      </trkpt>
      <trkpt lat="48.59788" lon="2.05245">
        <ele>141</ele>
        <time>2025-03-19T18:22:23.208Z</time>
      </trkpt>
      <trkpt lat="48.5978" lon="2.05242">
        <ele>141.5</ele>
        <time>2025-03-19T18:22:29.406Z</time>
      </trkpt>
      <trkpt lat="48.59774" lon="2.05235">
        <ele>142.3</ele>
        <time>2025-03-19T18:22:36.392Z</time>
      </trkpt>
      <trkpt lat="48.59768" lon="2.05227">
        <ele>143</ele>
        <time>2025-03-19T18:22:43.379Z</time>
      </trkpt>
      <trkpt lat="48.59765" lon="2.05218">
        <ele>143.6</ele>
        <time>2025-03-19T18:22:48.894Z</time>
      </trkpt>
      <trkpt lat="48.59762" lon="2.05209">
        <ele>144.1</ele>
        <time>2025-03-19T18:22:54.409Z</time>
      </trkpt>
      <trkpt lat="48.59759" lon="2.05199">
        <ele>144.5</ele>
        <time>2025-03-19T18:22:59.924Z</time>
      </trkpt>
      <trkpt lat="48.59756" lon="2.0519">
        <ele>144.8</ele>
        <time>2025-03-19T18:23:05.440Z</time>
      </trkpt>
      <trkpt lat="48.59753" lon="2.05181">
        <ele>144.9</ele>
        <time>2025-03-19T18:23:10.769Z</time>
      </trkpt>
      <trkpt lat="48.5975" lon="2.05173">
        <ele>145</ele>
        <time>2025-03-19T18:23:16.098Z</time>
      </trkpt>
      <trkpt lat="48.59747" lon="2.05164">
        <ele>145.2</ele>
        <time>2025-03-19T18:23:21.427Z</time>
      </trkpt>
      <trkpt lat="48.59744" lon="2.05155">
        <ele>145.5</ele>
        <time>2025-03-19T18:23:26.756Z</time>
      </trkpt>
      <trkpt lat="48.59741" lon="2.05146">
        <ele>145.9</ele>
        <time>2025-03-19T18:23:32.085Z</time>
      </trkpt>
      <trkpt lat="48.59738" lon="2.05138">
        <ele>146.3</ele>
        <time>2025-03-19T18:23:37.414Z</time>
      </trkpt>
      <trkpt lat="48.59735" lon="2.05129">
        <ele>146.8</ele>
        <time>2025-03-19T18:23:42.743Z</time>
      </trkpt>
      <trkpt lat="48.59732" lon="2.0512">
        <ele>147.4</ele>
        <time>2025-03-19T18:23:48.072Z</time>
      </trkpt>
      <trkpt lat="48.59729" lon="2.05111">
        <ele>148</ele>
        <time>2025-03-19T18:23:53.401Z</time>
      </trkpt>
      <trkpt lat="48.59726" lon="2.05103">
        <ele>148.7</ele>
        <time>2025-03-19T18:23:58.730Z</time>
      </trkpt>
      <trkpt lat="48.59723" lon="2.05094">
        <ele>149.5</ele>
        <time>2025-03-19T18:24:04.059Z</time>
      </trkpt>
      <trkpt lat="48.5972" lon="2.05085">
        <ele>150.2</ele>
        <time>2025-03-19T18:24:09.388Z</time>
      </trkpt>
      <trkpt lat="48.59717" lon="2.05076">
        <ele>150.6</ele>
        <time>2025-03-19T18:24:14.718Z</time>
      </trkpt>
      <trkpt lat="48.59714" lon="2.05068">
        <ele>151.1</ele>
        <time>2025-03-19T18:24:20.048Z</time>
      </trkpt>
      <trkpt lat="48.59711" lon="2.05059">
        <ele>151.6</ele>
        <time>2025-03-19T18:24:25.378Z</time>
      </trkpt>
      <trkpt lat="48.59708" lon="2.0505">
        <ele>152</ele>
        <time>2025-03-19T18:24:30.709Z</time>
      </trkpt>
      <trkpt lat="48.59706" lon="2.05044">
        <ele>152.4</ele>
        <time>2025-03-19T18:24:34.532Z</time>
      </trkpt>
      <trkpt lat="48.59704" lon="2.05037">
        <ele>152.6</ele>
        <time>2025-03-19T18:24:38.355Z</time>
      </trkpt>
      <trkpt lat="48.59702" lon="2.05031">
        <ele>152.9</ele>
        <time>2025-03-19T18:24:42.178Z</time>
      </trkpt>
      <trkpt lat="48.597" lon="2.05025">
        <ele>153.2</ele>
        <time>2025-03-19T18:24:46.001Z</time>
      </trkpt>
      <trkpt lat="48.59698" lon="2.05018">
        <ele>153.5</ele>
        <time>2025-03-19T18:24:49.824Z</time>
      </trkpt>
      <trkpt lat="48.59696" lon="2.05012">
        <ele>153.8</ele>
        <time>2025-03-19T18:24:53.647Z</time>
      </trkpt>
      <trkpt lat="48.59694" lon="2.05005">
        <ele>154.1</ele>
        <time>2025-03-19T18:24:57.470Z</time>
      </trkpt>
      <trkpt lat="48.59692" lon="2.04999">
        <ele>154.4</ele>
        <time>2025-03-19T18:25:01.293Z</time>
      </trkpt>
      <trkpt lat="48.59689" lon="2.04993">
        <ele>154.7</ele>
        <time>2025-03-19T18:25:05.116Z</time>
      </trkpt>
      <trkpt lat="48.59687" lon="2.04986">
        <ele>155</ele>
        <time>2025-03-19T18:25:08.939Z</time>
      </trkpt>
      <trkpt lat="48.59685" lon="2.0498">
        <ele>155.3</ele>
        <time>2025-03-19T18:25:12.762Z</time>
      </trkpt>
      <trkpt lat="48.59683" lon="2.04974">
        <ele>155.6</ele>
        <time>2025-03-19T18:25:16.585Z</time>
      </trkpt>
      <trkpt lat="48.59681" lon="2.04967">
        <ele>156</ele>
        <time>2025-03-19T18:25:20.408Z</time>
      </trkpt>
      <trkpt lat="48.59679" lon="2.04961">
        <ele>156.4</ele>
        <time>2025-03-19T18:25:24.231Z</time>
      </trkpt>
      <trkpt lat="48.59677" lon="2.04954">
        <ele>156.7</ele>
        <time>2025-03-19T18:25:28.054Z</time>
      </trkpt>
      <trkpt lat="48.59675" lon="2.04948">
        <ele>157.1</ele>
        <time>2025-03-19T18:25:31.878Z</time>
      </trkpt>
      <trkpt lat="48.5967" lon="2.0494">
        <ele>157.8</ele>
        <time>2025-03-19T18:25:37.290Z</time>
      </trkpt>
      <trkpt lat="48.59665" lon="2.04932">
        <ele>158.6</ele>
        <time>2025-03-19T18:25:42.702Z</time>
      </trkpt>
      <trkpt lat="48.59661" lon="2.04923">
        <ele>159.3</ele>
        <time>2025-03-19T18:25:48.114Z</time>
      </trkpt>
      <trkpt lat="48.59656" lon="2.04915">
        <ele>159.8</ele>
        <time>2025-03-19T18:25:53.526Z</time>
      </trkpt>
      <trkpt lat="48.59651" lon="2.04907">
        <ele>160.1</ele>
        <time>2025-03-19T18:25:58.938Z</time>
      </trkpt>
      <trkpt lat="48.59646" lon="2.04899">
        <ele>160.5</ele>
        <time>2025-03-19T18:26:04.350Z</time>
      </trkpt>
      <trkpt lat="48.59641" lon="2.0489">
        <ele>160.8</ele>
        <time>2025-03-19T18:26:09.762Z</time>
      </trkpt>
      <trkpt lat="48.59637" lon="2.04882">
        <ele>161</ele>
        <time>2025-03-19T18:26:15.174Z</time>
      </trkpt>
      <trkpt lat="48.59632" lon="2.04874">
        <ele>161</ele>
        <time>2025-03-19T18:26:20.586Z</time>
      </trkpt>
      <trkpt lat="48.59627" lon="2.04866">
        <ele>161</ele>
        <time>2025-03-19T18:26:25.998Z</time>
      </trkpt>
      <trkpt lat="48.59622" lon="2.04857">
        <ele>161.1</ele>
        <time>2025-03-19T18:26:31.410Z</time>
      </trkpt>
      <trkpt lat="48.59617" lon="2.04849">
        <ele>161.3</ele>
        <time>2025-03-19T18:26:36.822Z</time>
      </trkpt>
      <trkpt lat="48.59612" lon="2.04841">
        <ele>161.7</ele>
        <time>2025-03-19T18:26:42.234Z</time>
      </trkpt>
      <trkpt lat="48.59608" lon="2.04833">
        <ele>161.9</ele>
        <time>2025-03-19T18:26:47.646Z</time>
      </trkpt>
      <trkpt lat="48.59603" lon="2.04824">
        <ele>161.8</ele>
        <time>2025-03-19T18:26:53.058Z</time>
      </trkpt>
      <trkpt lat="48.59598" lon="2.04816">
        <ele>161.8</ele>
        <time>2025-03-19T18:26:58.472Z</time>
      </trkpt>
      <trkpt lat="48.59594" lon="2.04807">
        <ele>162</ele>
        <time>2025-03-19T18:27:03.319Z</time>
      </trkpt>
      <trkpt lat="48.5959" lon="2.04798">
        <ele>162</ele>
        <time>2025-03-19T18:27:08.166Z</time>
      </trkpt>
      <trkpt lat="48.59586" lon="2.04789">
        <ele>162</ele>
        <time>2025-03-19T18:27:13.013Z</time>
      </trkpt>
      <trkpt lat="48.59582" lon="2.0478">
        <ele>162</ele>
        <time>2025-03-19T18:27:17.860Z</time>
      </trkpt>
      <trkpt lat="48.59578" lon="2.04771">
        <ele>162.2</ele>
        <time>2025-03-19T18:27:22.707Z</time>
      </trkpt>
      <trkpt lat="48.59574" lon="2.04762">
        <ele>162.4</ele>
        <time>2025-03-19T18:27:27.555Z</time>
      </trkpt>
      <trkpt lat="48.5957" lon="2.04753">
        <ele>162.5</ele>
        <time>2025-03-19T18:27:32.403Z</time>
      </trkpt>
      <trkpt lat="48.59566" lon="2.04744">
        <ele>162.5</ele>
        <time>2025-03-19T18:27:37.251Z</time>
      </trkpt>
      <trkpt lat="48.59561" lon="2.04735">
        <ele>162.6</ele>
        <time>2025-03-19T18:27:42.099Z</time>
      </trkpt>
      <trkpt lat="48.59557" lon="2.04726">
        <ele>162.9</ele>
        <time>2025-03-19T18:27:46.947Z</time>
      </trkpt>
      <trkpt lat="48.59553" lon="2.04717">
        <ele>162.9</ele>
        <time>2025-03-19T18:27:51.795Z</time>
      </trkpt>
      <trkpt lat="48.59549" lon="2.04708">
        <ele>162.8</ele>
        <time>2025-03-19T18:27:56.643Z</time>
      </trkpt>
      <trkpt lat="48.59545" lon="2.04699">
        <ele>162.6</ele>
        <time>2025-03-19T18:28:01.491Z</time>
      </trkpt>
      <trkpt lat="48.59541" lon="2.0469">
        <ele>162.6</ele>
        <time>2025-03-19T18:28:06.339Z</time>
      </trkpt>
      <trkpt lat="48.59537" lon="2.04681">
        <ele>162.7</ele>
        <time>2025-03-19T18:28:11.187Z</time>
      </trkpt>
      <trkpt lat="48.59533" lon="2.04672">
        <ele>162.8</ele>
        <time>2025-03-19T18:28:16.036Z</time>
      </trkpt>
      <trkpt lat="48.59528" lon="2.04663">
        <ele>163</ele>
        <time>2025-03-19T18:28:21.028Z</time>
      </trkpt>
      <trkpt lat="48.59523" lon="2.04653">
        <ele>162.8</ele>
        <time>2025-03-19T18:28:26.021Z</time>
      </trkpt>
      <trkpt lat="48.59518" lon="2.04644">
        <ele>162.7</ele>
        <time>2025-03-19T18:28:31.014Z</time>
      </trkpt>
      <trkpt lat="48.59514" lon="2.04635">
        <ele>162.5</ele>
        <time>2025-03-19T18:28:36.007Z</time>
      </trkpt>
      <trkpt lat="48.59509" lon="2.04625">
        <ele>162.3</ele>
        <time>2025-03-19T18:28:41.000Z</time>
      </trkpt>
      <trkpt lat="48.59504" lon="2.04616">
        <ele>162.1</ele>
        <time>2025-03-19T18:28:45.993Z</time>
      </trkpt>
      <trkpt lat="48.59499" lon="2.04606">
        <ele>162</ele>
        <time>2025-03-19T18:28:50.986Z</time>
      </trkpt>
      <trkpt lat="48.59494" lon="2.04597">
        <ele>161.9</ele>
        <time>2025-03-19T18:28:55.979Z</time>
      </trkpt>
      <trkpt lat="48.59489" lon="2.04588">
        <ele>161.9</ele>
        <time>2025-03-19T18:29:00.972Z</time>
      </trkpt>
      <trkpt lat="48.59484" lon="2.04578">
        <ele>162</ele>
        <time>2025-03-19T18:29:05.965Z</time>
      </trkpt>
      <trkpt lat="48.59479" lon="2.04569">
        <ele>162</ele>
        <time>2025-03-19T18:29:10.958Z</time>
      </trkpt>
      <trkpt lat="48.59475" lon="2.0456">
        <ele>162</ele>
        <time>2025-03-19T18:29:15.951Z</time>
      </trkpt>
      <trkpt lat="48.5947" lon="2.0455">
        <ele>161.8</ele>
        <time>2025-03-19T18:29:20.944Z</time>
      </trkpt>
      <trkpt lat="48.59465" lon="2.04541">
        <ele>161.5</ele>
        <time>2025-03-19T18:29:25.937Z</time>
      </trkpt>
      <trkpt lat="48.5946" lon="2.04531">
        <ele>161.4</ele>
        <time>2025-03-19T18:29:30.930Z</time>
      </trkpt>
      <trkpt lat="48.59455" lon="2.04522">
        <ele>161.4</ele>
        <time>2025-03-19T18:29:35.924Z</time>
      </trkpt>
      <trkpt lat="48.59449" lon="2.04514">
        <ele>161.2</ele>
        <time>2025-03-19T18:29:40.550Z</time>
      </trkpt>
      <trkpt lat="48.59443" lon="2.04505">
        <ele>160.8</ele>
        <time>2025-03-19T18:29:45.176Z</time>
      </trkpt>
      <trkpt lat="48.59437" lon="2.04497">
        <ele>160.2</ele>
        <time>2025-03-19T18:29:49.802Z</time>
      </trkpt>
      <trkpt lat="48.59432" lon="2.04489">
        <ele>159.6</ele>
        <time>2025-03-19T18:29:54.429Z</time>
      </trkpt>
      <trkpt lat="48.59426" lon="2.0448">
        <ele>159.2</ele>
        <time>2025-03-19T18:29:59.056Z</time>
      </trkpt>
      <trkpt lat="48.5942" lon="2.04472">
        <ele>159.1</ele>
        <time>2025-03-19T18:30:03.683Z</time>
      </trkpt>
      <trkpt lat="48.59414" lon="2.04463">
        <ele>158.7</ele>
        <time>2025-03-19T18:30:08.310Z</time>
      </trkpt>
      <trkpt lat="48.59408" lon="2.04455">
        <ele>158.1</ele>
        <time>2025-03-19T18:30:12.938Z</time>
      </trkpt>
      <trkpt lat="48.59402" lon="2.04446">
        <ele>157.8</ele>
        <time>2025-03-19T18:30:18.235Z</time>
      </trkpt>
      <trkpt lat="48.59395" lon="2.04437">
        <ele>157.6</ele>
        <time>2025-03-19T18:30:23.533Z</time>
      </trkpt>
      <trkpt lat="48.59391" lon="2.04431">
        <ele>157.6</ele>
        <time>2025-03-19T18:30:26.719Z</time>
      </trkpt>
      <trkpt lat="48.59388" lon="2.04424">
        <ele>157.5</ele>
        <time>2025-03-19T18:30:29.905Z</time>
      </trkpt>
      <trkpt lat="48.59384" lon="2.04418">
        <ele>157.1</ele>
        <time>2025-03-19T18:30:33.091Z</time>
      </trkpt>
      <trkpt lat="48.59381" lon="2.04412">
        <ele>156.4</ele>
        <time>2025-03-19T18:30:36.277Z</time>
      </trkpt>
      <trkpt lat="48.59377" lon="2.04405">
        <ele>155.8</ele>
        <time>2025-03-19T18:30:39.463Z</time>
      </trkpt>
      <trkpt lat="48.59373" lon="2.04399">
        <ele>155.3</ele>
        <time>2025-03-19T18:30:42.649Z</time>
      </trkpt>
      <trkpt lat="48.5937" lon="2.04392">
        <ele>154.9</ele>
        <time>2025-03-19T18:30:45.835Z</time>
      </trkpt>
      <trkpt lat="48.59366" lon="2.04386">
        <ele>154.4</ele>
        <time>2025-03-19T18:30:49.022Z</time>
      </trkpt>
      <trkpt lat="48.59362" lon="2.04376">
        <ele>153.6</ele>
        <time>2025-03-19T18:30:53.487Z</time>
      </trkpt>
      <trkpt lat="48.59357" lon="2.04367">
        <ele>152.5</ele>
        <time>2025-03-19T18:30:57.952Z</time>
      </trkpt>
      <trkpt lat="48.59353" lon="2.04357">
        <ele>151.1</ele>
        <time>2025-03-19T18:31:02.417Z</time>
      </trkpt>
      <trkpt lat="48.59349" lon="2.04347">
        <ele>149.7</ele>
        <time>2025-03-19T18:31:06.882Z</time>
      </trkpt>
      <trkpt lat="48.59344" lon="2.04337">
        <ele>148.4</ele>
        <time>2025-03-19T18:31:11.347Z</time>
      </trkpt>
      <trkpt lat="48.5934" lon="2.04328">
        <ele>147</ele>
        <time>2025-03-19T18:31:15.812Z</time>
      </trkpt>
      <trkpt lat="48.59335" lon="2.04318">
        <ele>145.5</ele>
        <time>2025-03-19T18:31:20.278Z</time>
      </trkpt>
      <trkpt lat="48.59331" lon="2.04308">
        <ele>144.1</ele>
        <time>2025-03-19T18:31:24.745Z</time>
      </trkpt>
      <trkpt lat="48.59329" lon="2.04295">
        <ele>142.3</ele>
        <time>2025-03-19T18:31:29.837Z</time>
      </trkpt>
      <trkpt lat="48.59327" lon="2.04282">
        <ele>140.5</ele>
        <time>2025-03-19T18:31:34.929Z</time>
      </trkpt>
      <trkpt lat="48.59324" lon="2.04269">
        <ele>139.1</ele>
        <time>2025-03-19T18:31:40.022Z</time>
      </trkpt>
      <trkpt lat="48.59322" lon="2.04256">
        <ele>137.6</ele>
        <time>2025-03-19T18:31:45.116Z</time>
      </trkpt>
      <trkpt lat="48.5932" lon="2.04248">
        <ele>136.9</ele>
        <time>2025-03-19T18:31:48.341Z</time>
      </trkpt>
      <trkpt lat="48.59317" lon="2.04241">
        <ele>136.5</ele>
        <time>2025-03-19T18:31:51.566Z</time>
      </trkpt>
      <trkpt lat="48.59315" lon="2.04233">
        <ele>136</ele>
        <time>2025-03-19T18:31:54.791Z</time>
      </trkpt>
      <trkpt lat="48.59312" lon="2.04226">
        <ele>135.4</ele>
        <time>2025-03-19T18:31:58.016Z</time>
      </trkpt>
      <trkpt lat="48.5931" lon="2.04218">
        <ele>135.1</ele>
        <time>2025-03-19T18:32:01.241Z</time>
      </trkpt>
      <trkpt lat="48.59307" lon="2.0421">
        <ele>134.7</ele>
        <time>2025-03-19T18:32:04.466Z</time>
      </trkpt>
      <trkpt lat="48.59305" lon="2.04203">
        <ele>134.3</ele>
        <time>2025-03-19T18:32:07.692Z</time>
      </trkpt>
      <trkpt lat="48.59302" lon="2.04195">
        <ele>134</ele>
        <time>2025-03-19T18:32:10.919Z</time>
      </trkpt>
      <trkpt lat="48.59298" lon="2.0419">
        <ele>134.1</ele>
        <time>2025-03-19T18:32:13.856Z</time>
      </trkpt>
      <trkpt lat="48.59295" lon="2.04185">
        <ele>134.1</ele>
        <time>2025-03-19T18:32:16.793Z</time>
      </trkpt>
      <trkpt lat="48.59291" lon="2.04179">
        <ele>134</ele>
        <time>2025-03-19T18:32:19.731Z</time>
      </trkpt>
      <trkpt lat="48.59288" lon="2.04174">
        <ele>133.8</ele>
        <time>2025-03-19T18:32:22.669Z</time>
      </trkpt>
      <trkpt lat="48.59284" lon="2.04169">
        <ele>133.5</ele>
        <time>2025-03-19T18:32:25.607Z</time>
      </trkpt>
      <trkpt lat="48.5928" lon="2.04164">
        <ele>133.1</ele>
        <time>2025-03-19T18:32:28.545Z</time>
      </trkpt>
      <trkpt lat="48.59277" lon="2.04158">
        <ele>132.7</ele>
        <time>2025-03-19T18:32:31.483Z</time>
      </trkpt>
      <trkpt lat="48.59273" lon="2.04153">
        <ele>132.5</ele>
        <time>2025-03-19T18:32:34.422Z</time>
      </trkpt>
      <trkpt lat="48.59268" lon="2.04147">
        <ele>132.2</ele>
        <time>2025-03-19T18:32:37.883Z</time>
      </trkpt>
      <trkpt lat="48.59264" lon="2.04141">
        <ele>131.7</ele>
        <time>2025-03-19T18:32:41.344Z</time>
      </trkpt>
      <trkpt lat="48.59259" lon="2.04135">
        <ele>131.3</ele>
        <time>2025-03-19T18:32:44.805Z</time>
      </trkpt>
      <trkpt lat="48.59255" lon="2.0413">
        <ele>131</ele>
        <time>2025-03-19T18:32:48.266Z</time>
      </trkpt>
      <trkpt lat="48.5925" lon="2.04124">
        <ele>130.5</ele>
        <time>2025-03-19T18:32:51.727Z</time>
      </trkpt>
      <trkpt lat="48.59245" lon="2.04118">
        <ele>130.3</ele>
        <time>2025-03-19T18:32:55.188Z</time>
      </trkpt>
      <trkpt lat="48.59241" lon="2.04112">
        <ele>130</ele>
        <time>2025-03-19T18:32:58.650Z</time>
      </trkpt>
      <trkpt lat="48.59236" lon="2.04106">
        <ele>130.1</ele>
        <time>2025-03-19T18:33:02.113Z</time>
      </trkpt>
      <trkpt lat="48.59228" lon="2.041">
        <ele>129.9</ele>
        <time>2025-03-19T18:33:07.817Z</time>
      </trkpt>
      <trkpt lat="48.59221" lon="2.04095">
        <ele>129.6</ele>
        <time>2025-03-19T18:33:13.521Z</time>
      </trkpt>
      <trkpt lat="48.59213" lon="2.04089">
        <ele>129.9</ele>
        <time>2025-03-19T18:33:19.225Z</time>
      </trkpt>
      <trkpt lat="48.59205" lon="2.04083">
        <ele>130.2</ele>
        <time>2025-03-19T18:33:24.930Z</time>
      </trkpt>
      <trkpt lat="48.59201" lon="2.04077">
        <ele>130</ele>
        <time>2025-03-19T18:33:28.158Z</time>
      </trkpt>
      <trkpt lat="48.59197" lon="2.04071">
        <ele>129.6</ele>
        <time>2025-03-19T18:33:31.387Z</time>
      </trkpt>
      <trkpt lat="48.59194" lon="2.04065">
        <ele>129.1</ele>
        <time>2025-03-19T18:33:34.563Z</time>
      </trkpt>
      <trkpt lat="48.5919" lon="2.04058">
        <ele>128.9</ele>
        <time>2025-03-19T18:33:37.741Z</time>
      </trkpt>
      <trkpt lat="48.59188" lon="2.04051">
        <ele>128.7</ele>
        <time>2025-03-19T18:33:40.892Z</time>
      </trkpt>
      <trkpt lat="48.59186" lon="2.04043">
        <ele>128.5</ele>
        <time>2025-03-19T18:33:44.043Z</time>
      </trkpt>
      <trkpt lat="48.59183" lon="2.04036">
        <ele>128.3</ele>
        <time>2025-03-19T18:33:47.194Z</time>
      </trkpt>
      <trkpt lat="48.59181" lon="2.04028">
        <ele>128</ele>
        <time>2025-03-19T18:33:50.346Z</time>
      </trkpt>
      <trkpt lat="48.5918" lon="2.04021">
        <ele>127.6</ele>
        <time>2025-03-19T18:33:53.245Z</time>
      </trkpt>
      <trkpt lat="48.59179" lon="2.04013">
        <ele>127.3</ele>
        <time>2025-03-19T18:33:56.145Z</time>
      </trkpt>
      <trkpt lat="48.59179" lon="2.04005">
        <ele>126.8</ele>
        <time>2025-03-19T18:33:59.270Z</time>
      </trkpt>
      <trkpt lat="48.59179" lon="2.03997">
        <ele>126.4</ele>
        <time>2025-03-19T18:34:02.395Z</time>
      </trkpt>
      <trkpt lat="48.59178" lon="2.03989">
        <ele>126.1</ele>
        <time>2025-03-19T18:34:05.520Z</time>
      </trkpt>
      <trkpt lat="48.59178" lon="2.03981">
        <ele>125.8</ele>
        <time>2025-03-19T18:34:08.645Z</time>
      </trkpt>
      <trkpt lat="48.59178" lon="2.03973">
        <ele>125.4</ele>
        <time>2025-03-19T18:34:11.770Z</time>
      </trkpt>
      <trkpt lat="48.59178" lon="2.03965">
        <ele>125.2</ele>
        <time>2025-03-19T18:34:14.895Z</time>
      </trkpt>
      <trkpt lat="48.59178" lon="2.03957">
        <ele>125.1</ele>
        <time>2025-03-19T18:34:18.020Z</time>
      </trkpt>
      <trkpt lat="48.59177" lon="2.03949">
        <ele>124.9</ele>
        <time>2025-03-19T18:34:21.145Z</time>
      </trkpt>
      <trkpt lat="48.59177" lon="2.03941">
        <ele>124.6</ele>
        <time>2025-03-19T18:34:24.270Z</time>
      </trkpt>
      <trkpt lat="48.59177" lon="2.03933">
        <ele>124.3</ele>
        <time>2025-03-19T18:34:27.395Z</time>
      </trkpt>
      <trkpt lat="48.59177" lon="2.03925">
        <ele>124</ele>
        <time>2025-03-19T18:34:30.520Z</time>
      </trkpt>
      <trkpt lat="48.59176" lon="2.03917">
        <ele>123.7</ele>
        <time>2025-03-19T18:34:33.645Z</time>
      </trkpt>
      <trkpt lat="48.59176" lon="2.03909">
        <ele>123.4</ele>
        <time>2025-03-19T18:34:36.770Z</time>
      </trkpt>
      <trkpt lat="48.59176" lon="2.03901">
        <ele>123.1</ele>
        <time>2025-03-19T18:34:39.895Z</time>
      </trkpt>
      <trkpt lat="48.59176" lon="2.03893">
        <ele>122.8</ele>
        <time>2025-03-19T18:34:43.020Z</time>
      </trkpt>
      <trkpt lat="48.59176" lon="2.03885">
        <ele>122.6</ele>
        <time>2025-03-19T18:34:46.145Z</time>
      </trkpt>
      <trkpt lat="48.59175" lon="2.03877">
        <ele>122.5</ele>
        <time>2025-03-19T18:34:49.270Z</time>
      </trkpt>
      <trkpt lat="48.59175" lon="2.03868">
        <ele>122.4</ele>
        <time>2025-03-19T18:34:52.395Z</time>
      </trkpt>
      <trkpt lat="48.59175" lon="2.0386">
        <ele>122.3</ele>
        <time>2025-03-19T18:34:55.520Z</time>
      </trkpt>
      <trkpt lat="48.59175" lon="2.03852">
        <ele>122.2</ele>
        <time>2025-03-19T18:34:58.645Z</time>
      </trkpt>
      <trkpt lat="48.59174" lon="2.03844">
        <ele>122.1</ele>
        <time>2025-03-19T18:35:01.770Z</time>
      </trkpt>
      <trkpt lat="48.59174" lon="2.03836">
        <ele>122</ele>
        <time>2025-03-19T18:35:04.895Z</time>
      </trkpt>
      <trkpt lat="48.59174" lon="2.03828">
        <ele>121.9</ele>
        <time>2025-03-19T18:35:08.021Z</time>
      </trkpt>
      <trkpt lat="48.59174" lon="2.0382">
        <ele>121.7</ele>
        <time>2025-03-19T18:35:11.147Z</time>
      </trkpt>
      <trkpt lat="48.59174" lon="2.03812">
        <ele>121.4</ele>
        <time>2025-03-19T18:35:14.273Z</time>
      </trkpt>
      <trkpt lat="48.59173" lon="2.03804">
        <ele>121.2</ele>
        <time>2025-03-19T18:35:17.399Z</time>
      </trkpt>
      <trkpt lat="48.59173" lon="2.03796">
        <ele>121.2</ele>
        <time>2025-03-19T18:35:20.525Z</time>
      </trkpt>
      <trkpt lat="48.59173" lon="2.03788">
        <ele>121.2</ele>
        <time>2025-03-19T18:35:23.651Z</time>
      </trkpt>
      <trkpt lat="48.59173" lon="2.0378">
        <ele>121.2</ele>
        <time>2025-03-19T18:35:26.777Z</time>
      </trkpt>
      <trkpt lat="48.59172" lon="2.03772">
        <ele>121.2</ele>
        <time>2025-03-19T18:35:29.903Z</time>
      </trkpt>
      <trkpt lat="48.59172" lon="2.03764">
        <ele>121.2</ele>
        <time>2025-03-19T18:35:33.029Z</time>
      </trkpt>
      <trkpt lat="48.59172" lon="2.03756">
        <ele>121.2</ele>
        <time>2025-03-19T18:35:36.156Z</time>
      </trkpt>
      <trkpt lat="48.59172" lon="2.03744">
        <ele>121.3</ele>
        <time>2025-03-19T18:35:41.811Z</time>
      </trkpt>
      <trkpt lat="48.59173" lon="2.03732">
        <ele>121.4</ele>
        <time>2025-03-19T18:35:47.466Z</time>
      </trkpt>
      <trkpt lat="48.59173" lon="2.0372">
        <ele>121.6</ele>
        <time>2025-03-19T18:35:53.121Z</time>
      </trkpt>
      <trkpt lat="48.59174" lon="2.03708">
        <ele>122</ele>
        <time>2025-03-19T18:35:58.776Z</time>
      </trkpt>
      <trkpt lat="48.59174" lon="2.03695">
        <ele>122.5</ele>
        <time>2025-03-19T18:36:04.432Z</time>
      </trkpt>
      <trkpt lat="48.59174" lon="2.03683">
        <ele>122.5</ele>
        <time>2025-03-19T18:36:10.088Z</time>
      </trkpt>
      <trkpt lat="48.59175" lon="2.03671">
        <ele>122.6</ele>
        <time>2025-03-19T18:36:15.744Z</time>
      </trkpt>
      <trkpt lat="48.59175" lon="2.03659">
        <ele>122.7</ele>
        <time>2025-03-19T18:36:21.400Z</time>
      </trkpt>
      <trkpt lat="48.59175" lon="2.03651">
        <ele>122.8</ele>
        <time>2025-03-19T18:36:24.689Z</time>
      </trkpt>
      <trkpt lat="48.59175" lon="2.03643">
        <ele>122.8</ele>
        <time>2025-03-19T18:36:27.978Z</time>
      </trkpt>
      <trkpt lat="48.59175" lon="2.03635">
        <ele>122.9</ele>
        <time>2025-03-19T18:36:31.267Z</time>
      </trkpt>
      <trkpt lat="48.59175" lon="2.03628">
        <ele>122.8</ele>
        <time>2025-03-19T18:36:34.556Z</time>
      </trkpt>
      <trkpt lat="48.59174" lon="2.0362">
        <ele>122.8</ele>
        <time>2025-03-19T18:36:37.845Z</time>
      </trkpt>
      <trkpt lat="48.59174" lon="2.03612">
        <ele>122.8</ele>
        <time>2025-03-19T18:36:41.134Z</time>
      </trkpt>
      <trkpt lat="48.59174" lon="2.03604">
        <ele>122.5</ele>
        <time>2025-03-19T18:36:44.423Z</time>
      </trkpt>
      <trkpt lat="48.59174" lon="2.03596">
        <ele>122.2</ele>
        <time>2025-03-19T18:36:47.713Z</time>
      </trkpt>
      <trkpt lat="48.59174" lon="2.03584">
        <ele>121.8</ele>
        <time>2025-03-19T18:36:52.332Z</time>
      </trkpt>
      <trkpt lat="48.59174" lon="2.03573">
        <ele>121.7</ele>
        <time>2025-03-19T18:36:56.951Z</time>
      </trkpt>
      <trkpt lat="48.59174" lon="2.03561">
        <ele>121.5</ele>
        <time>2025-03-19T18:37:01.570Z</time>
      </trkpt>
      <trkpt lat="48.59174" lon="2.03549">
        <ele>121.3</ele>
        <time>2025-03-19T18:37:06.189Z</time>
      </trkpt>
      <trkpt lat="48.59173" lon="2.03537">
        <ele>120.8</ele>
        <time>2025-03-19T18:37:10.808Z</time>
      </trkpt>
      <trkpt lat="48.59173" lon="2.03526">
        <ele>120.5</ele>
        <time>2025-03-19T18:37:15.428Z</time>
      </trkpt>
      <trkpt lat="48.59173" lon="2.03514">
        <ele>120.3</ele>
        <time>2025-03-19T18:37:20.048Z</time>
      </trkpt>
      <trkpt lat="48.59173" lon="2.03502">
        <ele>120.2</ele>
        <time>2025-03-19T18:37:24.668Z</time>
      </trkpt>
      <trkpt lat="48.59173" lon="2.03492">
        <ele>120.2</ele>
        <time>2025-03-19T18:37:29.353Z</time>
      </trkpt>
      <trkpt lat="48.59172" lon="2.03481">
        <ele>120.2</ele>
        <time>2025-03-19T18:37:34.038Z</time>
      </trkpt>
      <trkpt lat="48.59172" lon="2.03471">
        <ele>120.2</ele>
        <time>2025-03-19T18:37:38.723Z</time>
      </trkpt>
      <trkpt lat="48.59171" lon="2.0346">
        <ele>120.6</ele>
        <time>2025-03-19T18:37:43.408Z</time>
      </trkpt>
      <trkpt lat="48.5917" lon="2.0345">
        <ele>121</ele>
        <time>2025-03-19T18:37:48.093Z</time>
      </trkpt>
      <trkpt lat="48.5917" lon="2.03439">
        <ele>121.1</ele>
        <time>2025-03-19T18:37:52.778Z</time>
      </trkpt>
      <trkpt lat="48.59169" lon="2.03429">
        <ele>121.2</ele>
        <time>2025-03-19T18:37:57.463Z</time>
      </trkpt>
      <trkpt lat="48.59169" lon="2.03418">
        <ele>121.2</ele>
        <time>2025-03-19T18:38:02.148Z</time>
      </trkpt>
      <trkpt lat="48.59168" lon="2.03408">
        <ele>121.4</ele>
        <time>2025-03-19T18:38:06.833Z</time>
      </trkpt>
      <trkpt lat="48.59168" lon="2.03397">
        <ele>121.8</ele>
        <time>2025-03-19T18:38:11.518Z</time>
      </trkpt>
      <trkpt lat="48.59167" lon="2.03387">
        <ele>122</ele>
        <time>2025-03-19T18:38:16.203Z</time>
      </trkpt>
      <trkpt lat="48.59167" lon="2.03376">
        <ele>122</ele>
        <time>2025-03-19T18:38:20.888Z</time>
      </trkpt>
      <trkpt lat="48.59166" lon="2.03366">
        <ele>122</ele>
        <time>2025-03-19T18:38:25.573Z</time>
      </trkpt>
      <trkpt lat="48.59166" lon="2.03355">
        <ele>122.2</ele>
        <time>2025-03-19T18:38:30.258Z</time>
      </trkpt>
      <trkpt lat="48.59165" lon="2.03345">
        <ele>122.5</ele>
        <time>2025-03-19T18:38:34.943Z</time>
      </trkpt>
      <trkpt lat="48.59165" lon="2.03334">
        <ele>122.9</ele>
        <time>2025-03-19T18:38:39.628Z</time>
      </trkpt>
      <trkpt lat="48.59164" lon="2.03324">
        <ele>122.9</ele>
        <time>2025-03-19T18:38:44.313Z</time>
      </trkpt>
      <trkpt lat="48.59164" lon="2.03313">
        <ele>122.9</ele>
        <time>2025-03-19T18:38:48.999Z</time>
      </trkpt>
      <trkpt lat="48.59163" lon="2.03303">
        <ele>122.9</ele>
        <time>2025-03-19T18:38:53.685Z</time>
      </trkpt>
      <trkpt lat="48.59163" lon="2.03292">
        <ele>122.9</ele>
        <time>2025-03-19T18:38:58.371Z</time>
      </trkpt>
      <trkpt lat="48.59162" lon="2.03282">
        <ele>122.8</ele>
        <time>2025-03-19T18:39:03.057Z</time>
      </trkpt>
      <trkpt lat="48.59162" lon="2.03271">
        <ele>122.8</ele>
        <time>2025-03-19T18:39:07.743Z</time>
      </trkpt>
      <trkpt lat="48.59161" lon="2.03261">
        <ele>122.7</ele>
        <time>2025-03-19T18:39:12.429Z</time>
      </trkpt>
      <trkpt lat="48.59161" lon="2.0325">
        <ele>122.6</ele>
        <time>2025-03-19T18:39:17.115Z</time>
      </trkpt>
      <trkpt lat="48.5916" lon="2.0324">
        <ele>122.5</ele>
        <time>2025-03-19T18:39:21.801Z</time>
      </trkpt>
      <trkpt lat="48.5916" lon="2.03229">
        <ele>122.5</ele>
        <time>2025-03-19T18:39:26.487Z</time>
      </trkpt>
      <trkpt lat="48.59159" lon="2.03219">
        <ele>122.4</ele>
        <time>2025-03-19T18:39:31.173Z</time>
      </trkpt>
      <trkpt lat="48.59159" lon="2.03208">
        <ele>122.1</ele>
        <time>2025-03-19T18:39:35.859Z</time>
      </trkpt>
      <trkpt lat="48.59158" lon="2.03198">
        <ele>121.8</ele>
        <time>2025-03-19T18:39:40.545Z</time>
      </trkpt>
      <trkpt lat="48.59158" lon="2.03187">
        <ele>121.7</ele>
        <time>2025-03-19T18:39:45.231Z</time>
      </trkpt>
      <trkpt lat="48.59157" lon="2.03177">
        <ele>121.7</ele>
        <time>2025-03-19T18:39:49.917Z</time>
      </trkpt>
      <trkpt lat="48.59157" lon="2.03166">
        <ele>121.6</ele>
        <time>2025-03-19T18:39:54.603Z</time>
      </trkpt>
      <trkpt lat="48.59156" lon="2.03156">
        <ele>121.6</ele>
        <time>2025-03-19T18:39:59.289Z</time>
      </trkpt>
      <trkpt lat="48.59156" lon="2.03145">
        <ele>121.6</ele>
        <time>2025-03-19T18:40:03.975Z</time>
      </trkpt>
      <trkpt lat="48.59155" lon="2.03135">
        <ele>121.5</ele>
        <time>2025-03-19T18:40:08.661Z</time>
      </trkpt>
      <trkpt lat="48.59154" lon="2.03124">
        <ele>121.3</ele>
        <time>2025-03-19T18:40:13.347Z</time>
      </trkpt>
      <trkpt lat="48.59154" lon="2.03114">
        <ele>121.1</ele>
        <time>2025-03-19T18:40:18.033Z</time>
      </trkpt>
      <trkpt lat="48.59153" lon="2.03103">
        <ele>121</ele>
        <time>2025-03-19T18:40:22.719Z</time>
      </trkpt>
      <trkpt lat="48.59153" lon="2.03093">
        <ele>121</ele>
        <time>2025-03-19T18:40:27.405Z</time>
      </trkpt>
      <trkpt lat="48.59152" lon="2.03082">
        <ele>121</ele>
        <time>2025-03-19T18:40:32.091Z</time>
      </trkpt>
      <trkpt lat="48.59152" lon="2.03072">
        <ele>121.2</ele>
        <time>2025-03-19T18:40:36.777Z</time>
      </trkpt>
      <trkpt lat="48.59151" lon="2.03061">
        <ele>121.3</ele>
        <time>2025-03-19T18:40:41.463Z</time>
      </trkpt>
      <trkpt lat="48.59151" lon="2.03051">
        <ele>121.4</ele>
        <time>2025-03-19T18:40:46.149Z</time>
      </trkpt>
      <trkpt lat="48.5915" lon="2.0304">
        <ele>121.4</ele>
        <time>2025-03-19T18:40:50.835Z</time>
      </trkpt>
      <trkpt lat="48.5915" lon="2.0303">
        <ele>121.4</ele>
        <time>2025-03-19T18:40:55.521Z</time>
      </trkpt>
      <trkpt lat="48.59149" lon="2.03019">
        <ele>121.4</ele>
        <time>2025-03-19T18:41:00.207Z</time>
      </trkpt>
      <trkpt lat="48.59149" lon="2.03009">
        <ele>121.4</ele>
        <time>2025-03-19T18:41:04.893Z</time>
      </trkpt>
      <trkpt lat="48.59148" lon="2.02998">
        <ele>121.4</ele>
        <time>2025-03-19T18:41:09.579Z</time>
      </trkpt>
      <trkpt lat="48.59148" lon="2.02988">
        <ele>121.6</ele>
        <time>2025-03-19T18:41:14.265Z</time>
      </trkpt>
      <trkpt lat="48.59147" lon="2.02977">
        <ele>121.9</ele>
        <time>2025-03-19T18:41:18.951Z</time>
      </trkpt>
      <trkpt lat="48.59147" lon="2.02967">
        <ele>122.1</ele>
        <time>2025-03-19T18:41:23.637Z</time>
      </trkpt>
      <trkpt lat="48.59146" lon="2.02956">
        <ele>122.2</ele>
        <time>2025-03-19T18:41:28.323Z</time>
      </trkpt>
      <trkpt lat="48.59146" lon="2.02946">
        <ele>122.2</ele>
        <time>2025-03-19T18:41:33.009Z</time>
      </trkpt>
      <trkpt lat="48.59145" lon="2.02935">
        <ele>122.5</ele>
        <time>2025-03-19T18:41:37.695Z</time>
      </trkpt>
      <trkpt lat="48.59145" lon="2.02925">
        <ele>122.8</ele>
        <time>2025-03-19T18:41:42.381Z</time>
      </trkpt>
      <trkpt lat="48.59144" lon="2.02914">
        <ele>123</ele>
        <time>2025-03-19T18:41:47.067Z</time>
      </trkpt>
      <trkpt lat="48.59144" lon="2.02904">
        <ele>123</ele>
        <time>2025-03-19T18:41:51.753Z</time>
      </trkpt>
      <trkpt lat="48.59143" lon="2.02893">
        <ele>123</ele>
        <time>2025-03-19T18:41:56.439Z</time>
      </trkpt>
      <trkpt lat="48.59143" lon="2.02883">
        <ele>123.2</ele>
        <time>2025-03-19T18:42:01.125Z</time>
      </trkpt>
      <trkpt lat="48.59142" lon="2.02872">
        <ele>123.5</ele>
        <time>2025-03-19T18:42:05.811Z</time>
      </trkpt>
      <trkpt lat="48.59142" lon="2.02862">
        <ele>123.9</ele>
        <time>2025-03-19T18:42:10.497Z</time>
      </trkpt>
      <trkpt lat="48.59141" lon="2.02851">
        <ele>124</ele>
        <time>2025-03-19T18:42:15.183Z</time>
      </trkpt>
      <trkpt lat="48.59141" lon="2.02841">
        <ele>124</ele>
        <time>2025-03-19T18:42:19.869Z</time>
      </trkpt>
      <trkpt lat="48.5914" lon="2.0283">
        <ele>124.1</ele>
        <time>2025-03-19T18:42:24.556Z</time>
      </trkpt>
      <trkpt lat="48.59141" lon="2.02819">
        <ele>124.5</ele>
        <time>2025-03-19T18:42:29.263Z</time>
      </trkpt>
      <trkpt lat="48.59142" lon="2.02807">
        <ele>124.8</ele>
        <time>2025-03-19T18:42:33.970Z</time>
      </trkpt>
      <trkpt lat="48.59143" lon="2.02796">
        <ele>124.9</ele>
        <time>2025-03-19T18:42:38.677Z</time>
      </trkpt>
      <trkpt lat="48.59144" lon="2.02785">
        <ele>124.8</ele>
        <time>2025-03-19T18:42:43.384Z</time>
      </trkpt>
      <trkpt lat="48.59145" lon="2.02773">
        <ele>124.9</ele>
        <time>2025-03-19T18:42:48.091Z</time>
      </trkpt>
      <trkpt lat="48.59146" lon="2.02762">
        <ele>125.2</ele>
        <time>2025-03-19T18:42:52.799Z</time>
      </trkpt>
      <trkpt lat="48.59147" lon="2.02751">
        <ele>125.4</ele>
        <time>2025-03-19T18:42:57.507Z</time>
      </trkpt>
      <trkpt lat="48.59148" lon="2.02739">
        <ele>125.3</ele>
        <time>2025-03-19T18:43:02.215Z</time>
      </trkpt>
      <trkpt lat="48.59149" lon="2.02728">
        <ele>125.3</ele>
        <time>2025-03-19T18:43:06.923Z</time>
      </trkpt>
      <trkpt lat="48.5915" lon="2.02717">
        <ele>125.3</ele>
        <time>2025-03-19T18:43:11.631Z</time>
      </trkpt>
      <trkpt lat="48.59151" lon="2.02705">
        <ele>125.5</ele>
        <time>2025-03-19T18:43:16.339Z</time>
      </trkpt>
      <trkpt lat="48.59152" lon="2.02694">
        <ele>125.6</ele>
        <time>2025-03-19T18:43:21.047Z</time>
      </trkpt>
      <trkpt lat="48.59153" lon="2.02683">
        <ele>125.9</ele>
        <time>2025-03-19T18:43:25.755Z</time>
      </trkpt>
      <trkpt lat="48.59154" lon="2.02671">
        <ele>126.2</ele>
        <time>2025-03-19T18:43:30.463Z</time>
      </trkpt>
      <trkpt lat="48.59155" lon="2.0266">
        <ele>126.3</ele>
        <time>2025-03-19T18:43:35.171Z</time>
      </trkpt>
      <trkpt lat="48.59156" lon="2.02649">
        <ele>126.2</ele>
        <time>2025-03-19T18:43:39.879Z</time>
      </trkpt>
      <trkpt lat="48.59157" lon="2.02637">
        <ele>126</ele>
        <time>2025-03-19T18:43:44.587Z</time>
      </trkpt>
      <trkpt lat="48.59158" lon="2.02626">
        <ele>125.8</ele>
        <time>2025-03-19T18:43:49.295Z</time>
      </trkpt>
      <trkpt lat="48.59159" lon="2.02615">
        <ele>125.6</ele>
        <time>2025-03-19T18:43:54.003Z</time>
      </trkpt>
      <trkpt lat="48.5916" lon="2.02603">
        <ele>125.2</ele>
        <time>2025-03-19T18:43:58.711Z</time>
      </trkpt>
      <trkpt lat="48.59161" lon="2.02592">
        <ele>124.7</ele>
        <time>2025-03-19T18:44:03.419Z</time>
      </trkpt>
      <trkpt lat="48.59162" lon="2.0258">
        <ele>124.1</ele>
        <time>2025-03-19T18:44:08.127Z</time>
      </trkpt>
      <trkpt lat="48.59163" lon="2.02569">
        <ele>123.2</ele>
        <time>2025-03-19T18:44:12.835Z</time>
      </trkpt>
      <trkpt lat="48.59164" lon="2.02558">
        <ele>122.3</ele>
        <time>2025-03-19T18:44:17.543Z</time>
      </trkpt>
      <trkpt lat="48.59165" lon="2.02546">
        <ele>121.8</ele>
        <time>2025-03-19T18:44:22.251Z</time>
      </trkpt>
      <trkpt lat="48.59166" lon="2.02535">
        <ele>121.3</ele>
        <time>2025-03-19T18:44:26.959Z</time>
      </trkpt>
      <trkpt lat="48.59167" lon="2.02524">
        <ele>120.9</ele>
        <time>2025-03-19T18:44:31.667Z</time>
      </trkpt>
      <trkpt lat="48.59168" lon="2.02512">
        <ele>120.5</ele>
        <time>2025-03-19T18:44:36.375Z</time>
      </trkpt>
      <trkpt lat="48.59169" lon="2.02501">
        <ele>120.1</ele>
        <time>2025-03-19T18:44:41.083Z</time>
      </trkpt>
      <trkpt lat="48.5917" lon="2.0249">
        <ele>120.1</ele>
        <time>2025-03-19T18:44:45.791Z</time>
      </trkpt>
      <trkpt lat="48.59171" lon="2.02478">
        <ele>120</ele>
        <time>2025-03-19T18:44:50.499Z</time>
      </trkpt>
      <trkpt lat="48.59172" lon="2.02467">
        <ele>120</ele>
        <time>2025-03-19T18:44:55.207Z</time>
      </trkpt>
      <trkpt lat="48.59172" lon="2.02457">
        <ele>119.9</ele>
        <time>2025-03-19T18:44:58.879Z</time>
      </trkpt>
      <trkpt lat="48.59172" lon="2.02448">
        <ele>119.8</ele>
        <time>2025-03-19T18:45:02.551Z</time>
      </trkpt>
      <trkpt lat="48.59172" lon="2.02438">
        <ele>119.8</ele>
        <time>2025-03-19T18:45:06.223Z</time>
      </trkpt>
      <trkpt lat="48.59171" lon="2.02428">
        <ele>119.8</ele>
        <time>2025-03-19T18:45:09.895Z</time>
      </trkpt>
      <trkpt lat="48.59171" lon="2.02419">
        <ele>119.8</ele>
        <time>2025-03-19T18:45:13.567Z</time>
      </trkpt>
      <trkpt lat="48.59171" lon="2.02409">
        <ele>119.5</ele>
        <time>2025-03-19T18:45:17.239Z</time>
      </trkpt>
      <trkpt lat="48.59171" lon="2.02399">
        <ele>119.1</ele>
        <time>2025-03-19T18:45:20.911Z</time>
      </trkpt>
      <trkpt lat="48.59171" lon="2.0239">
        <ele>118.7</ele>
        <time>2025-03-19T18:45:24.583Z</time>
      </trkpt>
      <trkpt lat="48.59171" lon="2.0238">
        <ele>118.1</ele>
        <time>2025-03-19T18:45:28.255Z</time>
      </trkpt>
      <trkpt lat="48.5917" lon="2.0237">
        <ele>117.5</ele>
        <time>2025-03-19T18:45:31.927Z</time>
      </trkpt>
      <trkpt lat="48.5917" lon="2.0236">
        <ele>116.8</ele>
        <time>2025-03-19T18:45:35.599Z</time>
      </trkpt>
      <trkpt lat="48.5917" lon="2.02351">
        <ele>116.2</ele>
        <time>2025-03-19T18:45:39.272Z</time>
      </trkpt>
      <trkpt lat="48.5917" lon="2.02341">
        <ele>115.5</ele>
        <time>2025-03-19T18:45:42.945Z</time>
      </trkpt>
      <trkpt lat="48.5917" lon="2.02331">
        <ele>115</ele>
        <time>2025-03-19T18:45:46.618Z</time>
      </trkpt>
      <trkpt lat="48.5917" lon="2.02322">
        <ele>115</ele>
        <time>2025-03-19T18:45:50.291Z</time>
      </trkpt>
      <trkpt lat="48.5917" lon="2.02312">
        <ele>115</ele>
        <time>2025-03-19T18:45:53.964Z</time>
      </trkpt>
      <trkpt lat="48.59169" lon="2.02302">
        <ele>114.9</ele>
        <time>2025-03-19T18:45:57.637Z</time>
      </trkpt>
      <trkpt lat="48.59169" lon="2.02293">
        <ele>114.5</ele>
        <time>2025-03-19T18:46:01.310Z</time>
      </trkpt>
      <trkpt lat="48.59169" lon="2.02283">
        <ele>114.2</ele>
        <time>2025-03-19T18:46:04.983Z</time>
      </trkpt>
      <trkpt lat="48.59169" lon="2.02273">
        <ele>113.8</ele>
        <time>2025-03-19T18:46:08.656Z</time>
      </trkpt>
      <trkpt lat="48.59169" lon="2.02264">
        <ele>113.5</ele>
        <time>2025-03-19T18:46:12.329Z</time>
      </trkpt>
      <trkpt lat="48.59169" lon="2.02254">
        <ele>113.1</ele>
        <time>2025-03-19T18:46:16.002Z</time>
      </trkpt>
      <trkpt lat="48.59168" lon="2.02244">
        <ele>112.8</ele>
        <time>2025-03-19T18:46:19.675Z</time>
      </trkpt>
      <trkpt lat="48.59168" lon="2.02235">
        <ele>112.4</ele>
        <time>2025-03-19T18:46:23.348Z</time>
      </trkpt>
      <trkpt lat="48.59168" lon="2.02225">
        <ele>112.1</ele>
        <time>2025-03-19T18:46:27.021Z</time>
      </trkpt>
      <trkpt lat="48.59168" lon="2.02215">
        <ele>111.7</ele>
        <time>2025-03-19T18:46:30.694Z</time>
      </trkpt>
      <trkpt lat="48.59168" lon="2.02205">
        <ele>111.4</ele>
        <time>2025-03-19T18:46:34.367Z</time>
      </trkpt>
      <trkpt lat="48.59168" lon="2.02196">
        <ele>111</ele>
        <time>2025-03-19T18:46:38.040Z</time>
      </trkpt>
      <trkpt lat="48.59168" lon="2.02186">
        <ele>110.7</ele>
        <time>2025-03-19T18:46:41.713Z</time>
      </trkpt>
      <trkpt lat="48.59167" lon="2.02176">
        <ele>110.4</ele>
        <time>2025-03-19T18:46:45.386Z</time>
      </trkpt>
      <trkpt lat="48.59167" lon="2.02167">
        <ele>110</ele>
        <time>2025-03-19T18:46:49.059Z</time>
      </trkpt>
      <trkpt lat="48.59167" lon="2.02157">
        <ele>110</ele>
        <time>2025-03-19T18:46:52.733Z</time>
      </trkpt>
      <trkpt lat="48.59166" lon="2.02146">
        <ele>110</ele>
        <time>2025-03-19T18:46:56.884Z</time>
      </trkpt>
      <trkpt lat="48.59165" lon="2.02135">
        <ele>109.9</ele>
        <time>2025-03-19T18:47:01.036Z</time>
      </trkpt>
      <trkpt lat="48.59164" lon="2.02124">
        <ele>109.5</ele>
        <time>2025-03-19T18:47:05.188Z</time>
      </trkpt>
      <trkpt lat="48.59164" lon="2.02114">
        <ele>109.1</ele>
        <time>2025-03-19T18:47:09.340Z</time>
      </trkpt>
      <trkpt lat="48.59163" lon="2.02103">
        <ele>108.6</ele>
        <time>2025-03-19T18:47:13.492Z</time>
      </trkpt>
      <trkpt lat="48.59162" lon="2.02092">
        <ele>108.2</ele>
        <time>2025-03-19T18:47:17.644Z</time>
      </trkpt>
      <trkpt lat="48.59161" lon="2.02081">
        <ele>107.7</ele>
        <time>2025-03-19T18:47:21.796Z</time>
      </trkpt>
      <trkpt lat="48.5916" lon="2.0207">
        <ele>107.3</ele>
        <time>2025-03-19T18:47:25.949Z</time>
      </trkpt>
      <trkpt lat="48.59158" lon="2.02063">
        <ele>107</ele>
        <time>2025-03-19T18:47:28.927Z</time>
      </trkpt>
      <trkpt lat="48.59157" lon="2.02055">
        <ele>106.6</ele>
        <time>2025-03-19T18:47:31.905Z</time>
      </trkpt>
      <trkpt lat="48.59155" lon="2.02048">
        <ele>106.3</ele>
        <time>2025-03-19T18:47:34.883Z</time>
      </trkpt>
      <trkpt lat="48.59154" lon="2.02041">
        <ele>106</ele>
        <time>2025-03-19T18:47:37.862Z</time>
      </trkpt>
      <trkpt lat="48.59152" lon="2.02033">
        <ele>105.7</ele>
        <time>2025-03-19T18:47:40.841Z</time>
      </trkpt>
      <trkpt lat="48.59151" lon="2.02026">
        <ele>105.4</ele>
        <time>2025-03-19T18:47:43.820Z</time>
      </trkpt>
      <trkpt lat="48.59149" lon="2.02019">
        <ele>105.2</ele>
        <time>2025-03-19T18:47:46.799Z</time>
      </trkpt>
      <trkpt lat="48.59148" lon="2.02012">
        <ele>105.1</ele>
        <time>2025-03-19T18:47:49.778Z</time>
      </trkpt>
      <trkpt lat="48.59146" lon="2.02004">
        <ele>105</ele>
        <time>2025-03-19T18:47:52.757Z</time>
      </trkpt>
      <trkpt lat="48.59144" lon="2.01997">
        <ele>105</ele>
        <time>2025-03-19T18:47:55.736Z</time>
      </trkpt>
      <trkpt lat="48.59143" lon="2.0199">
        <ele>105</ele>
        <time>2025-03-19T18:47:58.715Z</time>
      </trkpt>
      <trkpt lat="48.59141" lon="2.01982">
        <ele>105</ele>
        <time>2025-03-19T18:48:01.694Z</time>
      </trkpt>
      <trkpt lat="48.5914" lon="2.01975">
        <ele>105</ele>
        <time>2025-03-19T18:48:04.673Z</time>
      </trkpt>
      <trkpt lat="48.59138" lon="2.01968">
        <ele>104.8</ele>
        <time>2025-03-19T18:48:07.652Z</time>
      </trkpt>
      <trkpt lat="48.59137" lon="2.0196">
        <ele>104.5</ele>
        <time>2025-03-19T18:48:10.631Z</time>
      </trkpt>
      <trkpt lat="48.59135" lon="2.01953">
        <ele>104.3</ele>
        <time>2025-03-19T18:48:13.611Z</time>
      </trkpt>
      <trkpt lat="48.59132" lon="2.01945">
        <ele>104</ele>
        <time>2025-03-19T18:48:17.562Z</time>
      </trkpt>
      <trkpt lat="48.5913" lon="2.01936">
        <ele>104</ele>
        <time>2025-03-19T18:48:21.513Z</time>
      </trkpt>
      <trkpt lat="48.59127" lon="2.01928">
        <ele>104</ele>
        <time>2025-03-19T18:48:25.464Z</time>
      </trkpt>
      <trkpt lat="48.59124" lon="2.01919">
        <ele>104</ele>
        <time>2025-03-19T18:48:29.416Z</time>
      </trkpt>
      <trkpt lat="48.5912" lon="2.0191">
        <ele>103.7</ele>
        <time>2025-03-19T18:48:33.733Z</time>
      </trkpt>
      <trkpt lat="48.59116" lon="2.01901">
        <ele>103.4</ele>
        <time>2025-03-19T18:48:38.051Z</time>
      </trkpt>
      <trkpt lat="48.59112" lon="2.01891">
        <ele>103.1</ele>
        <time>2025-03-19T18:48:42.369Z</time>
      </trkpt>
      <trkpt lat="48.59108" lon="2.01882">
        <ele>103</ele>
        <time>2025-03-19T18:48:46.688Z</time>
      </trkpt>
      <trkpt lat="48.59105" lon="2.01875">
        <ele>103</ele>
        <time>2025-03-19T18:48:50.433Z</time>
      </trkpt>
      <trkpt lat="48.59101" lon="2.01868">
        <ele>103</ele>
        <time>2025-03-19T18:48:54.178Z</time>
      </trkpt>
      <trkpt lat="48.59098" lon="2.01861">
        <ele>103</ele>
        <time>2025-03-19T18:48:57.923Z</time>
      </trkpt>
      <trkpt lat="48.59094" lon="2.01854">
        <ele>102.9</ele>
        <time>2025-03-19T18:49:01.668Z</time>
      </trkpt>
      <trkpt lat="48.59091" lon="2.01846">
        <ele>102.9</ele>
        <time>2025-03-19T18:49:05.413Z</time>
      </trkpt>
      <trkpt lat="48.59087" lon="2.01839">
        <ele>102.9</ele>
        <time>2025-03-19T18:49:09.158Z</time>
      </trkpt>
      <trkpt lat="48.59084" lon="2.01832">
        <ele>102.9</ele>
        <time>2025-03-19T18:49:12.903Z</time>
      </trkpt>
      <trkpt lat="48.5908" lon="2.01825">
        <ele>102.6</ele>
        <time>2025-03-19T18:49:16.650Z</time>
      </trkpt>
      <trkpt lat="48.59079" lon="2.01816">
        <ele>102.2</ele>
        <time>2025-03-19T18:49:20.202Z</time>
      </trkpt>
      <trkpt lat="48.59078" lon="2.01807">
        <ele>101.8</ele>
        <time>2025-03-19T18:49:23.754Z</time>
      </trkpt>
      <trkpt lat="48.59077" lon="2.01797">
        <ele>101.5</ele>
        <time>2025-03-19T18:49:27.306Z</time>
      </trkpt>
      <trkpt lat="48.59076" lon="2.01788">
        <ele>101.3</ele>
        <time>2025-03-19T18:49:30.858Z</time>
      </trkpt>
      <trkpt lat="48.59075" lon="2.01779">
        <ele>101</ele>
        <time>2025-03-19T18:49:34.410Z</time>
      </trkpt>
      <trkpt lat="48.59074" lon="2.0177">
        <ele>100.7</ele>
        <time>2025-03-19T18:49:37.962Z</time>
      </trkpt>
      <trkpt lat="48.59073" lon="2.0176">
        <ele>100.4</ele>
        <time>2025-03-19T18:49:41.515Z</time>
      </trkpt>
      <trkpt lat="48.59072" lon="2.01751">
        <ele>100</ele>
        <time>2025-03-19T18:49:45.069Z</time>
      </trkpt>
      <trkpt lat="48.59072" lon="2.01744">
        <ele>99.7</ele>
        <time>2025-03-19T18:49:47.917Z</time>
      </trkpt>
      <trkpt lat="48.59073" lon="2.01736">
        <ele>99.3</ele>
        <time>2025-03-19T18:49:50.765Z</time>
      </trkpt>
      <trkpt lat="48.59073" lon="2.01729">
        <ele>98.9</ele>
        <time>2025-03-19T18:49:53.613Z</time>
      </trkpt>
      <trkpt lat="48.59073" lon="2.01721">
        <ele>98.6</ele>
        <time>2025-03-19T18:49:56.461Z</time>
      </trkpt>
      <trkpt lat="48.59074" lon="2.01714">
        <ele>98.2</ele>
        <time>2025-03-19T18:49:59.309Z</time>
      </trkpt>
      <trkpt lat="48.59074" lon="2.01706">
        <ele>97.9</ele>
        <time>2025-03-19T18:50:02.157Z</time>
      </trkpt>
      <trkpt lat="48.59074" lon="2.01699">
        <ele>97.5</ele>
        <time>2025-03-19T18:50:05.005Z</time>
      </trkpt>
      <trkpt lat="48.59075" lon="2.01691">
        <ele>97.2</ele>
        <time>2025-03-19T18:50:07.853Z</time>
      </trkpt>
      <trkpt lat="48.59075" lon="2.01684">
        <ele>96.8</ele>
        <time>2025-03-19T18:50:10.701Z</time>
      </trkpt>
      <trkpt lat="48.59075" lon="2.01676">
        <ele>96.5</ele>
        <time>2025-03-19T18:50:13.549Z</time>
      </trkpt>
      <trkpt lat="48.59075" lon="2.01669">
        <ele>96.1</ele>
        <time>2025-03-19T18:50:16.397Z</time>
      </trkpt>
      <trkpt lat="48.59076" lon="2.01661">
        <ele>95.6</ele>
        <time>2025-03-19T18:50:19.245Z</time>
      </trkpt>
      <trkpt lat="48.59076" lon="2.01654">
        <ele>95.2</ele>
        <time>2025-03-19T18:50:22.094Z</time>
      </trkpt>
      <trkpt lat="48.59076" lon="2.01646">
        <ele>94.7</ele>
        <time>2025-03-19T18:50:24.943Z</time>
      </trkpt>
      <trkpt lat="48.59077" lon="2.01639">
        <ele>94.2</ele>
        <time>2025-03-19T18:50:27.792Z</time>
      </trkpt>
      <trkpt lat="48.59077" lon="2.01631">
        <ele>94.1</ele>
        <time>2025-03-19T18:50:30.641Z</time>
      </trkpt>
      <trkpt lat="48.59073" lon="2.01619">
        <ele>93.8</ele>
        <time>2025-03-19T18:50:35.898Z</time>
        <extensions>
          <visugpx:TrkExtension xmlns:visugpx="https://www.visugpx.com/editgpx/">
            <visugpx:node>10</visugpx:node>
            </visugpx:TrkExtension>
        </extensions>
      </trkpt>
      <trkpt lat="48.59073" lon="2.01619">
        <ele>93.8</ele>
        <time>2025-03-19T18:50:35.898Z</time>
      </trkpt>
      <trkpt lat="48.59071" lon="2.01613">
        <ele>93.6</ele>
        <time>2025-03-19T18:50:38.594Z</time>
      </trkpt>
      <trkpt lat="48.59069" lon="2.01607">
        <ele>93.3</ele>
        <time>2025-03-19T18:50:41.291Z</time>
      </trkpt>
      <trkpt lat="48.59066" lon="2.016">
        <ele>93</ele>
        <time>2025-03-19T18:50:43.988Z</time>
      </trkpt>
      <trkpt lat="48.59064" lon="2.01594">
        <ele>92.7</ele>
        <time>2025-03-19T18:50:46.686Z</time>
      </trkpt>
      <trkpt lat="48.59059" lon="2.01584">
        <ele>92.2</ele>
        <time>2025-03-19T18:50:51.361Z</time>
      </trkpt>
      <trkpt lat="48.59054" lon="2.01575">
        <ele>91.7</ele>
        <time>2025-03-19T18:50:56.037Z</time>
      </trkpt>
      <trkpt lat="48.59049" lon="2.01565">
        <ele>91.3</ele>
        <time>2025-03-19T18:51:00.713Z</time>
      </trkpt>
      <trkpt lat="48.59044" lon="2.01555">
        <ele>91</ele>
        <time>2025-03-19T18:51:05.390Z</time>
      </trkpt>
      <trkpt lat="48.5904" lon="2.01548">
        <ele>90.6</ele>
        <time>2025-03-19T18:51:08.953Z</time>
      </trkpt>
      <trkpt lat="48.59037" lon="2.0154">
        <ele>90.1</ele>
        <time>2025-03-19T18:51:12.516Z</time>
      </trkpt>
      <trkpt lat="48.59033" lon="2.01533">
        <ele>89.5</ele>
        <time>2025-03-19T18:51:16.079Z</time>
      </trkpt>
      <trkpt lat="48.59029" lon="2.01525">
        <ele>88.9</ele>
        <time>2025-03-19T18:51:19.643Z</time>
      </trkpt>
      <trkpt lat="48.59027" lon="2.01518">
        <ele>88.6</ele>
        <time>2025-03-19T18:51:22.612Z</time>
      </trkpt>
      <trkpt lat="48.59026" lon="2.0151">
        <ele>88.4</ele>
        <time>2025-03-19T18:51:25.581Z</time>
      </trkpt>
      <trkpt lat="48.59024" lon="2.01503">
        <ele>88.1</ele>
        <time>2025-03-19T18:51:28.550Z</time>
      </trkpt>
      <trkpt lat="48.59022" lon="2.01496">
        <ele>87.8</ele>
        <time>2025-03-19T18:51:31.519Z</time>
      </trkpt>
      <trkpt lat="48.5902" lon="2.01488">
        <ele>87.5</ele>
        <time>2025-03-19T18:51:34.489Z</time>
      </trkpt>
      <trkpt lat="48.59019" lon="2.01481">
        <ele>87.1</ele>
        <time>2025-03-19T18:51:37.459Z</time>
      </trkpt>
      <trkpt lat="48.59017" lon="2.01473">
        <ele>86.7</ele>
        <time>2025-03-19T18:51:40.429Z</time>
      </trkpt>
      <trkpt lat="48.59015" lon="2.01466">
        <ele>86.3</ele>
        <time>2025-03-19T18:51:43.400Z</time>
      </trkpt>
      <trkpt lat="48.59014" lon="2.01457">
        <ele>86</ele>
        <time>2025-03-19T18:51:46.858Z</time>
      </trkpt>
      <trkpt lat="48.59013" lon="2.01448">
        <ele>85.6</ele>
        <time>2025-03-19T18:51:50.318Z</time>
      </trkpt>
      <trkpt lat="48.59011" lon="2.01436">
        <ele>85.4</ele>
        <time>2025-03-19T18:51:55.683Z</time>
      </trkpt>
      <trkpt lat="48.59008" lon="2.01423">
        <ele>85.3</ele>
        <time>2025-03-19T18:52:01.049Z</time>
      </trkpt>
      <trkpt lat="48.59007" lon="2.01414">
        <ele>85.2</ele>
        <time>2025-03-19T18:52:04.874Z</time>
      </trkpt>
      <trkpt lat="48.59005" lon="2.01405">
        <ele>85.1</ele>
        <time>2025-03-19T18:52:08.700Z</time>
      </trkpt>
      <trkpt lat="48.59003" lon="2.01396">
        <ele>85</ele>
        <time>2025-03-19T18:52:13.289Z</time>
      </trkpt>
      <trkpt lat="48.59001" lon="2.01387">
        <ele>85.1</ele>
        <time>2025-03-19T18:52:17.878Z</time>
      </trkpt>
      <trkpt lat="48.58999" lon="2.01377">
        <ele>85.4</ele>
        <time>2025-03-19T18:52:22.468Z</time>
      </trkpt>
      <trkpt lat="48.58997" lon="2.01368">
        <ele>85.8</ele>
        <time>2025-03-19T18:52:27.059Z</time>
      </trkpt>
      <trkpt lat="48.58996" lon="2.0136">
        <ele>86</ele>
        <time>2025-03-19T18:52:31.282Z</time>
      </trkpt>
      <trkpt lat="48.58994" lon="2.01351">
        <ele>86.1</ele>
        <time>2025-03-19T18:52:35.505Z</time>
      </trkpt>
      <trkpt lat="48.58993" lon="2.01343">
        <ele>86.2</ele>
        <time>2025-03-19T18:52:39.728Z</time>
      </trkpt>
      <trkpt lat="48.58991" lon="2.01334">
        <ele>86.3</ele>
        <time>2025-03-19T18:52:43.951Z</time>
      </trkpt>
      <trkpt lat="48.5899" lon="2.01326">
        <ele>86.6</ele>
        <time>2025-03-19T18:52:48.174Z</time>
      </trkpt>
      <trkpt lat="48.58988" lon="2.01317">
        <ele>86.8</ele>
        <time>2025-03-19T18:52:52.397Z</time>
      </trkpt>
      <trkpt lat="48.58987" lon="2.01309">
        <ele>86.9</ele>
        <time>2025-03-19T18:52:56.620Z</time>
      </trkpt>
      <trkpt lat="48.58985" lon="2.013">
        <ele>87.1</ele>
        <time>2025-03-19T18:53:00.844Z</time>
      </trkpt>
      <trkpt lat="48.58984" lon="2.01292">
        <ele>87.3</ele>
        <time>2025-03-19T18:53:05.068Z</time>
      </trkpt>
      <trkpt lat="48.58982" lon="2.01283">
        <ele>87.5</ele>
        <time>2025-03-19T18:53:09.292Z</time>
      </trkpt>
      <trkpt lat="48.58981" lon="2.01275">
        <ele>87.7</ele>
        <time>2025-03-19T18:53:13.516Z</time>
      </trkpt>
      <trkpt lat="48.58979" lon="2.01266">
        <ele>87.9</ele>
        <time>2025-03-19T18:53:17.740Z</time>
      </trkpt>
      <trkpt lat="48.58978" lon="2.01258">
        <ele>87.9</ele>
        <time>2025-03-19T18:53:21.964Z</time>
      </trkpt>
      <trkpt lat="48.58976" lon="2.01249">
        <ele>88</ele>
        <time>2025-03-19T18:53:26.188Z</time>
      </trkpt>
      <trkpt lat="48.58975" lon="2.01241">
        <ele>88.3</ele>
        <time>2025-03-19T18:53:30.412Z</time>
      </trkpt>
      <trkpt lat="48.58973" lon="2.01232">
        <ele>88.6</ele>
        <time>2025-03-19T18:53:34.636Z</time>
      </trkpt>
      <trkpt lat="48.58972" lon="2.01224">
        <ele>89</ele>
        <time>2025-03-19T18:53:38.860Z</time>
      </trkpt>
      <trkpt lat="48.5897" lon="2.01215">
        <ele>89</ele>
        <time>2025-03-19T18:53:43.084Z</time>
      </trkpt>
      <trkpt lat="48.58969" lon="2.01207">
        <ele>89.1</ele>
        <time>2025-03-19T18:53:47.308Z</time>
      </trkpt>
      <trkpt lat="48.58967" lon="2.01198">
        <ele>89.2</ele>
        <time>2025-03-19T18:53:51.532Z</time>
      </trkpt>
      <trkpt lat="48.58966" lon="2.0119">
        <ele>89.4</ele>
        <time>2025-03-19T18:53:55.756Z</time>
      </trkpt>
      <trkpt lat="48.58964" lon="2.01181">
        <ele>89.6</ele>
        <time>2025-03-19T18:53:59.980Z</time>
      </trkpt>
      <trkpt lat="48.58963" lon="2.01173">
        <ele>89.9</ele>
        <time>2025-03-19T18:54:04.204Z</time>
      </trkpt>
      <trkpt lat="48.58961" lon="2.01164">
        <ele>90.1</ele>
        <time>2025-03-19T18:54:08.428Z</time>
      </trkpt>
      <trkpt lat="48.5896" lon="2.01156">
        <ele>90.4</ele>
        <time>2025-03-19T18:54:12.652Z</time>
      </trkpt>
      <trkpt lat="48.58958" lon="2.01147">
        <ele>90.7</ele>
        <time>2025-03-19T18:54:16.876Z</time>
      </trkpt>
      <trkpt lat="48.58957" lon="2.01139">
        <ele>91</ele>
        <time>2025-03-19T18:54:21.100Z</time>
      </trkpt>
      <trkpt lat="48.58955" lon="2.0113">
        <ele>91.2</ele>
        <time>2025-03-19T18:54:25.324Z</time>
      </trkpt>
      <trkpt lat="48.58954" lon="2.01122">
        <ele>91.4</ele>
        <time>2025-03-19T18:54:29.548Z</time>
      </trkpt>
      <trkpt lat="48.58952" lon="2.01113">
        <ele>91.7</ele>
        <time>2025-03-19T18:54:33.772Z</time>
      </trkpt>
      <trkpt lat="48.58951" lon="2.01105">
        <ele>91.8</ele>
        <time>2025-03-19T18:54:37.996Z</time>
      </trkpt>
      <trkpt lat="48.58949" lon="2.01096">
        <ele>91.9</ele>
        <time>2025-03-19T18:54:42.221Z</time>
      </trkpt>
      <trkpt lat="48.58948" lon="2.01087">
        <ele>92</ele>
        <time>2025-03-19T18:54:46.565Z</time>
      </trkpt>
      <trkpt lat="48.58946" lon="2.01078">
        <ele>92.2</ele>
        <time>2025-03-19T18:54:50.909Z</time>
      </trkpt>
      <trkpt lat="48.58945" lon="2.01069">
        <ele>92.5</ele>
        <time>2025-03-19T18:54:55.254Z</time>
      </trkpt>
      <trkpt lat="48.58944" lon="2.0106">
        <ele>92.8</ele>
        <time>2025-03-19T18:54:59.599Z</time>
      </trkpt>
      <trkpt lat="48.58942" lon="2.0105">
        <ele>92.9</ele>
        <time>2025-03-19T18:55:03.944Z</time>
      </trkpt>
      <trkpt lat="48.58941" lon="2.01041">
        <ele>92.9</ele>
        <time>2025-03-19T18:55:08.289Z</time>
      </trkpt>
      <trkpt lat="48.58939" lon="2.01032">
        <ele>93</ele>
        <time>2025-03-19T18:55:12.634Z</time>
      </trkpt>
      <trkpt lat="48.58938" lon="2.01023">
        <ele>93</ele>
        <time>2025-03-19T18:55:16.980Z</time>
      </trkpt>
      <trkpt lat="48.58938" lon="2.01015">
        <ele>93</ele>
        <time>2025-03-19T18:55:20.445Z</time>
      </trkpt>
      <trkpt lat="48.58936" lon="2.01004">
        <ele>93</ele>
        <time>2025-03-19T18:55:25.702Z</time>
      </trkpt>
      <trkpt lat="48.58934" lon="2.00993">
        <ele>93.3</ele>
        <time>2025-03-19T18:55:30.960Z</time>
      </trkpt>
      <trkpt lat="48.58934" lon="2.0098">
        <ele>93.7</ele>
        <time>2025-03-19T18:55:36.838Z</time>
      </trkpt>
      <trkpt lat="48.58934" lon="2.00968">
        <ele>94</ele>
        <time>2025-03-19T18:55:42.716Z</time>
      </trkpt>
      <trkpt lat="48.58934" lon="2.00955">
        <ele>94</ele>
        <time>2025-03-19T18:55:48.594Z</time>
      </trkpt>
      <trkpt lat="48.58934" lon="2.00942">
        <ele>94.1</ele>
        <time>2025-03-19T18:55:54.472Z</time>
      </trkpt>
      <trkpt lat="48.58934" lon="2.00929">
        <ele>94.3</ele>
        <time>2025-03-19T18:56:00.350Z</time>
      </trkpt>
      <trkpt lat="48.58934" lon="2.00917">
        <ele>94.6</ele>
        <time>2025-03-19T18:56:06.228Z</time>
      </trkpt>
      <trkpt lat="48.58934" lon="2.00904">
        <ele>94.6</ele>
        <time>2025-03-19T18:56:12.106Z</time>
      </trkpt>
      <trkpt lat="48.58934" lon="2.00891">
        <ele>94.6</ele>
        <time>2025-03-19T18:56:17.984Z</time>
      </trkpt>
      <trkpt lat="48.58934" lon="2.00878">
        <ele>94.8</ele>
        <time>2025-03-19T18:56:23.862Z</time>
      </trkpt>
      <trkpt lat="48.58934" lon="2.00866">
        <ele>94.9</ele>
        <time>2025-03-19T18:56:29.740Z</time>
      </trkpt>
      <trkpt lat="48.58934" lon="2.00853">
        <ele>95</ele>
        <time>2025-03-19T18:56:35.618Z</time>
      </trkpt>
      <trkpt lat="48.58934" lon="2.0084">
        <ele>95</ele>
        <time>2025-03-19T18:56:41.497Z</time>
      </trkpt>
      <trkpt lat="48.58934" lon="2.00827">
        <ele>95.2</ele>
        <time>2025-03-19T18:56:47.376Z</time>
      </trkpt>
      <trkpt lat="48.58934" lon="2.00815">
        <ele>95.7</ele>
        <time>2025-03-19T18:56:53.255Z</time>
      </trkpt>
      <trkpt lat="48.58934" lon="2.00802">
        <ele>96</ele>
        <time>2025-03-19T18:56:59.134Z</time>
      </trkpt>
      <trkpt lat="48.58934" lon="2.00789">
        <ele>96</ele>
        <time>2025-03-19T18:57:05.013Z</time>
      </trkpt>
      <trkpt lat="48.58934" lon="2.00782">
        <ele>96</ele>
        <time>2025-03-19T18:57:08.121Z</time>
      </trkpt>
      <trkpt lat="48.58934" lon="2.00775">
        <ele>96</ele>
        <time>2025-03-19T18:57:11.229Z</time>
      </trkpt>
      <trkpt lat="48.58934" lon="2.00768">
        <ele>96.1</ele>
        <time>2025-03-19T18:57:14.337Z</time>
      </trkpt>
      <trkpt lat="48.58934" lon="2.00761">
        <ele>96.2</ele>
        <time>2025-03-19T18:57:17.445Z</time>
      </trkpt>
      <trkpt lat="48.58934" lon="2.00754">
        <ele>96.3</ele>
        <time>2025-03-19T18:57:20.553Z</time>
      </trkpt>
      <trkpt lat="48.58934" lon="2.00747">
        <ele>96.4</ele>
        <time>2025-03-19T18:57:23.661Z</time>
      </trkpt>
      <trkpt lat="48.58934" lon="2.0074">
        <ele>96.4</ele>
        <time>2025-03-19T18:57:26.769Z</time>
      </trkpt>
      <trkpt lat="48.58934" lon="2.00733">
        <ele>96.4</ele>
        <time>2025-03-19T18:57:29.877Z</time>
      </trkpt>
      <trkpt lat="48.58934" lon="2.00726">
        <ele>96.4</ele>
        <time>2025-03-19T18:57:32.985Z</time>
      </trkpt>
      <trkpt lat="48.58934" lon="2.00719">
        <ele>96.4</ele>
        <time>2025-03-19T18:57:36.093Z</time>
      </trkpt>
      <trkpt lat="48.58934" lon="2.00712">
        <ele>96.4</ele>
        <time>2025-03-19T18:57:39.201Z</time>
      </trkpt>
      <trkpt lat="48.58934" lon="2.00705">
        <ele>96.4</ele>
        <time>2025-03-19T18:57:42.310Z</time>
      </trkpt>
      <trkpt lat="48.58934" lon="2.00698">
        <ele>96.4</ele>
        <time>2025-03-19T18:57:45.419Z</time>
      </trkpt>
      <trkpt lat="48.58934" lon="2.00691">
        <ele>96.4</ele>
        <time>2025-03-19T18:57:48.528Z</time>
      </trkpt>
      <trkpt lat="48.58934" lon="2.00685">
        <ele>96.4</ele>
        <time>2025-03-19T18:57:51.637Z</time>
      </trkpt>
      <trkpt lat="48.58934" lon="2.00678">
        <ele>96.4</ele>
        <time>2025-03-19T18:57:54.746Z</time>
      </trkpt>
      <trkpt lat="48.58934" lon="2.00671">
        <ele>96.4</ele>
        <time>2025-03-19T18:57:57.855Z</time>
      </trkpt>
      <trkpt lat="48.58934" lon="2.00664">
        <ele>96.5</ele>
        <time>2025-03-19T18:58:00.964Z</time>
      </trkpt>
      <trkpt lat="48.58934" lon="2.00657">
        <ele>96.7</ele>
        <time>2025-03-19T18:58:04.073Z</time>
      </trkpt>
      <trkpt lat="48.58934" lon="2.0065">
        <ele>97</ele>
        <time>2025-03-19T18:58:07.182Z</time>
      </trkpt>
      <trkpt lat="48.58934" lon="2.00643">
        <ele>97.2</ele>
        <time>2025-03-19T18:58:10.291Z</time>
      </trkpt>
      <trkpt lat="48.58934" lon="2.00636">
        <ele>97.4</ele>
        <time>2025-03-19T18:58:13.400Z</time>
      </trkpt>
      <trkpt lat="48.58934" lon="2.00629">
        <ele>97.4</ele>
        <time>2025-03-19T18:58:16.509Z</time>
      </trkpt>
      <trkpt lat="48.58934" lon="2.00622">
        <ele>97.4</ele>
        <time>2025-03-19T18:58:19.618Z</time>
      </trkpt>
      <trkpt lat="48.58934" lon="2.00615">
        <ele>97.4</ele>
        <time>2025-03-19T18:58:22.727Z</time>
      </trkpt>
      <trkpt lat="48.58934" lon="2.00608">
        <ele>97.4</ele>
        <time>2025-03-19T18:58:25.836Z</time>
      </trkpt>
      <trkpt lat="48.58934" lon="2.00601">
        <ele>97.4</ele>
        <time>2025-03-19T18:58:28.945Z</time>
      </trkpt>
      <trkpt lat="48.58934" lon="2.00594">
        <ele>97.4</ele>
        <time>2025-03-19T18:58:32.054Z</time>
      </trkpt>
      <trkpt lat="48.58934" lon="2.00587">
        <ele>97.4</ele>
        <time>2025-03-19T18:58:35.163Z</time>
      </trkpt>
      <trkpt lat="48.58934" lon="2.0058">
        <ele>97.4</ele>
        <time>2025-03-19T18:58:38.272Z</time>
      </trkpt>
      <trkpt lat="48.58934" lon="2.00573">
        <ele>97.4</ele>
        <time>2025-03-19T18:58:41.381Z</time>
      </trkpt>
      <trkpt lat="48.58934" lon="2.00566">
        <ele>97.4</ele>
        <time>2025-03-19T18:58:44.490Z</time>
      </trkpt>
      <trkpt lat="48.58934" lon="2.00558">
        <ele>97.4</ele>
        <time>2025-03-19T18:58:48.366Z</time>
      </trkpt>
      <trkpt lat="48.58933" lon="2.0055">
        <ele>97.5</ele>
        <time>2025-03-19T18:58:52.242Z</time>
      </trkpt>
      <trkpt lat="48.58933" lon="2.00541">
        <ele>97.7</ele>
        <time>2025-03-19T18:58:56.118Z</time>
      </trkpt>
      <trkpt lat="48.58933" lon="2.00533">
        <ele>97.9</ele>
        <time>2025-03-19T18:58:59.994Z</time>
      </trkpt>
      <trkpt lat="48.58932" lon="2.00525">
        <ele>98</ele>
        <time>2025-03-19T18:59:03.870Z</time>
      </trkpt>
      <trkpt lat="48.58932" lon="2.00517">
        <ele>98</ele>
        <time>2025-03-19T18:59:07.746Z</time>
      </trkpt>
      <trkpt lat="48.58931" lon="2.00509">
        <ele>98</ele>
        <time>2025-03-19T18:59:11.622Z</time>
      </trkpt>
      <trkpt lat="48.58931" lon="2.00501">
        <ele>98</ele>
        <time>2025-03-19T18:59:15.498Z</time>
      </trkpt>
      <trkpt lat="48.58931" lon="2.00492">
        <ele>98</ele>
        <time>2025-03-19T18:59:19.374Z</time>
      </trkpt>
      <trkpt lat="48.5893" lon="2.00484">
        <ele>98</ele>
        <time>2025-03-19T18:59:23.250Z</time>
      </trkpt>
      <trkpt lat="48.5893" lon="2.00476">
        <ele>98</ele>
        <time>2025-03-19T18:59:27.126Z</time>
      </trkpt>
      <trkpt lat="48.5893" lon="2.00468">
        <ele>98.1</ele>
        <time>2025-03-19T18:59:31.002Z</time>
      </trkpt>
      <trkpt lat="48.58929" lon="2.0046">
        <ele>98.3</ele>
        <time>2025-03-19T18:59:34.878Z</time>
      </trkpt>
      <trkpt lat="48.58929" lon="2.00451">
        <ele>98.4</ele>
        <time>2025-03-19T18:59:38.754Z</time>
      </trkpt>
      <trkpt lat="48.58928" lon="2.00443">
        <ele>98.6</ele>
        <time>2025-03-19T18:59:42.630Z</time>
      </trkpt>
      <trkpt lat="48.58928" lon="2.00435">
        <ele>98.7</ele>
        <time>2025-03-19T18:59:46.506Z</time>
      </trkpt>
      <trkpt lat="48.58928" lon="2.00427">
        <ele>98.9</ele>
        <time>2025-03-19T18:59:50.382Z</time>
      </trkpt>
      <trkpt lat="48.58927" lon="2.00419">
        <ele>99</ele>
        <time>2025-03-19T18:59:54.258Z</time>
      </trkpt>
      <trkpt lat="48.58927" lon="2.0041">
        <ele>99.2</ele>
        <time>2025-03-19T18:59:58.134Z</time>
      </trkpt>
      <trkpt lat="48.58927" lon="2.00402">
        <ele>99.5</ele>
        <time>2025-03-19T19:00:02.010Z</time>
      </trkpt>
      <trkpt lat="48.58926" lon="2.00394">
        <ele>99.8</ele>
        <time>2025-03-19T19:00:05.886Z</time>
      </trkpt>
      <trkpt lat="48.58926" lon="2.00386">
        <ele>100.1</ele>
        <time>2025-03-19T19:00:09.763Z</time>
      </trkpt>
      <trkpt lat="48.58925" lon="2.00378">
        <ele>100.4</ele>
        <time>2025-03-19T19:00:13.640Z</time>
      </trkpt>
      <trkpt lat="48.58925" lon="2.0037">
        <ele>100.7</ele>
        <time>2025-03-19T19:00:17.517Z</time>
      </trkpt>
      <trkpt lat="48.58925" lon="2.00361">
        <ele>101</ele>
        <time>2025-03-19T19:00:21.394Z</time>
      </trkpt>
      <trkpt lat="48.58924" lon="2.00353">
        <ele>101.3</ele>
        <time>2025-03-19T19:00:25.271Z</time>
      </trkpt>
      <trkpt lat="48.58924" lon="2.00345">
        <ele>101.6</ele>
        <time>2025-03-19T19:00:29.148Z</time>
      </trkpt>
      <trkpt lat="48.58924" lon="2.00337">
        <ele>101.9</ele>
        <time>2025-03-19T19:00:33.025Z</time>
      </trkpt>
      <trkpt lat="48.58923" lon="2.00329">
        <ele>102</ele>
        <time>2025-03-19T19:00:36.902Z</time>
      </trkpt>
      <trkpt lat="48.58923" lon="2.0032">
        <ele>102.1</ele>
        <time>2025-03-19T19:00:40.779Z</time>
      </trkpt>
      <trkpt lat="48.58922" lon="2.00312">
        <ele>102.2</ele>
        <time>2025-03-19T19:00:44.656Z</time>
      </trkpt>
      <trkpt lat="48.58922" lon="2.00304">
        <ele>102.2</ele>
        <time>2025-03-19T19:00:48.534Z</time>
      </trkpt>
      <trkpt lat="48.58922" lon="2.00295">
        <ele>102.6</ele>
        <time>2025-03-19T19:00:53.186Z</time>
      </trkpt>
      <trkpt lat="48.58921" lon="2.00286">
        <ele>102.9</ele>
        <time>2025-03-19T19:00:57.838Z</time>
      </trkpt>
      <trkpt lat="48.58921" lon="2.00277">
        <ele>103.2</ele>
        <time>2025-03-19T19:01:02.490Z</time>
      </trkpt>
      <trkpt lat="48.5892" lon="2.00268">
        <ele>103.5</ele>
        <time>2025-03-19T19:01:07.144Z</time>
      </trkpt>
      <trkpt lat="48.58925" lon="2.00266">
        <ele>103.7</ele>
        <time>2025-03-19T19:01:10.925Z</time>
      </trkpt>
      <trkpt lat="48.58929" lon="2.00263">
        <ele>104</ele>
        <time>2025-03-19T19:01:14.706Z</time>
      </trkpt>
      <trkpt lat="48.58934" lon="2.00261">
        <ele>104.2</ele>
        <time>2025-03-19T19:01:18.487Z</time>
      </trkpt>
      <trkpt lat="48.58939" lon="2.00258">
        <ele>104.5</ele>
        <time>2025-03-19T19:01:22.268Z</time>
      </trkpt>
      <trkpt lat="48.58943" lon="2.00256">
        <ele>104.8</ele>
        <time>2025-03-19T19:01:26.049Z</time>
      </trkpt>
      <trkpt lat="48.58948" lon="2.00253">
        <ele>105</ele>
        <time>2025-03-19T19:01:29.830Z</time>
      </trkpt>
      <trkpt lat="48.58952" lon="2.00251">
        <ele>105.3</ele>
        <time>2025-03-19T19:01:33.612Z</time>
      </trkpt>
      <trkpt lat="48.58957" lon="2.00248">
        <ele>105.5</ele>
        <time>2025-03-19T19:01:37.394Z</time>
      </trkpt>
      <trkpt lat="48.58962" lon="2.00244">
        <ele>105.6</ele>
        <time>2025-03-19T19:01:41.219Z</time>
      </trkpt>
      <trkpt lat="48.58967" lon="2.0024">
        <ele>105.8</ele>
        <time>2025-03-19T19:01:45.045Z</time>
      </trkpt>
      <trkpt lat="48.58971" lon="2.00236">
        <ele>106</ele>
        <time>2025-03-19T19:01:48.871Z</time>
      </trkpt>
      <trkpt lat="48.58976" lon="2.00232">
        <ele>106</ele>
        <time>2025-03-19T19:01:52.697Z</time>
      </trkpt>
      <trkpt lat="48.5898" lon="2.00226">
        <ele>106</ele>
        <time>2025-03-19T19:01:56.694Z</time>
      </trkpt>
      <trkpt lat="48.58985" lon="2.00221">
        <ele>106.1</ele>
        <time>2025-03-19T19:02:00.691Z</time>
      </trkpt>
      <trkpt lat="48.58989" lon="2.00215">
        <ele>106.3</ele>
        <time>2025-03-19T19:02:04.689Z</time>
      </trkpt>
      <trkpt lat="48.58994" lon="2.0021">
        <ele>106.5</ele>
        <time>2025-03-19T19:02:08.687Z</time>
      </trkpt>
      <trkpt lat="48.58998" lon="2.00204">
        <ele>106.7</ele>
        <time>2025-03-19T19:02:12.685Z</time>
      </trkpt>
      <trkpt lat="48.59002" lon="2.00198">
        <ele>106.8</ele>
        <time>2025-03-19T19:02:16.683Z</time>
      </trkpt>
      <trkpt lat="48.59007" lon="2.00193">
        <ele>106.8</ele>
        <time>2025-03-19T19:02:20.681Z</time>
      </trkpt>
      <trkpt lat="48.59011" lon="2.00187">
        <ele>106.9</ele>
        <time>2025-03-19T19:02:24.679Z</time>
      </trkpt>
      <trkpt lat="48.59015" lon="2.00181">
        <ele>107</ele>
        <time>2025-03-19T19:02:28.733Z</time>
      </trkpt>
      <trkpt lat="48.59019" lon="2.00174">
        <ele>107.1</ele>
        <time>2025-03-19T19:02:32.788Z</time>
        <extensions>
          <visugpx:TrkExtension xmlns:visugpx="https://www.visugpx.com/editgpx/">
            <visugpx:node>11</visugpx:node>
            </visugpx:TrkExtension>
        </extensions>
      </trkpt>
      <trkpt lat="48.59019" lon="2.00174">
        <ele>107.1</ele>
        <time>2025-03-19T19:02:32.788Z</time>
      </trkpt>
      <trkpt lat="48.59023" lon="2.00168">
        <ele>107.1</ele>
        <time>2025-03-19T19:02:36.550Z</time>
      </trkpt>
      <trkpt lat="48.59028" lon="2.00161">
        <ele>107.2</ele>
        <time>2025-03-19T19:02:40.312Z</time>
      </trkpt>
      <trkpt lat="48.59032" lon="2.00154">
        <ele>107.1</ele>
        <time>2025-03-19T19:02:44.074Z</time>
      </trkpt>
      <trkpt lat="48.59037" lon="2.00148">
        <ele>107</ele>
        <time>2025-03-19T19:02:47.836Z</time>
      </trkpt>
      <trkpt lat="48.59041" lon="2.00141">
        <ele>106.9</ele>
        <time>2025-03-19T19:02:51.598Z</time>
      </trkpt>
      <trkpt lat="48.59046" lon="2.00135">
        <ele>106.9</ele>
        <time>2025-03-19T19:02:55.360Z</time>
      </trkpt>
      <trkpt lat="48.5905" lon="2.00128">
        <ele>106.8</ele>
        <time>2025-03-19T19:02:59.122Z</time>
      </trkpt>
      <trkpt lat="48.59055" lon="2.00122">
        <ele>106.7</ele>
        <time>2025-03-19T19:03:02.884Z</time>
      </trkpt>
      <trkpt lat="48.59059" lon="2.00115">
        <ele>106.6</ele>
        <time>2025-03-19T19:03:06.647Z</time>
      </trkpt>
      <trkpt lat="48.59063" lon="2.00109">
        <ele>106.6</ele>
        <time>2025-03-19T19:03:10.410Z</time>
      </trkpt>
      <trkpt lat="48.59068" lon="2.00102">
        <ele>106.6</ele>
        <time>2025-03-19T19:03:14.173Z</time>
      </trkpt>
      <trkpt lat="48.59072" lon="2.00096">
        <ele>106.6</ele>
        <time>2025-03-19T19:03:17.936Z</time>
      </trkpt>
      <trkpt lat="48.59077" lon="2.00089">
        <ele>106.5</ele>
        <time>2025-03-19T19:03:21.699Z</time>
      </trkpt>
      <trkpt lat="48.59081" lon="2.00083">
        <ele>106.3</ele>
        <time>2025-03-19T19:03:25.462Z</time>
      </trkpt>
      <trkpt lat="48.59086" lon="2.00076">
        <ele>106</ele>
        <time>2025-03-19T19:03:29.225Z</time>
      </trkpt>
      <trkpt lat="48.5909" lon="2.0007">
        <ele>105.8</ele>
        <time>2025-03-19T19:03:32.988Z</time>
      </trkpt>
      <trkpt lat="48.59094" lon="2.00063">
        <ele>105.5</ele>
        <time>2025-03-19T19:03:36.751Z</time>
      </trkpt>
      <trkpt lat="48.59099" lon="2.00056">
        <ele>105.3</ele>
        <time>2025-03-19T19:03:40.514Z</time>
      </trkpt>
      <trkpt lat="48.59103" lon="2.0005">
        <ele>104.8</ele>
        <time>2025-03-19T19:03:44.277Z</time>
      </trkpt>
      <trkpt lat="48.59108" lon="2.00043">
        <ele>104.4</ele>
        <time>2025-03-19T19:03:48.040Z</time>
      </trkpt>
      <trkpt lat="48.59112" lon="2.00037">
        <ele>103.9</ele>
        <time>2025-03-19T19:03:51.803Z</time>
      </trkpt>
      <trkpt lat="48.59117" lon="2.0003">
        <ele>103.8</ele>
        <time>2025-03-19T19:03:55.566Z</time>
      </trkpt>
      <trkpt lat="48.59121" lon="2.00024">
        <ele>103.7</ele>
        <time>2025-03-19T19:03:59.329Z</time>
      </trkpt>
      <trkpt lat="48.59126" lon="2.00017">
        <ele>103.7</ele>
        <time>2025-03-19T19:04:03.092Z</time>
      </trkpt>
      <trkpt lat="48.5913" lon="2.00011">
        <ele>103.5</ele>
        <time>2025-03-19T19:04:06.855Z</time>
      </trkpt>
      <trkpt lat="48.59134" lon="2.00004">
        <ele>103.3</ele>
        <time>2025-03-19T19:04:10.618Z</time>
      </trkpt>
      <trkpt lat="48.59139" lon="1.99998">
        <ele>103</ele>
        <time>2025-03-19T19:04:14.381Z</time>
      </trkpt>
      <trkpt lat="48.59143" lon="1.99991">
        <ele>102.8</ele>
        <time>2025-03-19T19:04:18.144Z</time>
      </trkpt>
      <trkpt lat="48.59148" lon="1.99985">
        <ele>102.7</ele>
        <time>2025-03-19T19:04:21.907Z</time>
      </trkpt>
      <trkpt lat="48.59152" lon="1.99978">
        <ele>102.5</ele>
        <time>2025-03-19T19:04:25.670Z</time>
      </trkpt>
      <trkpt lat="48.59157" lon="1.99972">
        <ele>102.4</ele>
        <time>2025-03-19T19:04:29.433Z</time>
      </trkpt>
      <trkpt lat="48.59161" lon="1.99965">
        <ele>102.2</ele>
        <time>2025-03-19T19:04:33.196Z</time>
      </trkpt>
      <trkpt lat="48.59165" lon="1.99959">
        <ele>102</ele>
        <time>2025-03-19T19:04:36.942Z</time>
      </trkpt>
      <trkpt lat="48.5917" lon="1.99954">
        <ele>102</ele>
        <time>2025-03-19T19:04:40.688Z</time>
      </trkpt>
      <trkpt lat="48.59174" lon="1.99948">
        <ele>102</ele>
        <time>2025-03-19T19:04:44.434Z</time>
      </trkpt>
      <trkpt lat="48.59179" lon="1.99942">
        <ele>102</ele>
        <time>2025-03-19T19:04:48.180Z</time>
      </trkpt>
      <trkpt lat="48.59183" lon="1.99936">
        <ele>102</ele>
        <time>2025-03-19T19:04:51.926Z</time>
      </trkpt>
      <trkpt lat="48.59187" lon="1.99931">
        <ele>102</ele>
        <time>2025-03-19T19:04:55.673Z</time>
      </trkpt>
      <trkpt lat="48.59192" lon="1.99925">
        <ele>102</ele>
        <time>2025-03-19T19:04:59.420Z</time>
      </trkpt>
      <trkpt lat="48.59196" lon="1.99919">
        <ele>102</ele>
        <time>2025-03-19T19:05:03.167Z</time>
      </trkpt>
      <trkpt lat="48.59202" lon="1.99909">
        <ele>102.1</ele>
        <time>2025-03-19T19:05:09.306Z</time>
      </trkpt>
      <trkpt lat="48.59207" lon="1.99899">
        <ele>102.3</ele>
        <time>2025-03-19T19:05:15.445Z</time>
      </trkpt>
      <trkpt lat="48.59213" lon="1.99889">
        <ele>102.7</ele>
        <time>2025-03-19T19:05:21.584Z</time>
      </trkpt>
      <trkpt lat="48.59219" lon="1.9988">
        <ele>102.9</ele>
        <time>2025-03-19T19:05:27.723Z</time>
      </trkpt>
      <trkpt lat="48.59224" lon="1.9987">
        <ele>103</ele>
        <time>2025-03-19T19:05:33.862Z</time>
      </trkpt>
      <trkpt lat="48.5923" lon="1.9986">
        <ele>103</ele>
        <time>2025-03-19T19:05:40.001Z</time>
      </trkpt>
      <trkpt lat="48.59235" lon="1.9985">
        <ele>103.4</ele>
        <time>2025-03-19T19:05:46.140Z</time>
      </trkpt>
      <trkpt lat="48.59241" lon="1.9984">
        <ele>103.8</ele>
        <time>2025-03-19T19:05:52.279Z</time>
      </trkpt>
      <trkpt lat="48.59247" lon="1.9983">
        <ele>104</ele>
        <time>2025-03-19T19:05:58.418Z</time>
      </trkpt>
      <trkpt lat="48.59252" lon="1.9982">
        <ele>104</ele>
        <time>2025-03-19T19:06:04.557Z</time>
      </trkpt>
      <trkpt lat="48.59258" lon="1.9981">
        <ele>104.2</ele>
        <time>2025-03-19T19:06:10.697Z</time>
      </trkpt>
      <trkpt lat="48.59264" lon="1.99801">
        <ele>104.6</ele>
        <time>2025-03-19T19:06:16.837Z</time>
      </trkpt>
      <trkpt lat="48.59269" lon="1.99791">
        <ele>104.9</ele>
        <time>2025-03-19T19:06:22.977Z</time>
      </trkpt>
      <trkpt lat="48.59275" lon="1.99781">
        <ele>105</ele>
        <time>2025-03-19T19:06:29.117Z</time>
      </trkpt>
      <trkpt lat="48.5928" lon="1.99771">
        <ele>105.3</ele>
        <time>2025-03-19T19:06:35.257Z</time>
      </trkpt>
      <trkpt lat="48.59286" lon="1.99761">
        <ele>105.7</ele>
        <time>2025-03-19T19:06:41.397Z</time>
        <extensions>
          <visugpx:TrkExtension xmlns:visugpx="https://www.visugpx.com/editgpx/">
            <visugpx:node>12</visugpx:node>
            </visugpx:TrkExtension>
        </extensions>
      </trkpt>
      <trkpt lat="48.5929" lon="1.99754">
        <ele>105.9</ele>
        <time>2025-03-19T19:06:45.837Z</time>
      </trkpt>
      <trkpt lat="48.59294" lon="1.99747">
        <ele>106.1</ele>
        <time>2025-03-19T19:06:50.277Z</time>
      </trkpt>
      <trkpt lat="48.593" lon="1.99753">
        <ele>106</ele>
        <time>2025-03-19T19:06:54.601Z</time>
      </trkpt>
      <trkpt lat="48.59305" lon="1.99759">
        <ele>106</ele>
        <time>2025-03-19T19:06:58.925Z</time>
      </trkpt>
      <trkpt lat="48.59311" lon="1.99766">
        <ele>106</ele>
        <time>2025-03-19T19:07:03.249Z</time>
      </trkpt>
      <trkpt lat="48.59316" lon="1.99772">
        <ele>106</ele>
        <time>2025-03-19T19:07:07.573Z</time>
      </trkpt>
      <trkpt lat="48.59322" lon="1.99778">
        <ele>106</ele>
        <time>2025-03-19T19:07:11.897Z</time>
      </trkpt>
      <trkpt lat="48.59327" lon="1.99784">
        <ele>105.8</ele>
        <time>2025-03-19T19:07:16.222Z</time>
      </trkpt>
      <trkpt lat="48.59333" lon="1.9979">
        <ele>105.6</ele>
        <time>2025-03-19T19:07:20.547Z</time>
      </trkpt>
      <trkpt lat="48.59339" lon="1.99796">
        <ele>105.5</ele>
        <time>2025-03-19T19:07:24.872Z</time>
      </trkpt>
      <trkpt lat="48.59344" lon="1.99802">
        <ele>105.5</ele>
        <time>2025-03-19T19:07:29.197Z</time>
      </trkpt>
      <trkpt lat="48.5935" lon="1.99809">
        <ele>105.5</ele>
        <time>2025-03-19T19:07:33.522Z</time>
      </trkpt>
      <trkpt lat="48.59355" lon="1.99815">
        <ele>105.5</ele>
        <time>2025-03-19T19:07:37.847Z</time>
      </trkpt>
      <trkpt lat="48.59361" lon="1.99821">
        <ele>105.4</ele>
        <time>2025-03-19T19:07:42.172Z</time>
      </trkpt>
      <trkpt lat="48.59366" lon="1.99827">
        <ele>105.2</ele>
        <time>2025-03-19T19:07:46.497Z</time>
      </trkpt>
      <trkpt lat="48.59372" lon="1.99833">
        <ele>105</ele>
        <time>2025-03-19T19:07:50.822Z</time>
      </trkpt>
      <trkpt lat="48.59377" lon="1.99839">
        <ele>105.1</ele>
        <time>2025-03-19T19:07:55.147Z</time>
      </trkpt>
      <trkpt lat="48.59383" lon="1.99846">
        <ele>105.1</ele>
        <time>2025-03-19T19:07:59.472Z</time>
      </trkpt>
      <trkpt lat="48.59389" lon="1.99852">
        <ele>105</ele>
        <time>2025-03-19T19:08:03.797Z</time>
      </trkpt>
      <trkpt lat="48.59394" lon="1.99858">
        <ele>105</ele>
        <time>2025-03-19T19:08:08.122Z</time>
      </trkpt>
      <trkpt lat="48.594" lon="1.99864">
        <ele>105</ele>
        <time>2025-03-19T19:08:12.447Z</time>
      </trkpt>
      <trkpt lat="48.59405" lon="1.9987">
        <ele>105</ele>
        <time>2025-03-19T19:08:16.772Z</time>
      </trkpt>
      <trkpt lat="48.59411" lon="1.99876">
        <ele>105</ele>
        <time>2025-03-19T19:08:21.097Z</time>
      </trkpt>
      <trkpt lat="48.59416" lon="1.99882">
        <ele>105</ele>
        <time>2025-03-19T19:08:25.422Z</time>
      </trkpt>
      <trkpt lat="48.59422" lon="1.99889">
        <ele>104.8</ele>
        <time>2025-03-19T19:08:29.747Z</time>
      </trkpt>
      <trkpt lat="48.59428" lon="1.99895">
        <ele>104.6</ele>
        <time>2025-03-19T19:08:34.072Z</time>
      </trkpt>
      <trkpt lat="48.59433" lon="1.99901">
        <ele>104.4</ele>
        <time>2025-03-19T19:08:38.397Z</time>
      </trkpt>
      <trkpt lat="48.59439" lon="1.99907">
        <ele>104.2</ele>
        <time>2025-03-19T19:08:42.722Z</time>
      </trkpt>
      <trkpt lat="48.59444" lon="1.99913">
        <ele>104</ele>
        <time>2025-03-19T19:08:47.047Z</time>
      </trkpt>
      <trkpt lat="48.5945" lon="1.99919">
        <ele>103.6</ele>
        <time>2025-03-19T19:08:51.372Z</time>
      </trkpt>
      <trkpt lat="48.59455" lon="1.99926">
        <ele>103.3</ele>
        <time>2025-03-19T19:08:55.697Z</time>
      </trkpt>
      <trkpt lat="48.59461" lon="1.99932">
        <ele>103.1</ele>
        <time>2025-03-19T19:09:00.022Z</time>
      </trkpt>
      <trkpt lat="48.59466" lon="1.99938">
        <ele>103</ele>
        <time>2025-03-19T19:09:04.347Z</time>
      </trkpt>
      <trkpt lat="48.59472" lon="1.99944">
        <ele>103</ele>
        <time>2025-03-19T19:09:08.672Z</time>
      </trkpt>
      <trkpt lat="48.59475" lon="1.99936">
        <ele>102.6</ele>
        <time>2025-03-19T19:09:12.107Z</time>
      </trkpt>
      <trkpt lat="48.59477" lon="1.99928">
        <ele>102.2</ele>
        <time>2025-03-19T19:09:15.542Z</time>
      </trkpt>
      <trkpt lat="48.5948" lon="1.9992">
        <ele>101.8</ele>
        <time>2025-03-19T19:09:18.977Z</time>
      </trkpt>
      <trkpt lat="48.59482" lon="1.99912">
        <ele>101.6</ele>
        <time>2025-03-19T19:09:22.412Z</time>
      </trkpt>
      <trkpt lat="48.59485" lon="1.99904">
        <ele>101.6</ele>
        <time>2025-03-19T19:09:25.848Z</time>
      </trkpt>
      <trkpt lat="48.59487" lon="1.99896">
        <ele>101.5</ele>
        <time>2025-03-19T19:09:29.284Z</time>
      </trkpt>
      <trkpt lat="48.5949" lon="1.99888">
        <ele>101.4</ele>
        <time>2025-03-19T19:09:32.720Z</time>
      </trkpt>
      <trkpt lat="48.59492" lon="1.9988">
        <ele>101.3</ele>
        <time>2025-03-19T19:09:36.156Z</time>
      </trkpt>
      <trkpt lat="48.59497" lon="1.99873">
        <ele>101.1</ele>
        <time>2025-03-19T19:09:41.092Z</time>
      </trkpt>
      <trkpt lat="48.59502" lon="1.99865">
        <ele>101</ele>
        <time>2025-03-19T19:09:46.028Z</time>
      </trkpt>
      <trkpt lat="48.59507" lon="1.99858">
        <ele>101.1</ele>
        <time>2025-03-19T19:09:50.964Z</time>
      </trkpt>
      <trkpt lat="48.59513" lon="1.99851">
        <ele>101.4</ele>
        <time>2025-03-19T19:09:55.900Z</time>
      </trkpt>
      <trkpt lat="48.59518" lon="1.99843">
        <ele>101.6</ele>
        <time>2025-03-19T19:10:00.836Z</time>
      </trkpt>
      <trkpt lat="48.59523" lon="1.99836">
        <ele>101.9</ele>
        <time>2025-03-19T19:10:05.772Z</time>
      </trkpt>
      <trkpt lat="48.59528" lon="1.99828">
        <ele>102.2</ele>
        <time>2025-03-19T19:10:10.708Z</time>
      </trkpt>
      <trkpt lat="48.59533" lon="1.99821">
        <ele>102.4</ele>
        <time>2025-03-19T19:10:15.644Z</time>
      </trkpt>
      <trkpt lat="48.59538" lon="1.99814">
        <ele>102.7</ele>
        <time>2025-03-19T19:10:20.580Z</time>
      </trkpt>
      <trkpt lat="48.59543" lon="1.99806">
        <ele>103</ele>
        <time>2025-03-19T19:10:25.516Z</time>
      </trkpt>
      <trkpt lat="48.59548" lon="1.99799">
        <ele>103</ele>
        <time>2025-03-19T19:10:30.452Z</time>
      </trkpt>
      <trkpt lat="48.59554" lon="1.99792">
        <ele>103</ele>
        <time>2025-03-19T19:10:35.388Z</time>
      </trkpt>
      <trkpt lat="48.59559" lon="1.99784">
        <ele>103</ele>
        <time>2025-03-19T19:10:40.325Z</time>
      </trkpt>
      <trkpt lat="48.59564" lon="1.99777">
        <ele>103</ele>
        <time>2025-03-19T19:10:45.262Z</time>
      </trkpt>
      <trkpt lat="48.59569" lon="1.99769">
        <ele>103.3</ele>
        <time>2025-03-19T19:10:50.199Z</time>
      </trkpt>
      <trkpt lat="48.59574" lon="1.99762">
        <ele>103.6</ele>
        <time>2025-03-19T19:10:55.136Z</time>
      </trkpt>
      <trkpt lat="48.59579" lon="1.99767">
        <ele>103.4</ele>
        <time>2025-03-19T19:10:58.716Z</time>
      </trkpt>
      <trkpt lat="48.59584" lon="1.99772">
        <ele>103.2</ele>
        <time>2025-03-19T19:11:02.296Z</time>
      </trkpt>
      <trkpt lat="48.59589" lon="1.99776">
        <ele>103.1</ele>
        <time>2025-03-19T19:11:05.877Z</time>
      </trkpt>
      <trkpt lat="48.59594" lon="1.99781">
        <ele>103</ele>
        <time>2025-03-19T19:11:09.458Z</time>
      </trkpt>
      <trkpt lat="48.59594" lon="1.99781">
        <ele>103</ele>
        <time>2025-03-19T19:11:09.458Z</time>
        <extensions>
          <visugpx:TrkExtension xmlns:visugpx="https://www.visugpx.com/editgpx/">
            <visugpx:node>13</visugpx:node>
            </visugpx:TrkExtension>
        </extensions>
      </trkpt>
      <trkpt lat="48.59595" lon="1.99782">
        <ele>102.9</ele>
        <time>2025-03-19T19:11:10.145Z</time>
      </trkpt>
      <trkpt lat="48.596" lon="1.9979">
        <ele>102.7</ele>
        <time>2025-03-19T19:11:14.377Z</time>
      </trkpt>
      <trkpt lat="48.59605" lon="1.99797">
        <ele>102.5</ele>
        <time>2025-03-19T19:11:18.610Z</time>
      </trkpt>
      <trkpt lat="48.59609" lon="1.99802">
        <ele>102.2</ele>
        <time>2025-03-19T19:11:21.636Z</time>
      </trkpt>
      <trkpt lat="48.59613" lon="1.99806">
        <ele>102</ele>
        <time>2025-03-19T19:11:24.662Z</time>
      </trkpt>
      <trkpt lat="48.59617" lon="1.99811">
        <ele>102</ele>
        <time>2025-03-19T19:11:27.688Z</time>
      </trkpt>
      <trkpt lat="48.59621" lon="1.99815">
        <ele>102</ele>
        <time>2025-03-19T19:11:30.714Z</time>
      </trkpt>
      <trkpt lat="48.59625" lon="1.99819">
        <ele>102</ele>
        <time>2025-03-19T19:11:33.883Z</time>
      </trkpt>
      <trkpt lat="48.5963" lon="1.99822">
        <ele>102</ele>
        <time>2025-03-19T19:11:37.052Z</time>
      </trkpt>
      <trkpt lat="48.59634" lon="1.99826">
        <ele>102</ele>
        <time>2025-03-19T19:11:40.221Z</time>
      </trkpt>
      <trkpt lat="48.59638" lon="1.99829">
        <ele>102</ele>
        <time>2025-03-19T19:11:43.391Z</time>
      </trkpt>
      <trkpt lat="48.59643" lon="1.99835">
        <ele>101.9</ele>
        <time>2025-03-19T19:11:47.033Z</time>
      </trkpt>
      <trkpt lat="48.59647" lon="1.99841">
        <ele>101.7</ele>
        <time>2025-03-19T19:11:50.676Z</time>
      </trkpt>
      <trkpt lat="48.59653" lon="1.99842">
        <ele>101.7</ele>
        <time>2025-03-19T19:11:54.303Z</time>
      </trkpt>
      <trkpt lat="48.59658" lon="1.99843">
        <ele>101.7</ele>
        <time>2025-03-19T19:11:57.931Z</time>
      </trkpt>
      <trkpt lat="48.59662" lon="1.9984">
        <ele>101.8</ele>
        <time>2025-03-19T19:12:01.169Z</time>
      </trkpt>
      <trkpt lat="48.59666" lon="1.99836">
        <ele>101.9</ele>
        <time>2025-03-19T19:12:04.407Z</time>
      </trkpt>
      <trkpt lat="48.59671" lon="1.99843">
        <ele>101.7</ele>
        <time>2025-03-19T19:12:08.403Z</time>
      </trkpt>
      <trkpt lat="48.59676" lon="1.9985">
        <ele>101.4</ele>
        <time>2025-03-19T19:12:12.399Z</time>
      </trkpt>
      <trkpt lat="48.59681" lon="1.99857">
        <ele>101.2</ele>
        <time>2025-03-19T19:12:16.606Z</time>
      </trkpt>
      <trkpt lat="48.59686" lon="1.99863">
        <ele>100.9</ele>
        <time>2025-03-19T19:12:20.813Z</time>
      </trkpt>
      <trkpt lat="48.59691" lon="1.9987">
        <ele>100.7</ele>
        <time>2025-03-19T19:12:25.020Z</time>
      </trkpt>
      <trkpt lat="48.59696" lon="1.99876">
        <ele>100.5</ele>
        <time>2025-03-19T19:12:29.227Z</time>
      </trkpt>
      <trkpt lat="48.59701" lon="1.99883">
        <ele>100.5</ele>
        <time>2025-03-19T19:12:33.434Z</time>
      </trkpt>
      <trkpt lat="48.59706" lon="1.99889">
        <ele>100.4</ele>
        <time>2025-03-19T19:12:37.641Z</time>
      </trkpt>
      <trkpt lat="48.59711" lon="1.99896">
        <ele>100.5</ele>
        <time>2025-03-19T19:12:41.848Z</time>
      </trkpt>
      <trkpt lat="48.59717" lon="1.99903">
        <ele>100.4</ele>
        <time>2025-03-19T19:12:46.055Z</time>
      </trkpt>
      <trkpt lat="48.59722" lon="1.99909">
        <ele>100.3</ele>
        <time>2025-03-19T19:12:50.262Z</time>
      </trkpt>
      <trkpt lat="48.59727" lon="1.99916">
        <ele>100.2</ele>
        <time>2025-03-19T19:12:54.469Z</time>
      </trkpt>
      <trkpt lat="48.59732" lon="1.99922">
        <ele>100.1</ele>
        <time>2025-03-19T19:12:58.676Z</time>
      </trkpt>
      <trkpt lat="48.59737" lon="1.99929">
        <ele>100.1</ele>
        <time>2025-03-19T19:13:02.883Z</time>
      </trkpt>
      <trkpt lat="48.59742" lon="1.99935">
        <ele>100</ele>
        <time>2025-03-19T19:13:07.091Z</time>
      </trkpt>
      <trkpt lat="48.59747" lon="1.99942">
        <ele>100</ele>
        <time>2025-03-19T19:13:11.299Z</time>
      </trkpt>
      <trkpt lat="48.59752" lon="1.99948">
        <ele>100</ele>
        <time>2025-03-19T19:13:15.507Z</time>
      </trkpt>
      <trkpt lat="48.59757" lon="1.99955">
        <ele>100.1</ele>
        <time>2025-03-19T19:13:19.715Z</time>
      </trkpt>
      <trkpt lat="48.59762" lon="1.99961">
        <ele>100.2</ele>
        <time>2025-03-19T19:13:23.236Z</time>
      </trkpt>
      <trkpt lat="48.59766" lon="1.99967">
        <ele>100.4</ele>
        <time>2025-03-19T19:13:26.757Z</time>
      </trkpt>
      <trkpt lat="48.59771" lon="1.99972">
        <ele>100.5</ele>
        <time>2025-03-19T19:13:30.279Z</time>
      </trkpt>
      <trkpt lat="48.59775" lon="1.99978">
        <ele>100.4</ele>
        <time>2025-03-19T19:13:33.801Z</time>
      </trkpt>
      <trkpt lat="48.5978" lon="1.99984">
        <ele>100.2</ele>
        <time>2025-03-19T19:13:37.323Z</time>
      </trkpt>
      <trkpt lat="48.59785" lon="1.9999">
        <ele>99.9</ele>
        <time>2025-03-19T19:13:40.845Z</time>
      </trkpt>
      <trkpt lat="48.59789" lon="1.99996">
        <ele>99.7</ele>
        <time>2025-03-19T19:13:44.367Z</time>
      </trkpt>
      <trkpt lat="48.59794" lon="2.00001">
        <ele>99.5</ele>
        <time>2025-03-19T19:13:47.889Z</time>
      </trkpt>
      <trkpt lat="48.59798" lon="2.00007">
        <ele>99.5</ele>
        <time>2025-03-19T19:13:51.411Z</time>
      </trkpt>
      <trkpt lat="48.59803" lon="2.00013">
        <ele>99.4</ele>
        <time>2025-03-19T19:13:54.933Z</time>
      </trkpt>
      <trkpt lat="48.59808" lon="2.00019">
        <ele>99.3</ele>
        <time>2025-03-19T19:13:58.455Z</time>
      </trkpt>
      <trkpt lat="48.59812" lon="2.00024">
        <ele>99.1</ele>
        <time>2025-03-19T19:14:01.977Z</time>
      </trkpt>
      <trkpt lat="48.59817" lon="2.0003">
        <ele>98.8</ele>
        <time>2025-03-19T19:14:05.499Z</time>
      </trkpt>
      <trkpt lat="48.59821" lon="2.00036">
        <ele>98.4</ele>
        <time>2025-03-19T19:14:09.021Z</time>
      </trkpt>
      <trkpt lat="48.59826" lon="2.00042">
        <ele>98</ele>
        <time>2025-03-19T19:14:12.543Z</time>
      </trkpt>
      <trkpt lat="48.59831" lon="2.00048">
        <ele>97.6</ele>
        <time>2025-03-19T19:14:16.065Z</time>
      </trkpt>
      <trkpt lat="48.59835" lon="2.00053">
        <ele>97.2</ele>
        <time>2025-03-19T19:14:19.587Z</time>
      </trkpt>
      <trkpt lat="48.5984" lon="2.00059">
        <ele>96.9</ele>
        <time>2025-03-19T19:14:23.109Z</time>
      </trkpt>
      <trkpt lat="48.59844" lon="2.00065">
        <ele>96.7</ele>
        <time>2025-03-19T19:14:26.631Z</time>
      </trkpt>
      <trkpt lat="48.59849" lon="2.00071">
        <ele>96.5</ele>
        <time>2025-03-19T19:14:30.153Z</time>
      </trkpt>
      <trkpt lat="48.59854" lon="2.00076">
        <ele>96.2</ele>
        <time>2025-03-19T19:14:33.675Z</time>
      </trkpt>
      <trkpt lat="48.59858" lon="2.00082">
        <ele>96</ele>
        <time>2025-03-19T19:14:37.197Z</time>
      </trkpt>
      <trkpt lat="48.59863" lon="2.00088">
        <ele>95.8</ele>
        <time>2025-03-19T19:14:40.719Z</time>
      </trkpt>
      <trkpt lat="48.59867" lon="2.00094">
        <ele>95.5</ele>
        <time>2025-03-19T19:14:44.241Z</time>
      </trkpt>
      <trkpt lat="48.59872" lon="2.001">
        <ele>95.3</ele>
        <time>2025-03-19T19:14:47.763Z</time>
      </trkpt>
      <trkpt lat="48.59876" lon="2.00105">
        <ele>95.1</ele>
        <time>2025-03-19T19:14:51.285Z</time>
      </trkpt>
      <trkpt lat="48.59881" lon="2.00111">
        <ele>95</ele>
        <time>2025-03-19T19:14:54.807Z</time>
      </trkpt>
      <trkpt lat="48.59886" lon="2.00117">
        <ele>94.8</ele>
        <time>2025-03-19T19:14:58.329Z</time>
      </trkpt>
      <trkpt lat="48.5989" lon="2.00123">
        <ele>94.5</ele>
        <time>2025-03-19T19:15:01.851Z</time>
      </trkpt>
      <trkpt lat="48.59895" lon="2.00128">
        <ele>94.1</ele>
        <time>2025-03-19T19:15:05.373Z</time>
      </trkpt>
      <trkpt lat="48.59899" lon="2.00134">
        <ele>93.7</ele>
        <time>2025-03-19T19:15:08.895Z</time>
      </trkpt>
      <trkpt lat="48.59904" lon="2.0014">
        <ele>93.4</ele>
        <time>2025-03-19T19:15:12.417Z</time>
      </trkpt>
      <trkpt lat="48.59907" lon="2.00143">
        <ele>93.3</ele>
        <time>2025-03-19T19:15:14.582Z</time>
      </trkpt>
      <trkpt lat="48.59913" lon="2.00149">
        <ele>93.1</ele>
        <time>2025-03-19T19:15:19.275Z</time>
      </trkpt>
      <trkpt lat="48.5992" lon="2.00155">
        <ele>93</ele>
        <time>2025-03-19T19:15:23.968Z</time>
      </trkpt>
      <trkpt lat="48.59926" lon="2.00161">
        <ele>92.9</ele>
        <time>2025-03-19T19:15:28.661Z</time>
      </trkpt>
      <trkpt lat="48.59933" lon="2.00167">
        <ele>93</ele>
        <time>2025-03-19T19:15:33.354Z</time>
      </trkpt>
      <trkpt lat="48.59939" lon="2.00172">
        <ele>93</ele>
        <time>2025-03-19T19:15:38.047Z</time>
      </trkpt>
      <trkpt lat="48.59945" lon="2.00178">
        <ele>93</ele>
        <time>2025-03-19T19:15:42.740Z</time>
      </trkpt>
      <trkpt lat="48.59952" lon="2.00184">
        <ele>92.7</ele>
        <time>2025-03-19T19:15:47.434Z</time>
      </trkpt>
      <trkpt lat="48.59958" lon="2.0019">
        <ele>92.5</ele>
        <time>2025-03-19T19:15:52.128Z</time>
      </trkpt>
      <trkpt lat="48.59965" lon="2.00196">
        <ele>92.2</ele>
        <time>2025-03-19T19:15:57.829Z</time>
      </trkpt>
      <trkpt lat="48.59973" lon="2.00203">
        <ele>92</ele>
        <time>2025-03-19T19:16:03.530Z</time>
      </trkpt>
      <trkpt lat="48.5998" lon="2.00209">
        <ele>91.9</ele>
        <time>2025-03-19T19:16:09.231Z</time>
      </trkpt>
      <trkpt lat="48.59988" lon="2.00216">
        <ele>91.9</ele>
        <time>2025-03-19T19:16:14.932Z</time>
      </trkpt>
      <trkpt lat="48.59995" lon="2.00222">
        <ele>92</ele>
        <time>2025-03-19T19:16:20.633Z</time>
      </trkpt>
      <trkpt lat="48.60003" lon="2.00229">
        <ele>91.8</ele>
        <time>2025-03-19T19:16:26.334Z</time>
      </trkpt>
      <trkpt lat="48.6001" lon="2.00235">
        <ele>91.7</ele>
        <time>2025-03-19T19:16:32.035Z</time>
      </trkpt>
      <trkpt lat="48.60018" lon="2.00242">
        <ele>91.7</ele>
        <time>2025-03-19T19:16:37.736Z</time>
      </trkpt>
      <trkpt lat="48.60025" lon="2.00248">
        <ele>91.9</ele>
        <time>2025-03-19T19:16:43.437Z</time>
      </trkpt>
      <trkpt lat="48.60032" lon="2.00254">
        <ele>92</ele>
        <time>2025-03-19T19:16:49.138Z</time>
      </trkpt>
      <trkpt lat="48.6004" lon="2.00261">
        <ele>92</ele>
        <time>2025-03-19T19:16:54.839Z</time>
      </trkpt>
      <trkpt lat="48.60047" lon="2.00267">
        <ele>92</ele>
        <time>2025-03-19T19:17:00.540Z</time>
      </trkpt>
      <trkpt lat="48.60055" lon="2.00274">
        <ele>92</ele>
        <time>2025-03-19T19:17:06.241Z</time>
      </trkpt>
      <trkpt lat="48.60062" lon="2.0028">
        <ele>92.3</ele>
        <time>2025-03-19T19:17:11.943Z</time>
      </trkpt>
      <trkpt lat="48.6007" lon="2.00287">
        <ele>92.7</ele>
        <time>2025-03-19T19:17:17.645Z</time>
      </trkpt>
      <trkpt lat="48.60077" lon="2.00293">
        <ele>93.2</ele>
        <time>2025-03-19T19:17:23.347Z</time>
      </trkpt>
      <trkpt lat="48.60085" lon="2.00299">
        <ele>93.8</ele>
        <time>2025-03-19T19:17:30.604Z</time>
      </trkpt>
      <trkpt lat="48.6009" lon="2.00304">
        <ele>93.9</ele>
        <time>2025-03-19T19:17:34.930Z</time>
      </trkpt>
      <trkpt lat="48.60096" lon="2.00309">
        <ele>94</ele>
        <time>2025-03-19T19:17:39.256Z</time>
      </trkpt>
      <trkpt lat="48.60101" lon="2.00314">
        <ele>94.1</ele>
        <time>2025-03-19T19:17:43.582Z</time>
      </trkpt>
      <trkpt lat="48.60106" lon="2.00319">
        <ele>94.3</ele>
        <time>2025-03-19T19:17:47.909Z</time>
      </trkpt>
      <trkpt lat="48.60108" lon="2.00313">
        <ele>94.2</ele>
        <time>2025-03-19T19:17:50.608Z</time>
      </trkpt>
      <trkpt lat="48.60109" lon="2.00306">
        <ele>94</ele>
        <time>2025-03-19T19:17:53.308Z</time>
      </trkpt>
      <trkpt lat="48.60112" lon="2.00295">
        <ele>93.7</ele>
        <time>2025-03-19T19:17:57.903Z</time>
      </trkpt>
      <trkpt lat="48.60121" lon="2.00295">
        <ele>94</ele>
        <time>2025-03-19T19:18:04.590Z</time>
      </trkpt>
      <trkpt lat="48.6013" lon="2.00294">
        <ele>94.3</ele>
        <time>2025-03-19T19:18:11.277Z</time>
      </trkpt>
      <trkpt lat="48.60138" lon="2.00294">
        <ele>94.6</ele>
        <time>2025-03-19T19:18:17.964Z</time>
      </trkpt>
      <trkpt lat="48.60147" lon="2.00294">
        <ele>95.1</ele>
        <time>2025-03-19T19:18:24.651Z</time>
      </trkpt>
      <trkpt lat="48.60156" lon="2.00293">
        <ele>95.8</ele>
        <time>2025-03-19T19:18:31.338Z</time>
      </trkpt>
      <trkpt lat="48.60165" lon="2.00293">
        <ele>96.4</ele>
        <time>2025-03-19T19:18:38.026Z</time>
      </trkpt>
      <trkpt lat="48.60173" lon="2.00292">
        <ele>96.8</ele>
        <time>2025-03-19T19:18:44.714Z</time>
      </trkpt>
      <trkpt lat="48.60182" lon="2.00292">
        <ele>97.1</ele>
        <time>2025-03-19T19:18:51.402Z</time>
      </trkpt>
      <trkpt lat="48.6019" lon="2.00297">
        <ele>97.5</ele>
        <time>2025-03-19T19:18:57.586Z</time>
      </trkpt>
      <trkpt lat="48.60197" lon="2.00301">
        <ele>97.9</ele>
        <time>2025-03-19T19:19:03.771Z</time>
      </trkpt>
      <trkpt lat="48.60202" lon="2.00308">
        <ele>98.4</ele>
        <time>2025-03-19T19:19:09.424Z</time>
      </trkpt>
      <trkpt lat="48.60206" lon="2.00317">
        <ele>99</ele>
        <time>2025-03-19T19:19:15.734Z</time>
      </trkpt>
      <trkpt lat="48.6021" lon="2.00326">
        <ele>99.7</ele>
        <time>2025-03-19T19:19:22.045Z</time>
      </trkpt>
      <trkpt lat="48.60217" lon="2.00333">
        <ele>100.6</ele>
        <time>2025-03-19T19:19:29.444Z</time>
      </trkpt>
      <trkpt lat="48.60224" lon="2.00339">
        <ele>101.3</ele>
        <time>2025-03-19T19:19:36.843Z</time>
        <extensions>
          <visugpx:TrkExtension xmlns:visugpx="https://www.visugpx.com/editgpx/">
            <visugpx:node>14</visugpx:node>
            </visugpx:TrkExtension>
        </extensions>
      </trkpt>
      <trkpt lat="48.60224" lon="2.00338">
        <ele>101.2</ele>
        <time>2025-03-19T19:19:37.222Z</time>
      </trkpt>
      <trkpt lat="48.60217" lon="2.00332">
        <ele>100.5</ele>
        <time>2025-03-19T19:19:41.832Z</time>
      </trkpt>
      <trkpt lat="48.6021" lon="2.00326">
        <ele>99.7</ele>
        <time>2025-03-19T19:19:46.443Z</time>
      </trkpt>
      <trkpt lat="48.60214" lon="2.00333">
        <ele>100.4</ele>
        <time>2025-03-19T19:19:51.449Z</time>
      </trkpt>
      <trkpt lat="48.60217" lon="2.0034">
        <ele>100.9</ele>
        <time>2025-03-19T19:19:56.455Z</time>
      </trkpt>
      <trkpt lat="48.60221" lon="2.00347">
        <ele>101.4</ele>
        <time>2025-03-19T19:20:01.461Z</time>
      </trkpt>
      <trkpt lat="48.60225" lon="2.00355">
        <ele>101.8</ele>
        <time>2025-03-19T19:20:06.467Z</time>
      </trkpt>
      <trkpt lat="48.60228" lon="2.00362">
        <ele>102.2</ele>
        <time>2025-03-19T19:20:11.473Z</time>
      </trkpt>
      <trkpt lat="48.60232" lon="2.00369">
        <ele>102.6</ele>
        <time>2025-03-19T19:20:16.480Z</time>
      </trkpt>
      <trkpt lat="48.60235" lon="2.00376">
        <ele>103</ele>
        <time>2025-03-19T19:20:21.487Z</time>
      </trkpt>
      <trkpt lat="48.60239" lon="2.00383">
        <ele>103.4</ele>
        <time>2025-03-19T19:20:26.494Z</time>
      </trkpt>
      <trkpt lat="48.6024" lon="2.00394">
        <ele>103.8</ele>
        <time>2025-03-19T19:20:31.842Z</time>
      </trkpt>
      <trkpt lat="48.6024" lon="2.00404">
        <ele>104.2</ele>
        <time>2025-03-19T19:20:37.190Z</time>
      </trkpt>
      <trkpt lat="48.60241" lon="2.00415">
        <ele>104.6</ele>
        <time>2025-03-19T19:20:42.538Z</time>
      </trkpt>
      <trkpt lat="48.60241" lon="2.00425">
        <ele>104.8</ele>
        <time>2025-03-19T19:20:47.887Z</time>
      </trkpt>
      <trkpt lat="48.60243" lon="2.00433">
        <ele>104.9</ele>
        <time>2025-03-19T19:20:52.109Z</time>
      </trkpt>
      <trkpt lat="48.60246" lon="2.00441">
        <ele>105</ele>
        <time>2025-03-19T19:20:56.331Z</time>
      </trkpt>
      <trkpt lat="48.60248" lon="2.00448">
        <ele>105.3</ele>
        <time>2025-03-19T19:21:00.553Z</time>
      </trkpt>
      <trkpt lat="48.6025" lon="2.00456">
        <ele>105.8</ele>
        <time>2025-03-19T19:21:04.776Z</time>
      </trkpt>
      <trkpt lat="48.60251" lon="2.00463">
        <ele>106.4</ele>
        <time>2025-03-19T19:21:08.246Z</time>
      </trkpt>
      <trkpt lat="48.60252" lon="2.0047">
        <ele>106.9</ele>
        <time>2025-03-19T19:21:11.717Z</time>
      </trkpt>
      <trkpt lat="48.60252" lon="2.00476">
        <ele>107.2</ele>
        <time>2025-03-19T19:21:15.188Z</time>
      </trkpt>
      <trkpt lat="48.60253" lon="2.00483">
        <ele>107.5</ele>
        <time>2025-03-19T19:21:18.659Z</time>
      </trkpt>
      <trkpt lat="48.60254" lon="2.0049">
        <ele>107.8</ele>
        <time>2025-03-19T19:21:22.130Z</time>
      </trkpt>
      <trkpt lat="48.60255" lon="2.00497">
        <ele>108</ele>
        <time>2025-03-19T19:21:25.601Z</time>
      </trkpt>
      <trkpt lat="48.60255" lon="2.00503">
        <ele>108.3</ele>
        <time>2025-03-19T19:21:29.072Z</time>
      </trkpt>
      <trkpt lat="48.60256" lon="2.0051">
        <ele>108.6</ele>
        <time>2025-03-19T19:21:32.543Z</time>
      </trkpt>
      <trkpt lat="48.60257" lon="2.00517">
        <ele>108.8</ele>
        <time>2025-03-19T19:21:36.014Z</time>
      </trkpt>
      <trkpt lat="48.60258" lon="2.00524">
        <ele>109.1</ele>
        <time>2025-03-19T19:21:39.485Z</time>
      </trkpt>
      <trkpt lat="48.60258" lon="2.0053">
        <ele>109.3</ele>
        <time>2025-03-19T19:21:42.956Z</time>
      </trkpt>
      <trkpt lat="48.60259" lon="2.00537">
        <ele>109.3</ele>
        <time>2025-03-19T19:21:46.427Z</time>
      </trkpt>
      <trkpt lat="48.6026" lon="2.00544">
        <ele>109.4</ele>
        <time>2025-03-19T19:21:49.898Z</time>
      </trkpt>
      <trkpt lat="48.60261" lon="2.00551">
        <ele>109.4</ele>
        <time>2025-03-19T19:21:53.369Z</time>
      </trkpt>
      <trkpt lat="48.60261" lon="2.00557">
        <ele>109.4</ele>
        <time>2025-03-19T19:21:56.840Z</time>
      </trkpt>
      <trkpt lat="48.60262" lon="2.00564">
        <ele>109.4</ele>
        <time>2025-03-19T19:22:00.311Z</time>
      </trkpt>
      <trkpt lat="48.6026" lon="2.0057">
        <ele>109.4</ele>
        <time>2025-03-19T19:22:03.221Z</time>
        <extensions>
          <visugpx:TrkExtension xmlns:visugpx="https://www.visugpx.com/editgpx/">
            <visugpx:node>15</visugpx:node>
            </visugpx:TrkExtension>
        </extensions>
      </trkpt>
      <trkpt lat="48.6026" lon="2.0057">
        <ele>109.4</ele>
        <time>2025-03-19T19:22:03.221Z</time>
      </trkpt>
      <trkpt lat="48.60257" lon="2.00578">
        <ele>109.3</ele>
        <time>2025-03-19T19:22:07.009Z</time>
      </trkpt>
      <trkpt lat="48.6026" lon="2.00586">
        <ele>109.3</ele>
        <time>2025-03-19T19:22:11.104Z</time>
      </trkpt>
      <trkpt lat="48.60264" lon="2.00594">
        <ele>109.3</ele>
        <time>2025-03-19T19:22:15.199Z</time>
      </trkpt>
      <trkpt lat="48.60267" lon="2.00601">
        <ele>109.4</ele>
        <time>2025-03-19T19:22:19.294Z</time>
      </trkpt>
      <trkpt lat="48.60271" lon="2.00609">
        <ele>109.5</ele>
        <time>2025-03-19T19:22:23.389Z</time>
      </trkpt>
      <trkpt lat="48.60274" lon="2.00617">
        <ele>109.5</ele>
        <time>2025-03-19T19:22:27.484Z</time>
      </trkpt>
      <trkpt lat="48.60277" lon="2.00625">
        <ele>109.5</ele>
        <time>2025-03-19T19:22:31.579Z</time>
      </trkpt>
      <trkpt lat="48.60281" lon="2.00632">
        <ele>109.4</ele>
        <time>2025-03-19T19:22:35.674Z</time>
      </trkpt>
      <trkpt lat="48.60284" lon="2.0064">
        <ele>109.4</ele>
        <time>2025-03-19T19:22:39.769Z</time>
      </trkpt>
      <trkpt lat="48.60287" lon="2.00648">
        <ele>109.6</ele>
        <time>2025-03-19T19:22:43.864Z</time>
      </trkpt>
      <trkpt lat="48.60291" lon="2.00656">
        <ele>109.7</ele>
        <time>2025-03-19T19:22:47.959Z</time>
      </trkpt>
      <trkpt lat="48.60294" lon="2.00663">
        <ele>109.7</ele>
        <time>2025-03-19T19:22:52.054Z</time>
      </trkpt>
      <trkpt lat="48.60298" lon="2.00671">
        <ele>109.7</ele>
        <time>2025-03-19T19:22:56.149Z</time>
      </trkpt>
      <trkpt lat="48.60301" lon="2.00679">
        <ele>109.8</ele>
        <time>2025-03-19T19:23:00.244Z</time>
      </trkpt>
      <trkpt lat="48.60304" lon="2.00687">
        <ele>110</ele>
        <time>2025-03-19T19:23:04.339Z</time>
      </trkpt>
      <trkpt lat="48.60308" lon="2.00694">
        <ele>110.1</ele>
        <time>2025-03-19T19:23:08.435Z</time>
      </trkpt>
      <trkpt lat="48.60311" lon="2.00702">
        <ele>109.9</ele>
        <time>2025-03-19T19:23:12.531Z</time>
      </trkpt>
      <trkpt lat="48.60307" lon="2.00703">
        <ele>109.7</ele>
        <time>2025-03-19T19:23:14.854Z</time>
      </trkpt>
      <trkpt lat="48.6031" lon="2.00709">
        <ele>109.6</ele>
        <time>2025-03-19T19:23:17.993Z</time>
      </trkpt>
      <trkpt lat="48.60312" lon="2.00716">
        <ele>109.5</ele>
        <time>2025-03-19T19:23:21.132Z</time>
      </trkpt>
      <trkpt lat="48.60315" lon="2.00722">
        <ele>109.4</ele>
        <time>2025-03-19T19:23:24.271Z</time>
      </trkpt>
      <trkpt lat="48.60318" lon="2.00728">
        <ele>109.2</ele>
        <time>2025-03-19T19:23:27.410Z</time>
      </trkpt>
      <trkpt lat="48.60321" lon="2.00735">
        <ele>109.1</ele>
        <time>2025-03-19T19:23:30.549Z</time>
      </trkpt>
      <trkpt lat="48.60323" lon="2.00741">
        <ele>109</ele>
        <time>2025-03-19T19:23:33.688Z</time>
      </trkpt>
      <trkpt lat="48.60326" lon="2.00747">
        <ele>108.8</ele>
        <time>2025-03-19T19:23:36.827Z</time>
      </trkpt>
      <trkpt lat="48.60329" lon="2.00754">
        <ele>108.7</ele>
        <time>2025-03-19T19:23:39.966Z</time>
      </trkpt>
      <trkpt lat="48.60332" lon="2.0076">
        <ele>108.6</ele>
        <time>2025-03-19T19:23:43.105Z</time>
      </trkpt>
      <trkpt lat="48.60334" lon="2.00766">
        <ele>108.4</ele>
        <time>2025-03-19T19:23:46.244Z</time>
      </trkpt>
      <trkpt lat="48.60337" lon="2.00773">
        <ele>108.3</ele>
        <time>2025-03-19T19:23:49.383Z</time>
      </trkpt>
      <trkpt lat="48.6034" lon="2.00779">
        <ele>108.2</ele>
        <time>2025-03-19T19:23:52.522Z</time>
      </trkpt>
      <trkpt lat="48.60342" lon="2.00786">
        <ele>108</ele>
        <time>2025-03-19T19:23:55.661Z</time>
      </trkpt>
      <trkpt lat="48.60345" lon="2.00792">
        <ele>107.9</ele>
        <time>2025-03-19T19:23:58.800Z</time>
      </trkpt>
      <trkpt lat="48.60348" lon="2.00798">
        <ele>107.8</ele>
        <time>2025-03-19T19:24:01.939Z</time>
      </trkpt>
      <trkpt lat="48.60351" lon="2.00805">
        <ele>107.7</ele>
        <time>2025-03-19T19:24:05.078Z</time>
      </trkpt>
      <trkpt lat="48.60353" lon="2.00811">
        <ele>107.7</ele>
        <time>2025-03-19T19:24:08.217Z</time>
      </trkpt>
      <trkpt lat="48.60356" lon="2.00817">
        <ele>107.7</ele>
        <time>2025-03-19T19:24:11.356Z</time>
      </trkpt>
      <trkpt lat="48.60359" lon="2.00824">
        <ele>107.9</ele>
        <time>2025-03-19T19:24:14.495Z</time>
      </trkpt>
      <trkpt lat="48.60361" lon="2.0083">
        <ele>108</ele>
        <time>2025-03-19T19:24:17.634Z</time>
      </trkpt>
      <trkpt lat="48.60364" lon="2.00836">
        <ele>107.9</ele>
        <time>2025-03-19T19:24:20.773Z</time>
      </trkpt>
      <trkpt lat="48.60367" lon="2.00843">
        <ele>107.7</ele>
        <time>2025-03-19T19:24:23.912Z</time>
      </trkpt>
      <trkpt lat="48.6037" lon="2.00849">
        <ele>107.6</ele>
        <time>2025-03-19T19:24:27.051Z</time>
      </trkpt>
      <trkpt lat="48.60372" lon="2.00855">
        <ele>107.5</ele>
        <time>2025-03-19T19:24:30.190Z</time>
      </trkpt>
      <trkpt lat="48.60375" lon="2.00862">
        <ele>107.5</ele>
        <time>2025-03-19T19:24:33.329Z</time>
      </trkpt>
      <trkpt lat="48.60378" lon="2.00868">
        <ele>107.5</ele>
        <time>2025-03-19T19:24:36.468Z</time>
      </trkpt>
      <trkpt lat="48.6038" lon="2.00874">
        <ele>107.5</ele>
        <time>2025-03-19T19:24:39.607Z</time>
      </trkpt>
      <trkpt lat="48.60383" lon="2.00881">
        <ele>107.6</ele>
        <time>2025-03-19T19:24:42.746Z</time>
      </trkpt>
      <trkpt lat="48.60386" lon="2.00887">
        <ele>107.8</ele>
        <time>2025-03-19T19:24:45.885Z</time>
      </trkpt>
      <trkpt lat="48.60389" lon="2.00893">
        <ele>107.8</ele>
        <time>2025-03-19T19:24:49.024Z</time>
      </trkpt>
      <trkpt lat="48.60391" lon="2.009">
        <ele>107.6</ele>
        <time>2025-03-19T19:24:52.164Z</time>
      </trkpt>
      <trkpt lat="48.60394" lon="2.00906">
        <ele>107.5</ele>
        <time>2025-03-19T19:24:55.304Z</time>
      </trkpt>
      <trkpt lat="48.60396" lon="2.00904">
        <ele>107.6</ele>
        <time>2025-03-19T19:24:57.095Z</time>
      </trkpt>
      <trkpt lat="48.60401" lon="2.00898">
        <ele>107.8</ele>
        <time>2025-03-19T19:25:01.708Z</time>
      </trkpt>
      <trkpt lat="48.60405" lon="2.00896">
        <ele>107.9</ele>
        <time>2025-03-19T19:25:04.679Z</time>
      </trkpt>
      <trkpt lat="48.60407" lon="2.00902">
        <ele>107.8</ele>
        <time>2025-03-19T19:25:07.396Z</time>
      </trkpt>
      <trkpt lat="48.6041" lon="2.00909">
        <ele>107.8</ele>
        <time>2025-03-19T19:25:11.111Z</time>
      </trkpt>
      <trkpt lat="48.60413" lon="2.00916">
        <ele>107.9</ele>
        <time>2025-03-19T19:25:14.826Z</time>
      </trkpt>
      <trkpt lat="48.60418" lon="2.00911">
        <ele>108</ele>
        <time>2025-03-19T19:25:18.961Z</time>
      </trkpt>
      <trkpt lat="48.60425" lon="2.00919">
        <ele>108.3</ele>
        <time>2025-03-19T19:25:24.925Z</time>
      </trkpt>
      <trkpt lat="48.60431" lon="2.00927">
        <ele>108.5</ele>
        <time>2025-03-19T19:25:30.889Z</time>
      </trkpt>
      <trkpt lat="48.60438" lon="2.00935">
        <ele>108.7</ele>
        <time>2025-03-19T19:25:36.853Z</time>
      </trkpt>
      <trkpt lat="48.60444" lon="2.00943">
        <ele>109</ele>
        <time>2025-03-19T19:25:42.817Z</time>
      </trkpt>
      <trkpt lat="48.60451" lon="2.0095">
        <ele>109.2</ele>
        <time>2025-03-19T19:25:48.781Z</time>
      </trkpt>
      <trkpt lat="48.60457" lon="2.00958">
        <ele>109.5</ele>
        <time>2025-03-19T19:25:54.745Z</time>
      </trkpt>
      <trkpt lat="48.60464" lon="2.00966">
        <ele>109.7</ele>
        <time>2025-03-19T19:26:00.709Z</time>
      </trkpt>
      <trkpt lat="48.6047" lon="2.00974">
        <ele>109.9</ele>
        <time>2025-03-19T19:26:06.673Z</time>
      </trkpt>
      <trkpt lat="48.60475" lon="2.00981">
        <ele>109.8</ele>
        <time>2025-03-19T19:26:10.821Z</time>
      </trkpt>
      <trkpt lat="48.6048" lon="2.00988">
        <ele>109.7</ele>
        <time>2025-03-19T19:26:14.969Z</time>
      </trkpt>
      <trkpt lat="48.60484" lon="2.00995">
        <ele>109.6</ele>
        <time>2025-03-19T19:26:19.117Z</time>
      </trkpt>
      <trkpt lat="48.60489" lon="2.01002">
        <ele>109.5</ele>
        <time>2025-03-19T19:26:23.266Z</time>
      </trkpt>
      <trkpt lat="48.60494" lon="2.01008">
        <ele>109.5</ele>
        <time>2025-03-19T19:26:27.095Z</time>
      </trkpt>
      <trkpt lat="48.60498" lon="2.01014">
        <ele>109.4</ele>
        <time>2025-03-19T19:26:30.925Z</time>
      </trkpt>
      <trkpt lat="48.60504" lon="2.01018">
        <ele>109.6</ele>
        <time>2025-03-19T19:26:35.229Z</time>
      </trkpt>
      <trkpt lat="48.6051" lon="2.01022">
        <ele>109.9</ele>
        <time>2025-03-19T19:26:39.533Z</time>
      </trkpt>
      <trkpt lat="48.60515" lon="2.01026">
        <ele>110.2</ele>
        <time>2025-03-19T19:26:43.837Z</time>
      </trkpt>
      <trkpt lat="48.60521" lon="2.0103">
        <ele>110.4</ele>
        <time>2025-03-19T19:26:48.141Z</time>
      </trkpt>
      <trkpt lat="48.60527" lon="2.01033">
        <ele>110.5</ele>
        <time>2025-03-19T19:26:52.445Z</time>
      </trkpt>
      <trkpt lat="48.60533" lon="2.01037">
        <ele>110.7</ele>
        <time>2025-03-19T19:26:56.749Z</time>
      </trkpt>
      <trkpt lat="48.60538" lon="2.01041">
        <ele>110.8</ele>
        <time>2025-03-19T19:27:01.053Z</time>
      </trkpt>
      <trkpt lat="48.60544" lon="2.01045">
        <ele>110.9</ele>
        <time>2025-03-19T19:27:05.357Z</time>
      </trkpt>
      <trkpt lat="48.6055" lon="2.01049">
        <ele>111.1</ele>
        <time>2025-03-19T19:27:09.661Z</time>
      </trkpt>
      <trkpt lat="48.60556" lon="2.01053">
        <ele>111.2</ele>
        <time>2025-03-19T19:27:13.965Z</time>
      </trkpt>
      <trkpt lat="48.60561" lon="2.01057">
        <ele>111.1</ele>
        <time>2025-03-19T19:27:18.269Z</time>
      </trkpt>
      <trkpt lat="48.60567" lon="2.01061">
        <ele>111.1</ele>
        <time>2025-03-19T19:27:22.574Z</time>
      </trkpt>
      <trkpt lat="48.60573" lon="2.01064">
        <ele>111</ele>
        <time>2025-03-19T19:27:26.879Z</time>
      </trkpt>
      <trkpt lat="48.60579" lon="2.01068">
        <ele>110.9</ele>
        <time>2025-03-19T19:27:31.184Z</time>
      </trkpt>
      <trkpt lat="48.60584" lon="2.01072">
        <ele>110.8</ele>
        <time>2025-03-19T19:27:35.489Z</time>
      </trkpt>
      <trkpt lat="48.6059" lon="2.01076">
        <ele>110.8</ele>
        <time>2025-03-19T19:27:39.794Z</time>
      </trkpt>
      <trkpt lat="48.60596" lon="2.0108">
        <ele>110.7</ele>
        <time>2025-03-19T19:27:43.938Z</time>
      </trkpt>
      <trkpt lat="48.60602" lon="2.01084">
        <ele>110.6</ele>
        <time>2025-03-19T19:27:48.083Z</time>
      </trkpt>
      <trkpt lat="48.60607" lon="2.01088">
        <ele>110.7</ele>
        <time>2025-03-19T19:27:52.228Z</time>
      </trkpt>
      <trkpt lat="48.60613" lon="2.01092">
        <ele>110.8</ele>
        <time>2025-03-19T19:27:56.373Z</time>
      </trkpt>
      <trkpt lat="48.60618" lon="2.01095">
        <ele>111</ele>
        <time>2025-03-19T19:27:59.855Z</time>
      </trkpt>
      <trkpt lat="48.60622" lon="2.01097">
        <ele>111.1</ele>
        <time>2025-03-19T19:28:03.338Z</time>
      </trkpt>
      <trkpt lat="48.60627" lon="2.011">
        <ele>111.2</ele>
        <time>2025-03-19T19:28:06.821Z</time>
      </trkpt>
      <trkpt lat="48.60632" lon="2.01102">
        <ele>111.3</ele>
        <time>2025-03-19T19:28:10.304Z</time>
      </trkpt>
      <trkpt lat="48.60636" lon="2.01105">
        <ele>111.4</ele>
        <time>2025-03-19T19:28:13.787Z</time>
      </trkpt>
      <trkpt lat="48.60641" lon="2.01107">
        <ele>111.4</ele>
        <time>2025-03-19T19:28:17.270Z</time>
      </trkpt>
      <trkpt lat="48.60645" lon="2.0111">
        <ele>111.6</ele>
        <time>2025-03-19T19:28:20.753Z</time>
      </trkpt>
      <trkpt lat="48.6065" lon="2.01112">
        <ele>111.8</ele>
        <time>2025-03-19T19:28:24.236Z</time>
      </trkpt>
      <trkpt lat="48.60656" lon="2.01115">
        <ele>112</ele>
        <time>2025-03-19T19:28:28.660Z</time>
      </trkpt>
      <trkpt lat="48.60662" lon="2.01118">
        <ele>112.2</ele>
        <time>2025-03-19T19:28:33.084Z</time>
      </trkpt>
      <trkpt lat="48.60668" lon="2.0112">
        <ele>112.4</ele>
        <time>2025-03-19T19:28:37.509Z</time>
      </trkpt>
      <trkpt lat="48.60674" lon="2.01123">
        <ele>112.4</ele>
        <time>2025-03-19T19:28:41.934Z</time>
      </trkpt>
      <trkpt lat="48.60683" lon="2.01125">
        <ele>112.6</ele>
        <time>2025-03-19T19:28:48.340Z</time>
      </trkpt>
      <trkpt lat="48.60692" lon="2.01128">
        <ele>112.9</ele>
        <time>2025-03-19T19:28:54.746Z</time>
      </trkpt>
      <trkpt lat="48.607" lon="2.0113">
        <ele>113.2</ele>
        <time>2025-03-19T19:29:01.152Z</time>
      </trkpt>
      <trkpt lat="48.60709" lon="2.01132">
        <ele>113.5</ele>
        <time>2025-03-19T19:29:07.558Z</time>
      </trkpt>
      <trkpt lat="48.60716" lon="2.01133">
        <ele>113.8</ele>
        <time>2025-03-19T19:29:12.308Z</time>
      </trkpt>
      <trkpt lat="48.60723" lon="2.01135">
        <ele>114</ele>
        <time>2025-03-19T19:29:17.058Z</time>
      </trkpt>
      <trkpt lat="48.60729" lon="2.01136">
        <ele>114</ele>
        <time>2025-03-19T19:29:21.808Z</time>
      </trkpt>
      <trkpt lat="48.60736" lon="2.01138">
        <ele>114</ele>
        <time>2025-03-19T19:29:26.558Z</time>
      </trkpt>
      <trkpt lat="48.60743" lon="2.01139">
        <ele>114</ele>
        <time>2025-03-19T19:29:31.308Z</time>
      </trkpt>
      <trkpt lat="48.6075" lon="2.0114">
        <ele>114</ele>
        <time>2025-03-19T19:29:36.058Z</time>
      </trkpt>
      <trkpt lat="48.60756" lon="2.01142">
        <ele>114.3</ele>
        <time>2025-03-19T19:29:40.808Z</time>
      </trkpt>
      <trkpt lat="48.60763" lon="2.01143">
        <ele>114.6</ele>
        <time>2025-03-19T19:29:45.558Z</time>
      </trkpt>
      <trkpt lat="48.60771" lon="2.01146">
        <ele>115</ele>
        <time>2025-03-19T19:29:52.699Z</time>
      </trkpt>
      <trkpt lat="48.6078" lon="2.0115">
        <ele>115.5</ele>
        <time>2025-03-19T19:29:59.841Z</time>
      </trkpt>
      <trkpt lat="48.60788" lon="2.01153">
        <ele>116.4</ele>
        <time>2025-03-19T19:30:06.983Z</time>
      </trkpt>
      <trkpt lat="48.60796" lon="2.01156">
        <ele>117.2</ele>
        <time>2025-03-19T19:30:14.125Z</time>
      </trkpt>
      <trkpt lat="48.60804" lon="2.01162">
        <ele>117.9</ele>
        <time>2025-03-19T19:30:21.430Z</time>
      </trkpt>
      <trkpt lat="48.60812" lon="2.01167">
        <ele>118.5</ele>
        <time>2025-03-19T19:30:28.735Z</time>
      </trkpt>
      <trkpt lat="48.60819" lon="2.01171">
        <ele>119.1</ele>
        <time>2025-03-19T19:30:34.676Z</time>
      </trkpt>
      <trkpt lat="48.60827" lon="2.01175">
        <ele>119.6</ele>
        <time>2025-03-19T19:30:40.617Z</time>
      </trkpt>
      <trkpt lat="48.60834" lon="2.01179">
        <ele>120</ele>
        <time>2025-03-19T19:30:46.558Z</time>
      </trkpt>
      <trkpt lat="48.60842" lon="2.01183">
        <ele>120.2</ele>
        <time>2025-03-19T19:30:52.499Z</time>
      </trkpt>
      <trkpt lat="48.60849" lon="2.01187">
        <ele>120.4</ele>
        <time>2025-03-19T19:30:58.440Z</time>
      </trkpt>
      <trkpt lat="48.60856" lon="2.01191">
        <ele>120.7</ele>
        <time>2025-03-19T19:31:04.381Z</time>
      </trkpt>
      <trkpt lat="48.60864" lon="2.01195">
        <ele>121.1</ele>
        <time>2025-03-19T19:31:10.322Z</time>
      </trkpt>
      <trkpt lat="48.60871" lon="2.01199">
        <ele>121.4</ele>
        <time>2025-03-19T19:31:16.263Z</time>
      </trkpt>
      <trkpt lat="48.60878" lon="2.01207">
        <ele>121.6</ele>
        <time>2025-03-19T19:31:22.062Z</time>
      </trkpt>
      <trkpt lat="48.60885" lon="2.01214">
        <ele>121.8</ele>
        <time>2025-03-19T19:31:27.862Z</time>
      </trkpt>
      <trkpt lat="48.60891" lon="2.01222">
        <ele>122</ele>
        <time>2025-03-19T19:31:33.662Z</time>
      </trkpt>
      <trkpt lat="48.60898" lon="2.01229">
        <ele>122</ele>
        <time>2025-03-19T19:31:39.462Z</time>
      </trkpt>
      <trkpt lat="48.60903" lon="2.01232">
        <ele>122</ele>
        <time>2025-03-19T19:31:42.640Z</time>
      </trkpt>
      <trkpt lat="48.60907" lon="2.01235">
        <ele>122</ele>
        <time>2025-03-19T19:31:45.818Z</time>
      </trkpt>
      <trkpt lat="48.60912" lon="2.01237">
        <ele>122</ele>
        <time>2025-03-19T19:31:48.996Z</time>
      </trkpt>
      <trkpt lat="48.60916" lon="2.0124">
        <ele>122</ele>
        <time>2025-03-19T19:31:52.175Z</time>
      </trkpt>
      <trkpt lat="48.60923" lon="2.01245">
        <ele>122.2</ele>
        <time>2025-03-19T19:31:56.976Z</time>
      </trkpt>
      <trkpt lat="48.60929" lon="2.0125">
        <ele>122.5</ele>
        <time>2025-03-19T19:32:01.777Z</time>
      </trkpt>
      <trkpt lat="48.60936" lon="2.01254">
        <ele>122.6</ele>
        <time>2025-03-19T19:32:06.578Z</time>
      </trkpt>
      <trkpt lat="48.60943" lon="2.01259">
        <ele>122.6</ele>
        <time>2025-03-19T19:32:11.379Z</time>
      </trkpt>
      <trkpt lat="48.60949" lon="2.01264">
        <ele>122.4</ele>
        <time>2025-03-19T19:32:16.180Z</time>
      </trkpt>
      <trkpt lat="48.60956" lon="2.01269">
        <ele>122.2</ele>
        <time>2025-03-19T19:32:20.982Z</time>
      </trkpt>
      <trkpt lat="48.60962" lon="2.01273">
        <ele>122.1</ele>
        <time>2025-03-19T19:32:25.784Z</time>
      </trkpt>
      <trkpt lat="48.60969" lon="2.01278">
        <ele>122</ele>
        <time>2025-03-19T19:32:30.586Z</time>
      </trkpt>
      <trkpt lat="48.60973" lon="2.01282">
        <ele>121.8</ele>
        <time>2025-03-19T19:32:33.333Z</time>
      </trkpt>
      <trkpt lat="48.60977" lon="2.01286">
        <ele>121.4</ele>
        <time>2025-03-19T19:32:36.081Z</time>
      </trkpt>
      <trkpt lat="48.60981" lon="2.0129">
        <ele>121.1</ele>
        <time>2025-03-19T19:32:38.829Z</time>
      </trkpt>
      <trkpt lat="48.60985" lon="2.01294">
        <ele>120.8</ele>
        <time>2025-03-19T19:32:41.577Z</time>
      </trkpt>
      <trkpt lat="48.60989" lon="2.013">
        <ele>120.5</ele>
        <time>2025-03-19T19:32:44.674Z</time>
      </trkpt>
      <trkpt lat="48.60993" lon="2.01305">
        <ele>120.3</ele>
        <time>2025-03-19T19:32:47.772Z</time>
      </trkpt>
      <trkpt lat="48.60995" lon="2.0131">
        <ele>120</ele>
        <time>2025-03-19T19:32:49.986Z</time>
      </trkpt>
      <trkpt lat="48.60999" lon="2.01315">
        <ele>119.7</ele>
        <time>2025-03-19T19:32:53.014Z</time>
      </trkpt>
      <trkpt lat="48.61004" lon="2.0132">
        <ele>119.4</ele>
        <time>2025-03-19T19:32:56.042Z</time>
      </trkpt>
      <trkpt lat="48.61008" lon="2.01324">
        <ele>119</ele>
        <time>2025-03-19T19:32:59.070Z</time>
      </trkpt>
      <trkpt lat="48.61012" lon="2.01329">
        <ele>118.7</ele>
        <time>2025-03-19T19:33:02.098Z</time>
      </trkpt>
      <trkpt lat="48.61016" lon="2.01334">
        <ele>118.4</ele>
        <time>2025-03-19T19:33:05.126Z</time>
      </trkpt>
      <trkpt lat="48.61021" lon="2.01339">
        <ele>118.2</ele>
        <time>2025-03-19T19:33:08.154Z</time>
      </trkpt>
      <trkpt lat="48.61025" lon="2.01343">
        <ele>118.1</ele>
        <time>2025-03-19T19:33:11.182Z</time>
      </trkpt>
      <trkpt lat="48.61029" lon="2.01348">
        <ele>118</ele>
        <time>2025-03-19T19:33:14.211Z</time>
      </trkpt>
      <trkpt lat="48.61034" lon="2.01353">
        <ele>118</ele>
        <time>2025-03-19T19:33:18.037Z</time>
      </trkpt>
      <trkpt lat="48.61039" lon="2.01358">
        <ele>118</ele>
        <time>2025-03-19T19:33:21.863Z</time>
      </trkpt>
      <trkpt lat="48.61044" lon="2.01363">
        <ele>117.9</ele>
        <time>2025-03-19T19:33:25.689Z</time>
      </trkpt>
      <trkpt lat="48.61049" lon="2.01368">
        <ele>117.8</ele>
        <time>2025-03-19T19:33:29.516Z</time>
      </trkpt>
      <trkpt lat="48.61053" lon="2.01371">
        <ele>117.6</ele>
        <time>2025-03-19T19:33:32.381Z</time>
      </trkpt>
      <trkpt lat="48.61057" lon="2.01375">
        <ele>117.5</ele>
        <time>2025-03-19T19:33:35.246Z</time>
      </trkpt>
      <trkpt lat="48.61061" lon="2.01378">
        <ele>117.4</ele>
        <time>2025-03-19T19:33:38.111Z</time>
      </trkpt>
      <trkpt lat="48.61065" lon="2.01382">
        <ele>117.3</ele>
        <time>2025-03-19T19:33:40.976Z</time>
      </trkpt>
      <trkpt lat="48.61069" lon="2.01385">
        <ele>117.1</ele>
        <time>2025-03-19T19:33:43.841Z</time>
      </trkpt>
      <trkpt lat="48.61073" lon="2.01388">
        <ele>117</ele>
        <time>2025-03-19T19:33:46.706Z</time>
      </trkpt>
      <trkpt lat="48.61077" lon="2.01392">
        <ele>117</ele>
        <time>2025-03-19T19:33:49.571Z</time>
      </trkpt>
      <trkpt lat="48.61081" lon="2.01395">
        <ele>117</ele>
        <time>2025-03-19T19:33:52.436Z</time>
      </trkpt>
      <trkpt lat="48.61084" lon="2.01398">
        <ele>117</ele>
        <time>2025-03-19T19:33:55.301Z</time>
      </trkpt>
      <trkpt lat="48.61088" lon="2.01402">
        <ele>117</ele>
        <time>2025-03-19T19:33:58.167Z</time>
      </trkpt>
      <trkpt lat="48.61092" lon="2.01405">
        <ele>117</ele>
        <time>2025-03-19T19:34:01.033Z</time>
      </trkpt>
      <trkpt lat="48.61096" lon="2.01409">
        <ele>117</ele>
        <time>2025-03-19T19:34:03.899Z</time>
      </trkpt>
      <trkpt lat="48.611" lon="2.01412">
        <ele>117</ele>
        <time>2025-03-19T19:34:06.765Z</time>
      </trkpt>
      <trkpt lat="48.61104" lon="2.01415">
        <ele>117</ele>
        <time>2025-03-19T19:34:09.631Z</time>
      </trkpt>
      <trkpt lat="48.61108" lon="2.01419">
        <ele>117</ele>
        <time>2025-03-19T19:34:12.497Z</time>
      </trkpt>
      <trkpt lat="48.61112" lon="2.01422">
        <ele>117</ele>
        <time>2025-03-19T19:34:15.363Z</time>
      </trkpt>
      <trkpt lat="48.61119" lon="2.01426">
        <ele>117.3</ele>
        <time>2025-03-19T19:34:20.276Z</time>
      </trkpt>
      <trkpt lat="48.61125" lon="2.0143">
        <ele>117.5</ele>
        <time>2025-03-19T19:34:25.189Z</time>
      </trkpt>
      <trkpt lat="48.61132" lon="2.01434">
        <ele>117.7</ele>
        <time>2025-03-19T19:34:30.102Z</time>
      </trkpt>
      <trkpt lat="48.61139" lon="2.01438">
        <ele>118</ele>
        <time>2025-03-19T19:34:35.015Z</time>
      </trkpt>
      <trkpt lat="48.61145" lon="2.01441">
        <ele>118</ele>
        <time>2025-03-19T19:34:39.929Z</time>
      </trkpt>
      <trkpt lat="48.61152" lon="2.01445">
        <ele>118</ele>
        <time>2025-03-19T19:34:44.843Z</time>
      </trkpt>
      <trkpt lat="48.61158" lon="2.01449">
        <ele>118</ele>
        <time>2025-03-19T19:34:49.757Z</time>
      </trkpt>
      <trkpt lat="48.61165" lon="2.01453">
        <ele>118</ele>
        <time>2025-03-19T19:34:54.671Z</time>
      </trkpt>
      <trkpt lat="48.6117" lon="2.01457">
        <ele>118.1</ele>
        <time>2025-03-19T19:34:58.652Z</time>
      </trkpt>
      <trkpt lat="48.61175" lon="2.0146">
        <ele>118.3</ele>
        <time>2025-03-19T19:35:02.633Z</time>
      </trkpt>
      <trkpt lat="48.61181" lon="2.01464">
        <ele>118.5</ele>
        <time>2025-03-19T19:35:06.614Z</time>
      </trkpt>
      <trkpt lat="48.61186" lon="2.01467">
        <ele>118.7</ele>
        <time>2025-03-19T19:35:10.595Z</time>
      </trkpt>
      <trkpt lat="48.61191" lon="2.01471">
        <ele>118.9</ele>
        <time>2025-03-19T19:35:14.576Z</time>
      </trkpt>
      <trkpt lat="48.61196" lon="2.01474">
        <ele>119.1</ele>
        <time>2025-03-19T19:35:18.557Z</time>
      </trkpt>
      <trkpt lat="48.61201" lon="2.01478">
        <ele>119.2</ele>
        <time>2025-03-19T19:35:22.538Z</time>
      </trkpt>
      <trkpt lat="48.61207" lon="2.01482">
        <ele>119.3</ele>
        <time>2025-03-19T19:35:26.519Z</time>
      </trkpt>
      <trkpt lat="48.61212" lon="2.01485">
        <ele>119.3</ele>
        <time>2025-03-19T19:35:30.501Z</time>
      </trkpt>
      <trkpt lat="48.61217" lon="2.01489">
        <ele>119.3</ele>
        <time>2025-03-19T19:35:34.483Z</time>
      </trkpt>
      <trkpt lat="48.61222" lon="2.01492">
        <ele>119.3</ele>
        <time>2025-03-19T19:35:38.465Z</time>
      </trkpt>
      <trkpt lat="48.61227" lon="2.01496">
        <ele>119.4</ele>
        <time>2025-03-19T19:35:42.447Z</time>
      </trkpt>
      <trkpt lat="48.61232" lon="2.01499">
        <ele>119.4</ele>
        <time>2025-03-19T19:35:46.429Z</time>
      </trkpt>
      <trkpt lat="48.61238" lon="2.01503">
        <ele>119.6</ele>
        <time>2025-03-19T19:35:50.411Z</time>
      </trkpt>
      <trkpt lat="48.61243" lon="2.01506">
        <ele>119.7</ele>
        <time>2025-03-19T19:35:54.393Z</time>
      </trkpt>
      <trkpt lat="48.61248" lon="2.0151">
        <ele>119.9</ele>
        <time>2025-03-19T19:35:58.375Z</time>
      </trkpt>
      <trkpt lat="48.61255" lon="2.01512">
        <ele>120.1</ele>
        <time>2025-03-19T19:36:03.171Z</time>
      </trkpt>
      <trkpt lat="48.61262" lon="2.01514">
        <ele>120.2</ele>
        <time>2025-03-19T19:36:07.967Z</time>
      </trkpt>
      <trkpt lat="48.61269" lon="2.01516">
        <ele>120.3</ele>
        <time>2025-03-19T19:36:12.763Z</time>
      </trkpt>
      <trkpt lat="48.61277" lon="2.01518">
        <ele>120.3</ele>
        <time>2025-03-19T19:36:17.559Z</time>
      </trkpt>
      <trkpt lat="48.61284" lon="2.0152">
        <ele>120.3</ele>
        <time>2025-03-19T19:36:22.355Z</time>
      </trkpt>
      <trkpt lat="48.61291" lon="2.01522">
        <ele>120.2</ele>
        <time>2025-03-19T19:36:27.152Z</time>
      </trkpt>
      <trkpt lat="48.61298" lon="2.01524">
        <ele>120.1</ele>
        <time>2025-03-19T19:36:31.949Z</time>
      </trkpt>
      <trkpt lat="48.61305" lon="2.01526">
        <ele>120.1</ele>
        <time>2025-03-19T19:36:36.746Z</time>
      </trkpt>
      <trkpt lat="48.61314" lon="2.01528">
        <ele>120</ele>
        <time>2025-03-19T19:36:42.313Z</time>
      </trkpt>
      <trkpt lat="48.61322" lon="2.0153">
        <ele>119.9</ele>
        <time>2025-03-19T19:36:47.881Z</time>
      </trkpt>
      <trkpt lat="48.61331" lon="2.01531">
        <ele>119.9</ele>
        <time>2025-03-19T19:36:53.449Z</time>
      </trkpt>
      <trkpt lat="48.61339" lon="2.01533">
        <ele>120</ele>
        <time>2025-03-19T19:36:59.017Z</time>
      </trkpt>
      <trkpt lat="48.61338" lon="2.01535">
        <ele>119.9</ele>
        <time>2025-03-19T19:36:59.967Z</time>
        <extensions>
          <visugpx:TrkExtension xmlns:visugpx="https://www.visugpx.com/editgpx/">
            <visugpx:node>16</visugpx:node>
            </visugpx:TrkExtension>
        </extensions>
      </trkpt>
      <trkpt lat="48.61338" lon="2.01535">
        <ele>119.9</ele>
        <time>2025-03-19T19:36:59.967Z</time>
      </trkpt>
      <trkpt lat="48.61339" lon="2.01533">
        <ele>120</ele>
        <time>2025-03-19T19:37:01.283Z</time>
      </trkpt>
      <trkpt lat="48.61341" lon="2.01533">
        <ele>120.1</ele>
        <time>2025-03-19T19:37:02.819Z</time>
      </trkpt>
      <trkpt lat="48.61348" lon="2.01535">
        <ele>120.3</ele>
        <time>2025-03-19T19:37:07.913Z</time>
      </trkpt>
      <trkpt lat="48.61356" lon="2.01535">
        <ele>120.6</ele>
        <time>2025-03-19T19:37:13.363Z</time>
      </trkpt>
      <trkpt lat="48.61364" lon="2.01534">
        <ele>120.9</ele>
        <time>2025-03-19T19:37:18.813Z</time>
      </trkpt>
      <trkpt lat="48.61372" lon="2.01534">
        <ele>121.2</ele>
        <time>2025-03-19T19:37:24.263Z</time>
      </trkpt>
      <trkpt lat="48.6138" lon="2.01533">
        <ele>121.5</ele>
        <time>2025-03-19T19:37:29.713Z</time>
      </trkpt>
      <trkpt lat="48.61388" lon="2.01533">
        <ele>121.8</ele>
        <time>2025-03-19T19:37:35.164Z</time>
      </trkpt>
      <trkpt lat="48.61396" lon="2.01532">
        <ele>121.6</ele>
        <time>2025-03-19T19:37:40.615Z</time>
      </trkpt>
      <trkpt lat="48.61404" lon="2.01532">
        <ele>121.3</ele>
        <time>2025-03-19T19:37:46.066Z</time>
      </trkpt>
      <trkpt lat="48.61412" lon="2.01531">
        <ele>121.1</ele>
        <time>2025-03-19T19:37:51.517Z</time>
      </trkpt>
      <trkpt lat="48.6142" lon="2.0153">
        <ele>120.9</ele>
        <time>2025-03-19T19:37:56.653Z</time>
      </trkpt>
      <trkpt lat="48.61428" lon="2.01529">
        <ele>121</ele>
        <time>2025-03-19T19:38:01.789Z</time>
      </trkpt>
      <trkpt lat="48.61435" lon="2.01528">
        <ele>121</ele>
        <time>2025-03-19T19:38:06.925Z</time>
      </trkpt>
      <trkpt lat="48.61443" lon="2.01527">
        <ele>121</ele>
        <time>2025-03-19T19:38:12.061Z</time>
      </trkpt>
      <trkpt lat="48.61451" lon="2.01525">
        <ele>121.1</ele>
        <time>2025-03-19T19:38:17.197Z</time>
      </trkpt>
      <trkpt lat="48.61459" lon="2.01524">
        <ele>121.1</ele>
        <time>2025-03-19T19:38:22.333Z</time>
      </trkpt>
      <trkpt lat="48.61466" lon="2.01523">
        <ele>121.2</ele>
        <time>2025-03-19T19:38:27.470Z</time>
      </trkpt>
      <trkpt lat="48.61474" lon="2.01522">
        <ele>121.2</ele>
        <time>2025-03-19T19:38:32.607Z</time>
      </trkpt>
      <trkpt lat="48.61482" lon="2.01521">
        <ele>121.2</ele>
        <time>2025-03-19T19:38:37.744Z</time>
      </trkpt>
      <trkpt lat="48.6149" lon="2.0152">
        <ele>121.3</ele>
        <time>2025-03-19T19:38:42.881Z</time>
      </trkpt>
      <trkpt lat="48.61497" lon="2.01519">
        <ele>121.3</ele>
        <time>2025-03-19T19:38:48.018Z</time>
      </trkpt>
      <trkpt lat="48.61505" lon="2.01518">
        <ele>121.4</ele>
        <time>2025-03-19T19:38:53.155Z</time>
      </trkpt>
      <trkpt lat="48.61513" lon="2.01516">
        <ele>121.4</ele>
        <time>2025-03-19T19:38:58.292Z</time>
      </trkpt>
      <trkpt lat="48.61521" lon="2.01515">
        <ele>121.4</ele>
        <time>2025-03-19T19:39:03.429Z</time>
      </trkpt>
      <trkpt lat="48.61528" lon="2.01514">
        <ele>121.5</ele>
        <time>2025-03-19T19:39:08.566Z</time>
      </trkpt>
      <trkpt lat="48.61536" lon="2.01513">
        <ele>121.4</ele>
        <time>2025-03-19T19:39:13.703Z</time>
      </trkpt>
      <trkpt lat="48.61541" lon="2.01513">
        <ele>121.3</ele>
        <time>2025-03-19T19:39:16.457Z</time>
      </trkpt>
      <trkpt lat="48.61545" lon="2.01513">
        <ele>121.2</ele>
        <time>2025-03-19T19:39:19.211Z</time>
      </trkpt>
      <trkpt lat="48.6155" lon="2.01513">
        <ele>121.1</ele>
        <time>2025-03-19T19:39:21.966Z</time>
      </trkpt>
      <trkpt lat="48.61554" lon="2.01513">
        <ele>121</ele>
        <time>2025-03-19T19:39:24.721Z</time>
      </trkpt>
      <trkpt lat="48.6156" lon="2.01515">
        <ele>120.9</ele>
        <time>2025-03-19T19:39:28.550Z</time>
      </trkpt>
      <trkpt lat="48.61564" lon="2.01517">
        <ele>120.8</ele>
        <time>2025-03-19T19:39:31.117Z</time>
      </trkpt>
      <trkpt lat="48.61571" lon="2.01523">
        <ele>120.6</ele>
        <time>2025-03-19T19:39:35.547Z</time>
      </trkpt>
      <trkpt lat="48.61577" lon="2.01529">
        <ele>120.2</ele>
        <time>2025-03-19T19:39:39.977Z</time>
      </trkpt>
      <trkpt lat="48.61582" lon="2.01531">
        <ele>120</ele>
        <time>2025-03-19T19:39:42.808Z</time>
      </trkpt>
      <trkpt lat="48.61587" lon="2.01533">
        <ele>119.7</ele>
        <time>2025-03-19T19:39:45.640Z</time>
      </trkpt>
      <trkpt lat="48.61591" lon="2.01534">
        <ele>119.5</ele>
        <time>2025-03-19T19:39:48.472Z</time>
      </trkpt>
      <trkpt lat="48.61596" lon="2.01536">
        <ele>119.4</ele>
        <time>2025-03-19T19:39:51.304Z</time>
      </trkpt>
      <trkpt lat="48.61601" lon="2.01536">
        <ele>119.3</ele>
        <time>2025-03-19T19:39:54.221Z</time>
      </trkpt>
      <trkpt lat="48.61606" lon="2.01536">
        <ele>119.1</ele>
        <time>2025-03-19T19:39:57.139Z</time>
      </trkpt>
      <trkpt lat="48.6161" lon="2.01536">
        <ele>119</ele>
        <time>2025-03-19T19:40:00.057Z</time>
      </trkpt>
      <trkpt lat="48.61615" lon="2.01536">
        <ele>119</ele>
        <time>2025-03-19T19:40:02.975Z</time>
      </trkpt>
      <trkpt lat="48.61621" lon="2.01534">
        <ele>118.9</ele>
        <time>2025-03-19T19:40:06.899Z</time>
      </trkpt>
      <trkpt lat="48.61627" lon="2.01532">
        <ele>118.9</ele>
        <time>2025-03-19T19:40:10.824Z</time>
      </trkpt>
      <trkpt lat="48.61636" lon="2.01532">
        <ele>118.9</ele>
        <time>2025-03-19T19:40:16.291Z</time>
      </trkpt>
      <trkpt lat="48.61644" lon="2.01532">
        <ele>118.8</ele>
        <time>2025-03-19T19:40:21.758Z</time>
      </trkpt>
      <trkpt lat="48.61651" lon="2.01534">
        <ele>118.8</ele>
        <time>2025-03-19T19:40:26.166Z</time>
      </trkpt>
      <trkpt lat="48.61657" lon="2.01536">
        <ele>118.7</ele>
        <time>2025-03-19T19:40:30.574Z</time>
      </trkpt>
      <trkpt lat="48.61664" lon="2.01537">
        <ele>118.7</ele>
        <time>2025-03-19T19:40:34.983Z</time>
      </trkpt>
      <trkpt lat="48.61671" lon="2.01539">
        <ele>118.6</ele>
        <time>2025-03-19T19:40:39.392Z</time>
      </trkpt>
      <trkpt lat="48.61677" lon="2.01541">
        <ele>118.5</ele>
        <time>2025-03-19T19:40:43.801Z</time>
      </trkpt>
      <trkpt lat="48.61684" lon="2.01543">
        <ele>118.5</ele>
        <time>2025-03-19T19:40:48.210Z</time>
      </trkpt>
      <trkpt lat="48.6169" lon="2.01545">
        <ele>118.4</ele>
        <time>2025-03-19T19:40:52.619Z</time>
      </trkpt>
      <trkpt lat="48.61697" lon="2.01547">
        <ele>118.4</ele>
        <time>2025-03-19T19:40:57.028Z</time>
      </trkpt>
      <trkpt lat="48.61704" lon="2.01548">
        <ele>118.5</ele>
        <time>2025-03-19T19:41:01.437Z</time>
      </trkpt>
      <trkpt lat="48.6171" lon="2.0155">
        <ele>118.7</ele>
        <time>2025-03-19T19:41:05.846Z</time>
      </trkpt>
      <trkpt lat="48.61717" lon="2.01552">
        <ele>118.8</ele>
        <time>2025-03-19T19:41:10.255Z</time>
      </trkpt>
      <trkpt lat="48.61724" lon="2.01554">
        <ele>119</ele>
        <time>2025-03-19T19:41:14.664Z</time>
      </trkpt>
      <trkpt lat="48.6173" lon="2.01556">
        <ele>119</ele>
        <time>2025-03-19T19:41:19.073Z</time>
      </trkpt>
      <trkpt lat="48.61737" lon="2.01557">
        <ele>118.9</ele>
        <time>2025-03-19T19:41:23.482Z</time>
      </trkpt>
      <trkpt lat="48.61743" lon="2.01559">
        <ele>118.9</ele>
        <time>2025-03-19T19:41:27.891Z</time>
      </trkpt>
      <trkpt lat="48.6175" lon="2.01561">
        <ele>118.8</ele>
        <time>2025-03-19T19:41:32.300Z</time>
      </trkpt>
      <trkpt lat="48.61758" lon="2.01561">
        <ele>118.6</ele>
        <time>2025-03-19T19:41:37.040Z</time>
      </trkpt>
      <trkpt lat="48.61766" lon="2.01562">
        <ele>118.3</ele>
        <time>2025-03-19T19:41:41.780Z</time>
      </trkpt>
      <trkpt lat="48.61773" lon="2.01562">
        <ele>118.1</ele>
        <time>2025-03-19T19:41:46.520Z</time>
      </trkpt>
      <trkpt lat="48.61781" lon="2.01562">
        <ele>118.1</ele>
        <time>2025-03-19T19:41:51.261Z</time>
      </trkpt>
      <trkpt lat="48.61786" lon="2.01563">
        <ele>118.2</ele>
        <time>2025-03-19T19:41:54.414Z</time>
      </trkpt>
      <trkpt lat="48.6179" lon="2.01565">
        <ele>118.3</ele>
        <time>2025-03-19T19:41:57.567Z</time>
      </trkpt>
      <trkpt lat="48.61795" lon="2.01566">
        <ele>118.4</ele>
        <time>2025-03-19T19:42:00.720Z</time>
      </trkpt>
      <trkpt lat="48.61799" lon="2.01567">
        <ele>118.4</ele>
        <time>2025-03-19T19:42:03.873Z</time>
      </trkpt>
      <trkpt lat="48.61807" lon="2.0157">
        <ele>118.5</ele>
        <time>2025-03-19T19:42:09.243Z</time>
      </trkpt>
      <trkpt lat="48.61814" lon="2.01574">
        <ele>118.6</ele>
        <time>2025-03-19T19:42:14.613Z</time>
      </trkpt>
      <trkpt lat="48.61822" lon="2.01577">
        <ele>118.7</ele>
        <time>2025-03-19T19:42:19.983Z</time>
      </trkpt>
      <trkpt lat="48.61829" lon="2.0158">
        <ele>118.9</ele>
        <time>2025-03-19T19:42:25.353Z</time>
      </trkpt>
      <trkpt lat="48.61836" lon="2.01585">
        <ele>119.1</ele>
        <time>2025-03-19T19:42:30.566Z</time>
      </trkpt>
      <trkpt lat="48.61842" lon="2.0159">
        <ele>119.3</ele>
        <time>2025-03-19T19:42:35.779Z</time>
      </trkpt>
      <trkpt lat="48.61849" lon="2.01594">
        <ele>119.5</ele>
        <time>2025-03-19T19:42:40.992Z</time>
      </trkpt>
      <trkpt lat="48.61855" lon="2.01599">
        <ele>119.8</ele>
        <time>2025-03-19T19:42:46.206Z</time>
      </trkpt>
      <trkpt lat="48.61862" lon="2.016">
        <ele>120</ele>
        <time>2025-03-19T19:42:51.240Z</time>
      </trkpt>
      <trkpt lat="48.61868" lon="2.01603">
        <ele>120.1</ele>
        <time>2025-03-19T19:42:55.188Z</time>
      </trkpt>
      <trkpt lat="48.61873" lon="2.01606">
        <ele>120.1</ele>
        <time>2025-03-19T19:42:59.137Z</time>
      </trkpt>
      <trkpt lat="48.61879" lon="2.01608">
        <ele>120.1</ele>
        <time>2025-03-19T19:43:03.086Z</time>
      </trkpt>
      <trkpt lat="48.61884" lon="2.01611">
        <ele>120</ele>
        <time>2025-03-19T19:43:07.035Z</time>
      </trkpt>
      <trkpt lat="48.6189" lon="2.01614">
        <ele>120</ele>
        <time>2025-03-19T19:43:10.984Z</time>
      </trkpt>
      <trkpt lat="48.61895" lon="2.01617">
        <ele>120.2</ele>
        <time>2025-03-19T19:43:14.933Z</time>
      </trkpt>
      <trkpt lat="48.61901" lon="2.01619">
        <ele>120.4</ele>
        <time>2025-03-19T19:43:18.882Z</time>
      </trkpt>
      <trkpt lat="48.61906" lon="2.01622">
        <ele>120.6</ele>
        <time>2025-03-19T19:43:22.831Z</time>
      </trkpt>
      <trkpt lat="48.61912" lon="2.01624">
        <ele>120.8</ele>
        <time>2025-03-19T19:43:27.162Z</time>
      </trkpt>
      <trkpt lat="48.61919" lon="2.01625">
        <ele>121</ele>
        <time>2025-03-19T19:43:31.493Z</time>
      </trkpt>
      <trkpt lat="48.61925" lon="2.01627">
        <ele>121</ele>
        <time>2025-03-19T19:43:35.824Z</time>
      </trkpt>
      <trkpt lat="48.61931" lon="2.01629">
        <ele>121</ele>
        <time>2025-03-19T19:43:40.155Z</time>
      </trkpt>
      <trkpt lat="48.61938" lon="2.0163">
        <ele>121</ele>
        <time>2025-03-19T19:43:44.486Z</time>
      </trkpt>
      <trkpt lat="48.61944" lon="2.01632">
        <ele>121</ele>
        <time>2025-03-19T19:43:48.817Z</time>
      </trkpt>
      <trkpt lat="48.6195" lon="2.01634">
        <ele>121</ele>
        <time>2025-03-19T19:43:53.148Z</time>
      </trkpt>
      <trkpt lat="48.61957" lon="2.01635">
        <ele>121</ele>
        <time>2025-03-19T19:43:57.479Z</time>
      </trkpt>
      <trkpt lat="48.61963" lon="2.01637">
        <ele>121</ele>
        <time>2025-03-19T19:44:01.810Z</time>
      </trkpt>
      <trkpt lat="48.61969" lon="2.01639">
        <ele>121</ele>
        <time>2025-03-19T19:44:06.141Z</time>
      </trkpt>
      <trkpt lat="48.61976" lon="2.0164">
        <ele>121</ele>
        <time>2025-03-19T19:44:10.472Z</time>
      </trkpt>
      <trkpt lat="48.61982" lon="2.01642">
        <ele>121</ele>
        <time>2025-03-19T19:44:14.803Z</time>
      </trkpt>
      <trkpt lat="48.61989" lon="2.01644">
        <ele>121.1</ele>
        <time>2025-03-19T19:44:19.134Z</time>
      </trkpt>
      <trkpt lat="48.61995" lon="2.01645">
        <ele>121.2</ele>
        <time>2025-03-19T19:44:23.465Z</time>
      </trkpt>
      <trkpt lat="48.62001" lon="2.01647">
        <ele>121.3</ele>
        <time>2025-03-19T19:44:27.796Z</time>
      </trkpt>
      <trkpt lat="48.62008" lon="2.01649">
        <ele>121.5</ele>
        <time>2025-03-19T19:44:32.127Z</time>
      </trkpt>
      <trkpt lat="48.62014" lon="2.0165">
        <ele>121.7</ele>
        <time>2025-03-19T19:44:36.458Z</time>
      </trkpt>
      <trkpt lat="48.6202" lon="2.01652">
        <ele>121.9</ele>
        <time>2025-03-19T19:44:40.789Z</time>
      </trkpt>
      <trkpt lat="48.62027" lon="2.01654">
        <ele>122</ele>
        <time>2025-03-19T19:44:45.120Z</time>
      </trkpt>
      <trkpt lat="48.62033" lon="2.01655">
        <ele>122.1</ele>
        <time>2025-03-19T19:44:49.451Z</time>
      </trkpt>
      <trkpt lat="48.62039" lon="2.01657">
        <ele>122.3</ele>
        <time>2025-03-19T19:44:53.782Z</time>
      </trkpt>
      <trkpt lat="48.62046" lon="2.01658">
        <ele>122.5</ele>
        <time>2025-03-19T19:44:58.114Z</time>
      </trkpt>
      <trkpt lat="48.62052" lon="2.0166">
        <ele>122.7</ele>
        <time>2025-03-19T19:45:02.446Z</time>
      </trkpt>
      <trkpt lat="48.62058" lon="2.01662">
        <ele>122.8</ele>
        <time>2025-03-19T19:45:06.778Z</time>
      </trkpt>
      <trkpt lat="48.62065" lon="2.01663">
        <ele>122.9</ele>
        <time>2025-03-19T19:45:11.110Z</time>
      </trkpt>
      <trkpt lat="48.62071" lon="2.01665">
        <ele>122.9</ele>
        <time>2025-03-19T19:45:15.442Z</time>
      </trkpt>
      <trkpt lat="48.62077" lon="2.01667">
        <ele>123</ele>
        <time>2025-03-19T19:45:19.774Z</time>
      </trkpt>
      <trkpt lat="48.62084" lon="2.01668">
        <ele>123</ele>
        <time>2025-03-19T19:45:24.106Z</time>
      </trkpt>
      <trkpt lat="48.6209" lon="2.0167">
        <ele>122.8</ele>
        <time>2025-03-19T19:45:28.438Z</time>
      </trkpt>
      <trkpt lat="48.62096" lon="2.01672">
        <ele>122.6</ele>
        <time>2025-03-19T19:45:32.770Z</time>
      </trkpt>
      <trkpt lat="48.62103" lon="2.01673">
        <ele>122.5</ele>
        <time>2025-03-19T19:45:37.102Z</time>
      </trkpt>
      <trkpt lat="48.62109" lon="2.01675">
        <ele>122.4</ele>
        <time>2025-03-19T19:45:41.434Z</time>
      </trkpt>
      <trkpt lat="48.62117" lon="2.01678">
        <ele>122.4</ele>
        <time>2025-03-19T19:45:46.984Z</time>
      </trkpt>
      <trkpt lat="48.62125" lon="2.01682">
        <ele>122.5</ele>
        <time>2025-03-19T19:45:52.534Z</time>
      </trkpt>
      <trkpt lat="48.62133" lon="2.01685">
        <ele>122.7</ele>
        <time>2025-03-19T19:45:58.084Z</time>
      </trkpt>
      <trkpt lat="48.62142" lon="2.01689">
        <ele>122.7</ele>
        <time>2025-03-19T19:46:03.634Z</time>
      </trkpt>
      <trkpt lat="48.6215" lon="2.01692">
        <ele>122.6</ele>
        <time>2025-03-19T19:46:09.184Z</time>
      </trkpt>
      <trkpt lat="48.62158" lon="2.01696">
        <ele>122.3</ele>
        <time>2025-03-19T19:46:14.734Z</time>
      </trkpt>
      <trkpt lat="48.62166" lon="2.01699">
        <ele>122</ele>
        <time>2025-03-19T19:46:20.284Z</time>
      </trkpt>
      <trkpt lat="48.62174" lon="2.01703">
        <ele>122</ele>
        <time>2025-03-19T19:46:25.834Z</time>
      </trkpt>
      <trkpt lat="48.62182" lon="2.01706">
        <ele>122</ele>
        <time>2025-03-19T19:46:31.384Z</time>
      </trkpt>
      <trkpt lat="48.6219" lon="2.01709">
        <ele>122</ele>
        <time>2025-03-19T19:46:36.934Z</time>
      </trkpt>
      <trkpt lat="48.62198" lon="2.01713">
        <ele>122</ele>
        <time>2025-03-19T19:46:42.484Z</time>
      </trkpt>
      <trkpt lat="48.62207" lon="2.01716">
        <ele>122.1</ele>
        <time>2025-03-19T19:46:48.034Z</time>
      </trkpt>
      <trkpt lat="48.62215" lon="2.0172">
        <ele>122.1</ele>
        <time>2025-03-19T19:46:53.585Z</time>
      </trkpt>
      <trkpt lat="48.62223" lon="2.01723">
        <ele>122</ele>
        <time>2025-03-19T19:46:59.136Z</time>
      </trkpt>
      <trkpt lat="48.62231" lon="2.01727">
        <ele>122.3</ele>
        <time>2025-03-19T19:47:04.687Z</time>
      </trkpt>
      <trkpt lat="48.62239" lon="2.0173">
        <ele>122.6</ele>
        <time>2025-03-19T19:47:10.238Z</time>
      </trkpt>
      <trkpt lat="48.62241" lon="2.01731">
        <ele>122.7</ele>
        <time>2025-03-19T19:47:11.842Z</time>
      </trkpt>
      <trkpt lat="48.6224" lon="2.01739">
        <ele>122.6</ele>
        <time>2025-03-19T19:47:15.289Z</time>
      </trkpt>
      <trkpt lat="48.6224" lon="2.01747">
        <ele>122.6</ele>
        <time>2025-03-19T19:47:18.736Z</time>
      </trkpt>
      <trkpt lat="48.62239" lon="2.01755">
        <ele>122.6</ele>
        <time>2025-03-19T19:47:22.183Z</time>
      </trkpt>
      <trkpt lat="48.62238" lon="2.01763">
        <ele>122.6</ele>
        <time>2025-03-19T19:47:25.631Z</time>
      </trkpt>
      <trkpt lat="48.62237" lon="2.01771">
        <ele>122.5</ele>
        <time>2025-03-19T19:47:29.079Z</time>
      </trkpt>
      <trkpt lat="48.62237" lon="2.01779">
        <ele>122.5</ele>
        <time>2025-03-19T19:47:32.527Z</time>
      </trkpt>
      <trkpt lat="48.62236" lon="2.01787">
        <ele>122.5</ele>
        <time>2025-03-19T19:47:35.975Z</time>
      </trkpt>
      <trkpt lat="48.62235" lon="2.01795">
        <ele>122.5</ele>
        <time>2025-03-19T19:47:39.424Z</time>
      </trkpt>
      <trkpt lat="48.62235" lon="2.01806">
        <ele>122.4</ele>
        <time>2025-03-19T19:47:43.745Z</time>
      </trkpt>
      <trkpt lat="48.62235" lon="2.01817">
        <ele>122.2</ele>
        <time>2025-03-19T19:47:48.066Z</time>
      </trkpt>
      <trkpt lat="48.62234" lon="2.01827">
        <ele>122</ele>
        <time>2025-03-19T19:47:52.388Z</time>
      </trkpt>
      <trkpt lat="48.62234" lon="2.01838">
        <ele>121.8</ele>
        <time>2025-03-19T19:47:56.711Z</time>
      </trkpt>
      <trkpt lat="48.62233" lon="2.01846">
        <ele>121.6</ele>
        <time>2025-03-19T19:48:00.122Z</time>
      </trkpt>
      <trkpt lat="48.62232" lon="2.01854">
        <ele>121.4</ele>
        <time>2025-03-19T19:48:03.533Z</time>
      </trkpt>
      <trkpt lat="48.6223" lon="2.01862">
        <ele>121.3</ele>
        <time>2025-03-19T19:48:06.944Z</time>
      </trkpt>
      <trkpt lat="48.62229" lon="2.0187">
        <ele>121.5</ele>
        <time>2025-03-19T19:48:10.357Z</time>
      </trkpt>
      <trkpt lat="48.62235" lon="2.01875">
        <ele>121.7</ele>
        <time>2025-03-19T19:48:15.273Z</time>
      </trkpt>
      <trkpt lat="48.62241" lon="2.0188">
        <ele>121.9</ele>
        <time>2025-03-19T19:48:20.189Z</time>
      </trkpt>
      <trkpt lat="48.62246" lon="2.01879">
        <ele>121.9</ele>
        <time>2025-03-19T19:48:23.310Z</time>
      </trkpt>
      <trkpt lat="48.6225" lon="2.01877">
        <ele>122</ele>
        <time>2025-03-19T19:48:26.431Z</time>
      </trkpt>
      <trkpt lat="48.62258" lon="2.01884">
        <ele>122.6</ele>
        <time>2025-03-19T19:48:33.371Z</time>
      </trkpt>
      <trkpt lat="48.62265" lon="2.0189">
        <ele>123.1</ele>
        <time>2025-03-19T19:48:40.312Z</time>
      </trkpt>
      <trkpt lat="48.62271" lon="2.01898">
        <ele>123.4</ele>
        <time>2025-03-19T19:48:46.451Z</time>
      </trkpt>
      <trkpt lat="48.62277" lon="2.01906">
        <ele>123.9</ele>
        <time>2025-03-19T19:48:52.590Z</time>
      </trkpt>
      <trkpt lat="48.6228" lon="2.01912">
        <ele>124.4</ele>
        <time>2025-03-19T19:48:56.384Z</time>
      </trkpt>
      <trkpt lat="48.62283" lon="2.01917">
        <ele>125</ele>
        <time>2025-03-19T19:49:00.178Z</time>
      </trkpt>
      <trkpt lat="48.62286" lon="2.01923">
        <ele>125.3</ele>
        <time>2025-03-19T19:49:03.972Z</time>
      </trkpt>
      <trkpt lat="48.6229" lon="2.01929">
        <ele>125.7</ele>
        <time>2025-03-19T19:49:07.766Z</time>
      </trkpt>
      <trkpt lat="48.62293" lon="2.01934">
        <ele>126</ele>
        <time>2025-03-19T19:49:11.560Z</time>
      </trkpt>
      <trkpt lat="48.62296" lon="2.0194">
        <ele>126.4</ele>
        <time>2025-03-19T19:49:15.354Z</time>
      </trkpt>
      <trkpt lat="48.62299" lon="2.01945">
        <ele>126.7</ele>
        <time>2025-03-19T19:49:19.148Z</time>
      </trkpt>
      <trkpt lat="48.62302" lon="2.01951">
        <ele>126.9</ele>
        <time>2025-03-19T19:49:22.942Z</time>
      </trkpt>
      <trkpt lat="48.62305" lon="2.01957">
        <ele>127</ele>
        <time>2025-03-19T19:49:26.736Z</time>
      </trkpt>
      <trkpt lat="48.62308" lon="2.01962">
        <ele>127.1</ele>
        <time>2025-03-19T19:49:30.530Z</time>
      </trkpt>
      <trkpt lat="48.62311" lon="2.01968">
        <ele>127.2</ele>
        <time>2025-03-19T19:49:34.324Z</time>
      </trkpt>
      <trkpt lat="48.62315" lon="2.01974">
        <ele>127.2</ele>
        <time>2025-03-19T19:49:38.118Z</time>
      </trkpt>
      <trkpt lat="48.62318" lon="2.01979">
        <ele>127.5</ele>
        <time>2025-03-19T19:49:41.912Z</time>
      </trkpt>
      <trkpt lat="48.62321" lon="2.01985">
        <ele>127.7</ele>
        <time>2025-03-19T19:49:45.706Z</time>
      </trkpt>
      <trkpt lat="48.62324" lon="2.0199">
        <ele>128</ele>
        <time>2025-03-19T19:49:49.501Z</time>
      </trkpt>
      <trkpt lat="48.62327" lon="2.01996">
        <ele>128.2</ele>
        <time>2025-03-19T19:49:53.296Z</time>
      </trkpt>
      <trkpt lat="48.62332" lon="2.02005">
        <ele>128.4</ele>
        <time>2025-03-19T19:49:58.311Z</time>
      </trkpt>
      <trkpt lat="48.62336" lon="2.02013">
        <ele>128.4</ele>
        <time>2025-03-19T19:50:03.326Z</time>
      </trkpt>
      <trkpt lat="48.62341" lon="2.02022">
        <ele>128.5</ele>
        <time>2025-03-19T19:50:08.341Z</time>
      </trkpt>
      <trkpt lat="48.62346" lon="2.02031">
        <ele>128.6</ele>
        <time>2025-03-19T19:50:13.356Z</time>
      </trkpt>
      <trkpt lat="48.6235" lon="2.02039">
        <ele>128.8</ele>
        <time>2025-03-19T19:50:18.371Z</time>
      </trkpt>
      <trkpt lat="48.62355" lon="2.02048">
        <ele>128.8</ele>
        <time>2025-03-19T19:50:23.386Z</time>
      </trkpt>
      <trkpt lat="48.62359" lon="2.02056">
        <ele>128.8</ele>
        <time>2025-03-19T19:50:28.402Z</time>
      </trkpt>
      <trkpt lat="48.62364" lon="2.02065">
        <ele>129</ele>
        <time>2025-03-19T19:50:33.418Z</time>
      </trkpt>
      <trkpt lat="48.62369" lon="2.02074">
        <ele>129.2</ele>
        <time>2025-03-19T19:50:39.197Z</time>
      </trkpt>
      <trkpt lat="48.62374" lon="2.02084">
        <ele>129.4</ele>
        <time>2025-03-19T19:50:44.976Z</time>
      </trkpt>
      <trkpt lat="48.62379" lon="2.02093">
        <ele>129.6</ele>
        <time>2025-03-19T19:50:50.755Z</time>
      </trkpt>
      <trkpt lat="48.62385" lon="2.02102">
        <ele>129.9</ele>
        <time>2025-03-19T19:50:56.534Z</time>
      </trkpt>
      <trkpt lat="48.6239" lon="2.02111">
        <ele>130.1</ele>
        <time>2025-03-19T19:51:02.313Z</time>
      </trkpt>
      <trkpt lat="48.62395" lon="2.02121">
        <ele>130.3</ele>
        <time>2025-03-19T19:51:08.092Z</time>
      </trkpt>
      <trkpt lat="48.624" lon="2.0213">
        <ele>130.5</ele>
        <time>2025-03-19T19:51:13.871Z</time>
      </trkpt>
      <trkpt lat="48.62405" lon="2.02139">
        <ele>130.7</ele>
        <time>2025-03-19T19:51:19.650Z</time>
      </trkpt>
      <trkpt lat="48.6241" lon="2.02148">
        <ele>131</ele>
        <time>2025-03-19T19:51:25.429Z</time>
      </trkpt>
      <trkpt lat="48.62415" lon="2.02158">
        <ele>131.2</ele>
        <time>2025-03-19T19:51:31.208Z</time>
      </trkpt>
      <trkpt lat="48.6242" lon="2.02167">
        <ele>131.3</ele>
        <time>2025-03-19T19:51:36.987Z</time>
      </trkpt>
      <trkpt lat="48.62426" lon="2.02176">
        <ele>131.6</ele>
        <time>2025-03-19T19:51:42.766Z</time>
      </trkpt>
      <trkpt lat="48.62431" lon="2.02185">
        <ele>132</ele>
        <time>2025-03-19T19:51:48.545Z</time>
      </trkpt>
      <trkpt lat="48.62436" lon="2.02195">
        <ele>132.4</ele>
        <time>2025-03-19T19:51:54.324Z</time>
      </trkpt>
      <trkpt lat="48.62441" lon="2.02204">
        <ele>132.7</ele>
        <time>2025-03-19T19:52:00.104Z</time>
      </trkpt>
      <trkpt lat="48.62446" lon="2.02213">
        <ele>133.1</ele>
        <time>2025-03-19T19:52:05.884Z</time>
      </trkpt>
      <trkpt lat="48.62451" lon="2.0221">
        <ele>133.2</ele>
        <time>2025-03-19T19:52:09.728Z</time>
      </trkpt>
      <trkpt lat="48.62456" lon="2.02207">
        <ele>133.4</ele>
        <time>2025-03-19T19:52:13.572Z</time>
      </trkpt>
      <trkpt lat="48.62464" lon="2.02205">
        <ele>133.7</ele>
        <time>2025-03-19T19:52:19.244Z</time>
      </trkpt>
      <trkpt lat="48.62472" lon="2.02204">
        <ele>134</ele>
        <time>2025-03-19T19:52:24.916Z</time>
      </trkpt>
      <trkpt lat="48.62479" lon="2.02202">
        <ele>134.2</ele>
        <time>2025-03-19T19:52:30.588Z</time>
      </trkpt>
      <trkpt lat="48.62487" lon="2.022">
        <ele>134.4</ele>
        <time>2025-03-19T19:52:36.261Z</time>
      </trkpt>
      <trkpt lat="48.62492" lon="2.02201">
        <ele>134.5</ele>
        <time>2025-03-19T19:52:39.541Z</time>
      </trkpt>
      <trkpt lat="48.62496" lon="2.02201">
        <ele>134.7</ele>
        <time>2025-03-19T19:52:42.822Z</time>
      </trkpt>
      <trkpt lat="48.62504" lon="2.02203">
        <ele>135.4</ele>
        <time>2025-03-19T19:52:49.852Z</time>
      </trkpt>
      <trkpt lat="48.62511" lon="2.02209">
        <ele>136.5</ele>
        <time>2025-03-19T19:52:58.002Z</time>
      </trkpt>
      <trkpt lat="48.62518" lon="2.02215">
        <ele>137.5</ele>
        <time>2025-03-19T19:53:06.153Z</time>
      </trkpt>
      <trkpt lat="48.62522" lon="2.02222">
        <ele>137.9</ele>
        <time>2025-03-19T19:53:11.022Z</time>
      </trkpt>
      <trkpt lat="48.62525" lon="2.02228">
        <ele>138.5</ele>
        <time>2025-03-19T19:53:15.892Z</time>
      </trkpt>
      <trkpt lat="48.62527" lon="2.02234">
        <ele>138.9</ele>
        <time>2025-03-19T19:53:19.441Z</time>
      </trkpt>
      <trkpt lat="48.62529" lon="2.0224">
        <ele>139.4</ele>
        <time>2025-03-19T19:53:22.991Z</time>
      </trkpt>
      <trkpt lat="48.62531" lon="2.02246">
        <ele>139.8</ele>
        <time>2025-03-19T19:53:26.541Z</time>
      </trkpt>
      <trkpt lat="48.62534" lon="2.02252">
        <ele>140.2</ele>
        <time>2025-03-19T19:53:30.091Z</time>
      </trkpt>
      <trkpt lat="48.62536" lon="2.02258">
        <ele>140.4</ele>
        <time>2025-03-19T19:53:33.641Z</time>
      </trkpt>
      <trkpt lat="48.62538" lon="2.02264">
        <ele>140.6</ele>
        <time>2025-03-19T19:53:37.191Z</time>
      </trkpt>
      <trkpt lat="48.6254" lon="2.0227">
        <ele>140.7</ele>
        <time>2025-03-19T19:53:40.741Z</time>
      </trkpt>
      <trkpt lat="48.62542" lon="2.02276">
        <ele>140.6</ele>
        <time>2025-03-19T19:53:44.291Z</time>
      </trkpt>
      <trkpt lat="48.62545" lon="2.02283">
        <ele>140.5</ele>
        <time>2025-03-19T19:53:47.531Z</time>
      </trkpt>
      <trkpt lat="48.62549" lon="2.0229">
        <ele>140.1</ele>
        <time>2025-03-19T19:53:50.771Z</time>
      </trkpt>
      <trkpt lat="48.62552" lon="2.02297">
        <ele>139.7</ele>
        <time>2025-03-19T19:53:54.011Z</time>
      </trkpt>
      <trkpt lat="48.62555" lon="2.02304">
        <ele>139.1</ele>
        <time>2025-03-19T19:53:57.251Z</time>
        <extensions>
          <visugpx:TrkExtension xmlns:visugpx="https://www.visugpx.com/editgpx/">
            <visugpx:node>17</visugpx:node>
            </visugpx:TrkExtension>
        </extensions>
      </trkpt>
      <trkpt lat="48.62555" lon="2.02304">
        <ele>139.1</ele>
        <time>2025-03-19T19:53:57.251Z</time>
      </trkpt>
      <trkpt lat="48.62558" lon="2.02311">
        <ele>139</ele>
        <time>2025-03-19T19:54:01.185Z</time>
      </trkpt>
      <trkpt lat="48.62562" lon="2.02318">
        <ele>139</ele>
        <time>2025-03-19T19:54:05.119Z</time>
      </trkpt>
      <trkpt lat="48.62565" lon="2.02325">
        <ele>138.8</ele>
        <time>2025-03-19T19:54:09.053Z</time>
      </trkpt>
      <trkpt lat="48.62568" lon="2.02332">
        <ele>138.5</ele>
        <time>2025-03-19T19:54:12.987Z</time>
      </trkpt>
      <trkpt lat="48.62571" lon="2.02339">
        <ele>138.4</ele>
        <time>2025-03-19T19:54:16.921Z</time>
      </trkpt>
      <trkpt lat="48.62575" lon="2.02346">
        <ele>138.3</ele>
        <time>2025-03-19T19:54:20.855Z</time>
      </trkpt>
      <trkpt lat="48.62578" lon="2.02353">
        <ele>138.1</ele>
        <time>2025-03-19T19:54:24.789Z</time>
      </trkpt>
      <trkpt lat="48.62581" lon="2.02361">
        <ele>137.9</ele>
        <time>2025-03-19T19:54:28.723Z</time>
      </trkpt>
      <trkpt lat="48.62584" lon="2.02368">
        <ele>138.3</ele>
        <time>2025-03-19T19:54:32.657Z</time>
      </trkpt>
      <trkpt lat="48.62588" lon="2.02375">
        <ele>139</ele>
        <time>2025-03-19T19:54:36.592Z</time>
      </trkpt>
      <trkpt lat="48.62591" lon="2.02382">
        <ele>139.5</ele>
        <time>2025-03-19T19:54:40.527Z</time>
      </trkpt>
      <trkpt lat="48.62594" lon="2.02389">
        <ele>139.9</ele>
        <time>2025-03-19T19:54:44.462Z</time>
      </trkpt>
      <trkpt lat="48.62597" lon="2.02396">
        <ele>140.4</ele>
        <time>2025-03-19T19:54:48.397Z</time>
      </trkpt>
      <trkpt lat="48.62601" lon="2.02403">
        <ele>140.7</ele>
        <time>2025-03-19T19:54:52.332Z</time>
      </trkpt>
      <trkpt lat="48.62604" lon="2.0241">
        <ele>140.8</ele>
        <time>2025-03-19T19:54:56.267Z</time>
      </trkpt>
      <trkpt lat="48.62607" lon="2.02417">
        <ele>140.7</ele>
        <time>2025-03-19T19:55:00.202Z</time>
      </trkpt>
      <trkpt lat="48.6261" lon="2.02425">
        <ele>140.3</ele>
        <time>2025-03-19T19:55:04.345Z</time>
      </trkpt>
      <trkpt lat="48.62613" lon="2.02433">
        <ele>140.1</ele>
        <time>2025-03-19T19:55:08.488Z</time>
      </trkpt>
      <trkpt lat="48.62616" lon="2.02441">
        <ele>139.9</ele>
        <time>2025-03-19T19:55:12.631Z</time>
      </trkpt>
      <trkpt lat="48.62619" lon="2.02449">
        <ele>140</ele>
        <time>2025-03-19T19:55:16.774Z</time>
      </trkpt>
      <trkpt lat="48.62622" lon="2.02457">
        <ele>140.2</ele>
        <time>2025-03-19T19:55:20.917Z</time>
      </trkpt>
      <trkpt lat="48.62625" lon="2.02465">
        <ele>140.2</ele>
        <time>2025-03-19T19:55:25.060Z</time>
      </trkpt>
      <trkpt lat="48.62628" lon="2.02473">
        <ele>140.2</ele>
        <time>2025-03-19T19:55:29.203Z</time>
      </trkpt>
      <trkpt lat="48.62631" lon="2.02481">
        <ele>140.4</ele>
        <time>2025-03-19T19:55:33.346Z</time>
      </trkpt>
      <trkpt lat="48.62633" lon="2.02489">
        <ele>140.4</ele>
        <time>2025-03-19T19:55:37.489Z</time>
      </trkpt>
      <trkpt lat="48.62636" lon="2.02497">
        <ele>140.2</ele>
        <time>2025-03-19T19:55:41.632Z</time>
      </trkpt>
      <trkpt lat="48.62639" lon="2.02505">
        <ele>140.1</ele>
        <time>2025-03-19T19:55:45.775Z</time>
      </trkpt>
      <trkpt lat="48.62642" lon="2.02513">
        <ele>140.6</ele>
        <time>2025-03-19T19:55:49.918Z</time>
      </trkpt>
      <trkpt lat="48.62645" lon="2.02521">
        <ele>141</ele>
        <time>2025-03-19T19:55:54.062Z</time>
      </trkpt>
      <trkpt lat="48.62648" lon="2.02529">
        <ele>141.3</ele>
        <time>2025-03-19T19:55:58.206Z</time>
      </trkpt>
      <trkpt lat="48.62651" lon="2.02537">
        <ele>141.8</ele>
        <time>2025-03-19T19:56:02.350Z</time>
      </trkpt>
      <trkpt lat="48.62654" lon="2.02545">
        <ele>142.1</ele>
        <time>2025-03-19T19:56:06.494Z</time>
      </trkpt>
      <trkpt lat="48.62656" lon="2.02553">
        <ele>142.3</ele>
        <time>2025-03-19T19:56:09.912Z</time>
      </trkpt>
      <trkpt lat="48.62659" lon="2.0256">
        <ele>142.3</ele>
        <time>2025-03-19T19:56:13.330Z</time>
      </trkpt>
      <trkpt lat="48.62661" lon="2.02568">
        <ele>142.2</ele>
        <time>2025-03-19T19:56:16.748Z</time>
      </trkpt>
      <trkpt lat="48.62663" lon="2.02575">
        <ele>141.8</ele>
        <time>2025-03-19T19:56:20.167Z</time>
      </trkpt>
      <trkpt lat="48.62665" lon="2.02582">
        <ele>141.2</ele>
        <time>2025-03-19T19:56:23.861Z</time>
      </trkpt>
      <trkpt lat="48.62667" lon="2.02589">
        <ele>141.2</ele>
        <time>2025-03-19T19:56:27.555Z</time>
      </trkpt>
      <trkpt lat="48.6267" lon="2.02596">
        <ele>141.7</ele>
        <time>2025-03-19T19:56:31.249Z</time>
      </trkpt>
      <trkpt lat="48.62672" lon="2.02604">
        <ele>142.2</ele>
        <time>2025-03-19T19:56:34.943Z</time>
      </trkpt>
      <trkpt lat="48.62674" lon="2.02611">
        <ele>142.6</ele>
        <time>2025-03-19T19:56:38.637Z</time>
      </trkpt>
      <trkpt lat="48.62676" lon="2.02618">
        <ele>143.2</ele>
        <time>2025-03-19T19:56:42.331Z</time>
      </trkpt>
      <trkpt lat="48.62678" lon="2.02625">
        <ele>143.7</ele>
        <time>2025-03-19T19:56:46.025Z</time>
      </trkpt>
      <trkpt lat="48.62681" lon="2.02632">
        <ele>144</ele>
        <time>2025-03-19T19:56:49.719Z</time>
      </trkpt>
      <trkpt lat="48.62683" lon="2.02639">
        <ele>144.2</ele>
        <time>2025-03-19T19:56:53.413Z</time>
      </trkpt>
      <trkpt lat="48.62685" lon="2.02646">
        <ele>144.1</ele>
        <time>2025-03-19T19:56:57.107Z</time>
      </trkpt>
      <trkpt lat="48.62687" lon="2.02653">
        <ele>144</ele>
        <time>2025-03-19T19:57:00.801Z</time>
      </trkpt>
      <trkpt lat="48.62689" lon="2.02661">
        <ele>143.6</ele>
        <time>2025-03-19T19:57:04.496Z</time>
      </trkpt>
      <trkpt lat="48.62691" lon="2.02668">
        <ele>143.2</ele>
        <time>2025-03-19T19:57:08.191Z</time>
      </trkpt>
      <trkpt lat="48.62694" lon="2.02675">
        <ele>143.1</ele>
        <time>2025-03-19T19:57:11.886Z</time>
      </trkpt>
      <trkpt lat="48.62696" lon="2.02682">
        <ele>143.4</ele>
        <time>2025-03-19T19:57:15.581Z</time>
      </trkpt>
      <trkpt lat="48.62698" lon="2.02689">
        <ele>144</ele>
        <time>2025-03-19T19:57:19.276Z</time>
      </trkpt>
      <trkpt lat="48.627" lon="2.02696">
        <ele>144.6</ele>
        <time>2025-03-19T19:57:24.544Z</time>
      </trkpt>
      <trkpt lat="48.62701" lon="2.02704">
        <ele>145.4</ele>
        <time>2025-03-19T19:57:29.812Z</time>
      </trkpt>
      <trkpt lat="48.62703" lon="2.02711">
        <ele>146.1</ele>
        <time>2025-03-19T19:57:35.080Z</time>
      </trkpt>
      <trkpt lat="48.62705" lon="2.02719">
        <ele>146.7</ele>
        <time>2025-03-19T19:57:40.348Z</time>
      </trkpt>
      <trkpt lat="48.62706" lon="2.02726">
        <ele>147.4</ele>
        <time>2025-03-19T19:57:45.616Z</time>
      </trkpt>
      <trkpt lat="48.62708" lon="2.02733">
        <ele>148.2</ele>
        <time>2025-03-19T19:57:50.884Z</time>
      </trkpt>
      <trkpt lat="48.62709" lon="2.02741">
        <ele>148.9</ele>
        <time>2025-03-19T19:57:56.152Z</time>
      </trkpt>
      <trkpt lat="48.62711" lon="2.02748">
        <ele>149.5</ele>
        <time>2025-03-19T19:58:01.421Z</time>
      </trkpt>
      <trkpt lat="48.62713" lon="2.02756">
        <ele>150</ele>
        <time>2025-03-19T19:58:06.002Z</time>
      </trkpt>
      <trkpt lat="48.62714" lon="2.02765">
        <ele>150.4</ele>
        <time>2025-03-19T19:58:10.584Z</time>
      </trkpt>
      <trkpt lat="48.62716" lon="2.02773">
        <ele>150.8</ele>
        <time>2025-03-19T19:58:15.166Z</time>
      </trkpt>
      <trkpt lat="48.62717" lon="2.02781">
        <ele>151</ele>
        <time>2025-03-19T19:58:19.748Z</time>
      </trkpt>
      <trkpt lat="48.62719" lon="2.02787">
        <ele>151</ele>
        <time>2025-03-19T19:58:22.734Z</time>
      </trkpt>
      <trkpt lat="48.62722" lon="2.02793">
        <ele>151</ele>
        <time>2025-03-19T19:58:25.720Z</time>
      </trkpt>
      <trkpt lat="48.62724" lon="2.02799">
        <ele>151</ele>
        <time>2025-03-19T19:58:28.706Z</time>
      </trkpt>
      <trkpt lat="48.62726" lon="2.02805">
        <ele>151</ele>
        <time>2025-03-19T19:58:31.692Z</time>
      </trkpt>
      <trkpt lat="48.62726" lon="2.02812">
        <ele>151</ele>
        <time>2025-03-19T19:58:34.721Z</time>
      </trkpt>
      <trkpt lat="48.62726" lon="2.02819">
        <ele>151</ele>
        <time>2025-03-19T19:58:37.751Z</time>
      </trkpt>
      <trkpt lat="48.62726" lon="2.02826">
        <ele>151</ele>
        <time>2025-03-19T19:58:40.781Z</time>
      </trkpt>
      <trkpt lat="48.62726" lon="2.02833">
        <ele>151</ele>
        <time>2025-03-19T19:58:43.811Z</time>
      </trkpt>
      <trkpt lat="48.62727" lon="2.0284">
        <ele>151</ele>
        <time>2025-03-19T19:58:46.880Z</time>
      </trkpt>
      <trkpt lat="48.62728" lon="2.02847">
        <ele>151</ele>
        <time>2025-03-19T19:58:49.949Z</time>
      </trkpt>
      <trkpt lat="48.62728" lon="2.02854">
        <ele>151</ele>
        <time>2025-03-19T19:58:53.019Z</time>
      </trkpt>
      <trkpt lat="48.62729" lon="2.02861">
        <ele>151</ele>
        <time>2025-03-19T19:58:56.089Z</time>
      </trkpt>
      <trkpt lat="48.62729" lon="2.02873">
        <ele>151</ele>
        <time>2025-03-19T19:59:01.066Z</time>
      </trkpt>
      <trkpt lat="48.62729" lon="2.02884">
        <ele>151</ele>
        <time>2025-03-19T19:59:06.044Z</time>
      </trkpt>
      <trkpt lat="48.6273" lon="2.02894">
        <ele>151.1</ele>
        <time>2025-03-19T19:59:10.763Z</time>
      </trkpt>
      <trkpt lat="48.62732" lon="2.02905">
        <ele>151.2</ele>
        <time>2025-03-19T19:59:15.482Z</time>
      </trkpt>
      <trkpt lat="48.62733" lon="2.02915">
        <ele>151.4</ele>
        <time>2025-03-19T19:59:20.201Z</time>
      </trkpt>
      <trkpt lat="48.62734" lon="2.02926">
        <ele>151.4</ele>
        <time>2025-03-19T19:59:24.920Z</time>
      </trkpt>
      <trkpt lat="48.62735" lon="2.02936">
        <ele>151.5</ele>
        <time>2025-03-19T19:59:29.640Z</time>
      </trkpt>
      <trkpt lat="48.62737" lon="2.02946">
        <ele>151.5</ele>
        <time>2025-03-19T19:59:34.360Z</time>
      </trkpt>
      <trkpt lat="48.62738" lon="2.02957">
        <ele>151.6</ele>
        <time>2025-03-19T19:59:39.080Z</time>
      </trkpt>
      <trkpt lat="48.62739" lon="2.02967">
        <ele>151.6</ele>
        <time>2025-03-19T19:59:43.800Z</time>
      </trkpt>
      <trkpt lat="48.62738" lon="2.02979">
        <ele>151.6</ele>
        <time>2025-03-19T19:59:48.901Z</time>
      </trkpt>
      <trkpt lat="48.62736" lon="2.02992">
        <ele>151.5</ele>
        <time>2025-03-19T19:59:54.002Z</time>
      </trkpt>
      <trkpt lat="48.62735" lon="2.03004">
        <ele>151.4</ele>
        <time>2025-03-19T19:59:59.104Z</time>
      </trkpt>
      <trkpt lat="48.62733" lon="2.03016">
        <ele>151</ele>
        <time>2025-03-19T20:00:04.207Z</time>
      </trkpt>
      <trkpt lat="48.62734" lon="2.03025">
        <ele>150.9</ele>
        <time>2025-03-19T20:00:08.015Z</time>
      </trkpt>
      <trkpt lat="48.62735" lon="2.03034">
        <ele>150.8</ele>
        <time>2025-03-19T20:00:11.824Z</time>
      </trkpt>
      <trkpt lat="48.62736" lon="2.03043">
        <ele>150.7</ele>
        <time>2025-03-19T20:00:15.633Z</time>
      </trkpt>
      <trkpt lat="48.62737" lon="2.03053">
        <ele>150.6</ele>
        <time>2025-03-19T20:00:19.442Z</time>
      </trkpt>
      <trkpt lat="48.62738" lon="2.03062">
        <ele>150.5</ele>
        <time>2025-03-19T20:00:23.251Z</time>
      </trkpt>
      <trkpt lat="48.62739" lon="2.03071">
        <ele>150.4</ele>
        <time>2025-03-19T20:00:27.060Z</time>
      </trkpt>
      <trkpt lat="48.6274" lon="2.0308">
        <ele>150.3</ele>
        <time>2025-03-19T20:00:30.869Z</time>
      </trkpt>
      <trkpt lat="48.62741" lon="2.03089">
        <ele>150.2</ele>
        <time>2025-03-19T20:00:34.678Z</time>
      </trkpt>
      <trkpt lat="48.62741" lon="2.031">
        <ele>150</ele>
        <time>2025-03-19T20:00:39.023Z</time>
      </trkpt>
      <trkpt lat="48.62742" lon="2.03111">
        <ele>149.7</ele>
        <time>2025-03-19T20:00:43.368Z</time>
      </trkpt>
      <trkpt lat="48.62742" lon="2.03122">
        <ele>149.2</ele>
        <time>2025-03-19T20:00:47.713Z</time>
      </trkpt>
      <trkpt lat="48.62743" lon="2.03133">
        <ele>148.7</ele>
        <time>2025-03-19T20:00:52.058Z</time>
      </trkpt>
      <trkpt lat="48.62743" lon="2.03144">
        <ele>148.2</ele>
        <time>2025-03-19T20:00:56.403Z</time>
      </trkpt>
      <trkpt lat="48.62744" lon="2.03155">
        <ele>147.7</ele>
        <time>2025-03-19T20:01:00.748Z</time>
      </trkpt>
      <trkpt lat="48.62744" lon="2.03166">
        <ele>147.2</ele>
        <time>2025-03-19T20:01:05.093Z</time>
      </trkpt>
      <trkpt lat="48.62745" lon="2.03177">
        <ele>146.8</ele>
        <time>2025-03-19T20:01:09.438Z</time>
      </trkpt>
      <trkpt lat="48.62745" lon="2.03188">
        <ele>146.4</ele>
        <time>2025-03-19T20:01:13.783Z</time>
      </trkpt>
      <trkpt lat="48.62745" lon="2.03199">
        <ele>146.2</ele>
        <time>2025-03-19T20:01:18.128Z</time>
      </trkpt>
      <trkpt lat="48.62746" lon="2.0321">
        <ele>146.2</ele>
        <time>2025-03-19T20:01:22.473Z</time>
      </trkpt>
      <trkpt lat="48.62746" lon="2.03221">
        <ele>146.3</ele>
        <time>2025-03-19T20:01:26.818Z</time>
      </trkpt>
      <trkpt lat="48.62747" lon="2.03232">
        <ele>146.4</ele>
        <time>2025-03-19T20:01:31.163Z</time>
      </trkpt>
      <trkpt lat="48.62747" lon="2.03243">
        <ele>146.4</ele>
        <time>2025-03-19T20:01:35.508Z</time>
      </trkpt>
      <trkpt lat="48.62748" lon="2.03254">
        <ele>146.5</ele>
        <time>2025-03-19T20:01:39.853Z</time>
      </trkpt>
      <trkpt lat="48.62748" lon="2.03265">
        <ele>146.6</ele>
        <time>2025-03-19T20:01:44.198Z</time>
      </trkpt>
      <trkpt lat="48.62748" lon="2.03273">
        <ele>146.5</ele>
        <time>2025-03-19T20:01:47.087Z</time>
      </trkpt>
      <trkpt lat="48.62748" lon="2.0328">
        <ele>146.4</ele>
        <time>2025-03-19T20:01:49.976Z</time>
      </trkpt>
      <trkpt lat="48.62747" lon="2.03288">
        <ele>146.1</ele>
        <time>2025-03-19T20:01:52.865Z</time>
      </trkpt>
      <trkpt lat="48.62747" lon="2.03296">
        <ele>145.8</ele>
        <time>2025-03-19T20:01:55.754Z</time>
      </trkpt>
      <trkpt lat="48.62747" lon="2.03303">
        <ele>145.6</ele>
        <time>2025-03-19T20:01:58.644Z</time>
      </trkpt>
      <trkpt lat="48.62747" lon="2.03311">
        <ele>145.3</ele>
        <time>2025-03-19T20:02:01.534Z</time>
      </trkpt>
      <trkpt lat="48.62747" lon="2.03318">
        <ele>145.1</ele>
        <time>2025-03-19T20:02:04.424Z</time>
      </trkpt>
      <trkpt lat="48.62747" lon="2.03326">
        <ele>144.8</ele>
        <time>2025-03-19T20:02:07.314Z</time>
      </trkpt>
      <trkpt lat="48.62746" lon="2.03334">
        <ele>144.6</ele>
        <time>2025-03-19T20:02:10.204Z</time>
      </trkpt>
      <trkpt lat="48.62746" lon="2.03341">
        <ele>144.3</ele>
        <time>2025-03-19T20:02:13.094Z</time>
      </trkpt>
      <trkpt lat="48.62746" lon="2.03349">
        <ele>144.1</ele>
        <time>2025-03-19T20:02:15.984Z</time>
      </trkpt>
      <trkpt lat="48.62746" lon="2.03357">
        <ele>143.8</ele>
        <time>2025-03-19T20:02:18.874Z</time>
      </trkpt>
      <trkpt lat="48.62746" lon="2.03364">
        <ele>143.6</ele>
        <time>2025-03-19T20:02:21.764Z</time>
      </trkpt>
      <trkpt lat="48.62745" lon="2.03372">
        <ele>143.3</ele>
        <time>2025-03-19T20:02:24.654Z</time>
      </trkpt>
      <trkpt lat="48.62745" lon="2.03379">
        <ele>143</ele>
        <time>2025-03-19T20:02:27.544Z</time>
      </trkpt>
      <trkpt lat="48.62745" lon="2.03387">
        <ele>142.7</ele>
        <time>2025-03-19T20:02:30.435Z</time>
      </trkpt>
      <trkpt lat="48.62743" lon="2.03399">
        <ele>142.5</ele>
        <time>2025-03-19T20:02:35.497Z</time>
      </trkpt>
      <trkpt lat="48.6274" lon="2.03411">
        <ele>142.3</ele>
        <time>2025-03-19T20:02:40.561Z</time>
      </trkpt>
      <trkpt lat="48.6274" lon="2.0342">
        <ele>142.3</ele>
        <time>2025-03-19T20:02:44.193Z</time>
      </trkpt>
      <trkpt lat="48.6274" lon="2.03428">
        <ele>142.2</ele>
        <time>2025-03-19T20:02:47.825Z</time>
      </trkpt>
      <trkpt lat="48.62739" lon="2.03437">
        <ele>142.2</ele>
        <time>2025-03-19T20:02:51.458Z</time>
      </trkpt>
      <trkpt lat="48.62739" lon="2.03445">
        <ele>142.2</ele>
        <time>2025-03-19T20:02:55.092Z</time>
      </trkpt>
      <trkpt lat="48.62741" lon="2.03457">
        <ele>142.2</ele>
        <time>2025-03-19T20:03:00.843Z</time>
      </trkpt>
      <trkpt lat="48.62743" lon="2.03469">
        <ele>142.3</ele>
        <time>2025-03-19T20:03:06.594Z</time>
      </trkpt>
      <trkpt lat="48.62745" lon="2.03481">
        <ele>142.5</ele>
        <time>2025-03-19T20:03:12.345Z</time>
      </trkpt>
      <trkpt lat="48.62747" lon="2.03494">
        <ele>142.7</ele>
        <time>2025-03-19T20:03:18.096Z</time>
      </trkpt>
      <trkpt lat="48.62749" lon="2.03506">
        <ele>142.9</ele>
        <time>2025-03-19T20:03:23.847Z</time>
      </trkpt>
      <trkpt lat="48.62751" lon="2.03518">
        <ele>143.2</ele>
        <time>2025-03-19T20:03:29.598Z</time>
      </trkpt>
      <trkpt lat="48.62753" lon="2.0353">
        <ele>143.5</ele>
        <time>2025-03-19T20:03:35.350Z</time>
      </trkpt>
      <trkpt lat="48.62755" lon="2.03542">
        <ele>143.5</ele>
        <time>2025-03-19T20:03:41.102Z</time>
      </trkpt>
      <trkpt lat="48.62758" lon="2.03552">
        <ele>143.7</ele>
        <time>2025-03-19T20:03:46.274Z</time>
      </trkpt>
      <trkpt lat="48.6276" lon="2.03562">
        <ele>144.1</ele>
        <time>2025-03-19T20:03:51.446Z</time>
      </trkpt>
      <trkpt lat="48.62763" lon="2.03572">
        <ele>144.5</ele>
        <time>2025-03-19T20:03:56.618Z</time>
      </trkpt>
      <trkpt lat="48.62766" lon="2.03582">
        <ele>144.8</ele>
        <time>2025-03-19T20:04:01.791Z</time>
      </trkpt>
      <trkpt lat="48.62768" lon="2.03592">
        <ele>145.1</ele>
        <time>2025-03-19T20:04:06.964Z</time>
      </trkpt>
      <trkpt lat="48.62771" lon="2.03602">
        <ele>145.2</ele>
        <time>2025-03-19T20:04:12.137Z</time>
      </trkpt>
      <trkpt lat="48.62773" lon="2.03612">
        <ele>145.3</ele>
        <time>2025-03-19T20:04:17.310Z</time>
      </trkpt>
      <trkpt lat="48.62776" lon="2.03622">
        <ele>145.4</ele>
        <time>2025-03-19T20:04:22.483Z</time>
      </trkpt>
      <trkpt lat="48.62778" lon="2.0363">
        <ele>145.4</ele>
        <time>2025-03-19T20:04:26.622Z</time>
      </trkpt>
      <trkpt lat="48.62781" lon="2.03638">
        <ele>145.6</ele>
        <time>2025-03-19T20:04:30.761Z</time>
      </trkpt>
      <trkpt lat="48.62783" lon="2.03645">
        <ele>146</ele>
        <time>2025-03-19T20:04:34.900Z</time>
      </trkpt>
      <trkpt lat="48.62785" lon="2.03653">
        <ele>146.3</ele>
        <time>2025-03-19T20:04:39.039Z</time>
      </trkpt>
      <trkpt lat="48.62787" lon="2.03661">
        <ele>146.5</ele>
        <time>2025-03-19T20:04:43.178Z</time>
      </trkpt>
      <trkpt lat="48.6279" lon="2.03669">
        <ele>146.6</ele>
        <time>2025-03-19T20:04:47.317Z</time>
      </trkpt>
      <trkpt lat="48.62792" lon="2.03677">
        <ele>146.7</ele>
        <time>2025-03-19T20:04:51.456Z</time>
      </trkpt>
      <trkpt lat="48.62794" lon="2.03685">
        <ele>146.7</ele>
        <time>2025-03-19T20:04:55.595Z</time>
      </trkpt>
      <trkpt lat="48.62796" lon="2.03692">
        <ele>146.7</ele>
        <time>2025-03-19T20:04:59.735Z</time>
      </trkpt>
      <trkpt lat="48.62799" lon="2.037">
        <ele>147</ele>
        <time>2025-03-19T20:05:03.875Z</time>
      </trkpt>
      <trkpt lat="48.62801" lon="2.03708">
        <ele>147.3</ele>
        <time>2025-03-19T20:05:08.015Z</time>
      </trkpt>
      <trkpt lat="48.62803" lon="2.03716">
        <ele>147.6</ele>
        <time>2025-03-19T20:05:12.155Z</time>
      </trkpt>
      <trkpt lat="48.62805" lon="2.03724">
        <ele>148</ele>
        <time>2025-03-19T20:05:16.295Z</time>
      </trkpt>
      <trkpt lat="48.62808" lon="2.03731">
        <ele>148.3</ele>
        <time>2025-03-19T20:05:20.435Z</time>
      </trkpt>
      <trkpt lat="48.6281" lon="2.03739">
        <ele>148.5</ele>
        <time>2025-03-19T20:05:24.575Z</time>
      </trkpt>
      <trkpt lat="48.62812" lon="2.03747">
        <ele>148.7</ele>
        <time>2025-03-19T20:05:28.715Z</time>
      </trkpt>
      <trkpt lat="48.62814" lon="2.03754">
        <ele>148.8</ele>
        <time>2025-03-19T20:05:31.878Z</time>
      </trkpt>
      <trkpt lat="48.62817" lon="2.03761">
        <ele>148.8</ele>
        <time>2025-03-19T20:05:35.041Z</time>
      </trkpt>
      <trkpt lat="48.62819" lon="2.03767">
        <ele>148.8</ele>
        <time>2025-03-19T20:05:38.204Z</time>
      </trkpt>
      <trkpt lat="48.62822" lon="2.03774">
        <ele>148.9</ele>
        <time>2025-03-19T20:05:41.367Z</time>
      </trkpt>
      <trkpt lat="48.62824" lon="2.03781">
        <ele>148.8</ele>
        <time>2025-03-19T20:05:44.530Z</time>
      </trkpt>
      <trkpt lat="48.62826" lon="2.03788">
        <ele>148.6</ele>
        <time>2025-03-19T20:05:47.694Z</time>
      </trkpt>
      <trkpt lat="48.62829" lon="2.03794">
        <ele>148.4</ele>
        <time>2025-03-19T20:05:50.858Z</time>
      </trkpt>
      <trkpt lat="48.62831" lon="2.03801">
        <ele>148.1</ele>
        <time>2025-03-19T20:05:54.022Z</time>
      </trkpt>
      <trkpt lat="48.62834" lon="2.03808">
        <ele>148</ele>
        <time>2025-03-19T20:05:57.060Z</time>
      </trkpt>
      <trkpt lat="48.62837" lon="2.03814">
        <ele>147.9</ele>
        <time>2025-03-19T20:06:00.098Z</time>
      </trkpt>
      <trkpt lat="48.6284" lon="2.03821">
        <ele>147.8</ele>
        <time>2025-03-19T20:06:03.136Z</time>
      </trkpt>
      <trkpt lat="48.62843" lon="2.03827">
        <ele>147.7</ele>
        <time>2025-03-19T20:06:06.174Z</time>
      </trkpt>
      <trkpt lat="48.62846" lon="2.03834">
        <ele>147.4</ele>
        <time>2025-03-19T20:06:09.212Z</time>
      </trkpt>
      <trkpt lat="48.62849" lon="2.0384">
        <ele>147.1</ele>
        <time>2025-03-19T20:06:12.250Z</time>
      </trkpt>
      <trkpt lat="48.62852" lon="2.03847">
        <ele>146.7</ele>
        <time>2025-03-19T20:06:15.288Z</time>
      </trkpt>
      <trkpt lat="48.62855" lon="2.03853">
        <ele>146.4</ele>
        <time>2025-03-19T20:06:18.327Z</time>
      </trkpt>
      <trkpt lat="48.62858" lon="2.03859">
        <ele>146</ele>
        <time>2025-03-19T20:06:21.171Z</time>
      </trkpt>
      <trkpt lat="48.6286" lon="2.03866">
        <ele>145.6</ele>
        <time>2025-03-19T20:06:24.015Z</time>
      </trkpt>
      <trkpt lat="48.62863" lon="2.03872">
        <ele>145.3</ele>
        <time>2025-03-19T20:06:26.859Z</time>
      </trkpt>
      <trkpt lat="48.62866" lon="2.03879">
        <ele>144.9</ele>
        <time>2025-03-19T20:06:29.703Z</time>
      </trkpt>
      <trkpt lat="48.62868" lon="2.03885">
        <ele>144.5</ele>
        <time>2025-03-19T20:06:32.548Z</time>
      </trkpt>
      <trkpt lat="48.62871" lon="2.03891">
        <ele>144.2</ele>
        <time>2025-03-19T20:06:35.393Z</time>
      </trkpt>
      <trkpt lat="48.62873" lon="2.03898">
        <ele>143.8</ele>
        <time>2025-03-19T20:06:38.238Z</time>
      </trkpt>
      <trkpt lat="48.62876" lon="2.03904">
        <ele>143.4</ele>
        <time>2025-03-19T20:06:41.083Z</time>
      </trkpt>
      <trkpt lat="48.6288" lon="2.03912">
        <ele>143</ele>
        <time>2025-03-19T20:06:44.759Z</time>
      </trkpt>
      <trkpt lat="48.62884" lon="2.0392">
        <ele>142.6</ele>
        <time>2025-03-19T20:06:48.435Z</time>
      </trkpt>
      <trkpt lat="48.62887" lon="2.03928">
        <ele>142.2</ele>
        <time>2025-03-19T20:06:52.111Z</time>
      </trkpt>
      <trkpt lat="48.62891" lon="2.03936">
        <ele>141.6</ele>
        <time>2025-03-19T20:06:55.787Z</time>
      </trkpt>
      <trkpt lat="48.62895" lon="2.03943">
        <ele>141.1</ele>
        <time>2025-03-19T20:06:59.463Z</time>
      </trkpt>
      <trkpt lat="48.62899" lon="2.03951">
        <ele>140.8</ele>
        <time>2025-03-19T20:07:03.139Z</time>
      </trkpt>
      <trkpt lat="48.62902" lon="2.03959">
        <ele>140.5</ele>
        <time>2025-03-19T20:07:06.815Z</time>
      </trkpt>
      <trkpt lat="48.62906" lon="2.03967">
        <ele>140.2</ele>
        <time>2025-03-19T20:07:10.491Z</time>
      </trkpt>
      <trkpt lat="48.62907" lon="2.03976">
        <ele>139.9</ele>
        <time>2025-03-19T20:07:13.947Z</time>
      </trkpt>
      <trkpt lat="48.62911" lon="2.03983">
        <ele>139.6</ele>
        <time>2025-03-19T20:07:17.512Z</time>
      </trkpt>
      <trkpt lat="48.62915" lon="2.03989">
        <ele>139.4</ele>
        <time>2025-03-19T20:07:21.077Z</time>
      </trkpt>
      <trkpt lat="48.62919" lon="2.03996">
        <ele>139.2</ele>
        <time>2025-03-19T20:07:24.642Z</time>
      </trkpt>
      <trkpt lat="48.62923" lon="2.04003">
        <ele>139.1</ele>
        <time>2025-03-19T20:07:28.207Z</time>
      </trkpt>
      <trkpt lat="48.62926" lon="2.04009">
        <ele>139</ele>
        <time>2025-03-19T20:07:31.772Z</time>
      </trkpt>
      <trkpt lat="48.6293" lon="2.04016">
        <ele>138.9</ele>
        <time>2025-03-19T20:07:35.338Z</time>
      </trkpt>
      <trkpt lat="48.62934" lon="2.04022">
        <ele>138.8</ele>
        <time>2025-03-19T20:07:38.904Z</time>
      </trkpt>
      <trkpt lat="48.62938" lon="2.04029">
        <ele>138.8</ele>
        <time>2025-03-19T20:07:42.470Z</time>
      </trkpt>
      <trkpt lat="48.62943" lon="2.04038">
        <ele>138.9</ele>
        <time>2025-03-19T20:07:48.241Z</time>
      </trkpt>
      <trkpt lat="48.62948" lon="2.04048">
        <ele>139.1</ele>
        <time>2025-03-19T20:07:54.012Z</time>
      </trkpt>
      <trkpt lat="48.62953" lon="2.04057">
        <ele>139.3</ele>
        <time>2025-03-19T20:07:59.783Z</time>
      </trkpt>
      <trkpt lat="48.62958" lon="2.04066">
        <ele>139.9</ele>
        <time>2025-03-19T20:08:05.554Z</time>
      </trkpt>
      <trkpt lat="48.62963" lon="2.04072">
        <ele>140.2</ele>
        <time>2025-03-19T20:08:10.453Z</time>
      </trkpt>
      <trkpt lat="48.62967" lon="2.04078">
        <ele>140.6</ele>
        <time>2025-03-19T20:08:15.352Z</time>
      </trkpt>
      <trkpt lat="48.62972" lon="2.04084">
        <ele>141</ele>
        <time>2025-03-19T20:08:20.251Z</time>
      </trkpt>
      <trkpt lat="48.62976" lon="2.0409">
        <ele>141.6</ele>
        <time>2025-03-19T20:08:25.151Z</time>
      </trkpt>
      <trkpt lat="48.62981" lon="2.04096">
        <ele>142.1</ele>
        <time>2025-03-19T20:08:30.051Z</time>
      </trkpt>
      <trkpt lat="48.62985" lon="2.04102">
        <ele>142.5</ele>
        <time>2025-03-19T20:08:34.951Z</time>
      </trkpt>
      <trkpt lat="48.6299" lon="2.04108">
        <ele>142.8</ele>
        <time>2025-03-19T20:08:39.851Z</time>
      </trkpt>
      <trkpt lat="48.62994" lon="2.04114">
        <ele>143.2</ele>
        <time>2025-03-19T20:08:44.751Z</time>
      </trkpt>
      <trkpt lat="48.63" lon="2.0412">
        <ele>143.6</ele>
        <time>2025-03-19T20:08:50.599Z</time>
      </trkpt>
      <trkpt lat="48.63005" lon="2.04126">
        <ele>144.3</ele>
        <time>2025-03-19T20:08:56.447Z</time>
      </trkpt>
      <trkpt lat="48.63011" lon="2.04132">
        <ele>144.9</ele>
        <time>2025-03-19T20:09:02.295Z</time>
      </trkpt>
      <trkpt lat="48.63016" lon="2.04138">
        <ele>145.5</ele>
        <time>2025-03-19T20:09:08.143Z</time>
        <extensions>
          <visugpx:TrkExtension xmlns:visugpx="https://www.visugpx.com/editgpx/">
            <visugpx:node>18</visugpx:node>
            </visugpx:TrkExtension>
        </extensions>
      </trkpt>
      <trkpt lat="48.63016" lon="2.04138">
        <ele>145.5</ele>
        <time>2025-03-19T20:09:08.143Z</time>
      </trkpt>
      <trkpt lat="48.6302" lon="2.04143">
        <ele>146</ele>
        <time>2025-03-19T20:09:12.922Z</time>
      </trkpt>
      <trkpt lat="48.63024" lon="2.04147">
        <ele>146.5</ele>
        <time>2025-03-19T20:09:17.701Z</time>
      </trkpt>
      <trkpt lat="48.63029" lon="2.04152">
        <ele>147</ele>
        <time>2025-03-19T20:09:22.480Z</time>
      </trkpt>
      <trkpt lat="48.63033" lon="2.04156">
        <ele>147.4</ele>
        <time>2025-03-19T20:09:27.259Z</time>
      </trkpt>
      <trkpt lat="48.63037" lon="2.04161">
        <ele>147.9</ele>
        <time>2025-03-19T20:09:32.038Z</time>
      </trkpt>
      <trkpt lat="48.63041" lon="2.04165">
        <ele>148.4</ele>
        <time>2025-03-19T20:09:36.817Z</time>
      </trkpt>
      <trkpt lat="48.63045" lon="2.0417">
        <ele>148.8</ele>
        <time>2025-03-19T20:09:41.597Z</time>
      </trkpt>
      <trkpt lat="48.6305" lon="2.04175">
        <ele>149.3</ele>
        <time>2025-03-19T20:09:46.377Z</time>
      </trkpt>
      <trkpt lat="48.63054" lon="2.04179">
        <ele>149.8</ele>
        <time>2025-03-19T20:09:51.157Z</time>
      </trkpt>
      <trkpt lat="48.63058" lon="2.04184">
        <ele>150.4</ele>
        <time>2025-03-19T20:09:55.937Z</time>
      </trkpt>
      <trkpt lat="48.63062" lon="2.04188">
        <ele>151</ele>
        <time>2025-03-19T20:10:00.717Z</time>
      </trkpt>
      <trkpt lat="48.63066" lon="2.04193">
        <ele>151.6</ele>
        <time>2025-03-19T20:10:05.497Z</time>
      </trkpt>
      <trkpt lat="48.6307" lon="2.04197">
        <ele>152.3</ele>
        <time>2025-03-19T20:10:10.277Z</time>
      </trkpt>
      <trkpt lat="48.63075" lon="2.04202">
        <ele>152.9</ele>
        <time>2025-03-19T20:10:15.057Z</time>
      </trkpt>
      <trkpt lat="48.63079" lon="2.04206">
        <ele>153.5</ele>
        <time>2025-03-19T20:10:19.837Z</time>
      </trkpt>
      <trkpt lat="48.63083" lon="2.04211">
        <ele>154.2</ele>
        <time>2025-03-19T20:10:24.617Z</time>
      </trkpt>
      <trkpt lat="48.63088" lon="2.04217">
        <ele>154.9</ele>
        <time>2025-03-19T20:10:29.243Z</time>
      </trkpt>
      <trkpt lat="48.63093" lon="2.04222">
        <ele>155.7</ele>
        <time>2025-03-19T20:10:33.869Z</time>
      </trkpt>
      <trkpt lat="48.63097" lon="2.04228">
        <ele>156.1</ele>
        <time>2025-03-19T20:10:38.495Z</time>
      </trkpt>
      <trkpt lat="48.63102" lon="2.04234">
        <ele>156.5</ele>
        <time>2025-03-19T20:10:43.121Z</time>
      </trkpt>
      <trkpt lat="48.63107" lon="2.04239">
        <ele>156.8</ele>
        <time>2025-03-19T20:10:47.747Z</time>
      </trkpt>
      <trkpt lat="48.63112" lon="2.04245">
        <ele>157</ele>
        <time>2025-03-19T20:10:52.373Z</time>
      </trkpt>
      <trkpt lat="48.63117" lon="2.0425">
        <ele>157.2</ele>
        <time>2025-03-19T20:10:56.999Z</time>
      </trkpt>
      <trkpt lat="48.63122" lon="2.04256">
        <ele>157.4</ele>
        <time>2025-03-19T20:11:01.625Z</time>
      </trkpt>
      <trkpt lat="48.63126" lon="2.04262">
        <ele>157.5</ele>
        <time>2025-03-19T20:11:06.251Z</time>
      </trkpt>
      <trkpt lat="48.63131" lon="2.04267">
        <ele>157.7</ele>
        <time>2025-03-19T20:11:10.878Z</time>
      </trkpt>
      <trkpt lat="48.63136" lon="2.04273">
        <ele>157.9</ele>
        <time>2025-03-19T20:11:15.505Z</time>
      </trkpt>
      <trkpt lat="48.63141" lon="2.04279">
        <ele>158.1</ele>
        <time>2025-03-19T20:11:20.132Z</time>
      </trkpt>
      <trkpt lat="48.63146" lon="2.04284">
        <ele>158.2</ele>
        <time>2025-03-19T20:11:24.759Z</time>
      </trkpt>
      <trkpt lat="48.6315" lon="2.0429">
        <ele>158.4</ele>
        <time>2025-03-19T20:11:29.386Z</time>
      </trkpt>
      <trkpt lat="48.63155" lon="2.04295">
        <ele>158.6</ele>
        <time>2025-03-19T20:11:34.013Z</time>
      </trkpt>
      <trkpt lat="48.6316" lon="2.04301">
        <ele>158.8</ele>
        <time>2025-03-19T20:11:38.640Z</time>
        <extensions>
          <visugpx:TrkExtension xmlns:visugpx="https://www.visugpx.com/editgpx/">
            <visugpx:node>19</visugpx:node>
            </visugpx:TrkExtension>
        </extensions>
      </trkpt>
      <trkpt lat="48.63167" lon="2.04309">
        <ele>158.9</ele>
        <time>2025-03-19T20:11:44.188Z</time>
      </trkpt>
      <trkpt lat="48.63174" lon="2.04317">
        <ele>158.6</ele>
        <time>2025-03-19T20:11:49.736Z</time>
      </trkpt>
      <trkpt lat="48.63179" lon="2.04322">
        <ele>158.4</ele>
        <time>2025-03-19T20:11:53.236Z</time>
      </trkpt>
      <trkpt lat="48.63184" lon="2.04328">
        <ele>158.2</ele>
        <time>2025-03-19T20:11:56.736Z</time>
      </trkpt>
      <trkpt lat="48.63189" lon="2.04333">
        <ele>158</ele>
        <time>2025-03-19T20:12:00.237Z</time>
      </trkpt>
      <trkpt lat="48.63194" lon="2.04338">
        <ele>157.8</ele>
        <time>2025-03-19T20:12:03.738Z</time>
      </trkpt>
      <trkpt lat="48.63199" lon="2.04344">
        <ele>157.6</ele>
        <time>2025-03-19T20:12:07.239Z</time>
      </trkpt>
      <trkpt lat="48.63204" lon="2.04349">
        <ele>157.2</ele>
        <time>2025-03-19T20:12:10.740Z</time>
      </trkpt>
      <trkpt lat="48.63209" lon="2.04354">
        <ele>156.9</ele>
        <time>2025-03-19T20:12:14.241Z</time>
      </trkpt>
      <trkpt lat="48.63214" lon="2.0436">
        <ele>156.4</ele>
        <time>2025-03-19T20:12:17.742Z</time>
      </trkpt>
      <trkpt lat="48.63219" lon="2.04365">
        <ele>156</ele>
        <time>2025-03-19T20:12:21.243Z</time>
      </trkpt>
      <trkpt lat="48.63224" lon="2.0437">
        <ele>155.6</ele>
        <time>2025-03-19T20:12:24.744Z</time>
      </trkpt>
      <trkpt lat="48.63229" lon="2.04375">
        <ele>155.2</ele>
        <time>2025-03-19T20:12:28.245Z</time>
      </trkpt>
      <trkpt lat="48.63234" lon="2.04381">
        <ele>154.9</ele>
        <time>2025-03-19T20:12:31.746Z</time>
      </trkpt>
      <trkpt lat="48.63239" lon="2.04386">
        <ele>154.5</ele>
        <time>2025-03-19T20:12:35.247Z</time>
      </trkpt>
      <trkpt lat="48.63244" lon="2.04391">
        <ele>154.1</ele>
        <time>2025-03-19T20:12:38.748Z</time>
      </trkpt>
      <trkpt lat="48.63249" lon="2.04397">
        <ele>153.8</ele>
        <time>2025-03-19T20:12:42.249Z</time>
      </trkpt>
      <trkpt lat="48.63254" lon="2.04402">
        <ele>153.4</ele>
        <time>2025-03-19T20:12:45.750Z</time>
      </trkpt>
      <trkpt lat="48.63258" lon="2.04407">
        <ele>153</ele>
        <time>2025-03-19T20:12:48.838Z</time>
      </trkpt>
      <trkpt lat="48.63262" lon="2.04413">
        <ele>152.7</ele>
        <time>2025-03-19T20:12:51.926Z</time>
      </trkpt>
      <trkpt lat="48.63266" lon="2.04418">
        <ele>152.4</ele>
        <time>2025-03-19T20:12:55.014Z</time>
      </trkpt>
      <trkpt lat="48.63271" lon="2.04423">
        <ele>152</ele>
        <time>2025-03-19T20:12:58.103Z</time>
      </trkpt>
      <trkpt lat="48.63275" lon="2.04428">
        <ele>151.7</ele>
        <time>2025-03-19T20:13:01.192Z</time>
      </trkpt>
      <trkpt lat="48.63279" lon="2.04434">
        <ele>151.4</ele>
        <time>2025-03-19T20:13:04.281Z</time>
      </trkpt>
      <trkpt lat="48.63283" lon="2.04439">
        <ele>151</ele>
        <time>2025-03-19T20:13:07.370Z</time>
      </trkpt>
      <trkpt lat="48.63287" lon="2.04444">
        <ele>150.7</ele>
        <time>2025-03-19T20:13:10.459Z</time>
      </trkpt>
      <trkpt lat="48.63285" lon="2.04447">
        <ele>150.7</ele>
        <time>2025-03-19T20:13:12.303Z</time>
      </trkpt>
      <trkpt lat="48.63286" lon="2.04447">
        <ele>150.6</ele>
        <time>2025-03-19T20:13:12.958Z</time>
        <extensions>
          <visugpx:TrkExtension xmlns:visugpx="https://www.visugpx.com/editgpx/">
            <visugpx:node>20</visugpx:node>
            </visugpx:TrkExtension>
        </extensions>
      </trkpt>
      <trkpt lat="48.63287" lon="2.04444">
        <ele>150.7</ele>
        <time>2025-03-19T20:13:14.412Z</time>
      </trkpt>
      <trkpt lat="48.63292" lon="2.0445">
        <ele>150.4</ele>
        <time>2025-03-19T20:13:17.787Z</time>
      </trkpt>
      <trkpt lat="48.63296" lon="2.04456">
        <ele>150.2</ele>
        <time>2025-03-19T20:13:21.162Z</time>
      </trkpt>
      <trkpt lat="48.63301" lon="2.04461">
        <ele>150.1</ele>
        <time>2025-03-19T20:13:24.537Z</time>
      </trkpt>
      <trkpt lat="48.63305" lon="2.04467">
        <ele>150</ele>
        <time>2025-03-19T20:13:27.912Z</time>
      </trkpt>
      <trkpt lat="48.6331" lon="2.04473">
        <ele>149.7</ele>
        <time>2025-03-19T20:13:31.287Z</time>
      </trkpt>
      <trkpt lat="48.63314" lon="2.04479">
        <ele>149.2</ele>
        <time>2025-03-19T20:13:34.662Z</time>
      </trkpt>
      <trkpt lat="48.63319" lon="2.04484">
        <ele>148.8</ele>
        <time>2025-03-19T20:13:38.037Z</time>
      </trkpt>
      <trkpt lat="48.63323" lon="2.0449">
        <ele>148.5</ele>
        <time>2025-03-19T20:13:41.412Z</time>
      </trkpt>
      <trkpt lat="48.63323" lon="2.0449">
        <ele>148.5</ele>
        <time>2025-03-19T20:13:41.412Z</time>
        <extensions>
          <visugpx:TrkExtension xmlns:visugpx="https://www.visugpx.com/editgpx/">
            <visugpx:node>21</visugpx:node>
            </visugpx:TrkExtension>
        </extensions>
      </trkpt>
      <trkpt lat="48.63327" lon="2.04495">
        <ele>148.3</ele>
        <time>2025-03-19T20:13:44.051Z</time>
      </trkpt>
      <trkpt lat="48.6333" lon="2.04499">
        <ele>148.1</ele>
        <time>2025-03-19T20:13:46.691Z</time>
      </trkpt>
      <trkpt lat="48.63333" lon="2.04504">
        <ele>147.8</ele>
        <time>2025-03-19T20:13:49.449Z</time>
      </trkpt>
      <trkpt lat="48.63337" lon="2.0451">
        <ele>147.4</ele>
        <time>2025-03-19T20:13:52.207Z</time>
      </trkpt>
      <trkpt lat="48.6334" lon="2.04515">
        <ele>147</ele>
        <time>2025-03-19T20:13:54.966Z</time>
      </trkpt>
      <trkpt lat="48.63343" lon="2.04521">
        <ele>146.6</ele>
        <time>2025-03-19T20:13:57.725Z</time>
      </trkpt>
      <trkpt lat="48.63346" lon="2.04526">
        <ele>146.1</ele>
        <time>2025-03-19T20:14:00.484Z</time>
      </trkpt>
      <trkpt lat="48.6335" lon="2.04531">
        <ele>145.7</ele>
        <time>2025-03-19T20:14:03.243Z</time>
      </trkpt>
      <trkpt lat="48.63353" lon="2.04537">
        <ele>145.3</ele>
        <time>2025-03-19T20:14:06.002Z</time>
      </trkpt>
      <trkpt lat="48.63356" lon="2.04542">
        <ele>144.9</ele>
        <time>2025-03-19T20:14:08.761Z</time>
      </trkpt>
      <trkpt lat="48.63359" lon="2.04547">
        <ele>144.4</ele>
        <time>2025-03-19T20:14:11.520Z</time>
      </trkpt>
      <trkpt lat="48.63363" lon="2.04553">
        <ele>144.1</ele>
        <time>2025-03-19T20:14:14.279Z</time>
      </trkpt>
      <trkpt lat="48.63366" lon="2.04558">
        <ele>144</ele>
        <time>2025-03-19T20:14:17.038Z</time>
      </trkpt>
      <trkpt lat="48.63369" lon="2.04564">
        <ele>143.9</ele>
        <time>2025-03-19T20:14:19.797Z</time>
      </trkpt>
      <trkpt lat="48.63372" lon="2.04569">
        <ele>143.8</ele>
        <time>2025-03-19T20:14:22.556Z</time>
      </trkpt>
      <trkpt lat="48.63376" lon="2.04574">
        <ele>143.7</ele>
        <time>2025-03-19T20:14:25.315Z</time>
      </trkpt>
      <trkpt lat="48.63379" lon="2.0458">
        <ele>143.5</ele>
        <time>2025-03-19T20:14:28.074Z</time>
      </trkpt>
      <trkpt lat="48.63382" lon="2.04585">
        <ele>143.2</ele>
        <time>2025-03-19T20:14:30.833Z</time>
      </trkpt>
      <trkpt lat="48.63386" lon="2.04592">
        <ele>142.8</ele>
        <time>2025-03-19T20:14:34.367Z</time>
      </trkpt>
      <trkpt lat="48.63389" lon="2.046">
        <ele>142.4</ele>
        <time>2025-03-19T20:14:37.901Z</time>
      </trkpt>
      <trkpt lat="48.63393" lon="2.04607">
        <ele>142.1</ele>
        <time>2025-03-19T20:14:41.435Z</time>
      </trkpt>
      <trkpt lat="48.63396" lon="2.04614">
        <ele>142</ele>
        <time>2025-03-19T20:14:44.969Z</time>
      </trkpt>
      <trkpt lat="48.634" lon="2.04621">
        <ele>141.9</ele>
        <time>2025-03-19T20:14:48.503Z</time>
      </trkpt>
      <trkpt lat="48.63403" lon="2.04629">
        <ele>141.7</ele>
        <time>2025-03-19T20:14:52.037Z</time>
      </trkpt>
      <trkpt lat="48.63407" lon="2.04636">
        <ele>141.4</ele>
        <time>2025-03-19T20:14:55.571Z</time>
      </trkpt>
      <trkpt lat="48.63411" lon="2.04643">
        <ele>141.2</ele>
        <time>2025-03-19T20:14:59.105Z</time>
      </trkpt>
      <trkpt lat="48.63414" lon="2.0465">
        <ele>141.1</ele>
        <time>2025-03-19T20:15:02.639Z</time>
      </trkpt>
      <trkpt lat="48.63418" lon="2.04658">
        <ele>141</ele>
        <time>2025-03-19T20:15:06.173Z</time>
      </trkpt>
      <trkpt lat="48.63421" lon="2.04665">
        <ele>140.8</ele>
        <time>2025-03-19T20:15:09.707Z</time>
      </trkpt>
      <trkpt lat="48.63425" lon="2.04672">
        <ele>140.7</ele>
        <time>2025-03-19T20:15:13.242Z</time>
      </trkpt>
      <trkpt lat="48.63428" lon="2.04679">
        <ele>140.6</ele>
        <time>2025-03-19T20:15:16.777Z</time>
      </trkpt>
      <trkpt lat="48.63432" lon="2.04687">
        <ele>140.5</ele>
        <time>2025-03-19T20:15:20.312Z</time>
      </trkpt>
      <trkpt lat="48.63435" lon="2.04694">
        <ele>140.3</ele>
        <time>2025-03-19T20:15:23.847Z</time>
      </trkpt>
      <trkpt lat="48.63439" lon="2.04701">
        <ele>140</ele>
        <time>2025-03-19T20:15:27.382Z</time>
      </trkpt>
      <trkpt lat="48.63443" lon="2.04711">
        <ele>139.5</ele>
        <time>2025-03-19T20:15:31.702Z</time>
      </trkpt>
      <trkpt lat="48.63447" lon="2.0472">
        <ele>139.1</ele>
        <time>2025-03-19T20:15:36.022Z</time>
      </trkpt>
      <trkpt lat="48.6345" lon="2.0473">
        <ele>139</ele>
        <time>2025-03-19T20:15:40.342Z</time>
      </trkpt>
      <trkpt lat="48.63454" lon="2.04739">
        <ele>139</ele>
        <time>2025-03-19T20:15:44.662Z</time>
      </trkpt>
      <trkpt lat="48.63456" lon="2.04747">
        <ele>139</ele>
        <time>2025-03-19T20:15:48.471Z</time>
      </trkpt>
      <trkpt lat="48.63459" lon="2.04754">
        <ele>138.9</ele>
        <time>2025-03-19T20:15:52.280Z</time>
      </trkpt>
      <trkpt lat="48.63461" lon="2.04762">
        <ele>138.8</ele>
        <time>2025-03-19T20:15:56.089Z</time>
      </trkpt>
      <trkpt lat="48.63464" lon="2.04769">
        <ele>138.8</ele>
        <time>2025-03-19T20:15:59.898Z</time>
      </trkpt>
      <trkpt lat="48.63466" lon="2.04777">
        <ele>138.8</ele>
        <time>2025-03-19T20:16:03.707Z</time>
      </trkpt>
      <trkpt lat="48.63468" lon="2.04784">
        <ele>139</ele>
        <time>2025-03-19T20:16:07.516Z</time>
      </trkpt>
      <trkpt lat="48.63471" lon="2.04792">
        <ele>139.4</ele>
        <time>2025-03-19T20:16:11.325Z</time>
      </trkpt>
      <trkpt lat="48.63473" lon="2.04799">
        <ele>139.8</ele>
        <time>2025-03-19T20:16:15.134Z</time>
      </trkpt>
      <trkpt lat="48.63475" lon="2.04806">
        <ele>140.3</ele>
        <time>2025-03-19T20:16:20.812Z</time>
      </trkpt>
      <trkpt lat="48.63477" lon="2.04813">
        <ele>141.2</ele>
        <time>2025-03-19T20:16:26.490Z</time>
      </trkpt>
      <trkpt lat="48.63479" lon="2.0482">
        <ele>142.1</ele>
        <time>2025-03-19T20:16:32.168Z</time>
      </trkpt>
      <trkpt lat="48.63481" lon="2.04828">
        <ele>143</ele>
        <time>2025-03-19T20:16:37.846Z</time>
      </trkpt>
      <trkpt lat="48.63482" lon="2.04835">
        <ele>143.8</ele>
        <time>2025-03-19T20:16:43.524Z</time>
      </trkpt>
      <trkpt lat="48.63484" lon="2.04842">
        <ele>144.6</ele>
        <time>2025-03-19T20:16:49.202Z</time>
      </trkpt>
      <trkpt lat="48.63486" lon="2.04849">
        <ele>145.4</ele>
        <time>2025-03-19T20:16:54.880Z</time>
      </trkpt>
      <trkpt lat="48.63488" lon="2.04856">
        <ele>146.2</ele>
        <time>2025-03-19T20:17:00.558Z</time>
      </trkpt>
      <trkpt lat="48.6349" lon="2.04863">
        <ele>147.1</ele>
        <time>2025-03-19T20:17:04.472Z</time>
      </trkpt>
      <trkpt lat="48.63491" lon="2.0487">
        <ele>148.1</ele>
        <time>2025-03-19T20:17:08.386Z</time>
      </trkpt>
      <trkpt lat="48.63493" lon="2.04878">
        <ele>149.2</ele>
        <time>2025-03-19T20:17:12.300Z</time>
      </trkpt>
      <trkpt lat="48.63495" lon="2.04885">
        <ele>150.3</ele>
        <time>2025-03-19T20:17:16.214Z</time>
      </trkpt>
      <trkpt lat="48.63497" lon="2.04892">
        <ele>151.3</ele>
        <time>2025-03-19T20:17:20.128Z</time>
      </trkpt>
      <trkpt lat="48.63498" lon="2.04899">
        <ele>151.9</ele>
        <time>2025-03-19T20:17:24.042Z</time>
      </trkpt>
      <trkpt lat="48.635" lon="2.04906">
        <ele>152.6</ele>
        <time>2025-03-19T20:17:27.956Z</time>
      </trkpt>
      <trkpt lat="48.63502" lon="2.04913">
        <ele>152.8</ele>
        <time>2025-03-19T20:17:31.870Z</time>
      </trkpt>
      <trkpt lat="48.63503" lon="2.0492">
        <ele>152.9</ele>
        <time>2025-03-19T20:17:35.784Z</time>
      </trkpt>
      <trkpt lat="48.63505" lon="2.04928">
        <ele>152.9</ele>
        <time>2025-03-19T20:17:39.698Z</time>
      </trkpt>
      <trkpt lat="48.63507" lon="2.04935">
        <ele>152.9</ele>
        <time>2025-03-19T20:17:43.612Z</time>
      </trkpt>
      <trkpt lat="48.63508" lon="2.04942">
        <ele>153</ele>
        <time>2025-03-19T20:17:47.526Z</time>
      </trkpt>
      <trkpt lat="48.6351" lon="2.04949">
        <ele>153</ele>
        <time>2025-03-19T20:17:51.440Z</time>
      </trkpt>
      <trkpt lat="48.63512" lon="2.04956">
        <ele>152.9</ele>
        <time>2025-03-19T20:17:55.354Z</time>
      </trkpt>
      <trkpt lat="48.63514" lon="2.04963">
        <ele>153</ele>
        <time>2025-03-19T20:17:59.268Z</time>
      </trkpt>
      <trkpt lat="48.63515" lon="2.04971">
        <ele>153.1</ele>
        <time>2025-03-19T20:18:03.182Z</time>
      </trkpt>
      <trkpt lat="48.63517" lon="2.04978">
        <ele>153.2</ele>
        <time>2025-03-19T20:18:07.096Z</time>
      </trkpt>
      <trkpt lat="48.63519" lon="2.04985">
        <ele>153.3</ele>
        <time>2025-03-19T20:18:11.010Z</time>
      </trkpt>
      <trkpt lat="48.6352" lon="2.04992">
        <ele>153.5</ele>
        <time>2025-03-19T20:18:14.924Z</time>
      </trkpt>
      <trkpt lat="48.63522" lon="2.04999">
        <ele>153.6</ele>
        <time>2025-03-19T20:18:18.838Z</time>
      </trkpt>
      <trkpt lat="48.63524" lon="2.05006">
        <ele>153.9</ele>
        <time>2025-03-19T20:18:22.752Z</time>
      </trkpt>
      <trkpt lat="48.63526" lon="2.05013">
        <ele>154.3</ele>
        <time>2025-03-19T20:18:26.666Z</time>
      </trkpt>
      <trkpt lat="48.63527" lon="2.05021">
        <ele>154.7</ele>
        <time>2025-03-19T20:18:30.580Z</time>
      </trkpt>
      <trkpt lat="48.63529" lon="2.05028">
        <ele>155</ele>
        <time>2025-03-19T20:18:34.494Z</time>
      </trkpt>
      <trkpt lat="48.63531" lon="2.05035">
        <ele>155.3</ele>
        <time>2025-03-19T20:18:38.408Z</time>
      </trkpt>
      <trkpt lat="48.63532" lon="2.05042">
        <ele>155.7</ele>
        <time>2025-03-19T20:18:42.322Z</time>
      </trkpt>
      <trkpt lat="48.63534" lon="2.05049">
        <ele>156.1</ele>
        <time>2025-03-19T20:18:46.236Z</time>
      </trkpt>
      <trkpt lat="48.63536" lon="2.05056">
        <ele>156.6</ele>
        <time>2025-03-19T20:18:50.150Z</time>
      </trkpt>
      <trkpt lat="48.63537" lon="2.05064">
        <ele>157</ele>
        <time>2025-03-19T20:18:54.064Z</time>
      </trkpt>
      <trkpt lat="48.63539" lon="2.05071">
        <ele>157.5</ele>
        <time>2025-03-19T20:18:57.978Z</time>
      </trkpt>
      <trkpt lat="48.63541" lon="2.05078">
        <ele>158.1</ele>
        <time>2025-03-19T20:19:01.892Z</time>
      </trkpt>
      <trkpt lat="48.63543" lon="2.05085">
        <ele>158.7</ele>
        <time>2025-03-19T20:19:05.806Z</time>
      </trkpt>
      <trkpt lat="48.63544" lon="2.05092">
        <ele>159.1</ele>
        <time>2025-03-19T20:19:09.720Z</time>
      </trkpt>
      <trkpt lat="48.63546" lon="2.05099">
        <ele>159.5</ele>
        <time>2025-03-19T20:19:13.634Z</time>
      </trkpt>
      <trkpt lat="48.63548" lon="2.05107">
        <ele>159.8</ele>
        <time>2025-03-19T20:19:17.549Z</time>
      </trkpt>
      <trkpt lat="48.63549" lon="2.05114">
        <ele>160.1</ele>
        <time>2025-03-19T20:19:21.464Z</time>
      </trkpt>
      <trkpt lat="48.63551" lon="2.05121">
        <ele>160.3</ele>
        <time>2025-03-19T20:19:25.379Z</time>
      </trkpt>
      <trkpt lat="48.63553" lon="2.05128">
        <ele>160.6</ele>
        <time>2025-03-19T20:19:29.294Z</time>
      </trkpt>
      <trkpt lat="48.63554" lon="2.05135">
        <ele>160.8</ele>
        <time>2025-03-19T20:19:33.209Z</time>
      </trkpt>
      <trkpt lat="48.63556" lon="2.05142">
        <ele>161</ele>
        <time>2025-03-19T20:19:37.124Z</time>
      </trkpt>
      <trkpt lat="48.63558" lon="2.05149">
        <ele>160.9</ele>
        <time>2025-03-19T20:19:41.039Z</time>
      </trkpt>
      <trkpt lat="48.6356" lon="2.05157">
        <ele>160.9</ele>
        <time>2025-03-19T20:19:44.954Z</time>
      </trkpt>
      <trkpt lat="48.63561" lon="2.05164">
        <ele>160.9</ele>
        <time>2025-03-19T20:19:48.869Z</time>
      </trkpt>
      <trkpt lat="48.63563" lon="2.05171">
        <ele>160.9</ele>
        <time>2025-03-19T20:19:52.784Z</time>
      </trkpt>
      <trkpt lat="48.63565" lon="2.05178">
        <ele>160.9</ele>
        <time>2025-03-19T20:19:56.699Z</time>
      </trkpt>
      <trkpt lat="48.63566" lon="2.05185">
        <ele>160.9</ele>
        <time>2025-03-19T20:20:00.614Z</time>
      </trkpt>
      <trkpt lat="48.63568" lon="2.05192">
        <ele>160.9</ele>
        <time>2025-03-19T20:20:04.529Z</time>
      </trkpt>
      <trkpt lat="48.6357" lon="2.052">
        <ele>161</ele>
        <time>2025-03-19T20:20:08.444Z</time>
      </trkpt>
      <trkpt lat="48.63572" lon="2.05207">
        <ele>161.3</ele>
        <time>2025-03-19T20:20:12.359Z</time>
      </trkpt>
      <trkpt lat="48.63573" lon="2.05214">
        <ele>161.5</ele>
        <time>2025-03-19T20:20:16.274Z</time>
      </trkpt>
      <trkpt lat="48.63575" lon="2.05221">
        <ele>161.8</ele>
        <time>2025-03-19T20:20:20.189Z</time>
      </trkpt>
      <trkpt lat="48.63577" lon="2.05228">
        <ele>161.9</ele>
        <time>2025-03-19T20:20:24.104Z</time>
      </trkpt>
      <trkpt lat="48.63578" lon="2.05235">
        <ele>162</ele>
        <time>2025-03-19T20:20:28.019Z</time>
      </trkpt>
      <trkpt lat="48.6358" lon="2.05242">
        <ele>162</ele>
        <time>2025-03-19T20:20:31.934Z</time>
      </trkpt>
      <trkpt lat="48.63582" lon="2.0525">
        <ele>161.9</ele>
        <time>2025-03-19T20:20:35.849Z</time>
      </trkpt>
      <trkpt lat="48.63583" lon="2.05257">
        <ele>162</ele>
        <time>2025-03-19T20:20:39.764Z</time>
      </trkpt>
      <trkpt lat="48.63585" lon="2.05264">
        <ele>162.3</ele>
        <time>2025-03-19T20:20:43.679Z</time>
      </trkpt>
      <trkpt lat="48.63587" lon="2.05271">
        <ele>162.6</ele>
        <time>2025-03-19T20:20:47.594Z</time>
      </trkpt>
      <trkpt lat="48.63589" lon="2.05278">
        <ele>162.8</ele>
        <time>2025-03-19T20:20:51.509Z</time>
      </trkpt>
      <trkpt lat="48.6359" lon="2.05285">
        <ele>163.1</ele>
        <time>2025-03-19T20:20:55.424Z</time>
      </trkpt>
      <trkpt lat="48.63592" lon="2.05293">
        <ele>163.4</ele>
        <time>2025-03-19T20:20:59.339Z</time>
      </trkpt>
      <trkpt lat="48.63594" lon="2.053">
        <ele>163.7</ele>
        <time>2025-03-19T20:21:03.254Z</time>
      </trkpt>
      <trkpt lat="48.63595" lon="2.05307">
        <ele>163.8</ele>
        <time>2025-03-19T20:21:07.169Z</time>
      </trkpt>
      <trkpt lat="48.63597" lon="2.05314">
        <ele>163.7</ele>
        <time>2025-03-19T20:21:11.084Z</time>
      </trkpt>
      <trkpt lat="48.636" lon="2.05324">
        <ele>163.4</ele>
        <time>2025-03-19T20:21:15.321Z</time>
      </trkpt>
      <trkpt lat="48.63602" lon="2.05334">
        <ele>163</ele>
        <time>2025-03-19T20:21:19.558Z</time>
      </trkpt>
      <trkpt lat="48.63605" lon="2.05343">
        <ele>163.1</ele>
        <time>2025-03-19T20:21:23.795Z</time>
      </trkpt>
      <trkpt lat="48.63607" lon="2.05353">
        <ele>163.1</ele>
        <time>2025-03-19T20:21:28.033Z</time>
      </trkpt>
      <trkpt lat="48.63607" lon="2.05353">
        <ele>163.1</ele>
        <time>2025-03-19T20:21:28.033Z</time>
        <extensions>
          <visugpx:TrkExtension xmlns:visugpx="https://www.visugpx.com/editgpx/">
            <visugpx:node>22</visugpx:node>
            </visugpx:TrkExtension>
        </extensions>
      </trkpt>
      <trkpt lat="48.63609" lon="2.05361">
        <ele>163.1</ele>
        <time>2025-03-19T20:21:32.603Z</time>
      </trkpt>
      <trkpt lat="48.63611" lon="2.05368">
        <ele>163.3</ele>
        <time>2025-03-19T20:21:37.174Z</time>
      </trkpt>
      <trkpt lat="48.63613" lon="2.05376">
        <ele>163.7</ele>
        <time>2025-03-19T20:21:41.745Z</time>
      </trkpt>
      <trkpt lat="48.63615" lon="2.05384">
        <ele>164.2</ele>
        <time>2025-03-19T20:21:46.316Z</time>
      </trkpt>
      <trkpt lat="48.63616" lon="2.05391">
        <ele>164.7</ele>
        <time>2025-03-19T20:21:50.887Z</time>
      </trkpt>
      <trkpt lat="48.63618" lon="2.05399">
        <ele>165.3</ele>
        <time>2025-03-19T20:21:55.458Z</time>
      </trkpt>
      <trkpt lat="48.6362" lon="2.05407">
        <ele>165.8</ele>
        <time>2025-03-19T20:22:00.029Z</time>
      </trkpt>
      <trkpt lat="48.63622" lon="2.05415">
        <ele>166.3</ele>
        <time>2025-03-19T20:22:04.600Z</time>
      </trkpt>
      <trkpt lat="48.63624" lon="2.05422">
        <ele>166.9</ele>
        <time>2025-03-19T20:22:09.171Z</time>
      </trkpt>
      <trkpt lat="48.63626" lon="2.0543">
        <ele>167.5</ele>
        <time>2025-03-19T20:22:13.742Z</time>
      </trkpt>
      <trkpt lat="48.63628" lon="2.05438">
        <ele>168.1</ele>
        <time>2025-03-19T20:22:18.313Z</time>
      </trkpt>
      <trkpt lat="48.6363" lon="2.05445">
        <ele>168.7</ele>
        <time>2025-03-19T20:22:22.884Z</time>
      </trkpt>
      <trkpt lat="48.63631" lon="2.05453">
        <ele>169</ele>
        <time>2025-03-19T20:22:27.455Z</time>
      </trkpt>
      <trkpt lat="48.63633" lon="2.05461">
        <ele>169.4</ele>
        <time>2025-03-19T20:22:32.026Z</time>
      </trkpt>
      <trkpt lat="48.63635" lon="2.05468">
        <ele>169.7</ele>
        <time>2025-03-19T20:22:36.597Z</time>
      </trkpt>
      <trkpt lat="48.63637" lon="2.05476">
        <ele>169.9</ele>
        <time>2025-03-19T20:22:41.168Z</time>
      </trkpt>
      <trkpt lat="48.6364" lon="2.05484">
        <ele>170</ele>
        <time>2025-03-19T20:22:45.145Z</time>
      </trkpt>
      <trkpt lat="48.63642" lon="2.05492">
        <ele>170</ele>
        <time>2025-03-19T20:22:49.122Z</time>
      </trkpt>
      <trkpt lat="48.63645" lon="2.055">
        <ele>170</ele>
        <time>2025-03-19T20:22:53.099Z</time>
      </trkpt>
      <trkpt lat="48.63648" lon="2.05509">
        <ele>170</ele>
        <time>2025-03-19T20:22:57.076Z</time>
      </trkpt>
      <trkpt lat="48.6365" lon="2.05517">
        <ele>170</ele>
        <time>2025-03-19T20:23:01.053Z</time>
      </trkpt>
      <trkpt lat="48.63653" lon="2.05525">
        <ele>170</ele>
        <time>2025-03-19T20:23:05.030Z</time>
      </trkpt>
      <trkpt lat="48.63655" lon="2.05533">
        <ele>170</ele>
        <time>2025-03-19T20:23:09.008Z</time>
      </trkpt>
      <trkpt lat="48.63658" lon="2.05541">
        <ele>170</ele>
        <time>2025-03-19T20:23:12.986Z</time>
      </trkpt>
      <trkpt lat="48.63661" lon="2.05549">
        <ele>170</ele>
        <time>2025-03-19T20:23:16.964Z</time>
      </trkpt>
      <trkpt lat="48.63663" lon="2.05557">
        <ele>170</ele>
        <time>2025-03-19T20:23:20.942Z</time>
      </trkpt>
      <trkpt lat="48.63666" lon="2.05565">
        <ele>170</ele>
        <time>2025-03-19T20:23:24.920Z</time>
      </trkpt>
      <trkpt lat="48.63669" lon="2.05574">
        <ele>170.1</ele>
        <time>2025-03-19T20:23:28.898Z</time>
      </trkpt>
      <trkpt lat="48.63671" lon="2.05582">
        <ele>170.2</ele>
        <time>2025-03-19T20:23:32.876Z</time>
      </trkpt>
      <trkpt lat="48.63674" lon="2.0559">
        <ele>170.3</ele>
        <time>2025-03-19T20:23:36.854Z</time>
      </trkpt>
      <trkpt lat="48.63676" lon="2.05598">
        <ele>170.4</ele>
        <time>2025-03-19T20:23:40.832Z</time>
      </trkpt>
      <trkpt lat="48.63679" lon="2.05606">
        <ele>170.4</ele>
        <time>2025-03-19T20:23:44.810Z</time>
      </trkpt>
      <trkpt lat="48.63684" lon="2.05615">
        <ele>170.7</ele>
        <time>2025-03-19T20:23:50.083Z</time>
      </trkpt>
      <trkpt lat="48.63688" lon="2.05625">
        <ele>170.9</ele>
        <time>2025-03-19T20:23:55.356Z</time>
      </trkpt>
      <trkpt lat="48.63693" lon="2.05634">
        <ele>171</ele>
        <time>2025-03-19T20:24:00.629Z</time>
      </trkpt>
      <trkpt lat="48.63698" lon="2.05643">
        <ele>171</ele>
        <time>2025-03-19T20:24:05.902Z</time>
      </trkpt>
      <trkpt lat="48.63702" lon="2.05653">
        <ele>171</ele>
        <time>2025-03-19T20:24:11.175Z</time>
      </trkpt>
      <trkpt lat="48.63707" lon="2.05662">
        <ele>171</ele>
        <time>2025-03-19T20:24:16.448Z</time>
      </trkpt>
      <trkpt lat="48.63712" lon="2.05671">
        <ele>171.1</ele>
        <time>2025-03-19T20:24:21.721Z</time>
      </trkpt>
      <trkpt lat="48.63717" lon="2.05681">
        <ele>171.4</ele>
        <time>2025-03-19T20:24:26.994Z</time>
      </trkpt>
      <trkpt lat="48.63721" lon="2.0569">
        <ele>171.8</ele>
        <time>2025-03-19T20:24:32.267Z</time>
      </trkpt>
      <trkpt lat="48.63726" lon="2.05699">
        <ele>172</ele>
        <time>2025-03-19T20:24:37.540Z</time>
      </trkpt>
      <trkpt lat="48.63731" lon="2.05708">
        <ele>172</ele>
        <time>2025-03-19T20:24:42.814Z</time>
      </trkpt>
      <trkpt lat="48.63735" lon="2.05718">
        <ele>172</ele>
        <time>2025-03-19T20:24:48.088Z</time>
      </trkpt>
      <trkpt lat="48.6374" lon="2.05727">
        <ele>172</ele>
        <time>2025-03-19T20:24:53.362Z</time>
      </trkpt>
      <trkpt lat="48.63745" lon="2.05736">
        <ele>172</ele>
        <time>2025-03-19T20:24:58.636Z</time>
      </trkpt>
      <trkpt lat="48.63749" lon="2.05746">
        <ele>172</ele>
        <time>2025-03-19T20:25:03.910Z</time>
      </trkpt>
      <trkpt lat="48.63754" lon="2.05755">
        <ele>172</ele>
        <time>2025-03-19T20:25:09.184Z</time>
      </trkpt>
      <trkpt lat="48.63759" lon="2.05762">
        <ele>172</ele>
        <time>2025-03-19T20:25:13.759Z</time>
      </trkpt>
      <trkpt lat="48.63764" lon="2.0577">
        <ele>172</ele>
        <time>2025-03-19T20:25:18.334Z</time>
      </trkpt>
      <trkpt lat="48.63768" lon="2.05777">
        <ele>172</ele>
        <time>2025-03-19T20:25:22.909Z</time>
      </trkpt>
      <trkpt lat="48.63773" lon="2.05784">
        <ele>172</ele>
        <time>2025-03-19T20:25:27.484Z</time>
      </trkpt>
      <trkpt lat="48.63778" lon="2.05791">
        <ele>172</ele>
        <time>2025-03-19T20:25:32.059Z</time>
      </trkpt>
      <trkpt lat="48.63783" lon="2.05799">
        <ele>172.1</ele>
        <time>2025-03-19T20:25:36.634Z</time>
      </trkpt>
      <trkpt lat="48.63788" lon="2.05806">
        <ele>172.4</ele>
        <time>2025-03-19T20:25:41.209Z</time>
      </trkpt>
      <trkpt lat="48.63793" lon="2.05813">
        <ele>172.5</ele>
        <time>2025-03-19T20:25:45.784Z</time>
      </trkpt>
      <trkpt lat="48.63797" lon="2.0582">
        <ele>172.7</ele>
        <time>2025-03-19T20:25:50.360Z</time>
      </trkpt>
      <trkpt lat="48.63802" lon="2.05828">
        <ele>172.9</ele>
        <time>2025-03-19T20:25:54.936Z</time>
      </trkpt>
      <trkpt lat="48.63807" lon="2.05835">
        <ele>173</ele>
        <time>2025-03-19T20:25:59.512Z</time>
      </trkpt>
      <trkpt lat="48.63812" lon="2.05842">
        <ele>173</ele>
        <time>2025-03-19T20:26:04.088Z</time>
      </trkpt>
      <trkpt lat="48.63817" lon="2.05849">
        <ele>173</ele>
        <time>2025-03-19T20:26:08.664Z</time>
      </trkpt>
      <trkpt lat="48.63821" lon="2.05857">
        <ele>173</ele>
        <time>2025-03-19T20:26:13.240Z</time>
      </trkpt>
      <trkpt lat="48.63826" lon="2.05864">
        <ele>173</ele>
        <time>2025-03-19T20:26:17.816Z</time>
      </trkpt>
      <trkpt lat="48.63831" lon="2.05871">
        <ele>173</ele>
        <time>2025-03-19T20:26:22.392Z</time>
      </trkpt>
      <trkpt lat="48.63837" lon="2.05879">
        <ele>173</ele>
        <time>2025-03-19T20:26:27.615Z</time>
      </trkpt>
      <trkpt lat="48.63844" lon="2.05886">
        <ele>173</ele>
        <time>2025-03-19T20:26:32.838Z</time>
      </trkpt>
      <trkpt lat="48.6385" lon="2.05894">
        <ele>173</ele>
        <time>2025-03-19T20:26:38.061Z</time>
      </trkpt>
      <trkpt lat="48.63856" lon="2.05901">
        <ele>173</ele>
        <time>2025-03-19T20:26:43.285Z</time>
      </trkpt>
      <trkpt lat="48.63862" lon="2.05909">
        <ele>173</ele>
        <time>2025-03-19T20:26:48.509Z</time>
      </trkpt>
      <trkpt lat="48.63869" lon="2.05916">
        <ele>173</ele>
        <time>2025-03-19T20:26:53.733Z</time>
      </trkpt>
      <trkpt lat="48.63875" lon="2.05924">
        <ele>173</ele>
        <time>2025-03-19T20:26:58.957Z</time>
      </trkpt>
      <trkpt lat="48.63881" lon="2.05931">
        <ele>173</ele>
        <time>2025-03-19T20:27:04.181Z</time>
      </trkpt>
      <trkpt lat="48.63887" lon="2.05936">
        <ele>173</ele>
        <time>2025-03-19T20:27:08.568Z</time>
      </trkpt>
      <trkpt lat="48.63893" lon="2.05941">
        <ele>173</ele>
        <time>2025-03-19T20:27:12.955Z</time>
      </trkpt>
      <trkpt lat="48.63899" lon="2.05946">
        <ele>173</ele>
        <time>2025-03-19T20:27:17.342Z</time>
      </trkpt>
      <trkpt lat="48.63905" lon="2.05951">
        <ele>173</ele>
        <time>2025-03-19T20:27:21.730Z</time>
      </trkpt>
      <trkpt lat="48.6391" lon="2.05955">
        <ele>173</ele>
        <time>2025-03-19T20:27:26.118Z</time>
      </trkpt>
      <trkpt lat="48.63916" lon="2.0596">
        <ele>173</ele>
        <time>2025-03-19T20:27:30.506Z</time>
      </trkpt>
      <trkpt lat="48.63922" lon="2.05965">
        <ele>173</ele>
        <time>2025-03-19T20:27:34.894Z</time>
      </trkpt>
      <trkpt lat="48.63928" lon="2.0597">
        <ele>173</ele>
        <time>2025-03-19T20:27:39.282Z</time>
      </trkpt>
      <trkpt lat="48.63934" lon="2.05975">
        <ele>173</ele>
        <time>2025-03-19T20:27:43.670Z</time>
      </trkpt>
      <trkpt lat="48.6394" lon="2.0598">
        <ele>173</ele>
        <time>2025-03-19T20:27:48.058Z</time>
      </trkpt>
      <trkpt lat="48.63946" lon="2.05985">
        <ele>173</ele>
        <time>2025-03-19T20:27:52.446Z</time>
      </trkpt>
      <trkpt lat="48.63952" lon="2.0599">
        <ele>173</ele>
        <time>2025-03-19T20:27:56.834Z</time>
      </trkpt>
      <trkpt lat="48.63957" lon="2.05994">
        <ele>173</ele>
        <time>2025-03-19T20:28:01.222Z</time>
      </trkpt>
      <trkpt lat="48.63963" lon="2.05999">
        <ele>173</ele>
        <time>2025-03-19T20:28:05.610Z</time>
      </trkpt>
      <trkpt lat="48.63969" lon="2.06004">
        <ele>173</ele>
        <time>2025-03-19T20:28:09.998Z</time>
      </trkpt>
      <trkpt lat="48.63975" lon="2.06009">
        <ele>173</ele>
        <time>2025-03-19T20:28:14.386Z</time>
      </trkpt>
      <trkpt lat="48.63982" lon="2.06015">
        <ele>173</ele>
        <time>2025-03-19T20:28:19.343Z</time>
      </trkpt>
      <trkpt lat="48.63989" lon="2.0602">
        <ele>173</ele>
        <time>2025-03-19T20:28:24.301Z</time>
      </trkpt>
      <trkpt lat="48.63995" lon="2.06026">
        <ele>173</ele>
        <time>2025-03-19T20:28:29.259Z</time>
      </trkpt>
      <trkpt lat="48.64002" lon="2.06031">
        <ele>173</ele>
        <time>2025-03-19T20:28:34.217Z</time>
      </trkpt>
      <trkpt lat="48.64009" lon="2.06037">
        <ele>173</ele>
        <time>2025-03-19T20:28:39.175Z</time>
      </trkpt>
      <trkpt lat="48.64016" lon="2.06042">
        <ele>173</ele>
        <time>2025-03-19T20:28:44.133Z</time>
      </trkpt>
      <trkpt lat="48.64022" lon="2.06048">
        <ele>173</ele>
        <time>2025-03-19T20:28:49.091Z</time>
      </trkpt>
      <trkpt lat="48.64029" lon="2.06053">
        <ele>173</ele>
        <time>2025-03-19T20:28:54.049Z</time>
      </trkpt>
      <trkpt lat="48.64036" lon="2.06059">
        <ele>173</ele>
        <time>2025-03-19T20:28:59.007Z</time>
      </trkpt>
      <trkpt lat="48.64043" lon="2.06064">
        <ele>173</ele>
        <time>2025-03-19T20:29:03.965Z</time>
      </trkpt>
      <trkpt lat="48.64049" lon="2.0607">
        <ele>173</ele>
        <time>2025-03-19T20:29:08.923Z</time>
      </trkpt>
      <trkpt lat="48.64056" lon="2.06075">
        <ele>173</ele>
        <time>2025-03-19T20:29:13.881Z</time>
      </trkpt>
      <trkpt lat="48.64063" lon="2.06081">
        <ele>173</ele>
        <time>2025-03-19T20:29:18.839Z</time>
      </trkpt>
      <trkpt lat="48.6407" lon="2.06086">
        <ele>173</ele>
        <time>2025-03-19T20:29:23.797Z</time>
      </trkpt>
      <trkpt lat="48.64076" lon="2.06092">
        <ele>172.8</ele>
        <time>2025-03-19T20:29:28.755Z</time>
      </trkpt>
      <trkpt lat="48.64083" lon="2.06097">
        <ele>172.5</ele>
        <time>2025-03-19T20:29:33.713Z</time>
      </trkpt>
      <trkpt lat="48.64088" lon="2.06101">
        <ele>172</ele>
        <time>2025-03-19T20:29:37.201Z</time>
      </trkpt>
      <trkpt lat="48.64093" lon="2.06106">
        <ele>171.5</ele>
        <time>2025-03-19T20:29:40.689Z</time>
      </trkpt>
      <trkpt lat="48.64098" lon="2.0611">
        <ele>171</ele>
        <time>2025-03-19T20:29:44.177Z</time>
      </trkpt>
      <trkpt lat="48.64103" lon="2.06114">
        <ele>170.7</ele>
        <time>2025-03-19T20:29:47.665Z</time>
      </trkpt>
      <trkpt lat="48.64108" lon="2.06119">
        <ele>170.5</ele>
        <time>2025-03-19T20:29:51.153Z</time>
      </trkpt>
      <trkpt lat="48.64113" lon="2.06123">
        <ele>170.2</ele>
        <time>2025-03-19T20:29:54.641Z</time>
      </trkpt>
      <trkpt lat="48.64118" lon="2.06127">
        <ele>169.8</ele>
        <time>2025-03-19T20:29:58.129Z</time>
      </trkpt>
      <trkpt lat="48.64123" lon="2.06132">
        <ele>169.4</ele>
        <time>2025-03-19T20:30:01.617Z</time>
      </trkpt>
      <trkpt lat="48.64128" lon="2.06136">
        <ele>169.1</ele>
        <time>2025-03-19T20:30:05.105Z</time>
      </trkpt>
      <trkpt lat="48.64133" lon="2.0614">
        <ele>168.7</ele>
        <time>2025-03-19T20:30:08.593Z</time>
      </trkpt>
      <trkpt lat="48.64138" lon="2.06144">
        <ele>168.5</ele>
        <time>2025-03-19T20:30:12.081Z</time>
      </trkpt>
      <trkpt lat="48.64143" lon="2.06149">
        <ele>168.4</ele>
        <time>2025-03-19T20:30:15.569Z</time>
      </trkpt>
      <trkpt lat="48.64148" lon="2.06153">
        <ele>168.2</ele>
        <time>2025-03-19T20:30:19.057Z</time>
      </trkpt>
      <trkpt lat="48.64153" lon="2.06157">
        <ele>168</ele>
        <time>2025-03-19T20:30:22.545Z</time>
      </trkpt>
      <trkpt lat="48.64158" lon="2.06162">
        <ele>167.7</ele>
        <time>2025-03-19T20:30:26.033Z</time>
      </trkpt>
      <trkpt lat="48.64163" lon="2.06166">
        <ele>167.4</ele>
        <time>2025-03-19T20:30:29.521Z</time>
      </trkpt>
      <trkpt lat="48.64168" lon="2.0617">
        <ele>167.3</ele>
        <time>2025-03-19T20:30:33.009Z</time>
      </trkpt>
      <trkpt lat="48.64173" lon="2.06175">
        <ele>167.5</ele>
        <time>2025-03-19T20:30:36.497Z</time>
      </trkpt>
      <trkpt lat="48.64178" lon="2.06179">
        <ele>167.6</ele>
        <time>2025-03-19T20:30:39.985Z</time>
      </trkpt>
      <trkpt lat="48.64183" lon="2.06183">
        <ele>167.5</ele>
        <time>2025-03-19T20:30:43.473Z</time>
      </trkpt>
      <trkpt lat="48.64188" lon="2.06188">
        <ele>167.3</ele>
        <time>2025-03-19T20:30:46.961Z</time>
      </trkpt>
      <trkpt lat="48.64193" lon="2.06192">
        <ele>167.1</ele>
        <time>2025-03-19T20:30:50.449Z</time>
      </trkpt>
      <trkpt lat="48.64198" lon="2.06196">
        <ele>167.1</ele>
        <time>2025-03-19T20:30:53.938Z</time>
      </trkpt>
      <trkpt lat="48.64203" lon="2.06201">
        <ele>167.3</ele>
        <time>2025-03-19T20:30:57.427Z</time>
      </trkpt>
      <trkpt lat="48.64208" lon="2.06205">
        <ele>167.4</ele>
        <time>2025-03-19T20:31:00.916Z</time>
      </trkpt>
      <trkpt lat="48.64213" lon="2.06209">
        <ele>167.6</ele>
        <time>2025-03-19T20:31:04.405Z</time>
      </trkpt>
      <trkpt lat="48.64218" lon="2.06213">
        <ele>167.6</ele>
        <time>2025-03-19T20:31:07.894Z</time>
      </trkpt>
      <trkpt lat="48.64223" lon="2.06218">
        <ele>167.7</ele>
        <time>2025-03-19T20:31:11.383Z</time>
      </trkpt>
      <trkpt lat="48.64228" lon="2.06222">
        <ele>167.8</ele>
        <time>2025-03-19T20:31:14.872Z</time>
      </trkpt>
      <trkpt lat="48.64233" lon="2.06226">
        <ele>167.9</ele>
        <time>2025-03-19T20:31:18.361Z</time>
      </trkpt>
      <trkpt lat="48.64238" lon="2.06231">
        <ele>167.9</ele>
        <time>2025-03-19T20:31:21.850Z</time>
      </trkpt>
      <trkpt lat="48.64243" lon="2.06235">
        <ele>167.8</ele>
        <time>2025-03-19T20:31:25.339Z</time>
      </trkpt>
      <trkpt lat="48.64248" lon="2.06239">
        <ele>167.7</ele>
        <time>2025-03-19T20:31:29.067Z</time>
      </trkpt>
      <trkpt lat="48.64254" lon="2.06243">
        <ele>167.8</ele>
        <time>2025-03-19T20:31:32.795Z</time>
      </trkpt>
      <trkpt lat="48.64259" lon="2.06248">
        <ele>167.9</ele>
        <time>2025-03-19T20:31:36.523Z</time>
      </trkpt>
      <trkpt lat="48.64264" lon="2.06252">
        <ele>168.1</ele>
        <time>2025-03-19T20:31:40.251Z</time>
      </trkpt>
      <trkpt lat="48.6427" lon="2.06256">
        <ele>168.1</ele>
        <time>2025-03-19T20:31:43.979Z</time>
      </trkpt>
      <trkpt lat="48.64275" lon="2.0626">
        <ele>168.1</ele>
        <time>2025-03-19T20:31:47.707Z</time>
      </trkpt>
      <trkpt lat="48.6428" lon="2.06264">
        <ele>167.9</ele>
        <time>2025-03-19T20:31:51.435Z</time>
      </trkpt>
      <trkpt lat="48.64286" lon="2.06269">
        <ele>167.6</ele>
        <time>2025-03-19T20:31:55.163Z</time>
      </trkpt>
      <trkpt lat="48.64291" lon="2.06273">
        <ele>167.4</ele>
        <time>2025-03-19T20:31:58.891Z</time>
      </trkpt>
      <trkpt lat="48.64296" lon="2.06277">
        <ele>167.3</ele>
        <time>2025-03-19T20:32:02.619Z</time>
      </trkpt>
      <trkpt lat="48.64301" lon="2.06281">
        <ele>167.2</ele>
        <time>2025-03-19T20:32:06.347Z</time>
      </trkpt>
      <trkpt lat="48.64307" lon="2.06285">
        <ele>167</ele>
        <time>2025-03-19T20:32:10.075Z</time>
      </trkpt>
      <trkpt lat="48.64312" lon="2.06289">
        <ele>166.8</ele>
        <time>2025-03-19T20:32:13.803Z</time>
      </trkpt>
      <trkpt lat="48.64317" lon="2.06294">
        <ele>166.6</ele>
        <time>2025-03-19T20:32:17.531Z</time>
      </trkpt>
      <trkpt lat="48.64323" lon="2.06298">
        <ele>166.4</ele>
        <time>2025-03-19T20:32:21.259Z</time>
      </trkpt>
      <trkpt lat="48.64328" lon="2.06302">
        <ele>166.2</ele>
        <time>2025-03-19T20:32:24.988Z</time>
      </trkpt>
      <trkpt lat="48.64334" lon="2.06309">
        <ele>166</ele>
        <time>2025-03-19T20:32:29.528Z</time>
      </trkpt>
      <trkpt lat="48.64341" lon="2.06315">
        <ele>165.7</ele>
        <time>2025-03-19T20:32:34.068Z</time>
      </trkpt>
      <trkpt lat="48.64347" lon="2.06322">
        <ele>165.5</ele>
        <time>2025-03-19T20:32:38.608Z</time>
      </trkpt>
      <trkpt lat="48.64353" lon="2.06328">
        <ele>165.3</ele>
        <time>2025-03-19T20:32:43.148Z</time>
      </trkpt>
      <trkpt lat="48.64359" lon="2.06335">
        <ele>165.1</ele>
        <time>2025-03-19T20:32:47.688Z</time>
      </trkpt>
      <trkpt lat="48.64366" lon="2.06341">
        <ele>164.8</ele>
        <time>2025-03-19T20:32:52.228Z</time>
      </trkpt>
      <trkpt lat="48.64372" lon="2.06348">
        <ele>164.6</ele>
        <time>2025-03-19T20:32:56.769Z</time>
      </trkpt>
      <trkpt lat="48.64378" lon="2.06354">
        <ele>164.4</ele>
        <time>2025-03-19T20:33:01.310Z</time>
      </trkpt>
      <trkpt lat="48.64384" lon="2.06359">
        <ele>164.2</ele>
        <time>2025-03-19T20:33:05.232Z</time>
      </trkpt>
      <trkpt lat="48.6439" lon="2.06364">
        <ele>164</ele>
        <time>2025-03-19T20:33:09.154Z</time>
      </trkpt>
      <trkpt lat="48.64396" lon="2.06368">
        <ele>163.7</ele>
        <time>2025-03-19T20:33:13.076Z</time>
      </trkpt>
      <trkpt lat="48.64402" lon="2.06373">
        <ele>163.5</ele>
        <time>2025-03-19T20:33:16.998Z</time>
      </trkpt>
      <trkpt lat="48.64408" lon="2.06378">
        <ele>163.3</ele>
        <time>2025-03-19T20:33:20.920Z</time>
      </trkpt>
      <trkpt lat="48.64414" lon="2.06383">
        <ele>163.1</ele>
        <time>2025-03-19T20:33:24.843Z</time>
      </trkpt>
      <trkpt lat="48.6442" lon="2.06388">
        <ele>162.7</ele>
        <time>2025-03-19T20:33:28.766Z</time>
      </trkpt>
      <trkpt lat="48.64427" lon="2.06393">
        <ele>162.3</ele>
        <time>2025-03-19T20:33:32.689Z</time>
      </trkpt>
      <trkpt lat="48.64433" lon="2.06397">
        <ele>161.9</ele>
        <time>2025-03-19T20:33:36.612Z</time>
      </trkpt>
      <trkpt lat="48.64439" lon="2.06402">
        <ele>161.4</ele>
        <time>2025-03-19T20:33:40.535Z</time>
      </trkpt>
      <trkpt lat="48.64445" lon="2.06407">
        <ele>161</ele>
        <time>2025-03-19T20:33:44.458Z</time>
      </trkpt>
      <trkpt lat="48.64451" lon="2.06412">
        <ele>160.5</ele>
        <time>2025-03-19T20:33:48.381Z</time>
      </trkpt>
      <trkpt lat="48.64457" lon="2.06417">
        <ele>160.1</ele>
        <time>2025-03-19T20:33:52.304Z</time>
      </trkpt>
      <trkpt lat="48.64463" lon="2.06421">
        <ele>159.6</ele>
        <time>2025-03-19T20:33:56.227Z</time>
      </trkpt>
      <trkpt lat="48.64469" lon="2.06426">
        <ele>158.9</ele>
        <time>2025-03-19T20:34:00.150Z</time>
      </trkpt>
      <trkpt lat="48.64475" lon="2.06431">
        <ele>158.3</ele>
        <time>2025-03-19T20:34:04.073Z</time>
      </trkpt>
      <trkpt lat="48.64481" lon="2.06424">
        <ele>158.1</ele>
        <time>2025-03-19T20:34:08.653Z</time>
      </trkpt>
      <trkpt lat="48.64486" lon="2.06425">
        <ele>157.7</ele>
        <time>2025-03-19T20:34:11.543Z</time>
      </trkpt>
      <trkpt lat="48.64486" lon="2.06425">
        <ele>157.7</ele>
        <time>2025-03-19T20:34:11.543Z</time>
      </trkpt>
      <trkpt lat="48.64485" lon="2.06435">
        <ele>157.4</ele>
        <time>2025-03-19T20:34:15.497Z</time>
      </trkpt>
      <trkpt lat="48.64485" lon="2.06445">
        <ele>157.1</ele>
        <time>2025-03-19T20:34:19.451Z</time>
      </trkpt>
      <trkpt lat="48.64484" lon="2.06455">
        <ele>156.8</ele>
        <time>2025-03-19T20:34:23.405Z</time>
      </trkpt>
      <trkpt lat="48.64483" lon="2.06465">
        <ele>156.5</ele>
        <time>2025-03-19T20:34:27.359Z</time>
      </trkpt>
      <trkpt lat="48.64482" lon="2.06475">
        <ele>156.2</ele>
        <time>2025-03-19T20:34:31.313Z</time>
      </trkpt>
      <trkpt lat="48.64482" lon="2.06485">
        <ele>156.2</ele>
        <time>2025-03-19T20:34:35.267Z</time>
      </trkpt>
      <trkpt lat="48.64481" lon="2.06495">
        <ele>156.1</ele>
        <time>2025-03-19T20:34:39.221Z</time>
      </trkpt>
      <trkpt lat="48.6448" lon="2.06505">
        <ele>156</ele>
        <time>2025-03-19T20:34:43.177Z</time>
      </trkpt>
      <trkpt lat="48.64479" lon="2.06512">
        <ele>155.9</ele>
        <time>2025-03-19T20:34:46.129Z</time>
      </trkpt>
      <trkpt lat="48.64479" lon="2.06519">
        <ele>155.8</ele>
        <time>2025-03-19T20:34:49.082Z</time>
      </trkpt>
      <trkpt lat="48.64478" lon="2.06526">
        <ele>155.6</ele>
        <time>2025-03-19T20:34:52.035Z</time>
      </trkpt>
      <trkpt lat="48.64478" lon="2.06533">
        <ele>155.7</ele>
        <time>2025-03-19T20:34:54.988Z</time>
      </trkpt>
      <trkpt lat="48.64477" lon="2.06539">
        <ele>155.7</ele>
        <time>2025-03-19T20:34:57.941Z</time>
      </trkpt>
      <trkpt lat="48.64476" lon="2.06546">
        <ele>155.8</ele>
        <time>2025-03-19T20:35:00.894Z</time>
      </trkpt>
      <trkpt lat="48.64476" lon="2.06553">
        <ele>155.9</ele>
        <time>2025-03-19T20:35:03.847Z</time>
      </trkpt>
      <trkpt lat="48.64475" lon="2.0656">
        <ele>155.8</ele>
        <time>2025-03-19T20:35:06.801Z</time>
      </trkpt>
      <trkpt lat="48.64474" lon="2.06572">
        <ele>155.4</ele>
        <time>2025-03-19T20:35:11.850Z</time>
      </trkpt>
      <trkpt lat="48.64473" lon="2.06585">
        <ele>155</ele>
        <time>2025-03-19T20:35:16.900Z</time>
      </trkpt>
      <trkpt lat="48.64472" lon="2.06597">
        <ele>155</ele>
        <time>2025-03-19T20:35:21.950Z</time>
      </trkpt>
      <trkpt lat="48.64471" lon="2.06609">
        <ele>155.2</ele>
        <time>2025-03-19T20:35:27.001Z</time>
      </trkpt>
      <trkpt lat="48.64471" lon="2.06618">
        <ele>155.2</ele>
        <time>2025-03-19T20:35:30.796Z</time>
      </trkpt>
      <trkpt lat="48.6447" lon="2.06626">
        <ele>155.3</ele>
        <time>2025-03-19T20:35:34.592Z</time>
      </trkpt>
      <trkpt lat="48.64469" lon="2.06636">
        <ele>155.4</ele>
        <time>2025-03-19T20:35:38.962Z</time>
      </trkpt>
      <trkpt lat="48.64468" lon="2.06645">
        <ele>155.5</ele>
        <time>2025-03-19T20:35:43.333Z</time>
      </trkpt>
      <trkpt lat="48.64467" lon="2.06655">
        <ele>155.6</ele>
        <time>2025-03-19T20:35:47.704Z</time>
      </trkpt>
      <trkpt lat="48.64466" lon="2.06664">
        <ele>155.7</ele>
        <time>2025-03-19T20:35:52.076Z</time>
      </trkpt>
      <trkpt lat="48.64466" lon="2.06664">
        <ele>155.7</ele>
        <time>2025-03-19T20:35:52.076Z</time>
        <extensions>
          <visugpx:TrkExtension xmlns:visugpx="https://www.visugpx.com/editgpx/">
            <visugpx:node>23</visugpx:node>
            </visugpx:TrkExtension>
        </extensions>
      </trkpt>
      <trkpt lat="48.64466" lon="2.06664">
        <ele>155.7</ele>
        <time>2025-03-19T20:35:52.076Z</time>
      </trkpt>
      <trkpt lat="48.64465" lon="2.06673">
        <ele>155.7</ele>
        <time>2025-03-19T20:35:55.855Z</time>
      </trkpt>
      <trkpt lat="48.64465" lon="2.06681">
        <ele>155.8</ele>
        <time>2025-03-19T20:35:59.634Z</time>
      </trkpt>
      <trkpt lat="48.64464" lon="2.0669">
        <ele>155.9</ele>
        <time>2025-03-19T20:36:03.413Z</time>
      </trkpt>
      <trkpt lat="48.64464" lon="2.06699">
        <ele>155.9</ele>
        <time>2025-03-19T20:36:07.192Z</time>
      </trkpt>
      <trkpt lat="48.64463" lon="2.06707">
        <ele>155.9</ele>
        <time>2025-03-19T20:36:10.972Z</time>
      </trkpt>
      <trkpt lat="48.64462" lon="2.06716">
        <ele>155.8</ele>
        <time>2025-03-19T20:36:14.752Z</time>
      </trkpt>
      <trkpt lat="48.64462" lon="2.06724">
        <ele>155.8</ele>
        <time>2025-03-19T20:36:18.532Z</time>
      </trkpt>
      <trkpt lat="48.64461" lon="2.06733">
        <ele>155.8</ele>
        <time>2025-03-19T20:36:22.313Z</time>
      </trkpt>
      <trkpt lat="48.6446" lon="2.0674">
        <ele>155.9</ele>
        <time>2025-03-19T20:36:25.623Z</time>
      </trkpt>
      <trkpt lat="48.6446" lon="2.0674">
        <ele>155.9</ele>
        <time>2025-03-19T20:36:25.623Z</time>
        <extensions>
          <visugpx:TrkExtension xmlns:visugpx="https://www.visugpx.com/editgpx/">
            <visugpx:node>24</visugpx:node>
            </visugpx:TrkExtension>
        </extensions>
      </trkpt>
      <trkpt lat="48.6446" lon="2.0674">
        <ele>155.9</ele>
        <time>2025-03-19T20:36:25.623Z</time>
      </trkpt>
      <trkpt lat="48.6446" lon="2.06749">
        <ele>155.9</ele>
        <time>2025-03-19T20:36:29.121Z</time>
      </trkpt>
      <trkpt lat="48.64459" lon="2.06757">
        <ele>155.7</ele>
        <time>2025-03-19T20:36:32.620Z</time>
      </trkpt>
      <trkpt lat="48.64459" lon="2.06764">
        <ele>155.5</ele>
        <time>2025-03-19T20:36:35.490Z</time>
      </trkpt>
      <trkpt lat="48.64458" lon="2.06772">
        <ele>155.3</ele>
        <time>2025-03-19T20:36:38.360Z</time>
      </trkpt>
      <trkpt lat="48.64458" lon="2.06779">
        <ele>155.1</ele>
        <time>2025-03-19T20:36:41.231Z</time>
      </trkpt>
      <trkpt lat="48.64457" lon="2.06786">
        <ele>155.1</ele>
        <time>2025-03-19T20:36:44.103Z</time>
      </trkpt>
      <trkpt lat="48.64457" lon="2.06786">
        <ele>155.1</ele>
        <time>2025-03-19T20:36:44.103Z</time>
      </trkpt>
      <trkpt lat="48.64457" lon="2.06786">
        <ele>155.1</ele>
        <time>2025-03-19T20:36:44.103Z</time>
        <extensions>
          <visugpx:TrkExtension xmlns:visugpx="https://www.visugpx.com/editgpx/">
            <visugpx:node>25</visugpx:node>
            </visugpx:TrkExtension>
        </extensions>
      </trkpt>
      <trkpt lat="48.64457" lon="2.06786">
        <ele>155.1</ele>
        <time>2025-03-19T20:36:44.103Z</time>
      </trkpt>
      <trkpt lat="48.64457" lon="2.06794">
        <ele>155.1</ele>
        <time>2025-03-19T20:36:47.682Z</time>
      </trkpt>
      <trkpt lat="48.64456" lon="2.06802">
        <ele>155.2</ele>
        <time>2025-03-19T20:36:51.263Z</time>
      </trkpt>
      <trkpt lat="48.64455" lon="2.06811">
        <ele>155.1</ele>
        <time>2025-03-19T20:36:55.035Z</time>
      </trkpt>
      <trkpt lat="48.64455" lon="2.06821">
        <ele>155.1</ele>
        <time>2025-03-19T20:36:58.807Z</time>
      </trkpt>
      <trkpt lat="48.64454" lon="2.0683">
        <ele>155</ele>
        <time>2025-03-19T20:37:02.579Z</time>
      </trkpt>
      <trkpt lat="48.64453" lon="2.06839">
        <ele>154.9</ele>
        <time>2025-03-19T20:37:06.351Z</time>
      </trkpt>
      <trkpt lat="48.64452" lon="2.06849">
        <ele>154.8</ele>
        <time>2025-03-19T20:37:10.123Z</time>
      </trkpt>
      <trkpt lat="48.64452" lon="2.06858">
        <ele>154.6</ele>
        <time>2025-03-19T20:37:13.895Z</time>
      </trkpt>
      <trkpt lat="48.64451" lon="2.06867">
        <ele>154.3</ele>
        <time>2025-03-19T20:37:17.667Z</time>
      </trkpt>
      <trkpt lat="48.6445" lon="2.06877">
        <ele>154</ele>
        <time>2025-03-19T20:37:21.439Z</time>
      </trkpt>
      <trkpt lat="48.64449" lon="2.06886">
        <ele>153.8</ele>
        <time>2025-03-19T20:37:25.211Z</time>
      </trkpt>
      <trkpt lat="48.64449" lon="2.06895">
        <ele>153.7</ele>
        <time>2025-03-19T20:37:28.983Z</time>
      </trkpt>
      <trkpt lat="48.64448" lon="2.06904">
        <ele>153.8</ele>
        <time>2025-03-19T20:37:32.755Z</time>
      </trkpt>
      <trkpt lat="48.64447" lon="2.06914">
        <ele>153.8</ele>
        <time>2025-03-19T20:37:36.527Z</time>
      </trkpt>
      <trkpt lat="48.64446" lon="2.06923">
        <ele>153.6</ele>
        <time>2025-03-19T20:37:40.299Z</time>
      </trkpt>
      <trkpt lat="48.64446" lon="2.06932">
        <ele>153.4</ele>
        <time>2025-03-19T20:37:44.071Z</time>
      </trkpt>
      <trkpt lat="48.64445" lon="2.06942">
        <ele>153.1</ele>
        <time>2025-03-19T20:37:47.843Z</time>
      </trkpt>
      <trkpt lat="48.64444" lon="2.06951">
        <ele>152.8</ele>
        <time>2025-03-19T20:37:51.616Z</time>
      </trkpt>
      <trkpt lat="48.64437" lon="2.06951">
        <ele>153.6</ele>
        <time>2025-03-19T20:37:58.765Z</time>
      </trkpt>
      <trkpt lat="48.64429" lon="2.0695">
        <ele>154.5</ele>
        <time>2025-03-19T20:38:05.914Z</time>
      </trkpt>
      <trkpt lat="48.64422" lon="2.06957">
        <ele>155</ele>
        <time>2025-03-19T20:38:12.721Z</time>
      </trkpt>
      <trkpt lat="48.64414" lon="2.06963">
        <ele>155.5</ele>
        <time>2025-03-19T20:38:19.529Z</time>
      </trkpt>
      <trkpt lat="48.64412" lon="2.06974">
        <ele>155.3</ele>
        <time>2025-03-19T20:38:24.421Z</time>
      </trkpt>
      <trkpt lat="48.64409" lon="2.06986">
        <ele>155.2</ele>
        <time>2025-03-19T20:38:29.313Z</time>
      </trkpt>
      <trkpt lat="48.64407" lon="2.06997">
        <ele>155.2</ele>
        <time>2025-03-19T20:38:34.205Z</time>
      </trkpt>
      <trkpt lat="48.64404" lon="2.07008">
        <ele>155.1</ele>
        <time>2025-03-19T20:38:39.097Z</time>
      </trkpt>
      <trkpt lat="48.64402" lon="2.07019">
        <ele>154.9</ele>
        <time>2025-03-19T20:38:43.989Z</time>
      </trkpt>
      <trkpt lat="48.64399" lon="2.07031">
        <ele>154.8</ele>
        <time>2025-03-19T20:38:48.881Z</time>
      </trkpt>
      <trkpt lat="48.64397" lon="2.07042">
        <ele>154.7</ele>
        <time>2025-03-19T20:38:53.773Z</time>
      </trkpt>
      <trkpt lat="48.64394" lon="2.07053">
        <ele>154.5</ele>
        <time>2025-03-19T20:38:58.667Z</time>
      </trkpt>
      <trkpt lat="48.64389" lon="2.07057">
        <ele>155</ele>
        <time>2025-03-19T20:39:02.831Z</time>
      </trkpt>
      <trkpt lat="48.64384" lon="2.0706">
        <ele>155</ele>
        <time>2025-03-19T20:39:06.997Z</time>
      </trkpt>
      <trkpt lat="48.64382" lon="2.07069">
        <ele>154.9</ele>
        <time>2025-03-19T20:39:10.762Z</time>
      </trkpt>
      <trkpt lat="48.6438" lon="2.07078">
        <ele>154.8</ele>
        <time>2025-03-19T20:39:14.527Z</time>
      </trkpt>
      <trkpt lat="48.64378" lon="2.07086">
        <ele>154.7</ele>
        <time>2025-03-19T20:39:18.292Z</time>
      </trkpt>
      <trkpt lat="48.64376" lon="2.07095">
        <ele>154.5</ele>
        <time>2025-03-19T20:39:22.058Z</time>
      </trkpt>
      <trkpt lat="48.64374" lon="2.07097">
        <ele>154.6</ele>
        <time>2025-03-19T20:39:23.849Z</time>
      </trkpt>
      <trkpt lat="48.64367" lon="2.07094">
        <ele>155.2</ele>
        <time>2025-03-19T20:39:30.371Z</time>
      </trkpt>
      <trkpt lat="48.64359" lon="2.07091">
        <ele>155.8</ele>
        <time>2025-03-19T20:39:36.894Z</time>
      </trkpt>
      <trkpt lat="48.64352" lon="2.0709">
        <ele>156.2</ele>
        <time>2025-03-19T20:39:42.415Z</time>
      </trkpt>
      <trkpt lat="48.6435" lon="2.07083">
        <ele>156.4</ele>
        <time>2025-03-19T20:39:46.296Z</time>
      </trkpt>
      <trkpt lat="48.64347" lon="2.07076">
        <ele>156.6</ele>
        <time>2025-03-19T20:39:50.178Z</time>
      </trkpt>
      <trkpt lat="48.64343" lon="2.07071">
        <ele>156.9</ele>
        <time>2025-03-19T20:39:54.265Z</time>
      </trkpt>
      <trkpt lat="48.64338" lon="2.07069">
        <ele>157.3</ele>
        <time>2025-03-19T20:39:58.915Z</time>
      </trkpt>
      <trkpt lat="48.64332" lon="2.07067">
        <ele>157.7</ele>
        <time>2025-03-19T20:40:03.567Z</time>
      </trkpt>
      <trkpt lat="48.64326" lon="2.07068">
        <ele>157.9</ele>
        <time>2025-03-19T20:40:08.072Z</time>
      </trkpt>
      <trkpt lat="48.6432" lon="2.07069">
        <ele>158.2</ele>
        <time>2025-03-19T20:40:12.578Z</time>
      </trkpt>
      <trkpt lat="48.64316" lon="2.07072">
        <ele>158.4</ele>
        <time>2025-03-19T20:40:16.283Z</time>
      </trkpt>
      <trkpt lat="48.64311" lon="2.07074">
        <ele>158.7</ele>
        <time>2025-03-19T20:40:19.989Z</time>
      </trkpt>
      <trkpt lat="48.64308" lon="2.07079">
        <ele>158.9</ele>
        <time>2025-03-19T20:40:23.582Z</time>
      </trkpt>
      <trkpt lat="48.64304" lon="2.07084">
        <ele>159.1</ele>
        <time>2025-03-19T20:40:27.177Z</time>
      </trkpt>
      <trkpt lat="48.643" lon="2.07086">
        <ele>159.4</ele>
        <time>2025-03-19T20:40:30.828Z</time>
      </trkpt>
      <trkpt lat="48.64295" lon="2.07087">
        <ele>159.6</ele>
        <time>2025-03-19T20:40:34.479Z</time>
      </trkpt>
      <trkpt lat="48.64291" lon="2.07089">
        <ele>159.9</ele>
        <time>2025-03-19T20:40:38.131Z</time>
      </trkpt>
      <trkpt lat="48.64286" lon="2.0709">
        <ele>160.2</ele>
        <time>2025-03-19T20:40:41.784Z</time>
      </trkpt>
      <trkpt lat="48.64278" lon="2.07089">
        <ele>160.8</ele>
        <time>2025-03-19T20:40:48.474Z</time>
      </trkpt>
      <trkpt lat="48.64274" lon="2.07087">
        <ele>161</ele>
        <time>2025-03-19T20:40:52.113Z</time>
      </trkpt>
      <trkpt lat="48.64269" lon="2.07085">
        <ele>161.3</ele>
        <time>2025-03-19T20:40:55.753Z</time>
      </trkpt>
      <trkpt lat="48.64263" lon="2.07077">
        <ele>161.5</ele>
        <time>2025-03-19T20:41:01.777Z</time>
      </trkpt>
    </trkseg>
  </trk>
</gpx>